<?xml version='1.0' encoding='UTF-8'?><gpx version="1.1" creator="JPX - https://github.com/jenetics/jpx" xmlns="http://www.topografix.com/GPX/1/1"><trk><trkseg><trkpt lat="44.942821736768366" lon="9.42037385896621"><ele>201.0</ele><time>2026-04-26T06:49:17.999Z</time></trkpt><trkpt lat="44.94290657618103" lon="9.420364535319639"><ele>201.0</ele><time>2026-04-26T06:50:18.998Z</time></trkpt><trkpt lat="44.94296452774117" lon="9.420413699001742"><ele>201.0</ele><time>2026-04-26T06:50:20.998Z</time></trkpt><trkpt lat="44.94307024623677" lon="9.420458522422997"><ele>201.0</ele><time>2026-04-26T06:50:23.998Z</time></trkpt><trkpt lat="44.94317212204805" lon="9.420493696845957"><ele>201.0</ele><time>2026-04-26T06:50:25.998Z</time></trkpt><trkpt lat="44.94324671019313" lon="9.420506728815718"><ele>201.0</ele><time>2026-04-26T06:50:27.998Z</time></trkpt><trkpt lat="44.94329137578069" lon="9.420585970220536"><ele>201.83333333333334</ele><time>2026-04-26T06:50:39Z</time></trkpt><trkpt lat="44.94330644527515" lon="9.42071503122371"><ele>202.66666666666669</ele><time>2026-04-26T06:50:41Z</time></trkpt><trkpt lat="44.94333696768185" lon="9.420878011307932"><ele>203.5</ele><time>2026-04-26T06:50:43Z</time></trkpt><trkpt lat="44.94335000178561" lon="9.420994959839055"><ele>204.33333333333334</ele><time>2026-04-26T06:50:46Z</time></trkpt><trkpt lat="44.94335222939681" lon="9.421106570497347"><ele>205.16666666666669</ele><time>2026-04-26T06:50:48Z</time></trkpt><trkpt lat="44.94337429371304" lon="9.421192200222045"><ele>206.0</ele><time>2026-04-26T06:50:49Z</time></trkpt><trkpt lat="44.94345013173637" lon="9.421287116155154"><ele>204.16666666666669</ele><time>2026-04-26T06:50:51Z</time></trkpt><trkpt lat="44.943528814506934" lon="9.421326407938317"><ele>202.33333333333334</ele><time>2026-04-26T06:50:52Z</time></trkpt><trkpt lat="44.943590133618805" lon="9.421436188092681"><ele>200.5</ele><time>2026-04-26T06:50:53Z</time></trkpt><trkpt lat="44.943656265959966" lon="9.42150713526738"><ele>198.66666666666669</ele><time>2026-04-26T06:50:54Z</time></trkpt><trkpt lat="44.943702855598524" lon="9.421572133998094"><ele>196.83333333333334</ele><time>2026-04-26T06:50:55Z</time></trkpt><trkpt lat="44.94377368350107" lon="9.421660690430967"><ele>195.0</ele><time>2026-04-26T06:50:56Z</time></trkpt><trkpt lat="44.94384112296885" lon="9.421735980740104"><ele>195.0</ele><time>2026-04-26T06:50:57Z</time></trkpt><trkpt lat="44.94393718391279" lon="9.421799190017797"><ele>195.0</ele><time>2026-04-26T06:50:58Z</time></trkpt><trkpt lat="44.944040159225985" lon="9.421799591132174"><ele>195.0</ele><time>2026-04-26T06:50:59Z</time></trkpt><trkpt lat="44.944138790571536" lon="9.421744402831106"><ele>195.0</ele><time>2026-04-26T06:51:00Z</time></trkpt><trkpt lat="44.94424710987692" lon="9.421626488899996"><ele>192.4</ele><time>2026-04-26T06:51:01Z</time></trkpt><trkpt lat="44.94432798336881" lon="9.421510993933516"><ele>189.8</ele><time>2026-04-26T06:51:02Z</time></trkpt><trkpt lat="44.94439751181261" lon="9.421392566226379"><ele>187.2</ele><time>2026-04-26T06:51:03Z</time></trkpt><trkpt lat="44.94446153165454" lon="9.421266665856203"><ele>184.6</ele><time>2026-04-26T06:51:04Z</time></trkpt><trkpt lat="44.94451489566679" lon="9.421145358692826"><ele>182.0</ele><time>2026-04-26T06:51:05Z</time></trkpt><trkpt lat="44.94456794491719" lon="9.421002299212775"><ele>181.5</ele><time>2026-04-26T06:51:06Z</time></trkpt><trkpt lat="44.94460681208031" lon="9.420920859805323"><ele>181.0</ele><time>2026-04-26T06:51:07Z</time></trkpt><trkpt lat="44.94464322522804" lon="9.420824488179933"><ele>180.5</ele><time>2026-04-26T06:51:09Z</time></trkpt><trkpt lat="44.944580881581786" lon="9.420665777252143"><ele>180.0</ele><time>2026-04-26T06:51:11.999Z</time></trkpt><trkpt lat="44.94454163447145" lon="9.420581892543138"><ele>179.5</ele><time>2026-04-26T06:51:12.999Z</time></trkpt><trkpt lat="44.944505674306484" lon="9.420491194040212"><ele>179.0</ele><time>2026-04-26T06:51:13.999Z</time></trkpt><trkpt lat="44.94448053203703" lon="9.420357268723441"><ele>178.39999999999998</ele><time>2026-04-26T06:51:14.999Z</time></trkpt><trkpt lat="44.94444822452157" lon="9.420238075806173"><ele>177.8</ele><time>2026-04-26T06:51:15.999Z</time></trkpt><trkpt lat="44.94441193108998" lon="9.42010295896995"><ele>177.2</ele><time>2026-04-26T06:51:16.999Z</time></trkpt><trkpt lat="44.944355658017535" lon="9.419969187512322"><ele>176.60000000000002</ele><time>2026-04-26T06:51:17.999Z</time></trkpt><trkpt lat="44.94430398657917" lon="9.419833368362132"><ele>176.0</ele><time>2026-04-26T06:51:18.999Z</time></trkpt><trkpt lat="44.94421665342113" lon="9.419696903026383"><ele>176.75</ele><time>2026-04-26T06:51:19.999Z</time></trkpt><trkpt lat="44.944114800545414" lon="9.419591559345097"><ele>177.5</ele><time>2026-04-26T06:51:20.999Z</time></trkpt><trkpt lat="44.94401445473776" lon="9.419489747323693"><ele>178.25</ele><time>2026-04-26T06:51:21.999Z</time></trkpt><trkpt lat="44.94391994417531" lon="9.419378831168736"><ele>179.0</ele><time>2026-04-26T06:51:22.999Z</time></trkpt><trkpt lat="44.94381256516523" lon="9.419267685190857"><ele>179.0</ele><time>2026-04-26T06:51:23.999Z</time></trkpt><trkpt lat="44.94371214272077" lon="9.419157114890616"><ele>179.0</ele><time>2026-04-26T06:51:24.999Z</time></trkpt><trkpt lat="44.94363300040107" lon="9.41903341676393"><ele>179.0</ele><time>2026-04-26T06:51:25.999Z</time></trkpt><trkpt lat="44.943569768705906" lon="9.418894519739927"><ele>179.0</ele><time>2026-04-26T06:51:26.999Z</time></trkpt><trkpt lat="44.94354115016729" lon="9.418735349904695"><ele>178.39999999999998</ele><time>2026-04-26T06:51:27.999Z</time></trkpt><trkpt lat="44.94352488299689" lon="9.418588345313072"><ele>177.8</ele><time>2026-04-26T06:51:28.999Z</time></trkpt><trkpt lat="44.943526274510916" lon="9.418434788413819"><ele>177.2</ele><time>2026-04-26T06:51:29.999Z</time></trkpt><trkpt lat="44.94355686421542" lon="9.418280164628438"><ele>176.60000000000002</ele><time>2026-04-26T06:51:30.999Z</time></trkpt><trkpt lat="44.94362152784444" lon="9.418138527312161"><ele>176.0</ele><time>2026-04-26T06:51:31.999Z</time></trkpt><trkpt lat="44.9436918180957" lon="9.417983905514873"><ele>176.0</ele><time>2026-04-26T06:51:32.999Z</time></trkpt><trkpt lat="44.943762966381726" lon="9.417831588810582"><ele>176.0</ele><time>2026-04-26T06:51:33.999Z</time></trkpt><trkpt lat="44.943832301934705" lon="9.417685664376634"><ele>176.0</ele><time>2026-04-26T06:51:34.999Z</time></trkpt><trkpt lat="44.94389047458932" lon="9.417523834052718"><ele>176.0</ele><time>2026-04-26T06:51:35.999Z</time></trkpt><trkpt lat="44.94395943074265" lon="9.417376537724765"><ele>176.0</ele><time>2026-04-26T06:51:36.999Z</time></trkpt><trkpt lat="44.944040745526955" lon="9.417247858008489"><ele>176.0</ele><time>2026-04-26T06:51:37.999Z</time></trkpt><trkpt lat="44.94410908186326" lon="9.417104327378881"><ele>176.0</ele><time>2026-04-26T06:51:38.999Z</time></trkpt><trkpt lat="44.9441765407474" lon="9.416965286296866"><ele>176.0</ele><time>2026-04-26T06:51:39.999Z</time></trkpt><trkpt lat="44.94424476295807" lon="9.41682326423652"><ele>176.0</ele><time>2026-04-26T06:51:40.999Z</time></trkpt><trkpt lat="44.94430475847158" lon="9.416676929187721"><ele>176.0</ele><time>2026-04-26T06:51:41.999Z</time></trkpt><trkpt lat="44.94435270356979" lon="9.416525230049704"><ele>176.0</ele><time>2026-04-26T06:51:42.999Z</time></trkpt><trkpt lat="44.944356903079715" lon="9.416343933776288"><ele>176.0</ele><time>2026-04-26T06:51:43.999Z</time></trkpt><trkpt lat="44.94435043251367" lon="9.41617086417429"><ele>176.0</ele><time>2026-04-26T06:51:44.999Z</time></trkpt><trkpt lat="44.944283432939145" lon="9.415983174222903"><ele>176.0</ele><time>2026-04-26T06:51:45.999Z</time></trkpt><trkpt lat="44.94422332967233" lon="9.415811131653374"><ele>176.0</ele><time>2026-04-26T06:51:46.999Z</time></trkpt><trkpt lat="44.94416297761179" lon="9.41563515560369"><ele>176.0</ele><time>2026-04-26T06:51:47.999Z</time></trkpt><trkpt lat="44.94409991930092" lon="9.415451288620357"><ele>177.20000000000002</ele><time>2026-04-26T06:51:48.999Z</time></trkpt><trkpt lat="44.94404584530002" lon="9.415299235496704"><ele>178.4</ele><time>2026-04-26T06:51:49.999Z</time></trkpt><trkpt lat="44.94399255293698" lon="9.415192406698711"><ele>179.6</ele><time>2026-04-26T06:51:50.999Z</time></trkpt><trkpt lat="44.943963795817645" lon="9.415087318904227"><ele>180.8</ele><time>2026-04-26T06:51:52.999Z</time></trkpt><trkpt lat="44.94393556064099" lon="9.414938820758621"><ele>182.0</ele><time>2026-04-26T06:52:05.998Z</time></trkpt><trkpt lat="44.9439085767899" lon="9.414776341891324"><ele>182.0</ele><time>2026-04-26T06:52:07.998Z</time></trkpt><trkpt lat="44.943901349133746" lon="9.41468758584686"><ele>182.0</ele><time>2026-04-26T06:52:08.998Z</time></trkpt><trkpt lat="44.943879122462064" lon="9.41459653769142"><ele>182.0</ele><time>2026-04-26T06:52:09.998Z</time></trkpt><trkpt lat="44.94387365882038" lon="9.414488636427945"><ele>182.0</ele><time>2026-04-26T06:52:10.998Z</time></trkpt><trkpt lat="44.94386991325459" lon="9.414388400187248"><ele>182.0</ele><time>2026-04-26T06:52:11.998Z</time></trkpt><trkpt lat="44.94386696871899" lon="9.414216402920683"><ele>182.0</ele><time>2026-04-26T06:52:13.998Z</time></trkpt><trkpt lat="44.9439008509135" lon="9.414042162237191"><ele>181.8</ele><time>2026-04-26T06:52:15.998Z</time></trkpt><trkpt lat="44.943918726957506" lon="9.413922715406825"><ele>181.6</ele><time>2026-04-26T06:52:16.998Z</time></trkpt><trkpt lat="44.94394242250166" lon="9.413807563134409"><ele>181.4</ele><time>2026-04-26T06:52:17.998Z</time></trkpt><trkpt lat="44.94396732659607" lon="9.413695388009698"><ele>181.20000000000002</ele><time>2026-04-26T06:52:18.998Z</time></trkpt><trkpt lat="44.94400330057676" lon="9.413544519465951"><ele>181.0</ele><time>2026-04-26T06:52:19.998Z</time></trkpt><trkpt lat="44.94403068029406" lon="9.413433379452048"><ele>181.0</ele><time>2026-04-26T06:52:20.998Z</time></trkpt><trkpt lat="44.944053363199565" lon="9.413341304733091"><ele>181.0</ele><time>2026-04-26T06:52:21.998Z</time></trkpt><trkpt lat="44.94407442808866" lon="9.413255526867204"><ele>181.0</ele><time>2026-04-26T06:52:22.998Z</time></trkpt><trkpt lat="44.94448935980526" lon="9.413359352184964"><ele>179.66666666666669</ele><time>2026-04-26T06:52:25.998Z</time></trkpt><trkpt lat="44.94462807523634" lon="9.413434918518213"><ele>178.33333333333334</ele><time>2026-04-26T06:52:26.998Z</time></trkpt><trkpt lat="44.94479078428543" lon="9.413486927633427"><ele>177.0</ele><time>2026-04-26T06:52:27.998Z</time></trkpt><trkpt lat="44.94496084628491" lon="9.413518292645394"><ele>176.0</ele><time>2026-04-26T06:52:28.998Z</time></trkpt><trkpt lat="44.945134321286744" lon="9.413534592041405"><ele>175.0</ele><time>2026-04-26T06:52:29.998Z</time></trkpt><trkpt lat="44.94529694761316" lon="9.413556517044842"><ele>174.0</ele><time>2026-04-26T06:52:30.998Z</time></trkpt><trkpt lat="44.945478393676204" lon="9.413606410066578"><ele>174.0</ele><time>2026-04-26T06:52:31.998Z</time></trkpt><trkpt lat="44.945664505843865" lon="9.413690214036295"><ele>174.0</ele><time>2026-04-26T06:52:32.998Z</time></trkpt><trkpt lat="44.94585309058816" lon="9.413771600990339"><ele>174.0</ele><time>2026-04-26T06:52:33.998Z</time></trkpt><trkpt lat="44.946041677702254" lon="9.413845795326251"><ele>174.0</ele><time>2026-04-26T06:52:34.998Z</time></trkpt><trkpt lat="44.946236540733295" lon="9.413932573193485"><ele>174.0</ele><time>2026-04-26T06:52:35.998Z</time></trkpt><trkpt lat="44.946436826175926" lon="9.414018143781457"><ele>174.0</ele><time>2026-04-26T06:52:36.998Z</time></trkpt><trkpt lat="44.94665421274857" lon="9.4141140306905"><ele>173.33333333333334</ele><time>2026-04-26T06:52:37.997Z</time></trkpt><trkpt lat="44.9468508995256" lon="9.414196824820845"><ele>172.66666666666669</ele><time>2026-04-26T06:52:38.997Z</time></trkpt><trkpt lat="44.94701579831008" lon="9.414269179442622"><ele>172.0</ele><time>2026-04-26T06:52:39.997Z</time></trkpt><trkpt lat="44.94717528895837" lon="9.414341070640644"><ele>172.0</ele><time>2026-04-26T06:52:40.997Z</time></trkpt><trkpt lat="44.947339625876495" lon="9.414410078731176"><ele>172.0</ele><time>2026-04-26T06:52:41.997Z</time></trkpt><trkpt lat="44.947493983304966" lon="9.414483688325527"><ele>172.0</ele><time>2026-04-26T06:52:43Z</time></trkpt><trkpt lat="44.94762544252898" lon="9.41454319808691"><ele>171.75</ele><time>2026-04-26T06:52:44Z</time></trkpt><trkpt lat="44.94775804014789" lon="9.41459786999466"><ele>171.5</ele><time>2026-04-26T06:52:45Z</time></trkpt><trkpt lat="44.94788462417343" lon="9.41465081588419"><ele>171.25</ele><time>2026-04-26T06:52:46Z</time></trkpt><trkpt lat="44.947994885331184" lon="9.414699811528113"><ele>171.0</ele><time>2026-04-26T06:52:47Z</time></trkpt><trkpt lat="44.94809357275722" lon="9.414746171285385"><ele>171.0</ele><time>2026-04-26T06:52:48Z</time></trkpt><trkpt lat="44.94818026555054" lon="9.41478357904534"><ele>171.0</ele><time>2026-04-26T06:52:49Z</time></trkpt><trkpt lat="44.948252034133006" lon="9.41477004170458"><ele>171.0</ele><time>2026-04-26T06:52:50Z</time></trkpt><trkpt lat="44.948332082250964" lon="9.41472316140577"><ele>171.0</ele><time>2026-04-26T06:52:51Z</time></trkpt><trkpt lat="44.948421687730566" lon="9.41464612847584"><ele>171.0</ele><time>2026-04-26T06:52:52Z</time></trkpt><trkpt lat="44.94850946067485" lon="9.41455317734458"><ele>171.25</ele><time>2026-04-26T06:52:53Z</time></trkpt><trkpt lat="44.948608380601875" lon="9.414437391130114"><ele>171.5</ele><time>2026-04-26T06:52:54Z</time></trkpt><trkpt lat="44.948691171511044" lon="9.414304182059414"><ele>171.75</ele><time>2026-04-26T06:52:55Z</time></trkpt><trkpt lat="44.948762102599666" lon="9.414149186965135"><ele>172.0</ele><time>2026-04-26T06:52:56Z</time></trkpt><trkpt lat="44.94881067135861" lon="9.41397544685278"><ele>172.66666666666669</ele><time>2026-04-26T06:52:57Z</time></trkpt><trkpt lat="44.94887035236926" lon="9.413784020376779"><ele>173.33333333333334</ele><time>2026-04-26T06:52:58Z</time></trkpt><trkpt lat="44.94892924370354" lon="9.41355436769964"><ele>174.0</ele><time>2026-04-26T06:52:59Z</time></trkpt><trkpt lat="44.94899180967747" lon="9.41331692761154"><ele>174.0</ele><time>2026-04-26T06:53:00Z</time></trkpt><trkpt lat="44.9490617158598" lon="9.413098434159021"><ele>174.0</ele><time>2026-04-26T06:53:01Z</time></trkpt><trkpt lat="44.94912767351454" lon="9.41291006899699"><ele>174.0</ele><time>2026-04-26T06:53:02Z</time></trkpt><trkpt lat="44.94918714108038" lon="9.412747082029778"><ele>174.0</ele><time>2026-04-26T06:53:03Z</time></trkpt><trkpt lat="44.94924288920432" lon="9.412603080356082"><ele>174.0</ele><time>2026-04-26T06:53:04Z</time></trkpt><trkpt lat="44.94930719881446" lon="9.41246067276894"><ele>174.0</ele><time>2026-04-26T06:53:05Z</time></trkpt><trkpt lat="44.94938360758779" lon="9.412326216944724"><ele>174.0</ele><time>2026-04-26T06:53:06Z</time></trkpt><trkpt lat="44.94946721144115" lon="9.412201951684619"><ele>174.0</ele><time>2026-04-26T06:53:07Z</time></trkpt><trkpt lat="44.949532298316186" lon="9.412095273486546"><ele>174.33333333333334</ele><time>2026-04-26T06:53:08Z</time></trkpt><trkpt lat="44.94957280528512" lon="9.412010723061414"><ele>174.66666666666666</ele><time>2026-04-26T06:53:09Z</time></trkpt><trkpt lat="44.94962094813131" lon="9.411949985046352"><ele>175.0</ele><time>2026-04-26T06:53:11Z</time></trkpt><trkpt lat="44.94972255598984" lon="9.412070239271147"><ele>175.33333333333331</ele><time>2026-04-26T06:53:12Z</time></trkpt><trkpt lat="44.94979396648024" lon="9.412080588647813"><ele>175.66666666666666</ele><time>2026-04-26T06:53:13Z</time></trkpt><trkpt lat="44.94987152531997" lon="9.412044042892674"><ele>176.0</ele><time>2026-04-26T06:53:14Z</time></trkpt><trkpt lat="44.9499385590898" lon="9.411946839505905"><ele>176.0</ele><time>2026-04-26T06:53:15Z</time></trkpt><trkpt lat="44.95001255139903" lon="9.411846163094832"><ele>176.0</ele><time>2026-04-26T06:53:16Z</time></trkpt><trkpt lat="44.95008558367191" lon="9.411739093098038"><ele>176.0</ele><time>2026-04-26T06:53:17Z</time></trkpt><trkpt lat="44.950150353236424" lon="9.411665185641384"><ele>176.0</ele><time>2026-04-26T06:53:17.999Z</time></trkpt><trkpt lat="44.95018500214278" lon="9.41156960695202"><ele>176.0</ele><time>2026-04-26T06:53:18.999Z</time></trkpt><trkpt lat="44.950187035174906" lon="9.411460908389293"><ele>176.0</ele><time>2026-04-26T06:53:19.999Z</time></trkpt><trkpt lat="44.95016395634934" lon="9.411337840385855"><ele>175.8</ele><time>2026-04-26T06:53:20.999Z</time></trkpt><trkpt lat="44.950146721437065" lon="9.411178037276663"><ele>175.60000000000002</ele><time>2026-04-26T06:53:21.999Z</time></trkpt><trkpt lat="44.95013122782135" lon="9.411019898039356"><ele>175.4</ele><time>2026-04-26T06:53:22.999Z</time></trkpt><trkpt lat="44.95012097832922" lon="9.41086657475163"><ele>175.2</ele><time>2026-04-26T06:53:23.999Z</time></trkpt><trkpt lat="44.9501228674459" lon="9.41073472191207"><ele>175.0</ele><time>2026-04-26T06:53:24.999Z</time></trkpt><trkpt lat="44.95009740574939" lon="9.410556387569084"><ele>175.2</ele><time>2026-04-26T06:53:26.999Z</time></trkpt><trkpt lat="44.95003833428991" lon="9.410511739374039"><ele>175.4</ele><time>2026-04-26T06:53:27.999Z</time></trkpt><trkpt lat="44.949989973650965" lon="9.410390577570238"><ele>175.60000000000002</ele><time>2026-04-26T06:53:29.999Z</time></trkpt><trkpt lat="44.9500109670828" lon="9.410235098020555"><ele>175.8</ele><time>2026-04-26T06:53:31.999Z</time></trkpt><trkpt lat="44.950021981764806" lon="9.410095471059517"><ele>176.0</ele><time>2026-04-26T06:53:32.999Z</time></trkpt><trkpt lat="44.95001225954217" lon="9.409993262073321"><ele>176.25</ele><time>2026-04-26T06:53:33.999Z</time></trkpt><trkpt lat="44.9499532208299" lon="9.409888797711016"><ele>176.5</ele><time>2026-04-26T06:53:34.999Z</time></trkpt><trkpt lat="44.949936599079145" lon="9.409733377205344"><ele>176.75</ele><time>2026-04-26T06:53:35.999Z</time></trkpt><trkpt lat="44.94994589346379" lon="9.409544772855408"><ele>177.0</ele><time>2026-04-26T06:53:36.999Z</time></trkpt><trkpt lat="44.94996914893343" lon="9.409348661465863"><ele>177.66666666666666</ele><time>2026-04-26T06:53:37.999Z</time></trkpt><trkpt lat="44.94998050796417" lon="9.409143299764207"><ele>178.33333333333331</ele><time>2026-04-26T06:53:38.999Z</time></trkpt><trkpt lat="44.95001483092107" lon="9.408920277802805"><ele>179.0</ele><time>2026-04-26T06:53:39.999Z</time></trkpt><trkpt lat="44.95003387413178" lon="9.408710003029695"><ele>179.0</ele><time>2026-04-26T06:53:40.999Z</time></trkpt><trkpt lat="44.95005278197359" lon="9.408491713834376"><ele>179.0</ele><time>2026-04-26T06:53:41.999Z</time></trkpt><trkpt lat="44.95007098966447" lon="9.408283403437252"><ele>179.0</ele><time>2026-04-26T06:53:42.999Z</time></trkpt><trkpt lat="44.95008738195183" lon="9.408078566531266"><ele>179.0</ele><time>2026-04-26T06:53:43.999Z</time></trkpt><trkpt lat="44.95008064313522" lon="9.407889385938944"><ele>179.0</ele><time>2026-04-26T06:53:44.999Z</time></trkpt><trkpt lat="44.95008544449373" lon="9.407700303055442"><ele>179.0</ele><time>2026-04-26T06:53:45.999Z</time></trkpt><trkpt lat="44.950073123920454" lon="9.407525807354697"><ele>179.0</ele><time>2026-04-26T06:53:46.999Z</time></trkpt><trkpt lat="44.95005495266774" lon="9.40732869132065"><ele>179.25</ele><time>2026-04-26T06:53:47.999Z</time></trkpt><trkpt lat="44.95002387870795" lon="9.40715532147012"><ele>179.5</ele><time>2026-04-26T06:53:48.999Z</time></trkpt><trkpt lat="44.949989257130305" lon="9.40698265952719"><ele>179.75</ele><time>2026-04-26T06:53:49.999Z</time></trkpt><trkpt lat="44.94996687633543" lon="9.406804128626057"><ele>180.0</ele><time>2026-04-26T06:53:50.999Z</time></trkpt><trkpt lat="44.94991162501923" lon="9.406646486316141"><ele>180.0</ele><time>2026-04-26T06:53:51.999Z</time></trkpt><trkpt lat="44.94987163272366" lon="9.406506038261007"><ele>180.0</ele><time>2026-04-26T06:53:52.999Z</time></trkpt><trkpt lat="44.949821602586766" lon="9.406370652604421"><ele>180.0</ele><time>2026-04-26T06:53:53.999Z</time></trkpt><trkpt lat="44.94978660143326" lon="9.40623693671257"><ele>180.0</ele><time>2026-04-26T06:53:54.999Z</time></trkpt><trkpt lat="44.94975365230062" lon="9.406152734366767"><ele>180.0</ele><time>2026-04-26T06:53:55.999Z</time></trkpt><trkpt lat="44.94972072125786" lon="9.406073182526791"><ele>180.0</ele><time>2026-04-26T06:53:56.999Z</time></trkpt><trkpt lat="44.94967959439214" lon="9.406003017633608"><ele>180.0</ele><time>2026-04-26T06:53:57.999Z</time></trkpt><trkpt lat="44.949641851911004" lon="9.405920265940884"><ele>180.0</ele><time>2026-04-26T06:53:58.999Z</time></trkpt><trkpt lat="44.949626209369534" lon="9.405827926279926"><ele>180.0</ele><time>2026-04-26T06:53:59.999Z</time></trkpt><trkpt lat="44.949598566415474" lon="9.405736541681966"><ele>180.0</ele><time>2026-04-26T06:54:00.998Z</time></trkpt><trkpt lat="44.94954958646755" lon="9.405653505320101"><ele>180.0</ele><time>2026-04-26T06:54:01.998Z</time></trkpt><trkpt lat="44.94950617949872" lon="9.405520433464195"><ele>180.0</ele><time>2026-04-26T06:54:03.998Z</time></trkpt><trkpt lat="44.949461586287185" lon="9.405434311960354"><ele>180.0</ele><time>2026-04-26T06:54:05.998Z</time></trkpt><trkpt lat="44.94939122749216" lon="9.405350725755202"><ele>180.0</ele><time>2026-04-26T06:57:16Z</time></trkpt><trkpt lat="44.94932261130157" lon="9.405210335305409"><ele>180.0</ele><time>2026-04-26T06:57:18Z</time></trkpt><trkpt lat="44.94926659167124" lon="9.40507563388026"><ele>180.0</ele><time>2026-04-26T06:57:20Z</time></trkpt><trkpt lat="44.94923930301971" lon="9.404989168673293"><ele>180.0</ele><time>2026-04-26T06:57:24Z</time></trkpt><trkpt lat="44.949270783505135" lon="9.404911196061654"><ele>180.0</ele><time>2026-04-26T07:05:23Z</time></trkpt><trkpt lat="44.94920005647874" lon="9.404865899895956"><ele>180.0</ele><time>2026-04-26T07:05:30Z</time></trkpt><trkpt lat="44.94915503612669" lon="9.405047173120352"><ele>180.0</ele><time>2026-04-26T07:05:39Z</time></trkpt><trkpt lat="44.94918184509485" lon="9.40515454137273"><ele>180.0</ele><time>2026-04-26T07:05:40Z</time></trkpt><trkpt lat="44.94922249708602" lon="9.405265308130394"><ele>180.0</ele><time>2026-04-26T07:05:41Z</time></trkpt><trkpt lat="44.94925743262918" lon="9.405371970622982"><ele>180.0</ele><time>2026-04-26T07:05:42Z</time></trkpt><trkpt lat="44.949285975029866" lon="9.405464529907496"><ele>180.0</ele><time>2026-04-26T07:05:43Z</time></trkpt><trkpt lat="44.94931880117926" lon="9.405557680887462"><ele>180.0</ele><time>2026-04-26T07:05:44Z</time></trkpt><trkpt lat="44.94935009828089" lon="9.405647746260783"><ele>180.0</ele><time>2026-04-26T07:05:45Z</time></trkpt><trkpt lat="44.949368486509336" lon="9.40573346980511"><ele>180.0</ele><time>2026-04-26T07:05:47Z</time></trkpt><trkpt lat="44.94939712886591" lon="9.405842384508247"><ele>180.0</ele><time>2026-04-26T07:05:53Z</time></trkpt><trkpt lat="44.94950108211106" lon="9.405977385800236"><ele>180.0</ele><time>2026-04-26T07:05:54.999Z</time></trkpt><trkpt lat="44.94955940349196" lon="9.40605010189435"><ele>180.0</ele><time>2026-04-26T07:05:55.999Z</time></trkpt><trkpt lat="44.94964418772914" lon="9.406058639346382"><ele>180.0</ele><time>2026-04-26T07:05:56.999Z</time></trkpt><trkpt lat="44.9497031223696" lon="9.40612031156143"><ele>180.0</ele><time>2026-04-26T07:05:57.999Z</time></trkpt><trkpt lat="44.949746010239465" lon="9.406218456571077"><ele>180.0</ele><time>2026-04-26T07:05:58.999Z</time></trkpt><trkpt lat="44.949783408401274" lon="9.406341291594705"><ele>180.0</ele><time>2026-04-26T07:05:59.999Z</time></trkpt><trkpt lat="44.94982715842179" lon="9.40647874274193"><ele>180.0</ele><time>2026-04-26T07:06:00.999Z</time></trkpt><trkpt lat="44.949877943864415" lon="9.406653029655718"><ele>180.0</ele><time>2026-04-26T07:06:01.999Z</time></trkpt><trkpt lat="44.94993131219442" lon="9.40683451801417"><ele>180.0</ele><time>2026-04-26T07:06:02.999Z</time></trkpt><trkpt lat="44.949970575826775" lon="9.40699520183648"><ele>180.0</ele><time>2026-04-26T07:06:03.999Z</time></trkpt><trkpt lat="44.949988232834336" lon="9.4071621370283"><ele>179.75</ele><time>2026-04-26T07:06:04.999Z</time></trkpt><trkpt lat="44.95001738209313" lon="9.407335489748798"><ele>179.5</ele><time>2026-04-26T07:06:05.999Z</time></trkpt><trkpt lat="44.95004969001745" lon="9.4075322571276"><ele>179.25</ele><time>2026-04-26T07:06:06.999Z</time></trkpt><trkpt lat="44.95004752468704" lon="9.40770217904969"><ele>179.0</ele><time>2026-04-26T07:06:07.999Z</time></trkpt><trkpt lat="44.950043585614445" lon="9.407873500217255"><ele>179.25</ele><time>2026-04-26T07:06:08.999Z</time></trkpt><trkpt lat="44.95003952352913" lon="9.408043959168108"><ele>179.5</ele><time>2026-04-26T07:06:09.999Z</time></trkpt><trkpt lat="44.950025699608474" lon="9.408209533573793"><ele>179.75</ele><time>2026-04-26T07:06:10.999Z</time></trkpt><trkpt lat="44.95001584569037" lon="9.40837372983887"><ele>180.0</ele><time>2026-04-26T07:06:11.999Z</time></trkpt><trkpt lat="44.95000781357473" lon="9.408537891491253"><ele>180.0</ele><time>2026-04-26T07:06:12.999Z</time></trkpt><trkpt lat="44.94999453706694" lon="9.40870067167552"><ele>180.0</ele><time>2026-04-26T07:06:13.999Z</time></trkpt><trkpt lat="44.949976273440136" lon="9.408863944558412"><ele>180.0</ele><time>2026-04-26T07:06:14.999Z</time></trkpt><trkpt lat="44.949962304877424" lon="9.409032150143721"><ele>180.0</ele><time>2026-04-26T07:06:15.999Z</time></trkpt><trkpt lat="44.94995004826197" lon="9.409199945655027"><ele>179.8</ele><time>2026-04-26T07:06:16.999Z</time></trkpt><trkpt lat="44.94993567689225" lon="9.409360309377133"><ele>179.6</ele><time>2026-04-26T07:06:17.999Z</time></trkpt><trkpt lat="44.9499297074198" lon="9.40950323367559"><ele>179.39999999999998</ele><time>2026-04-26T07:06:18.999Z</time></trkpt><trkpt lat="44.949927358189925" lon="9.409638032889086"><ele>179.2</ele><time>2026-04-26T07:06:19.999Z</time></trkpt><trkpt lat="44.9499239513235" lon="9.409771734658872"><ele>179.0</ele><time>2026-04-26T07:06:20.999Z</time></trkpt><trkpt lat="44.9499313476683" lon="9.409887804422581"><ele>178.66666666666666</ele><time>2026-04-26T07:06:21.999Z</time></trkpt><trkpt lat="44.9499617690825" lon="9.40999751079108"><ele>178.33333333333331</ele><time>2026-04-26T07:06:22.999Z</time></trkpt><trkpt lat="44.949990687387235" lon="9.41009310601501"><ele>178.0</ele><time>2026-04-26T07:06:23.999Z</time></trkpt><trkpt lat="44.94999101278333" lon="9.410204357613415"><ele>177.66666666666666</ele><time>2026-04-26T07:06:24.999Z</time></trkpt><trkpt lat="44.949978741498" lon="9.410326077393654"><ele>177.33333333333334</ele><time>2026-04-26T07:06:25.999Z</time></trkpt><trkpt lat="44.949972722667184" lon="9.410437082372404"><ele>177.0</ele><time>2026-04-26T07:06:26.999Z</time></trkpt><trkpt lat="44.950035152583474" lon="9.410575844664088"><ele>176.6</ele><time>2026-04-26T07:06:28.999Z</time></trkpt><trkpt lat="44.95008192241972" lon="9.410644398574245"><ele>176.2</ele><time>2026-04-26T07:06:29.999Z</time></trkpt><trkpt lat="44.95010141525913" lon="9.410756285036253"><ele>175.8</ele><time>2026-04-26T07:06:30.999Z</time></trkpt><trkpt lat="44.95010101528172" lon="9.410901149062793"><ele>175.4</ele><time>2026-04-26T07:06:31.999Z</time></trkpt><trkpt lat="44.950108647141796" lon="9.41106227967201"><ele>175.0</ele><time>2026-04-26T07:06:32.999Z</time></trkpt><trkpt lat="44.950126313506004" lon="9.411229565840493"><ele>175.0</ele><time>2026-04-26T07:06:33.999Z</time></trkpt><trkpt lat="44.9501414158113" lon="9.411374377338642"><ele>175.0</ele><time>2026-04-26T07:06:34.999Z</time></trkpt><trkpt lat="44.95015522536682" lon="9.411497955256277"><ele>175.0</ele><time>2026-04-26T07:06:35.999Z</time></trkpt><trkpt lat="44.950149610087884" lon="9.411590701978033"><ele>175.0</ele><time>2026-04-26T07:06:36.998Z</time></trkpt><trkpt lat="44.950114034435934" lon="9.411681785477624"><ele>175.0</ele><time>2026-04-26T07:06:37.998Z</time></trkpt><trkpt lat="44.95003491613019" lon="9.411779240302023"><ele>175.0</ele><time>2026-04-26T07:06:38.998Z</time></trkpt><trkpt lat="44.949949247078536" lon="9.41190675463506"><ele>175.16666666666669</ele><time>2026-04-26T07:06:39.998Z</time></trkpt><trkpt lat="44.9498656691804" lon="9.411985761944344"><ele>175.33333333333334</ele><time>2026-04-26T07:06:40.998Z</time></trkpt><trkpt lat="44.94979801941074" lon="9.41202597396038"><ele>175.5</ele><time>2026-04-26T07:06:41.998Z</time></trkpt><trkpt lat="44.94973002225118" lon="9.41204299600478"><ele>175.66666666666666</ele><time>2026-04-26T07:06:42.998Z</time></trkpt><trkpt lat="44.94966712610078" lon="9.41202583645121"><ele>175.83333333333331</ele><time>2026-04-26T07:06:43.998Z</time></trkpt><trkpt lat="44.949621484542774" lon="9.411954136853788"><ele>176.0</ele><time>2026-04-26T07:06:44.998Z</time></trkpt><trkpt lat="44.94948266957101" lon="9.41208552331321"><ele>175.8</ele><time>2026-04-26T07:06:46.998Z</time></trkpt><trkpt lat="44.94942869328639" lon="9.412192253135698"><ele>175.60000000000002</ele><time>2026-04-26T07:06:47.998Z</time></trkpt><trkpt lat="44.94934793486751" lon="9.412287952918419"><ele>175.4</ele><time>2026-04-26T07:06:48.998Z</time></trkpt><trkpt lat="44.94927878822376" lon="9.412420457207439"><ele>175.2</ele><time>2026-04-26T07:06:49.998Z</time></trkpt><trkpt lat="44.949213441586735" lon="9.412565733689908"><ele>175.0</ele><time>2026-04-26T07:06:50.998Z</time></trkpt><trkpt lat="44.94915338011663" lon="9.412729425907704"><ele>175.0</ele><time>2026-04-26T07:06:51.998Z</time></trkpt><trkpt lat="44.949093380977494" lon="9.41290190521719"><ele>175.0</ele><time>2026-04-26T07:06:52.998Z</time></trkpt><trkpt lat="44.94903326241597" lon="9.413094072803737"><ele>175.0</ele><time>2026-04-26T07:06:53.998Z</time></trkpt><trkpt lat="44.94897238995026" lon="9.41328777756124"><ele>175.0</ele><time>2026-04-26T07:06:54.998Z</time></trkpt><trkpt lat="44.94891373563008" lon="9.413493573764978"><ele>174.66666666666669</ele><time>2026-04-26T07:06:55.998Z</time></trkpt><trkpt lat="44.948857610988355" lon="9.413707910897466"><ele>174.33333333333334</ele><time>2026-04-26T07:06:56.998Z</time></trkpt><trkpt lat="44.94880253898467" lon="9.413921717001063"><ele>174.0</ele><time>2026-04-26T07:06:57.998Z</time></trkpt><trkpt lat="44.948751701009776" lon="9.414105920559251"><ele>173.5</ele><time>2026-04-26T07:06:58.998Z</time></trkpt><trkpt lat="44.94869189148078" lon="9.414269758661682"><ele>173.0</ele><time>2026-04-26T07:06:59.998Z</time></trkpt><trkpt lat="44.94860296994722" lon="9.414403926722304"><ele>172.5</ele><time>2026-04-26T07:07:00.998Z</time></trkpt><trkpt lat="44.948511526318256" lon="9.414505959257967"><ele>172.0</ele><time>2026-04-26T07:07:01.998Z</time></trkpt><trkpt lat="44.94842843155612" lon="9.414590717169952"><ele>171.83333333333334</ele><time>2026-04-26T07:07:02.998Z</time></trkpt><trkpt lat="44.9483474764158" lon="9.414640842096997"><ele>171.66666666666669</ele><time>2026-04-26T07:07:03.998Z</time></trkpt><trkpt lat="44.94827254186144" lon="9.414697200078601"><ele>171.5</ele><time>2026-04-26T07:07:04.998Z</time></trkpt><trkpt lat="44.94821028621815" lon="9.414757361638427"><ele>171.33333333333334</ele><time>2026-04-26T07:07:05.998Z</time></trkpt><trkpt lat="44.94815315201509" lon="9.414825150490055"><ele>171.16666666666666</ele><time>2026-04-26T07:07:06.998Z</time></trkpt><trkpt lat="44.94810230331485" lon="9.414883470574448"><ele>171.0</ele><time>2026-04-26T07:07:07.998Z</time></trkpt><trkpt lat="44.948045715576036" lon="9.41493720204058"><ele>171.0</ele><time>2026-04-26T07:07:08.998Z</time></trkpt><trkpt lat="44.94767518208718" lon="9.415414272516271"><ele>170.66666666666666</ele><time>2026-04-26T07:07:09.998Z</time></trkpt><trkpt lat="44.94748010024949" lon="9.415312306791547"><ele>170.33333333333331</ele><time>2026-04-26T07:07:10.998Z</time></trkpt><trkpt lat="44.947309291618964" lon="9.415212605294732"><ele>170.0</ele><time>2026-04-26T07:07:11.998Z</time></trkpt><trkpt lat="44.9470584901942" lon="9.41428811799932"><ele>170.66666666666666</ele><time>2026-04-26T07:07:13.998Z</time></trkpt><trkpt lat="44.94687002259517" lon="9.41421885075501"><ele>171.33333333333334</ele><time>2026-04-26T07:07:14.998Z</time></trkpt><trkpt lat="44.946667677213796" lon="9.41413079797141"><ele>172.0</ele><time>2026-04-26T07:07:15.998Z</time></trkpt><trkpt lat="44.94645729421385" lon="9.414033286002333"><ele>172.66666666666669</ele><time>2026-04-26T07:07:16.998Z</time></trkpt><trkpt lat="44.94623830715482" lon="9.413943810214025"><ele>173.33333333333334</ele><time>2026-04-26T07:07:17.998Z</time></trkpt><trkpt lat="44.946055414756785" lon="9.413863802929031"><ele>174.0</ele><time>2026-04-26T07:07:18.998Z</time></trkpt><trkpt lat="44.94588554942635" lon="9.413786620937893"><ele>174.0</ele><time>2026-04-26T07:07:19.997Z</time></trkpt><trkpt lat="44.9457082142505" lon="9.413715007897089"><ele>174.0</ele><time>2026-04-26T07:07:20.997Z</time></trkpt><trkpt lat="44.94551361845778" lon="9.413641124770894"><ele>174.0</ele><time>2026-04-26T07:07:21.997Z</time></trkpt><trkpt lat="44.945323904249186" lon="9.413568750771946"><ele>174.0</ele><time>2026-04-26T07:07:22.997Z</time></trkpt><trkpt lat="44.945152299456026" lon="9.413511872185257"><ele>174.0</ele><time>2026-04-26T07:07:23.997Z</time></trkpt><trkpt lat="44.94497754443841" lon="9.413489632777372"><ele>174.0</ele><time>2026-04-26T07:07:25Z</time></trkpt><trkpt lat="44.944813543605925" lon="9.413476374227098"><ele>174.75</ele><time>2026-04-26T07:07:26Z</time></trkpt><trkpt lat="44.94465002463967" lon="9.413451128219576"><ele>175.5</ele><time>2026-04-26T07:07:27Z</time></trkpt><trkpt lat="44.94450322428095" lon="9.413400111099376"><ele>176.25</ele><time>2026-04-26T07:07:28Z</time></trkpt><trkpt lat="44.94438165490685" lon="9.413350074123374"><ele>177.0</ele><time>2026-04-26T07:07:29Z</time></trkpt><trkpt lat="44.944280571661196" lon="9.413307598797335"><ele>177.8</ele><time>2026-04-26T07:07:30Z</time></trkpt><trkpt lat="44.94419807164346" lon="9.413293236260815"><ele>178.6</ele><time>2026-04-26T07:07:31Z</time></trkpt><trkpt lat="44.94413524627808" lon="9.413331861974864"><ele>179.4</ele><time>2026-04-26T07:07:32Z</time></trkpt><trkpt lat="44.94406998426624" lon="9.413420227415212"><ele>180.20000000000002</ele><time>2026-04-26T07:07:33Z</time></trkpt><trkpt lat="44.94402896442035" lon="9.413546107144375"><ele>181.0</ele><time>2026-04-26T07:07:34Z</time></trkpt><trkpt lat="44.944008963483626" lon="9.41372498519037"><ele>181.0</ele><time>2026-04-26T07:07:35Z</time></trkpt><trkpt lat="44.94397944105999" lon="9.41387548625516"><ele>181.0</ele><time>2026-04-26T07:07:36Z</time></trkpt><trkpt lat="44.94394649229896" lon="9.413982683622635"><ele>181.0</ele><time>2026-04-26T07:07:37Z</time></trkpt><trkpt lat="44.943897913520004" lon="9.414110966965675"><ele>181.0</ele><time>2026-04-26T07:07:39Z</time></trkpt><trkpt lat="44.943854439807374" lon="9.41404073678211"><ele>181.0</ele><time>2026-04-26T07:07:47Z</time></trkpt><trkpt lat="44.94386645977474" lon="9.41386875310858"><ele>181.0</ele><time>2026-04-26T07:07:49Z</time></trkpt><trkpt lat="44.943936438891804" lon="9.413756681453153"><ele>181.0</ele><time>2026-04-26T07:07:51Z</time></trkpt><trkpt lat="44.94395567333362" lon="9.413669112807261"><ele>181.0</ele><time>2026-04-26T07:07:52Z</time></trkpt><trkpt lat="44.94398069608174" lon="9.413564753766595"><ele>181.0</ele><time>2026-04-26T07:07:54Z</time></trkpt><trkpt lat="44.943790915836516" lon="9.413459054890078"><ele>181.0</ele><time>2026-04-26T07:07:56Z</time></trkpt><trkpt lat="44.94365227566668" lon="9.413458796956132"><ele>181.0</ele><time>2026-04-26T07:07:58Z</time></trkpt><trkpt lat="44.94357801524921" lon="9.41346691873757"><ele>181.0</ele><time>2026-04-26T07:07:59Z</time></trkpt><trkpt lat="44.94349079624342" lon="9.413469526120695"><ele>181.0</ele><time>2026-04-26T07:08:00Z</time></trkpt><trkpt lat="44.943385633243295" lon="9.413480755906564"><ele>181.0</ele><time>2026-04-26T07:08:00.999Z</time></trkpt><trkpt lat="44.94326457899569" lon="9.41350056539877"><ele>182.8</ele><time>2026-04-26T07:08:01.999Z</time></trkpt><trkpt lat="44.943137467374456" lon="9.413508737320045"><ele>184.60000000000002</ele><time>2026-04-26T07:08:02.999Z</time></trkpt><trkpt lat="44.94303806770025" lon="9.413510309485359"><ele>186.4</ele><time>2026-04-26T07:08:03.999Z</time></trkpt><trkpt lat="44.942959608024765" lon="9.41350244344537"><ele>188.2</ele><time>2026-04-26T07:08:04.999Z</time></trkpt><trkpt lat="44.94285426066446" lon="9.413417791677757"><ele>190.0</ele><time>2026-04-26T07:08:06.999Z</time></trkpt><trkpt lat="44.9428140822145" lon="9.413319252752162"><ele>190.0</ele><time>2026-04-26T07:08:07.999Z</time></trkpt><trkpt lat="44.94278109804148" lon="9.41319369400145"><ele>190.0</ele><time>2026-04-26T07:08:08.999Z</time></trkpt><trkpt lat="44.94274532840385" lon="9.413040108426733"><ele>190.0</ele><time>2026-04-26T07:08:09.999Z</time></trkpt><trkpt lat="44.94269301685339" lon="9.412862730302109"><ele>190.0</ele><time>2026-04-26T07:08:10.999Z</time></trkpt><trkpt lat="44.94263585895355" lon="9.41267763102024"><ele>191.33333333333334</ele><time>2026-04-26T07:08:11.999Z</time></trkpt><trkpt lat="44.94257585490529" lon="9.412456997871177"><ele>192.66666666666669</ele><time>2026-04-26T07:08:12.999Z</time></trkpt><trkpt lat="44.94251834098169" lon="9.412211532173053"><ele>194.0</ele><time>2026-04-26T07:08:13.999Z</time></trkpt><trkpt lat="44.942457285602636" lon="9.411958658571486"><ele>196.5</ele><time>2026-04-26T07:08:14.999Z</time></trkpt><trkpt lat="44.94240611002682" lon="9.411748550307777"><ele>199.0</ele><time>2026-04-26T07:08:15.999Z</time></trkpt><trkpt lat="44.94237338894024" lon="9.411591954613606"><ele>201.5</ele><time>2026-04-26T07:08:16.999Z</time></trkpt><trkpt lat="44.94235198190049" lon="9.411487752294843"><ele>204.0</ele><time>2026-04-26T07:08:17.999Z</time></trkpt><trkpt lat="44.94234055757041" lon="9.411335536908936"><ele>205.16666666666666</ele><time>2026-04-26T07:08:27.999Z</time></trkpt><trkpt lat="44.94235465848747" lon="9.41124216907107"><ele>206.33333333333331</ele><time>2026-04-26T07:08:28.999Z</time></trkpt><trkpt lat="44.94240023208646" lon="9.411111453510133"><ele>207.5</ele><time>2026-04-26T07:08:30.999Z</time></trkpt><trkpt lat="44.94241022066004" lon="9.41101890585995"><ele>208.66666666666666</ele><time>2026-04-26T07:08:31.999Z</time></trkpt><trkpt lat="44.94242187329268" lon="9.410910940125456"><ele>209.83333333333331</ele><time>2026-04-26T07:08:32.999Z</time></trkpt><trkpt lat="44.94243504240656" lon="9.410788923626374"><ele>211.0</ele><time>2026-04-26T07:08:33.999Z</time></trkpt><trkpt lat="44.94244659134656" lon="9.41067195839035"><ele>210.99999999999997</ele><time>2026-04-26T07:08:34.999Z</time></trkpt><trkpt lat="44.942453329248806" lon="9.410583504563027"><ele>211.0</ele><time>2026-04-26T07:08:35.999Z</time></trkpt><trkpt lat="44.942409160594536" lon="9.410459118157501"><ele>211.0</ele><time>2026-04-26T07:08:37.999Z</time></trkpt><trkpt lat="44.94233375278841" lon="9.410439339191287"><ele>211.0</ele><time>2026-04-26T07:08:38.999Z</time></trkpt><trkpt lat="44.94224830100201" lon="9.410447707358793"><ele>210.99999999999997</ele><time>2026-04-26T07:08:39.999Z</time></trkpt><trkpt lat="44.942158244422316" lon="9.410399343917383"><ele>211.0</ele><time>2026-04-26T07:08:40.999Z</time></trkpt><trkpt lat="44.94206132675627" lon="9.410376667745037"><ele>211.8</ele><time>2026-04-26T07:08:41.999Z</time></trkpt><trkpt lat="44.941962455568806" lon="9.410345039460788"><ele>212.60000000000002</ele><time>2026-04-26T07:08:42.999Z</time></trkpt><trkpt lat="44.94186641692841" lon="9.410319344213056"><ele>213.4</ele><time>2026-04-26T07:08:43.998Z</time></trkpt><trkpt lat="44.9417695329913" lon="9.41029083149166"><ele>214.2</ele><time>2026-04-26T07:08:44.998Z</time></trkpt><trkpt lat="44.9416882679471" lon="9.410259203690224"><ele>215.0</ele><time>2026-04-26T07:08:45.998Z</time></trkpt><trkpt lat="44.94161369952218" lon="9.41023062259602"><ele>216.6</ele><time>2026-04-26T07:08:46.998Z</time></trkpt><trkpt lat="44.941550526115876" lon="9.41020920600328"><ele>218.2</ele><time>2026-04-26T07:08:47.998Z</time></trkpt><trkpt lat="44.94148631505992" lon="9.410157343463721"><ele>219.8</ele><time>2026-04-26T07:08:48.998Z</time></trkpt><trkpt lat="44.94139899241357" lon="9.410148348533511"><ele>221.4</ele><time>2026-04-26T07:08:49.998Z</time></trkpt><trkpt lat="44.94129487513963" lon="9.410146808772124"><ele>223.0</ele><time>2026-04-26T07:08:50.998Z</time></trkpt><trkpt lat="44.94117708656017" lon="9.410111481782868"><ele>223.0</ele><time>2026-04-26T07:08:51.998Z</time></trkpt><trkpt lat="44.941065552658465" lon="9.410075572035563"><ele>223.0</ele><time>2026-04-26T07:08:52.998Z</time></trkpt><trkpt lat="44.94095207862575" lon="9.410040913976852"><ele>223.0</ele><time>2026-04-26T07:08:53.998Z</time></trkpt><trkpt lat="44.94083992539995" lon="9.409980414097722"><ele>223.0</ele><time>2026-04-26T07:08:54.998Z</time></trkpt><trkpt lat="44.9407273262545" lon="9.409941998548687"><ele>223.0</ele><time>2026-04-26T07:08:55.998Z</time></trkpt><trkpt lat="44.94061374225859" lon="9.409904544667743"><ele>223.0</ele><time>2026-04-26T07:08:56.998Z</time></trkpt><trkpt lat="44.94049654506337" lon="9.409868848946813"><ele>223.0</ele><time>2026-04-26T07:08:57.998Z</time></trkpt><trkpt lat="44.94037523834768" lon="9.409833078116646"><ele>223.0</ele><time>2026-04-26T07:08:58.998Z</time></trkpt><trkpt lat="44.94024579811983" lon="9.40981903437453"><ele>223.0</ele><time>2026-04-26T07:08:59.998Z</time></trkpt><trkpt lat="44.94012226394345" lon="9.409779220712483"><ele>223.0</ele><time>2026-04-26T07:09:00.998Z</time></trkpt><trkpt lat="44.93998223066298" lon="9.409737720666214"><ele>223.0</ele><time>2026-04-26T07:09:01.998Z</time></trkpt><trkpt lat="44.93985768269711" lon="9.40971296995625"><ele>223.0</ele><time>2026-04-26T07:09:02.998Z</time></trkpt><trkpt lat="44.93971985162497" lon="9.409687952148678"><ele>224.60000000000002</ele><time>2026-04-26T07:09:03.998Z</time></trkpt><trkpt lat="44.939602381672785" lon="9.40961777658692"><ele>226.20000000000002</ele><time>2026-04-26T07:09:04.998Z</time></trkpt><trkpt lat="44.939497771224524" lon="9.409571806794052"><ele>227.8</ele><time>2026-04-26T07:09:05.998Z</time></trkpt><trkpt lat="44.93942003950921" lon="9.409536204801242"><ele>229.4</ele><time>2026-04-26T07:09:06.998Z</time></trkpt><trkpt lat="44.939349931809595" lon="9.409503561492665"><ele>231.0</ele><time>2026-04-26T07:09:07.998Z</time></trkpt><trkpt lat="44.93927650073939" lon="9.409480964295163"><ele>232.60000000000002</ele><time>2026-04-26T07:09:08.998Z</time></trkpt><trkpt lat="44.93921305713947" lon="9.409439833998425"><ele>234.20000000000002</ele><time>2026-04-26T07:09:09.998Z</time></trkpt><trkpt lat="44.93914689518036" lon="9.40940903015069"><ele>235.79999999999998</ele><time>2026-04-26T07:09:10.998Z</time></trkpt><trkpt lat="44.93915762774085" lon="9.409156025352504"><ele>237.39999999999998</ele><time>2026-04-26T07:09:11.998Z</time></trkpt><trkpt lat="44.93915487935698" lon="9.409044670100505"><ele>239.0</ele><time>2026-04-26T07:09:12.998Z</time></trkpt><trkpt lat="44.939099111380166" lon="9.408954972328305"><ele>239.0</ele><time>2026-04-26T07:09:14.998Z</time></trkpt><trkpt lat="44.93899949843274" lon="9.409012898932898"><ele>238.99999999999997</ele><time>2026-04-26T07:09:16.998Z</time></trkpt><trkpt lat="44.93892668855293" lon="9.409067603152746"><ele>238.99999999999997</ele><time>2026-04-26T07:09:17.998Z</time></trkpt><trkpt lat="44.93882674740096" lon="9.409148609952531"><ele>239.0</ele><time>2026-04-26T07:09:18.998Z</time></trkpt><trkpt lat="44.938714169171035" lon="9.409252970440331"><ele>239.0</ele><time>2026-04-26T07:09:19.998Z</time></trkpt><trkpt lat="44.938637310366744" lon="9.409309172618096"><ele>239.0</ele><time>2026-04-26T07:09:20.998Z</time></trkpt><trkpt lat="44.93856952162393" lon="9.409318692357415"><ele>238.99999999999997</ele><time>2026-04-26T07:09:21.998Z</time></trkpt><trkpt lat="44.93847953778193" lon="9.409286202483077"><ele>238.99999999999997</ele><time>2026-04-26T07:09:22.998Z</time></trkpt><trkpt lat="44.93835761021746" lon="9.409235187055224"><ele>239.0</ele><time>2026-04-26T07:09:23.998Z</time></trkpt><trkpt lat="44.938218713057836" lon="9.409192600631881"><ele>239.0</ele><time>2026-04-26T07:09:24.998Z</time></trkpt><trkpt lat="44.93807586163427" lon="9.409159338910227"><ele>237.79999999999998</ele><time>2026-04-26T07:09:25.998Z</time></trkpt><trkpt lat="44.93793943813636" lon="9.409133609482002"><ele>236.59999999999997</ele><time>2026-04-26T07:09:26.997Z</time></trkpt><trkpt lat="44.937830612382285" lon="9.40912048618192"><ele>235.4</ele><time>2026-04-26T07:09:27.997Z</time></trkpt><trkpt lat="44.93774431404267" lon="9.409089645020222"><ele>234.2</ele><time>2026-04-26T07:09:28.997Z</time></trkpt><trkpt lat="44.93766341413715" lon="9.409067880057902"><ele>233.0</ele><time>2026-04-26T07:09:29.997Z</time></trkpt><trkpt lat="44.93756457255599" lon="9.409041889954695"><ele>232.8</ele><time>2026-04-26T07:09:32Z</time></trkpt><trkpt lat="44.937478253960556" lon="9.409015851827297"><ele>232.60000000000002</ele><time>2026-04-26T07:09:34Z</time></trkpt><trkpt lat="44.937375366970805" lon="9.408980387980678"><ele>232.39999999999998</ele><time>2026-04-26T07:09:36Z</time></trkpt><trkpt lat="44.93730569272435" lon="9.408959238431597"><ele>232.2</ele><time>2026-04-26T07:09:37Z</time></trkpt><trkpt lat="44.937209595327246" lon="9.4089490596974"><ele>232.0</ele><time>2026-04-26T07:09:38Z</time></trkpt><trkpt lat="44.937110383379135" lon="9.408936755948243"><ele>232.0</ele><time>2026-04-26T07:09:39Z</time></trkpt><trkpt lat="44.937020806832415" lon="9.408931086489575"><ele>232.0</ele><time>2026-04-26T07:09:40Z</time></trkpt><trkpt lat="44.93693065267263" lon="9.408922946954437"><ele>232.0</ele><time>2026-04-26T07:09:41Z</time></trkpt><trkpt lat="44.93683310955764" lon="9.408913776318094"><ele>232.0</ele><time>2026-04-26T07:09:42Z</time></trkpt><trkpt lat="44.936749449565006" lon="9.40891247078596"><ele>232.0</ele><time>2026-04-26T07:09:43Z</time></trkpt><trkpt lat="44.93665824959006" lon="9.408920373701255"><ele>231.6</ele><time>2026-04-26T07:09:44Z</time></trkpt><trkpt lat="44.936559779502886" lon="9.408927366702093"><ele>231.2</ele><time>2026-04-26T07:09:45Z</time></trkpt><trkpt lat="44.93645177145864" lon="9.408928686048066"><ele>230.8</ele><time>2026-04-26T07:09:46Z</time></trkpt><trkpt lat="44.9363411845314" lon="9.408927572629082"><ele>230.4</ele><time>2026-04-26T07:09:47Z</time></trkpt><trkpt lat="44.93624447731085" lon="9.408929201171338"><ele>230.0</ele><time>2026-04-26T07:09:48Z</time></trkpt><trkpt lat="44.93615928003525" lon="9.408940161621322"><ele>230.00000000000003</ele><time>2026-04-26T07:09:49Z</time></trkpt><trkpt lat="44.936086658033574" lon="9.40894956675695"><ele>230.0</ele><time>2026-04-26T07:09:50Z</time></trkpt><trkpt lat="44.93602104816995" lon="9.408958197810994"><ele>230.0</ele><time>2026-04-26T07:09:51Z</time></trkpt><trkpt lat="44.93589288875133" lon="9.408962480583227"><ele>230.0</ele><time>2026-04-26T07:09:53Z</time></trkpt><trkpt lat="44.93582816054417" lon="9.40896797106827"><ele>230.00000000000003</ele><time>2026-04-26T07:09:54Z</time></trkpt><trkpt lat="44.935731417339404" lon="9.408943075703062"><ele>230.0</ele><time>2026-04-26T07:09:56Z</time></trkpt><trkpt lat="44.93568104052724" lon="9.408888871545884"><ele>230.00000000000003</ele><time>2026-04-26T07:09:57Z</time></trkpt><trkpt lat="44.935625796706354" lon="9.408835639261195"><ele>230.0</ele><time>2026-04-26T07:09:58Z</time></trkpt><trkpt lat="44.93554955587841" lon="9.408801893062838"><ele>230.0</ele><time>2026-04-26T07:10:00Z</time></trkpt><trkpt lat="44.93548335973904" lon="9.408712785957398"><ele>230.0</ele><time>2026-04-26T07:10:02Z</time></trkpt><trkpt lat="44.93546888807847" lon="9.408618760044689"><ele>230.00000000000003</ele><time>2026-04-26T07:10:04Z</time></trkpt><trkpt lat="44.93547559067507" lon="9.40849220834337"><ele>230.0</ele><time>2026-04-26T07:10:05Z</time></trkpt><trkpt lat="44.935433715640386" lon="9.408304600975315"><ele>232.0</ele><time>2026-04-26T07:10:06.999Z</time></trkpt><trkpt lat="44.935413815561674" lon="9.408182324585635"><ele>234.0</ele><time>2026-04-26T07:10:07.999Z</time></trkpt><trkpt lat="44.93538076836519" lon="9.408028047396689"><ele>236.0</ele><time>2026-04-26T07:10:09.999Z</time></trkpt><trkpt lat="44.93535961394276" lon="9.407893418142807"><ele>238.0</ele><time>2026-04-26T07:10:11.999Z</time></trkpt><trkpt lat="44.93533618037581" lon="9.407697200051622"><ele>240.0</ele><time>2026-04-26T07:10:13.999Z</time></trkpt><trkpt lat="44.93531700928619" lon="9.407596923693445"><ele>241.83333333333334</ele><time>2026-04-26T07:10:14.999Z</time></trkpt><trkpt lat="44.93530552607864" lon="9.407480854284643"><ele>243.66666666666669</ele><time>2026-04-26T07:10:16.999Z</time></trkpt><trkpt lat="44.9352311337159" lon="9.40752824907709"><ele>245.5</ele><time>2026-04-26T07:10:18.999Z</time></trkpt><trkpt lat="44.93517203375161" lon="9.40759450036238"><ele>247.33333333333334</ele><time>2026-04-26T07:10:19.999Z</time></trkpt><trkpt lat="44.93510000054288" lon="9.40767095265421"><ele>249.16666666666669</ele><time>2026-04-26T07:10:21.999Z</time></trkpt><trkpt lat="44.9350210139842" lon="9.40772239607075"><ele>251.0</ele><time>2026-04-26T07:10:23.999Z</time></trkpt><trkpt lat="44.934920119929146" lon="9.407736279318755"><ele>251.00000000000003</ele><time>2026-04-26T07:10:25.999Z</time></trkpt><trkpt lat="44.934819543270564" lon="9.407687364029533"><ele>251.0</ele><time>2026-04-26T07:10:27.999Z</time></trkpt><trkpt lat="44.934743823183595" lon="9.40764325065298"><ele>251.0</ele><time>2026-04-26T07:10:29.999Z</time></trkpt><trkpt lat="44.934679059897206" lon="9.407613648628548"><ele>251.0</ele><time>2026-04-26T07:10:31.999Z</time></trkpt><trkpt lat="44.934583358687085" lon="9.407559959282192"><ele>251.00000000000003</ele><time>2026-04-26T07:11:00.998Z</time></trkpt><trkpt lat="44.93451701496484" lon="9.407558448162838"><ele>251.0</ele><time>2026-04-26T07:11:02.998Z</time></trkpt><trkpt lat="44.934446001237845" lon="9.40756047321652"><ele>251.00000000000003</ele><time>2026-04-26T07:11:04.998Z</time></trkpt><trkpt lat="44.934372831380664" lon="9.407578198778195"><ele>251.0</ele><time>2026-04-26T07:11:07.998Z</time></trkpt><trkpt lat="44.934310959046826" lon="9.407518278246906"><ele>251.0</ele><time>2026-04-26T07:11:10.998Z</time></trkpt><trkpt lat="44.934248367788385" lon="9.40739589201799"><ele>251.0</ele><time>2026-04-26T07:11:12.998Z</time></trkpt><trkpt lat="44.93418765436962" lon="9.407332385705162"><ele>251.00000000000003</ele><time>2026-04-26T07:11:13.998Z</time></trkpt><trkpt lat="44.93411480592589" lon="9.407254059275402"><ele>251.0</ele><time>2026-04-26T07:11:14.998Z</time></trkpt><trkpt lat="44.93406087819532" lon="9.407167256482202"><ele>253.66666666666669</ele><time>2026-04-26T07:11:15.998Z</time></trkpt><trkpt lat="44.93401504994743" lon="9.40707400334522"><ele>256.33333333333337</ele><time>2026-04-26T07:11:16.998Z</time></trkpt><trkpt lat="44.933954381011326" lon="9.4069964767339"><ele>259.0</ele><time>2026-04-26T07:11:17.998Z</time></trkpt><trkpt lat="44.933893574135496" lon="9.406914091903102"><ele>261.6666666666667</ele><time>2026-04-26T07:11:18.998Z</time></trkpt><trkpt lat="44.93382786083281" lon="9.406810290667314"><ele>264.3333333333333</ele><time>2026-04-26T07:11:19.998Z</time></trkpt><trkpt lat="44.93375765586245" lon="9.406719463608201"><ele>267.0</ele><time>2026-04-26T07:11:20.998Z</time></trkpt><trkpt lat="44.93370878391202" lon="9.406649053623271"><ele>267.0</ele><time>2026-04-26T07:11:21.998Z</time></trkpt><trkpt lat="44.93363847964551" lon="9.406537938714523"><ele>267.0</ele><time>2026-04-26T07:11:23.998Z</time></trkpt><trkpt lat="44.93358490544795" lon="9.406420774299546"><ele>267.0</ele><time>2026-04-26T07:11:25.998Z</time></trkpt><trkpt lat="44.93353403166839" lon="9.406315171306224"><ele>267.0</ele><time>2026-04-26T07:11:27.998Z</time></trkpt><trkpt lat="44.93347469173593" lon="9.406241166219294"><ele>267.0</ele><time>2026-04-26T07:11:29.998Z</time></trkpt><trkpt lat="44.93339253405736" lon="9.406178345086218"><ele>269.6666666666667</ele><time>2026-04-26T07:11:32.997Z</time></trkpt><trkpt lat="44.93331779797273" lon="9.406120947013623"><ele>272.3333333333333</ele><time>2026-04-26T07:11:34.997Z</time></trkpt><trkpt lat="44.93327117007978" lon="9.406018533019326"><ele>275.0</ele><time>2026-04-26T07:11:38Z</time></trkpt><trkpt lat="44.933286346788165" lon="9.405899382683351"><ele>277.66666666666663</ele><time>2026-04-26T07:11:41Z</time></trkpt><trkpt lat="44.933329931883804" lon="9.405771092214334"><ele>280.3333333333333</ele><time>2026-04-26T07:11:43Z</time></trkpt><trkpt lat="44.933346743741474" lon="9.405670684652456"><ele>283.0</ele><time>2026-04-26T07:11:45Z</time></trkpt><trkpt lat="44.93333349456907" lon="9.405576709742657"><ele>284.3333333333333</ele><time>2026-04-26T07:11:49Z</time></trkpt><trkpt lat="44.933345994757396" lon="9.405454798282609"><ele>285.66666666666663</ele><time>2026-04-26T07:11:52Z</time></trkpt><trkpt lat="44.93333204209642" lon="9.405348326007529"><ele>287.0</ele><time>2026-04-26T07:11:54Z</time></trkpt><trkpt lat="44.93332964008818" lon="9.405248171620508"><ele>288.3333333333333</ele><time>2026-04-26T07:11:56Z</time></trkpt><trkpt lat="44.933294959805195" lon="9.405161520735632"><ele>289.6666666666667</ele><time>2026-04-26T07:11:58Z</time></trkpt><trkpt lat="44.93327339004687" lon="9.405051311465071"><ele>291.0</ele><time>2026-04-26T07:12:00Z</time></trkpt><trkpt lat="44.933291250482036" lon="9.40495192599406"><ele>291.0</ele><time>2026-04-26T07:12:08Z</time></trkpt><trkpt lat="44.933381505181735" lon="9.404930011577559"><ele>291.0</ele><time>2026-04-26T07:13:09.998Z</time></trkpt><trkpt lat="44.93349922249013" lon="9.40506729817211"><ele>291.0</ele><time>2026-04-26T07:13:11.998Z</time></trkpt><trkpt lat="44.93354815458647" lon="9.405137269837274"><ele>291.0</ele><time>2026-04-26T07:13:12.998Z</time></trkpt><trkpt lat="44.93358041644976" lon="9.405291793141767"><ele>291.0</ele><time>2026-04-26T07:13:14.998Z</time></trkpt><trkpt lat="44.933600711834984" lon="9.405383456302573"><ele>290.3333333333333</ele><time>2026-04-26T07:13:15.998Z</time></trkpt><trkpt lat="44.933681332867124" lon="9.405496902144225"><ele>289.6666666666667</ele><time>2026-04-26T07:13:17.998Z</time></trkpt><trkpt lat="44.93375245454367" lon="9.40553518933035"><ele>289.0</ele><time>2026-04-26T07:13:18.998Z</time></trkpt><trkpt lat="44.93381515208987" lon="9.40557402122944"><ele>288.33333333333337</ele><time>2026-04-26T07:13:19.998Z</time></trkpt><trkpt lat="44.93390563445349" lon="9.405628786302595"><ele>287.6666666666667</ele><time>2026-04-26T07:13:20.998Z</time></trkpt><trkpt lat="44.93397949640262" lon="9.40563232939126"><ele>287.0</ele><time>2026-04-26T07:13:21.998Z</time></trkpt><trkpt lat="44.93408628543032" lon="9.405557341572536"><ele>287.0</ele><time>2026-04-26T07:13:23.998Z</time></trkpt><trkpt lat="44.93413439494992" lon="9.405496162466578"><ele>287.0</ele><time>2026-04-26T07:13:24.998Z</time></trkpt><trkpt lat="44.93418086621033" lon="9.405410638983698"><ele>287.0</ele><time>2026-04-26T07:13:25.998Z</time></trkpt><trkpt lat="44.934238785736206" lon="9.40533078437017"><ele>287.0</ele><time>2026-04-26T07:13:26.998Z</time></trkpt><trkpt lat="44.93429321936017" lon="9.405241463551997"><ele>287.0</ele><time>2026-04-26T07:13:27.998Z</time></trkpt><trkpt lat="44.9343435895033" lon="9.405145917631431"><ele>287.0</ele><time>2026-04-26T07:13:28.998Z</time></trkpt><trkpt lat="44.934385762701424" lon="9.405059501128086"><ele>287.8</ele><time>2026-04-26T07:13:29.998Z</time></trkpt><trkpt lat="44.93442486245268" lon="9.404978249253281"><ele>288.6</ele><time>2026-04-26T07:13:30.998Z</time></trkpt><trkpt lat="44.93447839827061" lon="9.404873647894446"><ele>289.40000000000003</ele><time>2026-04-26T07:13:32.998Z</time></trkpt><trkpt lat="44.93443108755808" lon="9.404705711525152"><ele>290.2</ele><time>2026-04-26T07:13:36.998Z</time></trkpt><trkpt lat="44.93435688370388" lon="9.40459938918182"><ele>291.0</ele><time>2026-04-26T07:13:38.997Z</time></trkpt><trkpt lat="44.93439394189577" lon="9.404514279841257"><ele>293.75</ele><time>2026-04-26T07:13:41.997Z</time></trkpt><trkpt lat="44.934192880543705" lon="9.404347185175439"><ele>296.5</ele><time>2026-04-26T07:13:44Z</time></trkpt><trkpt lat="44.93419795145919" lon="9.404237073179315"><ele>299.25</ele><time>2026-04-26T07:13:45Z</time></trkpt><trkpt lat="44.934230348394074" lon="9.40406703482888"><ele>302.0</ele><time>2026-04-26T07:13:47Z</time></trkpt><trkpt lat="44.93426139447104" lon="9.40392404505531"><ele>304.1666666666667</ele><time>2026-04-26T07:13:48Z</time></trkpt><trkpt lat="44.934293331491084" lon="9.403803843490694"><ele>306.33333333333337</ele><time>2026-04-26T07:13:49Z</time></trkpt><trkpt lat="44.93431620455478" lon="9.403720729258197"><ele>308.5</ele><time>2026-04-26T07:13:50Z</time></trkpt><trkpt lat="44.93433756267442" lon="9.403635857945337"><ele>310.6666666666667</ele><time>2026-04-26T07:13:51Z</time></trkpt><trkpt lat="44.9343597059615" lon="9.403530405551141"><ele>312.8333333333333</ele><time>2026-04-26T07:13:53Z</time></trkpt><trkpt lat="44.93441502956371" lon="9.403397115049849"><ele>315.0</ele><time>2026-04-26T07:13:55Z</time></trkpt><trkpt lat="44.93502005909568" lon="9.4034381958588"><ele>314.4</ele><time>2026-04-26T07:13:57Z</time></trkpt><trkpt lat="44.93508441391606" lon="9.40338043457062"><ele>313.8</ele><time>2026-04-26T07:13:58Z</time></trkpt><trkpt lat="44.935147534213634" lon="9.403305251348474"><ele>313.2</ele><time>2026-04-26T07:13:59Z</time></trkpt><trkpt lat="44.93520109220871" lon="9.403148362218198"><ele>312.6</ele><time>2026-04-26T07:14:01Z</time></trkpt><trkpt lat="44.935191945436365" lon="9.403039114020949"><ele>312.0</ele><time>2026-04-26T07:14:02Z</time></trkpt><trkpt lat="44.9351613250505" lon="9.402912659219362"><ele>312.0</ele><time>2026-04-26T07:14:03Z</time></trkpt><trkpt lat="44.93511553314414" lon="9.402766414574238"><ele>312.0</ele><time>2026-04-26T07:14:04Z</time></trkpt><trkpt lat="44.93506359769219" lon="9.402609898528487"><ele>312.0</ele><time>2026-04-26T07:14:05Z</time></trkpt><trkpt lat="44.93500531375161" lon="9.402432963195192"><ele>312.0</ele><time>2026-04-26T07:14:06Z</time></trkpt><trkpt lat="44.93494916258418" lon="9.40223430590784"><ele>318.3333333333333</ele><time>2026-04-26T07:14:07Z</time></trkpt><trkpt lat="44.93489187025031" lon="9.40201898034912"><ele>324.66666666666663</ele><time>2026-04-26T07:14:08Z</time></trkpt><trkpt lat="44.934833106688465" lon="9.40179660460272"><ele>331.0</ele><time>2026-04-26T07:14:09Z</time></trkpt><trkpt lat="44.93478232958585" lon="9.401613943983103"><ele>331.0</ele><time>2026-04-26T07:14:10Z</time></trkpt><trkpt lat="44.93472000336491" lon="9.401476470869708"><ele>331.0</ele><time>2026-04-26T07:14:11Z</time></trkpt><trkpt lat="44.93465575849784" lon="9.401361789001665"><ele>331.0</ele><time>2026-04-26T07:14:12Z</time></trkpt><trkpt lat="44.934605372937426" lon="9.401269895037561"><ele>331.0</ele><time>2026-04-26T07:14:13Z</time></trkpt><trkpt lat="44.934568554202045" lon="9.401181026040868"><ele>331.0</ele><time>2026-04-26T07:14:14Z</time></trkpt><trkpt lat="44.93450786277907" lon="9.401067363467735"><ele>332.5</ele><time>2026-04-26T07:14:15Z</time></trkpt><trkpt lat="44.934478336248844" lon="9.400978169201329"><ele>334.0</ele><time>2026-04-26T07:14:16Z</time></trkpt><trkpt lat="44.93444617845623" lon="9.400837142399693"><ele>335.5</ele><time>2026-04-26T07:14:17.999Z</time></trkpt><trkpt lat="44.934502034181826" lon="9.400721956747953"><ele>337.0</ele><time>2026-04-26T07:14:20.999Z</time></trkpt><trkpt lat="44.93457628324496" lon="9.400691701907249"><ele>338.5</ele><time>2026-04-26T07:14:21.999Z</time></trkpt><trkpt lat="44.93466826704686" lon="9.400689872254482"><ele>340.0</ele><time>2026-04-26T07:14:22.999Z</time></trkpt><trkpt lat="44.93480467657905" lon="9.400699523328038"><ele>340.0</ele><time>2026-04-26T07:14:23.999Z</time></trkpt><trkpt lat="44.9349572375535" lon="9.40071090012884"><ele>340.0</ele><time>2026-04-26T07:14:24.999Z</time></trkpt><trkpt lat="44.93506765679686" lon="9.400729927554028"><ele>340.0</ele><time>2026-04-26T07:14:25.999Z</time></trkpt><trkpt lat="44.93513764425362" lon="9.40075521642208"><ele>340.0</ele><time>2026-04-26T07:14:26.999Z</time></trkpt><trkpt lat="44.93522531813956" lon="9.400786134240828"><ele>340.0</ele><time>2026-04-26T07:14:28.999Z</time></trkpt><trkpt lat="44.93530659410698" lon="9.400789305790195"><ele>338.8333333333333</ele><time>2026-04-26T07:14:30.999Z</time></trkpt><trkpt lat="44.93536992845587" lon="9.400796799892026"><ele>337.66666666666663</ele><time>2026-04-26T07:14:33.999Z</time></trkpt><trkpt lat="44.93545984410256" lon="9.400792573820006"><ele>336.5</ele><time>2026-04-26T07:14:36.999Z</time></trkpt><trkpt lat="44.935534917204066" lon="9.400787712742456"><ele>335.3333333333333</ele><time>2026-04-26T07:14:38.999Z</time></trkpt><trkpt lat="44.93563146077322" lon="9.400783585731366"><ele>334.1666666666667</ele><time>2026-04-26T07:14:40.999Z</time></trkpt><trkpt lat="44.935752318565115" lon="9.40078421722205"><ele>333.0</ele><time>2026-04-26T07:14:42.999Z</time></trkpt><trkpt lat="44.93582897432268" lon="9.400796772056903"><ele>331.6666666666667</ele><time>2026-04-26T07:14:43.999Z</time></trkpt><trkpt lat="44.935907754423674" lon="9.400796113501132"><ele>330.3333333333333</ele><time>2026-04-26T07:14:44.999Z</time></trkpt><trkpt lat="44.93598227943583" lon="9.400790862680276"><ele>329.0</ele><time>2026-04-26T07:14:45.999Z</time></trkpt><trkpt lat="44.936048252601736" lon="9.400784856603584"><ele>327.66666666666663</ele><time>2026-04-26T07:14:46.999Z</time></trkpt><trkpt lat="44.93613949827113" lon="9.400786587695833"><ele>326.3333333333333</ele><time>2026-04-26T07:14:47.999Z</time></trkpt><trkpt lat="44.936236611147585" lon="9.400783906521438"><ele>325.0</ele><time>2026-04-26T07:14:48.999Z</time></trkpt><trkpt lat="44.936324530373014" lon="9.400792997001851"><ele>325.0</ele><time>2026-04-26T07:14:49.999Z</time></trkpt><trkpt lat="44.936405189555195" lon="9.40080041613399"><ele>325.0</ele><time>2026-04-26T07:14:50.999Z</time></trkpt><trkpt lat="44.93649975019343" lon="9.400802831854493"><ele>325.0</ele><time>2026-04-26T07:14:51.999Z</time></trkpt><trkpt lat="44.93658217723576" lon="9.400798605410104"><ele>325.0</ele><time>2026-04-26T07:14:52.999Z</time></trkpt><trkpt lat="44.93666851020952" lon="9.400795971181608"><ele>325.0</ele><time>2026-04-26T07:14:53.999Z</time></trkpt><trkpt lat="44.936741510255814" lon="9.40079455109147"><ele>325.0</ele><time>2026-04-26T07:14:54.999Z</time></trkpt><trkpt lat="44.936820728904735" lon="9.400793874303167"><ele>325.0</ele><time>2026-04-26T07:14:56.999Z</time></trkpt><trkpt lat="44.93681356122307" lon="9.4006956830689"><ele>325.0</ele><time>2026-04-26T07:14:59.998Z</time></trkpt><trkpt lat="44.93675824513807" lon="9.400639585871843"><ele>325.0</ele><time>2026-04-26T07:15:00.998Z</time></trkpt><trkpt lat="44.9366941978687" lon="9.400593701467802"><ele>325.0</ele><time>2026-04-26T07:15:01.998Z</time></trkpt><trkpt lat="44.93661447342324" lon="9.400450176451749"><ele>325.0</ele><time>2026-04-26T07:15:03.998Z</time></trkpt><trkpt lat="44.93656758352388" lon="9.400371219052728"><ele>325.0</ele><time>2026-04-26T07:15:04.998Z</time></trkpt><trkpt lat="44.936507018746624" lon="9.400285655320015"><ele>326.8333333333333</ele><time>2026-04-26T07:15:05.998Z</time></trkpt><trkpt lat="44.936445496406506" lon="9.40020452714805"><ele>328.66666666666663</ele><time>2026-04-26T07:15:06.998Z</time></trkpt><trkpt lat="44.936389110642686" lon="9.400129635478324"><ele>330.5</ele><time>2026-04-26T07:15:07.998Z</time></trkpt><trkpt lat="44.936335243715874" lon="9.400055299985189"><ele>332.3333333333333</ele><time>2026-04-26T07:15:08.998Z</time></trkpt><trkpt lat="44.93627949244332" lon="9.399979508002342"><ele>334.1666666666667</ele><time>2026-04-26T07:15:09.998Z</time></trkpt><trkpt lat="44.936212851113865" lon="9.399893224999722"><ele>336.0</ele><time>2026-04-26T07:15:10.998Z</time></trkpt><trkpt lat="44.936143309551056" lon="9.399803942899032"><ele>336.0</ele><time>2026-04-26T07:15:11.998Z</time></trkpt><trkpt lat="44.93605989872407" lon="9.399715611488686"><ele>336.0</ele><time>2026-04-26T07:15:12.998Z</time></trkpt><trkpt lat="44.93600534969397" lon="9.399644610653848"><ele>336.0</ele><time>2026-04-26T07:15:13.998Z</time></trkpt><trkpt lat="44.93598369774634" lon="9.3995594332014"><ele>336.0</ele><time>2026-04-26T07:15:14.998Z</time></trkpt><trkpt lat="44.935975529051305" lon="9.399454782621756"><ele>336.0</ele><time>2026-04-26T07:15:15.998Z</time></trkpt><trkpt lat="44.93595597865366" lon="9.399336775603429"><ele>336.0</ele><time>2026-04-26T07:15:16.998Z</time></trkpt><trkpt lat="44.93592621324403" lon="9.399221976479016"><ele>336.8</ele><time>2026-04-26T07:15:17.998Z</time></trkpt><trkpt lat="44.93591461047339" lon="9.399117166608418"><ele>337.6</ele><time>2026-04-26T07:15:18.998Z</time></trkpt><trkpt lat="44.93594738282417" lon="9.39899948800843"><ele>338.4</ele><time>2026-04-26T07:15:19.998Z</time></trkpt><trkpt lat="44.93599671156913" lon="9.398861809781177"><ele>339.2</ele><time>2026-04-26T07:15:20.998Z</time></trkpt><trkpt lat="44.93605242787607" lon="9.398723699467059"><ele>340.0</ele><time>2026-04-26T07:15:21.998Z</time></trkpt><trkpt lat="44.936122975918686" lon="9.398628034645144"><ele>341.3333333333333</ele><time>2026-04-26T07:15:22.998Z</time></trkpt><trkpt lat="44.93620902541926" lon="9.39853466286655"><ele>342.66666666666663</ele><time>2026-04-26T07:15:23.998Z</time></trkpt><trkpt lat="44.936276619996" lon="9.398444132072278"><ele>344.0</ele><time>2026-04-26T07:15:24.998Z</time></trkpt><trkpt lat="44.93633719773607" lon="9.39834669268642"><ele>345.3333333333333</ele><time>2026-04-26T07:15:25.998Z</time></trkpt><trkpt lat="44.93637475773661" lon="9.39825261447156"><ele>346.6666666666667</ele><time>2026-04-26T07:15:26.998Z</time></trkpt><trkpt lat="44.936397796121106" lon="9.398155800921986"><ele>348.0</ele><time>2026-04-26T07:15:27.998Z</time></trkpt><trkpt lat="44.93641353785836" lon="9.398061959915319"><ele>348.1666666666667</ele><time>2026-04-26T07:15:28.998Z</time></trkpt><trkpt lat="44.93638312473332" lon="9.397916225085059"><ele>348.3333333333333</ele><time>2026-04-26T07:15:30.998Z</time></trkpt><trkpt lat="44.936352273692115" lon="9.397837742724295"><ele>348.5</ele><time>2026-04-26T07:15:32.998Z</time></trkpt><trkpt lat="44.93632209523344" lon="9.397749801620199"><ele>348.66666666666663</ele><time>2026-04-26T07:16:09Z</time></trkpt><trkpt lat="44.936274019931645" lon="9.397602979739665"><ele>348.8333333333333</ele><time>2026-04-26T07:16:11Z</time></trkpt><trkpt lat="44.93623284969575" lon="9.397509253750949"><ele>349.0</ele><time>2026-04-26T07:16:12Z</time></trkpt><trkpt lat="44.93619287453107" lon="9.397372684491739"><ele>349.0</ele><time>2026-04-26T07:16:13Z</time></trkpt><trkpt lat="44.936137239992505" lon="9.39725098602175"><ele>349.0</ele><time>2026-04-26T07:16:14Z</time></trkpt><trkpt lat="44.936084896675816" lon="9.39713947968807"><ele>349.0</ele><time>2026-04-26T07:16:15Z</time></trkpt><trkpt lat="44.93603628673372" lon="9.397047762458891"><ele>349.0</ele><time>2026-04-26T07:16:16Z</time></trkpt><trkpt lat="44.93597843093832" lon="9.39695591387516"><ele>349.0</ele><time>2026-04-26T07:16:17Z</time></trkpt><trkpt lat="44.935885429371105" lon="9.396923470061694"><ele>351.4</ele><time>2026-04-26T07:16:18Z</time></trkpt><trkpt lat="44.935809185917066" lon="9.396886823659164"><ele>353.79999999999995</ele><time>2026-04-26T07:16:19Z</time></trkpt><trkpt lat="44.93575726186216" lon="9.396835265090866"><ele>356.20000000000005</ele><time>2026-04-26T07:16:20Z</time></trkpt><trkpt lat="44.935743874200426" lon="9.396639236123205"><ele>358.6</ele><time>2026-04-26T07:16:22Z</time></trkpt><trkpt lat="44.93569607690549" lon="9.396494509009296"><ele>361.0</ele><time>2026-04-26T07:16:23Z</time></trkpt><trkpt lat="44.93565776116704" lon="9.396371093724854"><ele>361.4</ele><time>2026-04-26T07:16:23.999Z</time></trkpt><trkpt lat="44.9356337685132" lon="9.396268889710917"><ele>361.8</ele><time>2026-04-26T07:16:24.999Z</time></trkpt><trkpt lat="44.935637242597885" lon="9.39615601468962"><ele>362.2</ele><time>2026-04-26T07:16:25.999Z</time></trkpt><trkpt lat="44.935670640876154" lon="9.396004919146057"><ele>362.59999999999997</ele><time>2026-04-26T07:16:26.999Z</time></trkpt><trkpt lat="44.935723043298566" lon="9.395839751821716"><ele>363.0</ele><time>2026-04-26T07:16:27.999Z</time></trkpt><trkpt lat="44.935781855827535" lon="9.395665871265827"><ele>363.0</ele><time>2026-04-26T07:16:28.999Z</time></trkpt><trkpt lat="44.93579035619557" lon="9.395531672275625"><ele>363.0</ele><time>2026-04-26T07:16:29.999Z</time></trkpt><trkpt lat="44.93580877362797" lon="9.395395739077477"><ele>363.0</ele><time>2026-04-26T07:16:30.999Z</time></trkpt><trkpt lat="44.93585261192662" lon="9.395264196873525"><ele>363.0</ele><time>2026-04-26T07:16:31.999Z</time></trkpt><trkpt lat="44.93589857723999" lon="9.395137452973808"><ele>363.0</ele><time>2026-04-26T07:16:32.999Z</time></trkpt><trkpt lat="44.93594939779671" lon="9.395012027629365"><ele>361.4</ele><time>2026-04-26T07:16:33.999Z</time></trkpt><trkpt lat="44.936008054894536" lon="9.394876217260673"><ele>359.79999999999995</ele><time>2026-04-26T07:16:34.999Z</time></trkpt><trkpt lat="44.9360555396116" lon="9.394771675743932"><ele>358.2</ele><time>2026-04-26T07:16:35.999Z</time></trkpt><trkpt lat="44.9360968496185" lon="9.394680851069541"><ele>356.6</ele><time>2026-04-26T07:16:36.999Z</time></trkpt><trkpt lat="44.936149684976044" lon="9.394548155516135"><ele>355.0</ele><time>2026-04-26T07:16:38.999Z</time></trkpt><trkpt lat="44.93614890332829" lon="9.394419511497686"><ele>355.0</ele><time>2026-04-26T07:16:39.999Z</time></trkpt><trkpt lat="44.93604776148383" lon="9.394336831690728"><ele>355.0</ele><time>2026-04-26T07:16:40.999Z</time></trkpt><trkpt lat="44.936039514427875" lon="9.394217075718045"><ele>355.0</ele><time>2026-04-26T07:16:41.999Z</time></trkpt><trkpt lat="44.936027626859534" lon="9.394087678169107"><ele>355.0</ele><time>2026-04-26T07:16:42.999Z</time></trkpt><trkpt lat="44.936021270013384" lon="9.393959493799864"><ele>355.0</ele><time>2026-04-26T07:16:43.999Z</time></trkpt><trkpt lat="44.93601453046" lon="9.393819644199791"><ele>354.3333333333333</ele><time>2026-04-26T07:16:44.999Z</time></trkpt><trkpt lat="44.93600880539779" lon="9.393694338670922"><ele>353.66666666666663</ele><time>2026-04-26T07:16:45.999Z</time></trkpt><trkpt lat="44.93600401274162" lon="9.393593304039431"><ele>353.0</ele><time>2026-04-26T07:16:46.999Z</time></trkpt><trkpt lat="44.93598991948996" lon="9.393419816251011"><ele>352.3333333333333</ele><time>2026-04-26T07:16:48.999Z</time></trkpt><trkpt lat="44.9359600403356" lon="9.39333612044848"><ele>351.6666666666667</ele><time>2026-04-26T07:16:49.999Z</time></trkpt><trkpt lat="44.935963285886366" lon="9.393239005837643"><ele>351.0</ele><time>2026-04-26T07:16:50.999Z</time></trkpt><trkpt lat="44.93595115202298" lon="9.393135559228904"><ele>352.20000000000005</ele><time>2026-04-26T07:16:51.999Z</time></trkpt><trkpt lat="44.93592534006171" lon="9.392977738045417"><ele>353.40000000000003</ele><time>2026-04-26T07:16:53.999Z</time></trkpt><trkpt lat="44.93584626842373" lon="9.392847955480551"><ele>354.6</ele><time>2026-04-26T07:16:55.999Z</time></trkpt><trkpt lat="44.93577541362461" lon="9.392781684973619"><ele>355.8</ele><time>2026-04-26T07:16:56.999Z</time></trkpt><trkpt lat="44.9357010765992" lon="9.392664099737301"><ele>357.0</ele><time>2026-04-26T07:16:57.999Z</time></trkpt><trkpt lat="44.935616513945874" lon="9.392548399805747"><ele>357.0</ele><time>2026-04-26T07:16:58.999Z</time></trkpt><trkpt lat="44.93553289332306" lon="9.39246244638459"><ele>357.0</ele><time>2026-04-26T07:16:59.999Z</time></trkpt><trkpt lat="44.93546529892985" lon="9.392367723425433"><ele>357.0</ele><time>2026-04-26T07:17:00.999Z</time></trkpt><trkpt lat="44.93539659864995" lon="9.392276259726339"><ele>357.0</ele><time>2026-04-26T07:17:01.999Z</time></trkpt><trkpt lat="44.935347149583926" lon="9.39217093618288"><ele>357.0</ele><time>2026-04-26T07:17:02.999Z</time></trkpt><trkpt lat="44.93528602229233" lon="9.392083043959616"><ele>356.7142857142857</ele><time>2026-04-26T07:17:03.999Z</time></trkpt><trkpt lat="44.93523017978652" lon="9.392014898427627"><ele>356.42857142857144</ele><time>2026-04-26T07:17:04.999Z</time></trkpt><trkpt lat="44.935174769275015" lon="9.391964470249167"><ele>356.1428571428571</ele><time>2026-04-26T07:17:05.999Z</time></trkpt><trkpt lat="44.935102494214576" lon="9.391931287780844"><ele>355.8571428571429</ele><time>2026-04-26T07:17:06.998Z</time></trkpt><trkpt lat="44.935037051057044" lon="9.391921751707738"><ele>355.57142857142856</ele><time>2026-04-26T07:17:07.998Z</time></trkpt><trkpt lat="44.93495265250692" lon="9.391887928793238"><ele>355.2857142857143</ele><time>2026-04-26T07:17:09.998Z</time></trkpt><trkpt lat="44.93490914880089" lon="9.391822002348297"><ele>355.0</ele><time>2026-04-26T07:17:10.998Z</time></trkpt><trkpt lat="44.93488285095017" lon="9.39172365346039"><ele>355.0</ele><time>2026-04-26T07:17:11.998Z</time></trkpt><trkpt lat="44.93485074423499" lon="9.391612062969042"><ele>355.0</ele><time>2026-04-26T07:17:12.998Z</time></trkpt><trkpt lat="44.934809731081835" lon="9.391486741368345"><ele>355.0</ele><time>2026-04-26T07:17:13.998Z</time></trkpt><trkpt lat="44.93475814030433" lon="9.391329098323029"><ele>355.0</ele><time>2026-04-26T07:17:14.998Z</time></trkpt><trkpt lat="44.93468769888577" lon="9.391192635202453"><ele>355.0</ele><time>2026-04-26T07:17:15.998Z</time></trkpt><trkpt lat="44.934634318451344" lon="9.391045720944147"><ele>354.66666666666663</ele><time>2026-04-26T07:17:16.998Z</time></trkpt><trkpt lat="44.934588834179195" lon="9.39094083459354"><ele>354.3333333333333</ele><time>2026-04-26T07:17:17.998Z</time></trkpt><trkpt lat="44.93454347764926" lon="9.390861724449346"><ele>354.0</ele><time>2026-04-26T07:17:18.998Z</time></trkpt><trkpt lat="44.934491318086216" lon="9.39080216196318"><ele>353.6666666666667</ele><time>2026-04-26T07:17:19.998Z</time></trkpt><trkpt lat="44.93441100666861" lon="9.390727635458823"><ele>353.33333333333337</ele><time>2026-04-26T07:17:20.998Z</time></trkpt><trkpt lat="44.93430149121245" lon="9.39066150578735"><ele>353.0</ele><time>2026-04-26T07:17:21.998Z</time></trkpt><trkpt lat="44.93417329323297" lon="9.390570654535633"><ele>351.0</ele><time>2026-04-26T07:17:22.998Z</time></trkpt><trkpt lat="44.934075490787095" lon="9.39047738869902"><ele>349.0</ele><time>2026-04-26T07:17:23.998Z</time></trkpt><trkpt lat="44.933991719777424" lon="9.39037500583638"><ele>347.0</ele><time>2026-04-26T07:17:24.998Z</time></trkpt><trkpt lat="44.93391898589954" lon="9.390277993849768"><ele>345.0</ele><time>2026-04-26T07:17:25.998Z</time></trkpt><trkpt lat="44.93384335055394" lon="9.390188082569551"><ele>343.0</ele><time>2026-04-26T07:17:26.998Z</time></trkpt><trkpt lat="44.93376026562854" lon="9.390096244032446"><ele>343.0</ele><time>2026-04-26T07:17:27.998Z</time></trkpt><trkpt lat="44.93367959468993" lon="9.390013146092796"><ele>343.0</ele><time>2026-04-26T07:17:28.998Z</time></trkpt><trkpt lat="44.933619764875935" lon="9.38990269990889"><ele>343.0</ele><time>2026-04-26T07:17:30.998Z</time></trkpt><trkpt lat="44.9336144021134" lon="9.389796836215828"><ele>343.0</ele><time>2026-04-26T07:17:31.998Z</time></trkpt><trkpt lat="44.93360053767747" lon="9.389654593971988"><ele>343.0</ele><time>2026-04-26T07:17:32.998Z</time></trkpt><trkpt lat="44.9335863466096" lon="9.38951383457421"><ele>342.16666666666663</ele><time>2026-04-26T07:17:33.998Z</time></trkpt><trkpt lat="44.93357448085572" lon="9.389392639103313"><ele>341.3333333333333</ele><time>2026-04-26T07:17:34.998Z</time></trkpt><trkpt lat="44.933558122329195" lon="9.389291791673191"><ele>340.5</ele><time>2026-04-26T07:17:35.998Z</time></trkpt><trkpt lat="44.933531501122026" lon="9.389198813467997"><ele>339.6666666666667</ele><time>2026-04-26T07:17:36.998Z</time></trkpt><trkpt lat="44.93349067823072" lon="9.389109184677531"><ele>338.83333333333337</ele><time>2026-04-26T07:17:37.998Z</time></trkpt><trkpt lat="44.93343068487974" lon="9.38900547791658"><ele>338.0</ele><time>2026-04-26T07:17:38.998Z</time></trkpt><trkpt lat="44.93336272130342" lon="9.388888955359198"><ele>338.2</ele><time>2026-04-26T07:17:39.998Z</time></trkpt><trkpt lat="44.93330568768149" lon="9.388787037455826"><ele>338.4</ele><time>2026-04-26T07:17:40.998Z</time></trkpt><trkpt lat="44.93326289938045" lon="9.388711274489976"><ele>338.59999999999997</ele><time>2026-04-26T07:17:41.998Z</time></trkpt><trkpt lat="44.93317966751543" lon="9.388597176828453"><ele>338.79999999999995</ele><time>2026-04-26T07:17:43.998Z</time></trkpt><trkpt lat="44.93313801631292" lon="9.388506087154397"><ele>339.0</ele><time>2026-04-26T07:17:45.998Z</time></trkpt><trkpt lat="44.93312746017052" lon="9.388327600350475"><ele>339.0</ele><time>2026-04-26T07:17:47.998Z</time></trkpt><trkpt lat="44.93311663082062" lon="9.388203911466535"><ele>339.0</ele><time>2026-04-26T07:17:48.998Z</time></trkpt><trkpt lat="44.9330926472652" lon="9.3881161859297"><ele>339.0</ele><time>2026-04-26T07:17:49.997Z</time></trkpt><trkpt lat="44.933073787787855" lon="9.38803112405148"><ele>339.0</ele><time>2026-04-26T07:17:50.997Z</time></trkpt><trkpt lat="44.93305381558484" lon="9.387903484135732"><ele>339.0</ele><time>2026-04-26T07:17:51.997Z</time></trkpt><trkpt lat="44.93303610444274" lon="9.387740957761507"><ele>339.0</ele><time>2026-04-26T07:17:52.997Z</time></trkpt><trkpt lat="44.9330202185367" lon="9.38758552026959"><ele>336.0</ele><time>2026-04-26T07:17:53.997Z</time></trkpt><trkpt lat="44.933016041479775" lon="9.387466783719287"><ele>333.0</ele><time>2026-04-26T07:17:55Z</time></trkpt><trkpt lat="44.933010015087255" lon="9.387361861290694"><ele>330.0</ele><time>2026-04-26T07:17:56Z</time></trkpt><trkpt lat="44.933006073110825" lon="9.387268587669993"><ele>327.0</ele><time>2026-04-26T07:17:57Z</time></trkpt><trkpt lat="44.93304764836137" lon="9.387111613597408"><ele>324.0</ele><time>2026-04-26T07:17:59Z</time></trkpt><trkpt lat="44.93307016924116" lon="9.386957883034565"><ele>321.2</ele><time>2026-04-26T07:18:01Z</time></trkpt><trkpt lat="44.93300160686871" lon="9.38682238583878"><ele>318.4</ele><time>2026-04-26T07:18:03Z</time></trkpt><trkpt lat="44.932940697376175" lon="9.38674798881804"><ele>315.6</ele><time>2026-04-26T07:18:04Z</time></trkpt><trkpt lat="44.93289712927314" lon="9.386657790164056"><ele>312.8</ele><time>2026-04-26T07:18:05Z</time></trkpt><trkpt lat="44.93286688669047" lon="9.386577177024305"><ele>310.0</ele><time>2026-04-26T07:18:06Z</time></trkpt><trkpt lat="44.932808174159845" lon="9.386438050002988"><ele>310.0</ele><time>2026-04-26T07:18:08Z</time></trkpt><trkpt lat="44.93275613814063" lon="9.386338724412015"><ele>310.0</ele><time>2026-04-26T07:18:11Z</time></trkpt><trkpt lat="44.9327328337032" lon="9.386241463131432"><ele>310.0</ele><time>2026-04-26T07:18:13Z</time></trkpt><trkpt lat="44.93268094900003" lon="9.38613848107032"><ele>310.0</ele><time>2026-04-26T07:18:15Z</time></trkpt><trkpt lat="44.93256722094584" lon="9.386083116547445"><ele>310.0</ele><time>2026-04-26T07:18:17Z</time></trkpt><trkpt lat="44.93249573446631" lon="9.386075585085697"><ele>310.0</ele><time>2026-04-26T07:18:18Z</time></trkpt><trkpt lat="44.932428107414104" lon="9.386064614835536"><ele>310.0</ele><time>2026-04-26T07:18:19Z</time></trkpt><trkpt lat="44.93232193147684" lon="9.385994033059221"><ele>310.0</ele><time>2026-04-26T07:18:21Z</time></trkpt><trkpt lat="44.93226533084575" lon="9.385931330596913"><ele>310.0</ele><time>2026-04-26T07:18:22Z</time></trkpt><trkpt lat="44.9322053743522" lon="9.385863940804619"><ele>310.0</ele><time>2026-04-26T07:18:23Z</time></trkpt><trkpt lat="44.93214472244141" lon="9.385789777633825"><ele>310.0</ele><time>2026-04-26T07:18:24Z</time></trkpt><trkpt lat="44.93207989223804" lon="9.385699996703844"><ele>310.0</ele><time>2026-04-26T07:18:25Z</time></trkpt><trkpt lat="44.93202960383788" lon="9.385614716582324"><ele>310.0</ele><time>2026-04-26T07:18:26Z</time></trkpt><trkpt lat="44.93198936661609" lon="9.385532100422667"><ele>310.0</ele><time>2026-04-26T07:18:27Z</time></trkpt><trkpt lat="44.93194039821752" lon="9.385456677657373"><ele>310.0</ele><time>2026-04-26T07:18:28Z</time></trkpt><trkpt lat="44.931916205501466" lon="9.385368217239904"><ele>310.0</ele><time>2026-04-26T07:18:29Z</time></trkpt><trkpt lat="44.93190548993798" lon="9.385278981239685"><ele>310.0</ele><time>2026-04-26T07:18:29.999Z</time></trkpt><trkpt lat="44.93186618128657" lon="9.385142505397669"><ele>310.0</ele><time>2026-04-26T07:18:31.999Z</time></trkpt><trkpt lat="44.93188541187631" lon="9.385050034360436"><ele>310.0</ele><time>2026-04-26T07:18:33.999Z</time></trkpt><trkpt lat="44.93174089043645" lon="9.385081440689058"><ele>309.16666666666663</ele><time>2026-04-26T07:18:34.999Z</time></trkpt><trkpt lat="44.93167438093457" lon="9.38506758231246"><ele>308.3333333333333</ele><time>2026-04-26T07:18:35.999Z</time></trkpt><trkpt lat="44.93159936976521" lon="9.385051465422757"><ele>307.5</ele><time>2026-04-26T07:18:36.999Z</time></trkpt><trkpt lat="44.93151780860521" lon="9.385020926807101"><ele>306.6666666666667</ele><time>2026-04-26T07:18:37.999Z</time></trkpt><trkpt lat="44.9314196140265" lon="9.384992117113786"><ele>305.83333333333337</ele><time>2026-04-26T07:18:38.999Z</time></trkpt><trkpt lat="44.931335588323265" lon="9.384907621752534"><ele>305.0</ele><time>2026-04-26T07:18:39.999Z</time></trkpt><trkpt lat="44.931255032606074" lon="9.38481902810861"><ele>305.0</ele><time>2026-04-26T07:18:40.999Z</time></trkpt><trkpt lat="44.931187502967674" lon="9.384723460906464"><ele>305.0</ele><time>2026-04-26T07:18:41.999Z</time></trkpt><trkpt lat="44.93113906345552" lon="9.384638938473874"><ele>305.0</ele><time>2026-04-26T07:18:42.999Z</time></trkpt><trkpt lat="44.9310990846097" lon="9.384550482985734"><ele>305.0</ele><time>2026-04-26T07:18:43.999Z</time></trkpt><trkpt lat="44.9310701892041" lon="9.38445327404143"><ele>305.0</ele><time>2026-04-26T07:18:44.999Z</time></trkpt><trkpt lat="44.93103589901205" lon="9.38435457039818"><ele>305.0</ele><time>2026-04-26T07:18:45.999Z</time></trkpt><trkpt lat="44.9309986643567" lon="9.384269275300332"><ele>305.33333333333337</ele><time>2026-04-26T07:18:46.999Z</time></trkpt><trkpt lat="44.930953549882304" lon="9.384137312038293"><ele>305.6666666666667</ele><time>2026-04-26T07:18:48.999Z</time></trkpt><trkpt lat="44.93090719597844" lon="9.383994141138086"><ele>306.0</ele><time>2026-04-26T07:18:50.999Z</time></trkpt><trkpt lat="44.93085827255921" lon="9.383927227624966"><ele>306.3333333333333</ele><time>2026-04-26T07:18:51.999Z</time></trkpt><trkpt lat="44.93080417754815" lon="9.38386173897745"><ele>306.66666666666663</ele><time>2026-04-26T07:18:52.999Z</time></trkpt><trkpt lat="44.930754899340506" lon="9.38379964606967"><ele>307.0</ele><time>2026-04-26T07:18:53.999Z</time></trkpt><trkpt lat="44.930703191238926" lon="9.383729082962427"><ele>307.0</ele><time>2026-04-26T07:18:54.999Z</time></trkpt><trkpt lat="44.930658219965785" lon="9.38366647939703"><ele>307.0</ele><time>2026-04-26T07:18:55.999Z</time></trkpt><trkpt lat="44.93057254268664" lon="9.383605799041188"><ele>307.0</ele><time>2026-04-26T07:18:57.999Z</time></trkpt><trkpt lat="44.930491574409736" lon="9.3835993829531"><ele>307.0</ele><time>2026-04-26T07:18:59.999Z</time></trkpt><trkpt lat="44.930428088915676" lon="9.383645783604674"><ele>307.0</ele><time>2026-04-26T07:19:00.999Z</time></trkpt><trkpt lat="44.930351303859766" lon="9.383679397606457"><ele>307.0</ele><time>2026-04-26T07:19:01.999Z</time></trkpt><trkpt lat="44.93028232618859" lon="9.38367353104841"><ele>307.0</ele><time>2026-04-26T07:19:02.999Z</time></trkpt><trkpt lat="44.93020673882611" lon="9.38366027225794"><ele>307.0</ele><time>2026-04-26T07:19:03.999Z</time></trkpt><trkpt lat="44.93013047425736" lon="9.383635438015887"><ele>307.0</ele><time>2026-04-26T07:19:04.999Z</time></trkpt><trkpt lat="44.93003748577023" lon="9.383600392238984"><ele>307.0</ele><time>2026-04-26T07:19:05.999Z</time></trkpt><trkpt lat="44.92993774582807" lon="9.38355846791027"><ele>307.0</ele><time>2026-04-26T07:19:06.999Z</time></trkpt><trkpt lat="44.92985346347292" lon="9.383506300383631"><ele>307.0</ele><time>2026-04-26T07:19:07.999Z</time></trkpt><trkpt lat="44.929762928415464" lon="9.3834658021418"><ele>306.0</ele><time>2026-04-26T07:19:08.999Z</time></trkpt><trkpt lat="44.929672390238885" lon="9.383459601182638"><ele>305.0</ele><time>2026-04-26T07:19:09.999Z</time></trkpt><trkpt lat="44.92959617934923" lon="9.383408488203317"><ele>304.0</ele><time>2026-04-26T07:19:10.999Z</time></trkpt><trkpt lat="44.92952792130405" lon="9.383367597662819"><ele>303.0</ele><time>2026-04-26T07:19:11.999Z</time></trkpt><trkpt lat="44.92946475515506" lon="9.38330229010946"><ele>302.0</ele><time>2026-04-26T07:19:12.998Z</time></trkpt><trkpt lat="44.92938265314948" lon="9.383217300145281"><ele>301.0</ele><time>2026-04-26T07:19:13.998Z</time></trkpt><trkpt lat="44.92928206424079" lon="9.383125761417439"><ele>300.0</ele><time>2026-04-26T07:19:14.998Z</time></trkpt><trkpt lat="44.92918230170784" lon="9.38301761023847"><ele>299.0</ele><time>2026-04-26T07:19:15.998Z</time></trkpt><trkpt lat="44.92907393373653" lon="9.382902047433978"><ele>298.0</ele><time>2026-04-26T07:19:16.998Z</time></trkpt><trkpt lat="44.928994056863026" lon="9.382767497526606"><ele>297.0</ele><time>2026-04-26T07:19:17.998Z</time></trkpt><trkpt lat="44.928896381258404" lon="9.382645817910166"><ele>295.5</ele><time>2026-04-26T07:19:18.998Z</time></trkpt><trkpt lat="44.92882117569205" lon="9.38252511134748"><ele>294.0</ele><time>2026-04-26T07:19:19.998Z</time></trkpt><trkpt lat="44.928758314309654" lon="9.382394662597154"><ele>292.5</ele><time>2026-04-26T07:19:20.998Z</time></trkpt><trkpt lat="44.928689289338934" lon="9.382252784829529"><ele>291.0</ele><time>2026-04-26T07:19:21.998Z</time></trkpt><trkpt lat="44.928625855006494" lon="9.38211936172858"><ele>290.8</ele><time>2026-04-26T07:19:22.998Z</time></trkpt><trkpt lat="44.92856496526902" lon="9.381995337928197"><ele>290.6</ele><time>2026-04-26T07:19:23.998Z</time></trkpt><trkpt lat="44.92850643192757" lon="9.381880548358113"><ele>290.4</ele><time>2026-04-26T07:19:24.998Z</time></trkpt><trkpt lat="44.928446287698975" lon="9.38176259933428"><ele>290.2</ele><time>2026-04-26T07:19:25.998Z</time></trkpt><trkpt lat="44.928385386824445" lon="9.381631840444484"><ele>290.0</ele><time>2026-04-26T07:19:26.998Z</time></trkpt><trkpt lat="44.928319262982086" lon="9.381505696862861"><ele>290.0</ele><time>2026-04-26T07:19:27.998Z</time></trkpt><trkpt lat="44.92823576929981" lon="9.381416537141288"><ele>290.0</ele><time>2026-04-26T07:19:28.998Z</time></trkpt><trkpt lat="44.92815835157881" lon="9.38133311299796"><ele>290.0</ele><time>2026-04-26T07:19:29.998Z</time></trkpt><trkpt lat="44.92809185029321" lon="9.381281990081517"><ele>290.0</ele><time>2026-04-26T07:19:30.998Z</time></trkpt><trkpt lat="44.928021246727795" lon="9.381198452579254"><ele>290.0</ele><time>2026-04-26T07:19:32.998Z</time></trkpt><trkpt lat="44.92789749380707" lon="9.381343508617292"><ele>290.0</ele><time>2026-04-26T07:19:34.998Z</time></trkpt><trkpt lat="44.92783257378128" lon="9.381438363097228"><ele>290.0</ele><time>2026-04-26T07:19:35.998Z</time></trkpt><trkpt lat="44.9277600245153" lon="9.381540469140322"><ele>290.0</ele><time>2026-04-26T07:19:36.998Z</time></trkpt><trkpt lat="44.927690872872425" lon="9.38159740587186"><ele>290.0</ele><time>2026-04-26T07:19:37.998Z</time></trkpt><trkpt lat="44.92760848384565" lon="9.381609493621987"><ele>290.0</ele><time>2026-04-26T07:19:38.998Z</time></trkpt><trkpt lat="44.92751726943121" lon="9.381580079244594"><ele>289.5</ele><time>2026-04-26T07:19:39.998Z</time></trkpt><trkpt lat="44.92740535988102" lon="9.381525830713281"><ele>289.0</ele><time>2026-04-26T07:19:40.998Z</time></trkpt><trkpt lat="44.927272326163404" lon="9.38146366073333"><ele>288.5</ele><time>2026-04-26T07:19:41.998Z</time></trkpt><trkpt lat="44.92711803204419" lon="9.381419475779955"><ele>288.0</ele><time>2026-04-26T07:19:42.998Z</time></trkpt><trkpt lat="44.92697220018009" lon="9.381355426976047"><ele>286.75</ele><time>2026-04-26T07:19:43.998Z</time></trkpt><trkpt lat="44.926843112928246" lon="9.381327172146827"><ele>285.5</ele><time>2026-04-26T07:19:44.998Z</time></trkpt><trkpt lat="44.926724835167654" lon="9.381303994335415"><ele>284.25</ele><time>2026-04-26T07:19:45.998Z</time></trkpt><trkpt lat="44.92662045563402" lon="9.381282525072884"><ele>283.0</ele><time>2026-04-26T07:19:46.998Z</time></trkpt><trkpt lat="44.92651263380633" lon="9.381263472268973"><ele>282.5</ele><time>2026-04-26T07:19:47.998Z</time></trkpt><trkpt lat="44.92642339637538" lon="9.381145654600747"><ele>282.0</ele><time>2026-04-26T07:19:48.998Z</time></trkpt><trkpt lat="44.92631690354025" lon="9.381048479589532"><ele>281.5</ele><time>2026-04-26T07:19:49.998Z</time></trkpt><trkpt lat="44.92620096378597" lon="9.380992714881907"><ele>281.0</ele><time>2026-04-26T07:19:50.998Z</time></trkpt><trkpt lat="44.926084104451306" lon="9.380932046134092"><ele>281.0</ele><time>2026-04-26T07:19:51.998Z</time></trkpt><trkpt lat="44.92595759669902" lon="9.380883705140247"><ele>281.0</ele><time>2026-04-26T07:19:52.998Z</time></trkpt><trkpt lat="44.925823483144164" lon="9.380834048671712"><ele>281.0</ele><time>2026-04-26T07:19:53.998Z</time></trkpt><trkpt lat="44.92570464520843" lon="9.38072646999896"><ele>281.0</ele><time>2026-04-26T07:19:54.998Z</time></trkpt><trkpt lat="44.92558195336031" lon="9.380617933546578"><ele>283.25</ele><time>2026-04-26T07:19:55.997Z</time></trkpt><trkpt lat="44.92546620690898" lon="9.380503147986103"><ele>285.5</ele><time>2026-04-26T07:19:56.997Z</time></trkpt><trkpt lat="44.92536534673813" lon="9.380407966299389"><ele>287.75</ele><time>2026-04-26T07:19:57.997Z</time></trkpt><trkpt lat="44.9252785302525" lon="9.380329708480614"><ele>290.0</ele><time>2026-04-26T07:19:58.997Z</time></trkpt><trkpt lat="44.925193441728155" lon="9.380277438161738"><ele>290.0</ele><time>2026-04-26T07:19:59.997Z</time></trkpt><trkpt lat="44.925139902377694" lon="9.380217697021411"><ele>290.0</ele><time>2026-04-26T07:20:01Z</time></trkpt><trkpt lat="44.925076691199486" lon="9.380147776557267"><ele>290.0</ele><time>2026-04-26T07:20:03Z</time></trkpt><trkpt lat="44.92494282368529" lon="9.380359283621408"><ele>290.0</ele><time>2026-04-26T07:20:06Z</time></trkpt><trkpt lat="44.92488795889659" lon="9.380453091463403"><ele>290.0</ele><time>2026-04-26T07:20:08Z</time></trkpt><trkpt lat="44.924944843550676" lon="9.380373697882519"><ele>289.6666666666667</ele><time>2026-04-26T07:20:35Z</time></trkpt><trkpt lat="44.92486684043119" lon="9.380340039757517"><ele>289.33333333333337</ele><time>2026-04-26T07:20:39.999Z</time></trkpt><trkpt lat="44.9247660321227" lon="9.380377107238202"><ele>289.0</ele><time>2026-04-26T07:20:40.999Z</time></trkpt><trkpt lat="44.924672235828915" lon="9.380377494832462"><ele>288.6666666666667</ele><time>2026-04-26T07:20:41.999Z</time></trkpt><trkpt lat="44.9245890368042" lon="9.380385106154014"><ele>288.3333333333333</ele><time>2026-04-26T07:20:42.999Z</time></trkpt><trkpt lat="44.92451859286782" lon="9.380402905040262"><ele>288.0</ele><time>2026-04-26T07:20:43.999Z</time></trkpt><trkpt lat="44.92443385610291" lon="9.380448836970688"><ele>288.0</ele><time>2026-04-26T07:20:44.999Z</time></trkpt><trkpt lat="44.9243568634965" lon="9.380503682407353"><ele>288.0</ele><time>2026-04-26T07:20:45.999Z</time></trkpt><trkpt lat="44.92428916423205" lon="9.380541963813036"><ele>288.0</ele><time>2026-04-26T07:20:46.999Z</time></trkpt><trkpt lat="44.924220716535935" lon="9.38057021058171"><ele>288.0</ele><time>2026-04-26T07:20:47.999Z</time></trkpt><trkpt lat="44.92414221478624" lon="9.380586156453038"><ele>288.0</ele><time>2026-04-26T07:20:48.999Z</time></trkpt><trkpt lat="44.92407452474884" lon="9.380617589153971"><ele>288.0</ele><time>2026-04-26T07:20:49.999Z</time></trkpt><trkpt lat="44.9239985778857" lon="9.380652648811411"><ele>288.5</ele><time>2026-04-26T07:20:50.999Z</time></trkpt><trkpt lat="44.92393014984075" lon="9.380658210456941"><ele>289.0</ele><time>2026-04-26T07:20:51.999Z</time></trkpt><trkpt lat="44.92384348584138" lon="9.380610577787596"><ele>289.5</ele><time>2026-04-26T07:20:53.999Z</time></trkpt><trkpt lat="44.923817743187286" lon="9.38050471515365"><ele>290.0</ele><time>2026-04-26T07:20:55.999Z</time></trkpt><trkpt lat="44.92376542611219" lon="9.38043230065086"><ele>290.5</ele><time>2026-04-26T07:21:03.999Z</time></trkpt><trkpt lat="44.923653663465245" lon="9.38045082020672"><ele>291.0</ele><time>2026-04-26T07:21:05.999Z</time></trkpt><trkpt lat="44.92353476875619" lon="9.380468316208548"><ele>291.0</ele><time>2026-04-26T07:21:06.999Z</time></trkpt><trkpt lat="44.92340830934905" lon="9.380474471163527"><ele>291.0</ele><time>2026-04-26T07:21:07.999Z</time></trkpt><trkpt lat="44.92327895943299" lon="9.380477969165675"><ele>291.0</ele><time>2026-04-26T07:21:08.999Z</time></trkpt><trkpt lat="44.92318812142632" lon="9.380442617897428"><ele>291.0</ele><time>2026-04-26T07:21:10.999Z</time></trkpt><trkpt lat="44.92313593687975" lon="9.380312392120238"><ele>293.6</ele><time>2026-04-26T07:21:12.999Z</time></trkpt><trkpt lat="44.923079248341836" lon="9.380243302642526"><ele>296.20000000000005</ele><time>2026-04-26T07:21:13.999Z</time></trkpt><trkpt lat="44.923025707495796" lon="9.380186464711441"><ele>298.79999999999995</ele><time>2026-04-26T07:21:14.999Z</time></trkpt><trkpt lat="44.92291910347863" lon="9.380174769349395"><ele>301.4</ele><time>2026-04-26T07:21:16.999Z</time></trkpt><trkpt lat="44.922814149856514" lon="9.380135814251757"><ele>304.0</ele><time>2026-04-26T07:21:18.998Z</time></trkpt><trkpt lat="44.922696616743615" lon="9.380236623894401"><ele>304.0</ele><time>2026-04-26T07:21:21.998Z</time></trkpt><trkpt lat="44.922634001914176" lon="9.380275919813608"><ele>304.0</ele><time>2026-04-26T07:21:22.998Z</time></trkpt><trkpt lat="44.92252432858945" lon="9.380298949884816"><ele>304.0</ele><time>2026-04-26T07:21:24.998Z</time></trkpt><trkpt lat="44.922463698143474" lon="9.380368226975465"><ele>304.0</ele><time>2026-04-26T07:21:26.998Z</time></trkpt><trkpt lat="44.922363396598364" lon="9.38049479130537"><ele>304.0</ele><time>2026-04-26T07:21:27.998Z</time></trkpt><trkpt lat="44.92225214099321" lon="9.380513510554895"><ele>308.66666666666663</ele><time>2026-04-26T07:21:29.998Z</time></trkpt><trkpt lat="44.92222655084136" lon="9.38042900126094"><ele>313.3333333333333</ele><time>2026-04-26T07:21:30.998Z</time></trkpt><trkpt lat="44.9221959024963" lon="9.380294949823245"><ele>318.0</ele><time>2026-04-26T07:21:31.998Z</time></trkpt><trkpt lat="44.92220866194861" lon="9.380204308792548"><ele>322.6666666666667</ele><time>2026-04-26T07:21:32.998Z</time></trkpt><trkpt lat="44.92225546600323" lon="9.380126463058783"><ele>327.33333333333337</ele><time>2026-04-26T07:21:35.998Z</time></trkpt><trkpt lat="44.92223275921" lon="9.379941146486853"><ele>332.0</ele><time>2026-04-26T07:21:37.998Z</time></trkpt><trkpt lat="44.922187285531734" lon="9.379840425776793"><ele>332.0</ele><time>2026-04-26T07:21:38.998Z</time></trkpt><trkpt lat="44.92213023688477" lon="9.379745408799657"><ele>332.0</ele><time>2026-04-26T07:21:39.998Z</time></trkpt><trkpt lat="44.92207885155821" lon="9.379667487651048"><ele>332.0</ele><time>2026-04-26T07:21:40.998Z</time></trkpt><trkpt lat="44.92203597854285" lon="9.379569452845711"><ele>332.0</ele><time>2026-04-26T07:21:41.998Z</time></trkpt><trkpt lat="44.921998182236436" lon="9.379453236110347"><ele>332.0</ele><time>2026-04-26T07:21:42.998Z</time></trkpt><trkpt lat="44.92197675850715" lon="9.379334386958105"><ele>332.0</ele><time>2026-04-26T07:21:43.998Z</time></trkpt><trkpt lat="44.921958857707516" lon="9.379151450274557"><ele>331.8</ele><time>2026-04-26T07:21:45.998Z</time></trkpt><trkpt lat="44.9218911126769" lon="9.379083291302445"><ele>331.6</ele><time>2026-04-26T07:21:47.998Z</time></trkpt><trkpt lat="44.92182376739685" lon="9.378980491217488"><ele>331.40000000000003</ele><time>2026-04-26T07:21:52.998Z</time></trkpt><trkpt lat="44.921749583454" lon="9.378824360793013"><ele>331.20000000000005</ele><time>2026-04-26T07:21:54.998Z</time></trkpt><trkpt lat="44.92169219873091" lon="9.378722354800889"><ele>331.0</ele><time>2026-04-26T07:21:55.998Z</time></trkpt><trkpt lat="44.921604175705184" lon="9.378557631823133"><ele>338.0</ele><time>2026-04-26T07:21:56.998Z</time></trkpt><trkpt lat="44.92153959581173" lon="9.378464910140053"><ele>345.0</ele><time>2026-04-26T07:21:57.998Z</time></trkpt><trkpt lat="44.9214625157327" lon="9.378378190060355"><ele>352.0</ele><time>2026-04-26T07:21:58.998Z</time></trkpt><trkpt lat="44.92138357095621" lon="9.378305373832031"><ele>359.0</ele><time>2026-04-26T07:21:59.998Z</time></trkpt><trkpt lat="44.921315461579056" lon="9.378224442400809"><ele>366.0</ele><time>2026-04-26T07:22:00.998Z</time></trkpt><trkpt lat="44.92124134707381" lon="9.378176098619496"><ele>366.0</ele><time>2026-04-26T07:22:01.997Z</time></trkpt><trkpt lat="44.92115969230283" lon="9.378132582710405"><ele>366.0</ele><time>2026-04-26T07:22:02.997Z</time></trkpt><trkpt lat="44.92106578002766" lon="9.378113313034314"><ele>366.0</ele><time>2026-04-26T07:22:03.997Z</time></trkpt><trkpt lat="44.92096475190835" lon="9.378104493095316"><ele>366.0</ele><time>2026-04-26T07:22:04.997Z</time></trkpt><trkpt lat="44.920853180580465" lon="9.37809261055296"><ele>366.0</ele><time>2026-04-26T07:22:05.997Z</time></trkpt><trkpt lat="44.92074054284564" lon="9.378091115590836"><ele>369.6</ele><time>2026-04-26T07:22:07Z</time></trkpt><trkpt lat="44.92066041120535" lon="9.37813079974689"><ele>373.20000000000005</ele><time>2026-04-26T07:22:08Z</time></trkpt><trkpt lat="44.920587704641505" lon="9.378182241130927"><ele>376.79999999999995</ele><time>2026-04-26T07:22:09Z</time></trkpt><trkpt lat="44.920511502698496" lon="9.378231283862355"><ele>380.4</ele><time>2026-04-26T07:22:10Z</time></trkpt><trkpt lat="44.92042465925271" lon="9.378339141536117"><ele>384.0</ele><time>2026-04-26T07:22:11Z</time></trkpt><trkpt lat="44.9203053555017" lon="9.378499709739206"><ele>384.0</ele><time>2026-04-26T07:22:12Z</time></trkpt><trkpt lat="44.92023489383144" lon="9.378612351858223"><ele>384.0</ele><time>2026-04-26T07:22:13Z</time></trkpt><trkpt lat="44.92016220728392" lon="9.37865996340841"><ele>384.0</ele><time>2026-04-26T07:22:14Z</time></trkpt><trkpt lat="44.9201018599096" lon="9.378763336411216"><ele>384.0</ele><time>2026-04-26T07:22:15Z</time></trkpt><trkpt lat="44.920037543914816" lon="9.378877451802593"><ele>384.0</ele><time>2026-04-26T07:22:16Z</time></trkpt><trkpt lat="44.919967808720635" lon="9.378961766721027"><ele>385.1666666666667</ele><time>2026-04-26T07:22:17Z</time></trkpt><trkpt lat="44.91991499692345" lon="9.379021026831694"><ele>386.33333333333337</ele><time>2026-04-26T07:22:18Z</time></trkpt><trkpt lat="44.91985187731338" lon="9.379150507562748"><ele>387.5</ele><time>2026-04-26T07:22:20Z</time></trkpt><trkpt lat="44.91980018620699" lon="9.379261955761"><ele>388.6666666666667</ele><time>2026-04-26T07:22:22Z</time></trkpt><trkpt lat="44.9197529480961" lon="9.379370330162331"><ele>389.83333333333337</ele><time>2026-04-26T07:22:24Z</time></trkpt><trkpt lat="44.919699478338295" lon="9.379453693245901"><ele>391.0</ele><time>2026-04-26T07:22:27Z</time></trkpt><trkpt lat="44.91967880449626" lon="9.379577646595296"><ele>391.00000000000006</ele><time>2026-04-26T07:22:30Z</time></trkpt><trkpt lat="44.91964388781205" lon="9.379665086046174"><ele>391.0</ele><time>2026-04-26T07:22:33Z</time></trkpt><trkpt lat="44.9195701540579" lon="9.379720964419379"><ele>391.0</ele><time>2026-04-26T07:22:36Z</time></trkpt><trkpt lat="44.91950180430467" lon="9.379672099328351"><ele>391.0</ele><time>2026-04-26T07:22:38Z</time></trkpt><trkpt lat="44.919443514955574" lon="9.379592232494105"><ele>391.00000000000006</ele><time>2026-04-26T07:22:40Z</time></trkpt><trkpt lat="44.91938207994243" lon="9.37949681087076"><ele>391.0</ele><time>2026-04-26T07:22:41.999Z</time></trkpt><trkpt lat="44.91929971568259" lon="9.379382771181872"><ele>390.25</ele><time>2026-04-26T07:22:43.999Z</time></trkpt><trkpt lat="44.91920672250901" lon="9.379284026369769"><ele>389.5</ele><time>2026-04-26T07:22:45.999Z</time></trkpt><trkpt lat="44.919118434456095" lon="9.3791755719853"><ele>388.75</ele><time>2026-04-26T07:22:47.999Z</time></trkpt><trkpt lat="44.91902482582737" lon="9.379081518695385"><ele>388.0</ele><time>2026-04-26T07:22:49.999Z</time></trkpt><trkpt lat="44.91891281566984" lon="9.379021649995178"><ele>388.00000000000006</ele><time>2026-04-26T07:22:51.999Z</time></trkpt><trkpt lat="44.918849176004365" lon="9.379009651615085"><ele>388.0</ele><time>2026-04-26T07:22:52.999Z</time></trkpt><trkpt lat="44.91876216141292" lon="9.37900762010315"><ele>388.0</ele><time>2026-04-26T07:22:53.999Z</time></trkpt><trkpt lat="44.918663060711815" lon="9.379008790014746"><ele>388.0</ele><time>2026-04-26T07:22:54.999Z</time></trkpt><trkpt lat="44.91856763676208" lon="9.379011987299211"><ele>388.00000000000006</ele><time>2026-04-26T07:22:55.999Z</time></trkpt><trkpt lat="44.91847008818995" lon="9.379008482879081"><ele>388.0</ele><time>2026-04-26T07:22:56.999Z</time></trkpt><trkpt lat="44.91838107072089" lon="9.379006288572983"><ele>387.1666666666667</ele><time>2026-04-26T07:22:57.999Z</time></trkpt><trkpt lat="44.91831183525914" lon="9.379007420985774"><ele>386.33333333333337</ele><time>2026-04-26T07:22:58.999Z</time></trkpt><trkpt lat="44.918247261353706" lon="9.379016221549223"><ele>385.5</ele><time>2026-04-26T07:22:59.999Z</time></trkpt><trkpt lat="44.918169161646254" lon="9.379038423823774"><ele>384.6666666666667</ele><time>2026-04-26T07:23:00.999Z</time></trkpt><trkpt lat="44.918095431028014" lon="9.379056275370504"><ele>383.83333333333337</ele><time>2026-04-26T07:23:01.999Z</time></trkpt><trkpt lat="44.91801982712221" lon="9.379071957866188"><ele>383.0</ele><time>2026-04-26T07:23:02.999Z</time></trkpt><trkpt lat="44.917931318923394" lon="9.379098116028675"><ele>383.0</ele><time>2026-04-26T07:23:03.999Z</time></trkpt><trkpt lat="44.91781313176246" lon="9.379144274586919"><ele>383.0</ele><time>2026-04-26T07:23:04.999Z</time></trkpt><trkpt lat="44.91769129576682" lon="9.379210637371253"><ele>383.0</ele><time>2026-04-26T07:23:05.999Z</time></trkpt><trkpt lat="44.91756466187663" lon="9.379252969603835"><ele>383.0</ele><time>2026-04-26T07:23:06.999Z</time></trkpt><trkpt lat="44.917438811458446" lon="9.379271129300438"><ele>383.79999999999995</ele><time>2026-04-26T07:23:07.999Z</time></trkpt><trkpt lat="44.91733422303234" lon="9.37929150272093"><ele>384.6</ele><time>2026-04-26T07:23:08.999Z</time></trkpt><trkpt lat="44.91723362723376" lon="9.379319014613099"><ele>385.4</ele><time>2026-04-26T07:23:09.999Z</time></trkpt><trkpt lat="44.917141806357684" lon="9.379336855557357"><ele>386.20000000000005</ele><time>2026-04-26T07:23:10.999Z</time></trkpt><trkpt lat="44.917032537118075" lon="9.37930947281369"><ele>387.0</ele><time>2026-04-26T07:23:11.999Z</time></trkpt><trkpt lat="44.916923164207475" lon="9.379276088610085"><ele>387.0</ele><time>2026-04-26T07:23:12.999Z</time></trkpt><trkpt lat="44.916859306749544" lon="9.379246879688598"><ele>387.0</ele><time>2026-04-26T07:23:13.999Z</time></trkpt><trkpt lat="44.91687624676185" lon="9.37937952404471"><ele>387.0</ele><time>2026-04-26T07:23:52.998Z</time></trkpt><trkpt lat="44.91693144732981" lon="9.379466628817449"><ele>387.0</ele><time>2026-04-26T07:23:53.998Z</time></trkpt><trkpt lat="44.91697072952711" lon="9.379562925398355"><ele>387.0</ele><time>2026-04-26T07:23:54.998Z</time></trkpt><trkpt lat="44.917015612318906" lon="9.37966906147053"><ele>387.0</ele><time>2026-04-26T07:23:55.998Z</time></trkpt><trkpt lat="44.917057772498104" lon="9.379779862523305"><ele>391.1666666666667</ele><time>2026-04-26T07:23:56.998Z</time></trkpt><trkpt lat="44.91710094171249" lon="9.379871751317534"><ele>395.33333333333337</ele><time>2026-04-26T07:23:57.998Z</time></trkpt><trkpt lat="44.91715987496346" lon="9.379957649997433"><ele>399.5</ele><time>2026-04-26T07:23:58.998Z</time></trkpt><trkpt lat="44.91722445310946" lon="9.380040193873382"><ele>403.6666666666667</ele><time>2026-04-26T07:23:59.998Z</time></trkpt><trkpt lat="44.91729630258865" lon="9.380127836226466"><ele>407.83333333333337</ele><time>2026-04-26T07:24:00.998Z</time></trkpt><trkpt lat="44.91737972318693" lon="9.380216303421202"><ele>412.0</ele><time>2026-04-26T07:24:01.998Z</time></trkpt><trkpt lat="44.917465958016386" lon="9.380302527667267"><ele>412.00000000000006</ele><time>2026-04-26T07:24:02.998Z</time></trkpt><trkpt lat="44.9175510318519" lon="9.380387310861018"><ele>412.0</ele><time>2026-04-26T07:24:03.998Z</time></trkpt><trkpt lat="44.917624248499806" lon="9.380467316782552"><ele>412.0</ele><time>2026-04-26T07:24:04.998Z</time></trkpt><trkpt lat="44.91769488344257" lon="9.3805434021975"><ele>412.0</ele><time>2026-04-26T07:24:05.998Z</time></trkpt><trkpt lat="44.917750162437166" lon="9.380603938428843"><ele>412.00000000000006</ele><time>2026-04-26T07:24:06.998Z</time></trkpt><trkpt lat="44.917808866585446" lon="9.38066459225577"><ele>412.0</ele><time>2026-04-26T07:24:09.997Z</time></trkpt><trkpt lat="44.917870198088366" lon="9.380703289841911"><ele>417.5</ele><time>2026-04-26T07:24:13Z</time></trkpt><trkpt lat="44.91792297233343" lon="9.380779208172601"><ele>423.0</ele><time>2026-04-26T07:24:16Z</time></trkpt><trkpt lat="44.918005178091285" lon="9.380917858874891"><ele>428.5</ele><time>2026-04-26T07:24:19Z</time></trkpt><trkpt lat="44.91811037586881" lon="9.381094892266063"><ele>434.0</ele><time>2026-04-26T07:24:20Z</time></trkpt><trkpt lat="44.91817207080212" lon="9.38122980211603"><ele>434.0</ele><time>2026-04-26T07:24:22Z</time></trkpt><trkpt lat="44.91825947998914" lon="9.381346974942543"><ele>434.0</ele><time>2026-04-26T07:24:24Z</time></trkpt><trkpt lat="44.918346653031094" lon="9.381484780665668"><ele>434.0</ele><time>2026-04-26T07:24:26Z</time></trkpt><trkpt lat="44.91840455629214" lon="9.381542475679675"><ele>434.0</ele><time>2026-04-26T07:24:27Z</time></trkpt><trkpt lat="44.91845260773487" lon="9.38161120281617"><ele>434.0</ele><time>2026-04-26T07:24:28Z</time></trkpt><trkpt lat="44.91844871775693" lon="9.381733634404776"><ele>432.79999999999995</ele><time>2026-04-26T07:24:32Z</time></trkpt><trkpt lat="44.918408115466626" lon="9.38187493103321"><ele>431.59999999999997</ele><time>2026-04-26T07:24:34Z</time></trkpt><trkpt lat="44.91834885055394" lon="9.381993068917646"><ele>430.4</ele><time>2026-04-26T07:24:36Z</time></trkpt><trkpt lat="44.91834691500281" lon="9.382129040387913"><ele>429.2</ele><time>2026-04-26T07:24:37Z</time></trkpt><trkpt lat="44.918317720026806" lon="9.382230381732514"><ele>428.0</ele><time>2026-04-26T07:24:38Z</time></trkpt><trkpt lat="44.91826523708784" lon="9.38229753153242"><ele>431.49999999999994</ele><time>2026-04-26T07:24:39Z</time></trkpt><trkpt lat="44.91819594885426" lon="9.382385034184974"><ele>435.0</ele><time>2026-04-26T07:24:40Z</time></trkpt><trkpt lat="44.91817369814341" lon="9.382492833920969"><ele>438.5</ele><time>2026-04-26T07:24:41Z</time></trkpt><trkpt lat="44.9181529530436" lon="9.382584193298355"><ele>442.0</ele><time>2026-04-26T07:24:42Z</time></trkpt><trkpt lat="44.91809655106697" lon="9.382686970059185"><ele>445.49999999999994</ele><time>2026-04-26T07:24:43Z</time></trkpt><trkpt lat="44.91802536149496" lon="9.38275228070116"><ele>449.0</ele><time>2026-04-26T07:24:44Z</time></trkpt><trkpt lat="44.91793469344139" lon="9.382785238191817"><ele>449.0</ele><time>2026-04-26T07:24:45Z</time></trkpt><trkpt lat="44.91783617844042" lon="9.38282914035074"><ele>449.0</ele><time>2026-04-26T07:24:46Z</time></trkpt><trkpt lat="44.9177319441223" lon="9.38289262553944"><ele>449.0</ele><time>2026-04-26T07:24:46.999Z</time></trkpt><trkpt lat="44.91761566755049" lon="9.382975235075818"><ele>449.0</ele><time>2026-04-26T07:24:47.999Z</time></trkpt><trkpt lat="44.91751312190457" lon="9.38303512243529"><ele>455.0</ele><time>2026-04-26T07:24:48.999Z</time></trkpt><trkpt lat="44.917386325579244" lon="9.383054844237622"><ele>461.0</ele><time>2026-04-26T07:24:49.999Z</time></trkpt><trkpt lat="44.917243049107014" lon="9.383058226342383"><ele>467.0</ele><time>2026-04-26T07:24:50.999Z</time></trkpt><trkpt lat="44.917116840375286" lon="9.383065302080276"><ele>473.0</ele><time>2026-04-26T07:24:51.999Z</time></trkpt><trkpt lat="44.916998143941015" lon="9.38305701988002"><ele>473.0</ele><time>2026-04-26T07:24:52.999Z</time></trkpt><trkpt lat="44.91686524257453" lon="9.383071710930066"><ele>473.0</ele><time>2026-04-26T07:24:53.999Z</time></trkpt><trkpt lat="44.91669794997241" lon="9.383110974578491"><ele>473.0</ele><time>2026-04-26T07:24:54.999Z</time></trkpt><trkpt lat="44.916532925597025" lon="9.383112273136081"><ele>474.0</ele><time>2026-04-26T07:24:55.999Z</time></trkpt><trkpt lat="44.91640619281734" lon="9.383130836505114"><ele>475.0</ele><time>2026-04-26T07:24:56.999Z</time></trkpt><trkpt lat="44.916271519484866" lon="9.383090384422628"><ele>476.0</ele><time>2026-04-26T07:24:57.999Z</time></trkpt><trkpt lat="44.91614859229979" lon="9.383070880426635"><ele>477.0</ele><time>2026-04-26T07:24:58.999Z</time></trkpt><trkpt lat="44.916039430776735" lon="9.383079396315033"><ele>477.0</ele><time>2026-04-26T07:24:59.999Z</time></trkpt><trkpt lat="44.915963801991154" lon="9.383074028056297"><ele>476.99999999999994</ele><time>2026-04-26T07:25:00.999Z</time></trkpt><trkpt lat="44.915900697885995" lon="9.383038533726175"><ele>477.0</ele><time>2026-04-26T07:25:02.999Z</time></trkpt><trkpt lat="44.91582352788242" lon="9.383087119799608"><ele>477.0</ele><time>2026-04-26T07:25:06.999Z</time></trkpt><trkpt lat="44.91585062181642" lon="9.383171014587454"><ele>476.99999999999994</ele><time>2026-04-26T07:25:08.999Z</time></trkpt><trkpt lat="44.91591664991666" lon="9.383202368761092"><ele>477.0</ele><time>2026-04-26T07:25:10.999Z</time></trkpt><trkpt lat="44.91598290900284" lon="9.383239532901309"><ele>477.0</ele><time>2026-04-26T07:25:12.999Z</time></trkpt><trkpt lat="44.91604573316422" lon="9.383293650528545"><ele>477.0</ele><time>2026-04-26T07:25:14.999Z</time></trkpt><trkpt lat="44.91613667749688" lon="9.38337374910511"><ele>477.00000000000006</ele><time>2026-04-26T07:25:16.999Z</time></trkpt><trkpt lat="44.91621834918358" lon="9.383446101741308"><ele>477.00000000000006</ele><time>2026-04-26T07:25:17.999Z</time></trkpt><trkpt lat="44.91628963987994" lon="9.38352032938316"><ele>477.0</ele><time>2026-04-26T07:25:18.999Z</time></trkpt><trkpt lat="44.916327755667524" lon="9.383655057618489"><ele>477.0</ele><time>2026-04-26T07:25:20.999Z</time></trkpt><trkpt lat="44.91630247314637" lon="9.383745597165724"><ele>477.0</ele><time>2026-04-26T07:25:21.999Z</time></trkpt><trkpt lat="44.91625289665438" lon="9.383811664116148"><ele>477.00000000000006</ele><time>2026-04-26T07:25:22.999Z</time></trkpt><trkpt lat="44.91618852598235" lon="9.383866959736013"><ele>477.00000000000006</ele><time>2026-04-26T07:25:23.999Z</time></trkpt><trkpt lat="44.916106149699935" lon="9.383941564655954"><ele>477.0</ele><time>2026-04-26T07:25:24.999Z</time></trkpt><trkpt lat="44.91601334219155" lon="9.384039448065227"><ele>477.0</ele><time>2026-04-26T07:25:25.999Z</time></trkpt><trkpt lat="44.91591116351975" lon="9.384157228328345"><ele>479.75</ele><time>2026-04-26T07:25:26.999Z</time></trkpt><trkpt lat="44.915785701929295" lon="9.384282102249955"><ele>482.5</ele><time>2026-04-26T07:25:27.999Z</time></trkpt><trkpt lat="44.91567821809199" lon="9.384390826187895"><ele>485.25</ele><time>2026-04-26T07:25:28.999Z</time></trkpt><trkpt lat="44.915598117844105" lon="9.384469848933106"><ele>488.0</ele><time>2026-04-26T07:25:29.998Z</time></trkpt><trkpt lat="44.915547258691326" lon="9.384546653320845"><ele>487.99999999999994</ele><time>2026-04-26T07:25:30.998Z</time></trkpt><trkpt lat="44.915516557691156" lon="9.384644763507366"><ele>488.0</ele><time>2026-04-26T07:25:31.998Z</time></trkpt><trkpt lat="44.91547216378595" lon="9.384749786401834"><ele>488.0</ele><time>2026-04-26T07:25:32.998Z</time></trkpt><trkpt lat="44.91541397027229" lon="9.384868104082638"><ele>488.0</ele><time>2026-04-26T07:25:33.998Z</time></trkpt><trkpt lat="44.91535119782522" lon="9.38498845246213"><ele>487.99999999999994</ele><time>2026-04-26T07:25:34.998Z</time></trkpt><trkpt lat="44.91530946574478" lon="9.385082717905911"><ele>488.0</ele><time>2026-04-26T07:25:35.998Z</time></trkpt><trkpt lat="44.91527603690968" lon="9.385186925060319"><ele>488.49999999999994</ele><time>2026-04-26T07:25:37.998Z</time></trkpt><trkpt lat="44.91517892451437" lon="9.385149819280803"><ele>489.0</ele><time>2026-04-26T07:25:40.998Z</time></trkpt><trkpt lat="44.915113830484835" lon="9.385115173016315"><ele>489.5</ele><time>2026-04-26T07:25:41.998Z</time></trkpt><trkpt lat="44.91503740799742" lon="9.385104324982322"><ele>490.0</ele><time>2026-04-26T07:25:42.998Z</time></trkpt><trkpt lat="44.914953151780814" lon="9.385096706112469"><ele>490.49999999999994</ele><time>2026-04-26T07:25:43.998Z</time></trkpt><trkpt lat="44.91487114903248" lon="9.385114487237026"><ele>491.0</ele><time>2026-04-26T07:25:44.998Z</time></trkpt><trkpt lat="44.914794163662734" lon="9.385168359949555"><ele>492.66666666666663</ele><time>2026-04-26T07:25:45.998Z</time></trkpt><trkpt lat="44.914723692517896" lon="9.385239133778157"><ele>494.3333333333333</ele><time>2026-04-26T07:25:46.998Z</time></trkpt><trkpt lat="44.91465734910893" lon="9.385326272956458"><ele>496.0</ele><time>2026-04-26T07:25:47.998Z</time></trkpt><trkpt lat="44.91460168416354" lon="9.385419554954266"><ele>497.66666666666663</ele><time>2026-04-26T07:25:48.998Z</time></trkpt><trkpt lat="44.91455340101721" lon="9.38551961458075"><ele>499.3333333333333</ele><time>2026-04-26T07:25:49.998Z</time></trkpt><trkpt lat="44.91450601501716" lon="9.385616053632067"><ele>501.0</ele><time>2026-04-26T07:25:50.998Z</time></trkpt><trkpt lat="44.91446002287656" lon="9.385712402924089"><ele>502.20000000000005</ele><time>2026-04-26T07:25:51.998Z</time></trkpt><trkpt lat="44.91440740199477" lon="9.385807539436781"><ele>503.40000000000003</ele><time>2026-04-26T07:25:52.998Z</time></trkpt><trkpt lat="44.91434786669074" lon="9.385917386958397"><ele>504.6</ele><time>2026-04-26T07:25:53.998Z</time></trkpt><trkpt lat="44.9142770163687" lon="9.386028313752217"><ele>505.8</ele><time>2026-04-26T07:25:54.998Z</time></trkpt><trkpt lat="44.914197616639285" lon="9.386106878060037"><ele>507.0</ele><time>2026-04-26T07:25:55.998Z</time></trkpt><trkpt lat="44.91409819620125" lon="9.386155526698882"><ele>507.0</ele><time>2026-04-26T07:25:56.998Z</time></trkpt><trkpt lat="44.91398739232656" lon="9.38619771597957"><ele>507.0</ele><time>2026-04-26T07:25:57.998Z</time></trkpt><trkpt lat="44.91387419557731" lon="9.386239343608784"><ele>507.0</ele><time>2026-04-26T07:25:58.998Z</time></trkpt><trkpt lat="44.91376122081737" lon="9.386279157404628"><ele>507.0</ele><time>2026-04-26T07:25:59.998Z</time></trkpt><trkpt lat="44.91364483263324" lon="9.386316913218497"><ele>508.0</ele><time>2026-04-26T07:26:00.998Z</time></trkpt><trkpt lat="44.91353385490269" lon="9.386351731588071"><ele>509.0</ele><time>2026-04-26T07:26:01.998Z</time></trkpt><trkpt lat="44.91342921890725" lon="9.38640948472968"><ele>510.0</ele><time>2026-04-26T07:26:02.998Z</time></trkpt><trkpt lat="44.91333178187987" lon="9.386496910992589"><ele>511.0</ele><time>2026-04-26T07:26:03.998Z</time></trkpt><trkpt lat="44.91324991066608" lon="9.38660472021018"><ele>511.0</ele><time>2026-04-26T07:26:04.998Z</time></trkpt><trkpt lat="44.913177310450074" lon="9.386713493812335"><ele>511.0</ele><time>2026-04-26T07:26:05.998Z</time></trkpt><trkpt lat="44.913110197030626" lon="9.386815957440758"><ele>511.0</ele><time>2026-04-26T07:26:06.998Z</time></trkpt><trkpt lat="44.91303655892234" lon="9.386918839363483"><ele>511.0</ele><time>2026-04-26T07:26:07.998Z</time></trkpt><trkpt lat="44.912959730180845" lon="9.387028437908507"><ele>511.0</ele><time>2026-04-26T07:26:08.998Z</time></trkpt><trkpt lat="44.9128825477075" lon="9.387136921906675"><ele>511.0</ele><time>2026-04-26T07:26:09.998Z</time></trkpt><trkpt lat="44.91280331289988" lon="9.38724762103347"><ele>511.0</ele><time>2026-04-26T07:26:10.998Z</time></trkpt><trkpt lat="44.9127267255687" lon="9.387348208088817"><ele>511.0</ele><time>2026-04-26T07:26:11.998Z</time></trkpt><trkpt lat="44.91265582647747" lon="9.387428440282584"><ele>511.0</ele><time>2026-04-26T07:26:12.997Z</time></trkpt><trkpt lat="44.912586288345224" lon="9.387481870685805"><ele>511.0</ele><time>2026-04-26T07:26:13.997Z</time></trkpt><trkpt lat="44.9125033352411" lon="9.38748809944163"><ele>511.0</ele><time>2026-04-26T07:26:14.997Z</time></trkpt><trkpt lat="44.91241392973634" lon="9.387425699877168"><ele>511.0</ele><time>2026-04-26T07:26:15.997Z</time></trkpt><trkpt lat="44.91231639148391" lon="9.387380935283904"><ele>511.0</ele><time>2026-04-26T07:26:16.997Z</time></trkpt><trkpt lat="44.912207630909435" lon="9.387343755894554"><ele>511.0</ele><time>2026-04-26T07:26:17.997Z</time></trkpt><trkpt lat="44.912106190225984" lon="9.387274161646097"><ele>511.0</ele><time>2026-04-26T07:26:19Z</time></trkpt><trkpt lat="44.911997505863944" lon="9.387200923574431"><ele>511.0</ele><time>2026-04-26T07:26:20Z</time></trkpt><trkpt lat="44.91189319307976" lon="9.38712053921569"><ele>511.0</ele><time>2026-04-26T07:26:21Z</time></trkpt><trkpt lat="44.91179749169309" lon="9.387018326895769"><ele>511.0</ele><time>2026-04-26T07:26:22Z</time></trkpt><trkpt lat="44.91169555817376" lon="9.386927176902276"><ele>511.0</ele><time>2026-04-26T07:26:23Z</time></trkpt><trkpt lat="44.911586256968874" lon="9.386813159166925"><ele>511.0</ele><time>2026-04-26T07:26:24Z</time></trkpt><trkpt lat="44.91146319400899" lon="9.386680176186779"><ele>511.0</ele><time>2026-04-26T07:26:25Z</time></trkpt><trkpt lat="44.91135265104867" lon="9.386574499487244"><ele>511.0</ele><time>2026-04-26T07:26:26Z</time></trkpt><trkpt lat="44.91125410071563" lon="9.386498176519451"><ele>511.0</ele><time>2026-04-26T07:26:27Z</time></trkpt><trkpt lat="44.91116084944023" lon="9.386453614109588"><ele>511.0</ele><time>2026-04-26T07:26:28Z</time></trkpt><trkpt lat="44.91106744636309" lon="9.386445672049032"><ele>511.0</ele><time>2026-04-26T07:26:29Z</time></trkpt><trkpt lat="44.91096018869476" lon="9.386427536769334"><ele>511.0</ele><time>2026-04-26T07:26:30Z</time></trkpt><trkpt lat="44.910834717393385" lon="9.386439109962621"><ele>511.0</ele><time>2026-04-26T07:26:31Z</time></trkpt><trkpt lat="44.910702004927856" lon="9.386474203279718"><ele>513.25</ele><time>2026-04-26T07:26:32Z</time></trkpt><trkpt lat="44.910572011313036" lon="9.38650814862006"><ele>515.5</ele><time>2026-04-26T07:26:33Z</time></trkpt><trkpt lat="44.91045621187398" lon="9.386512870920122"><ele>517.75</ele><time>2026-04-26T07:26:34Z</time></trkpt><trkpt lat="44.910361738098274" lon="9.386389095394378"><ele>520.0</ele><time>2026-04-26T07:26:35Z</time></trkpt><trkpt lat="44.91024487686059" lon="9.386350249420863"><ele>520.5</ele><time>2026-04-26T07:26:36Z</time></trkpt><trkpt lat="44.91011679811907" lon="9.386341637433809"><ele>521.0</ele><time>2026-04-26T07:26:37Z</time></trkpt><trkpt lat="44.909978662729976" lon="9.386340853143537"><ele>521.5</ele><time>2026-04-26T07:26:38Z</time></trkpt><trkpt lat="44.90983879109192" lon="9.38636198011761"><ele>522.0</ele><time>2026-04-26T07:26:39Z</time></trkpt><trkpt lat="44.909702037837626" lon="9.386334776601199"><ele>522.0</ele><time>2026-04-26T07:26:40Z</time></trkpt><trkpt lat="44.90956011815344" lon="9.386362171309408"><ele>522.0</ele><time>2026-04-26T07:26:41Z</time></trkpt><trkpt lat="44.90942468230367" lon="9.386371225789105"><ele>522.0</ele><time>2026-04-26T07:26:42Z</time></trkpt><trkpt lat="44.909296404346364" lon="9.386374753847084"><ele>522.0</ele><time>2026-04-26T07:26:43Z</time></trkpt><trkpt lat="44.909201754017076" lon="9.386294384493741"><ele>524.5</ele><time>2026-04-26T07:26:44Z</time></trkpt><trkpt lat="44.90910588346438" lon="9.386207189711753"><ele>527.0</ele><time>2026-04-26T07:26:45Z</time></trkpt><trkpt lat="44.909000668013036" lon="9.386117622656448"><ele>529.5</ele><time>2026-04-26T07:26:46Z</time></trkpt><trkpt lat="44.908874534959736" lon="9.386048338497604"><ele>532.0</ele><time>2026-04-26T07:26:47Z</time></trkpt><trkpt lat="44.9087562267103" lon="9.385965966523258"><ele>532.0</ele><time>2026-04-26T07:26:48Z</time></trkpt><trkpt lat="44.90864089504363" lon="9.3858955355543"><ele>532.0</ele><time>2026-04-26T07:26:49Z</time></trkpt><trkpt lat="44.90851279473607" lon="9.385855188702777"><ele>532.0</ele><time>2026-04-26T07:26:50Z</time></trkpt><trkpt lat="44.90838141593342" lon="9.385839174375912"><ele>532.0</ele><time>2026-04-26T07:26:51Z</time></trkpt><trkpt lat="44.90825084105976" lon="9.385836499633971"><ele>531.75</ele><time>2026-04-26T07:26:52Z</time></trkpt><trkpt lat="44.908121294888" lon="9.385834711729638"><ele>531.5</ele><time>2026-04-26T07:26:53Z</time></trkpt><trkpt lat="44.90798768270409" lon="9.385828972001983"><ele>531.25</ele><time>2026-04-26T07:26:53.999Z</time></trkpt><trkpt lat="44.90785977723448" lon="9.385833001279048"><ele>531.0</ele><time>2026-04-26T07:26:54.999Z</time></trkpt><trkpt lat="44.90773549217023" lon="9.385830520342818"><ele>531.0</ele><time>2026-04-26T07:26:55.999Z</time></trkpt><trkpt lat="44.9076130448497" lon="9.385811967293275"><ele>531.0</ele><time>2026-04-26T07:26:56.999Z</time></trkpt><trkpt lat="44.907492942042616" lon="9.38576545227903"><ele>531.0</ele><time>2026-04-26T07:26:57.999Z</time></trkpt><trkpt lat="44.90738475194931" lon="9.38565460325353"><ele>531.0</ele><time>2026-04-26T07:26:58.999Z</time></trkpt><trkpt lat="44.90729184974805" lon="9.385533955668857"><ele>529.25</ele><time>2026-04-26T07:26:59.999Z</time></trkpt><trkpt lat="44.90719590003132" lon="9.385415049529362"><ele>527.5</ele><time>2026-04-26T07:27:00.999Z</time></trkpt><trkpt lat="44.9070981168025" lon="9.385292117573384"><ele>525.75</ele><time>2026-04-26T07:27:01.999Z</time></trkpt><trkpt lat="44.906981765659054" lon="9.385185008847706"><ele>524.0</ele><time>2026-04-26T07:27:02.999Z</time></trkpt><trkpt lat="44.90685627729234" lon="9.385109444830556"><ele>527.25</ele><time>2026-04-26T07:27:03.999Z</time></trkpt><trkpt lat="44.90671632749962" lon="9.385092526886979"><ele>530.5</ele><time>2026-04-26T07:27:04.999Z</time></trkpt><trkpt lat="44.90659191757992" lon="9.385053091323135"><ele>533.75</ele><time>2026-04-26T07:27:05.999Z</time></trkpt><trkpt lat="44.90648386642204" lon="9.384974990431136"><ele>537.0</ele><time>2026-04-26T07:27:06.999Z</time></trkpt><trkpt lat="44.906389460443435" lon="9.384897934869802"><ele>537.0</ele><time>2026-04-26T07:27:07.999Z</time></trkpt><trkpt lat="44.906304683124056" lon="9.384794958581859"><ele>537.0</ele><time>2026-04-26T07:27:08.999Z</time></trkpt><trkpt lat="44.906251011280474" lon="9.384663089359973"><ele>537.0</ele><time>2026-04-26T07:27:09.999Z</time></trkpt><trkpt lat="44.906178917119796" lon="9.38452565577591"><ele>537.0</ele><time>2026-04-26T07:27:10.999Z</time></trkpt><trkpt lat="44.906101879725604" lon="9.384425087007612"><ele>537.0</ele><time>2026-04-26T07:27:11.999Z</time></trkpt><trkpt lat="44.90610440343628" lon="9.384280542615649"><ele>535.4</ele><time>2026-04-26T07:27:12.999Z</time></trkpt><trkpt lat="44.90608906908835" lon="9.384134718925173"><ele>533.8000000000001</ele><time>2026-04-26T07:27:13.999Z</time></trkpt><trkpt lat="44.906084409160556" lon="9.38398452381541"><ele>532.2</ele><time>2026-04-26T07:27:14.999Z</time></trkpt><trkpt lat="44.90606138941284" lon="9.383851591592162"><ele>530.6</ele><time>2026-04-26T07:27:15.999Z</time></trkpt><trkpt lat="44.90602385087889" lon="9.383739373716534"><ele>529.0</ele><time>2026-04-26T07:27:16.999Z</time></trkpt><trkpt lat="44.90597269502225" lon="9.383626789569744"><ele>531.8333333333334</ele><time>2026-04-26T07:27:17.999Z</time></trkpt><trkpt lat="44.90591054777898" lon="9.383520225799"><ele>534.6666666666667</ele><time>2026-04-26T07:27:18.999Z</time></trkpt><trkpt lat="44.90586904847437" lon="9.383423812849202"><ele>537.5</ele><time>2026-04-26T07:27:19.999Z</time></trkpt><trkpt lat="44.90583761792371" lon="9.383326677059827"><ele>540.3333333333334</ele><time>2026-04-26T07:27:20.999Z</time></trkpt><trkpt lat="44.90579483117402" lon="9.383232162348614"><ele>543.1666666666666</ele><time>2026-04-26T07:27:21.999Z</time></trkpt><trkpt lat="44.90577117767969" lon="9.383120774453921"><ele>546.0</ele><time>2026-04-26T07:27:22.999Z</time></trkpt><trkpt lat="44.905721730144336" lon="9.383020017858298"><ele>545.6666666666666</ele><time>2026-04-26T07:27:23.999Z</time></trkpt><trkpt lat="44.90566601773328" lon="9.382927375019019"><ele>545.3333333333334</ele><time>2026-04-26T07:27:24.999Z</time></trkpt><trkpt lat="44.905623664965674" lon="9.38283512405075"><ele>545.0</ele><time>2026-04-26T07:27:25.999Z</time></trkpt><trkpt lat="44.90557775705094" lon="9.382723209419582"><ele>544.6666666666667</ele><time>2026-04-26T07:27:26.999Z</time></trkpt><trkpt lat="44.90553256989804" lon="9.382615256564248"><ele>544.3333333333334</ele><time>2026-04-26T07:27:27.999Z</time></trkpt><trkpt lat="44.90547949835068" lon="9.382497444326631"><ele>544.0</ele><time>2026-04-26T07:27:28.999Z</time></trkpt><trkpt lat="44.90540883952397" lon="9.382386858872241"><ele>544.0</ele><time>2026-04-26T07:27:29.999Z</time></trkpt><trkpt lat="44.9053318031519" lon="9.38227683293921"><ele>544.0</ele><time>2026-04-26T07:27:30.999Z</time></trkpt><trkpt lat="44.9052488031152" lon="9.382187783779546"><ele>544.0</ele><time>2026-04-26T07:27:31.999Z</time></trkpt><trkpt lat="44.905163314748194" lon="9.382107034878018"><ele>544.0</ele><time>2026-04-26T07:27:32.999Z</time></trkpt><trkpt lat="44.90511145705449" lon="9.381969830129153"><ele>544.0</ele><time>2026-04-26T07:27:33.999Z</time></trkpt><trkpt lat="44.90506637748485" lon="9.381840813205656"><ele>544.5</ele><time>2026-04-26T07:27:34.999Z</time></trkpt><trkpt lat="44.90501976013221" lon="9.381717097360358"><ele>545.0</ele><time>2026-04-26T07:27:35.999Z</time></trkpt><trkpt lat="44.904984622576805" lon="9.381621946459513"><ele>545.5</ele><time>2026-04-26T07:27:36.998Z</time></trkpt><trkpt lat="44.904970965965596" lon="9.38153488183568"><ele>546.0</ele><time>2026-04-26T07:27:37.998Z</time></trkpt><trkpt lat="44.90499184484348" lon="9.38143532367978"><ele>546.5</ele><time>2026-04-26T07:27:38.998Z</time></trkpt><trkpt lat="44.90503508670416" lon="9.381290037789439"><ele>547.0</ele><time>2026-04-26T07:27:39.998Z</time></trkpt><trkpt lat="44.90504956694234" lon="9.38110420537942"><ele>547.0</ele><time>2026-04-26T07:27:40.998Z</time></trkpt><trkpt lat="44.90507608448768" lon="9.380917960302185"><ele>547.0</ele><time>2026-04-26T07:27:41.998Z</time></trkpt><trkpt lat="44.90503083173713" lon="9.380718191519817"><ele>547.0</ele><time>2026-04-26T07:27:42.998Z</time></trkpt><trkpt lat="44.90510622259004" lon="9.3805534766352"><ele>547.0</ele><time>2026-04-26T07:27:43.998Z</time></trkpt><trkpt lat="44.90513677993403" lon="9.380389168994368"><ele>542.6</ele><time>2026-04-26T07:27:44.998Z</time></trkpt><trkpt lat="44.90515652005074" lon="9.380244270329976"><ele>538.2</ele><time>2026-04-26T07:27:45.998Z</time></trkpt><trkpt lat="44.90516665058649" lon="9.38011204722667"><ele>533.8</ele><time>2026-04-26T07:27:46.998Z</time></trkpt><trkpt lat="44.90519466044453" lon="9.380000592211056"><ele>529.4</ele><time>2026-04-26T07:27:47.998Z</time></trkpt><trkpt lat="44.9052421644287" lon="9.37988217757958"><ele>525.0</ele><time>2026-04-26T07:27:48.998Z</time></trkpt><trkpt lat="44.905279799496796" lon="9.379743910275936"><ele>525.8</ele><time>2026-04-26T07:27:49.998Z</time></trkpt><trkpt lat="44.90534308084369" lon="9.37962255925914"><ele>526.6</ele><time>2026-04-26T07:27:50.998Z</time></trkpt><trkpt lat="44.905391766152356" lon="9.379476893259483"><ele>527.4</ele><time>2026-04-26T07:27:51.998Z</time></trkpt><trkpt lat="44.90544133239353" lon="9.379320726583822"><ele>528.2</ele><time>2026-04-26T07:27:52.998Z</time></trkpt><trkpt lat="44.905480121065715" lon="9.379184820400518"><ele>529.0</ele><time>2026-04-26T07:27:53.998Z</time></trkpt><trkpt lat="44.90551114217167" lon="9.379067614250097"><ele>529.0</ele><time>2026-04-26T07:27:54.998Z</time></trkpt><trkpt lat="44.905531784793766" lon="9.378936706664568"><ele>529.0</ele><time>2026-04-26T07:27:55.998Z</time></trkpt><trkpt lat="44.90552367540846" lon="9.378797805073967"><ele>529.0</ele><time>2026-04-26T07:27:56.998Z</time></trkpt><trkpt lat="44.90552770306272" lon="9.378668985549067"><ele>529.0</ele><time>2026-04-26T07:27:57.998Z</time></trkpt><trkpt lat="44.905524830467364" lon="9.37856122696281"><ele>529.0</ele><time>2026-04-26T07:27:58.998Z</time></trkpt><trkpt lat="44.90551664197444" lon="9.378446496263832"><ele>529.0</ele><time>2026-04-26T07:27:59.998Z</time></trkpt><trkpt lat="44.90549674910713" lon="9.37832179696669"><ele>528.8333333333334</ele><time>2026-04-26T07:28:00.998Z</time></trkpt><trkpt lat="44.90545933383513" lon="9.378200266194892"><ele>528.6666666666667</ele><time>2026-04-26T07:28:01.998Z</time></trkpt><trkpt lat="44.905374725255285" lon="9.378122846858195"><ele>528.5</ele><time>2026-04-26T07:28:02.998Z</time></trkpt><trkpt lat="44.90530176132696" lon="9.378064153008692"><ele>528.3333333333334</ele><time>2026-04-26T07:28:03.998Z</time></trkpt><trkpt lat="44.905238040112025" lon="9.378017680987423"><ele>528.1666666666666</ele><time>2026-04-26T07:28:04.998Z</time></trkpt><trkpt lat="44.905213503843335" lon="9.377923882080681"><ele>528.0</ele><time>2026-04-26T07:28:05.998Z</time></trkpt><trkpt lat="44.90519839733887" lon="9.377826286874624"><ele>528.0</ele><time>2026-04-26T07:28:06.998Z</time></trkpt><trkpt lat="44.90522449910466" lon="9.377722548539287"><ele>528.0</ele><time>2026-04-26T07:28:07.998Z</time></trkpt><trkpt lat="44.905273101588634" lon="9.377602602835623"><ele>528.0</ele><time>2026-04-26T07:28:08.998Z</time></trkpt><trkpt lat="44.90530710216566" lon="9.377451488916677"><ele>528.0</ele><time>2026-04-26T07:28:09.998Z</time></trkpt><trkpt lat="44.905341905751975" lon="9.377312098387005"><ele>528.0</ele><time>2026-04-26T07:28:10.998Z</time></trkpt><trkpt lat="44.9053913022687" lon="9.377194731626895"><ele>528.5</ele><time>2026-04-26T07:28:11.998Z</time></trkpt><trkpt lat="44.9054276930452" lon="9.377077491204643"><ele>529.0</ele><time>2026-04-26T07:28:12.998Z</time></trkpt><trkpt lat="44.905466476714395" lon="9.376986745682542"><ele>529.5</ele><time>2026-04-26T07:28:13.998Z</time></trkpt><trkpt lat="44.90551406889623" lon="9.376910814281539"><ele>530.0</ele><time>2026-04-26T07:28:14.998Z</time></trkpt><trkpt lat="44.905575750201955" lon="9.376869834596944"><ele>530.5</ele><time>2026-04-26T07:28:15.998Z</time></trkpt><trkpt lat="44.90565725716115" lon="9.376800193171965"><ele>531.0</ele><time>2026-04-26T07:28:16.998Z</time></trkpt><trkpt lat="44.90573721563905" lon="9.376760449978617"><ele>531.0</ele><time>2026-04-26T07:28:17.998Z</time></trkpt><trkpt lat="44.905800142865026" lon="9.37666583713919"><ele>531.0</ele><time>2026-04-26T07:28:18.998Z</time></trkpt><trkpt lat="44.90584451980045" lon="9.376543776934012"><ele>531.0</ele><time>2026-04-26T07:28:19.997Z</time></trkpt><trkpt lat="44.90583382631813" lon="9.376401801549388"><ele>531.0</ele><time>2026-04-26T07:28:20.997Z</time></trkpt><trkpt lat="44.90587657730541" lon="9.376285625746267"><ele>531.0</ele><time>2026-04-26T07:28:21.997Z</time></trkpt><trkpt lat="44.905914627781705" lon="9.376196265216713"><ele>528.2</ele><time>2026-04-26T07:28:22.997Z</time></trkpt><trkpt lat="44.90598327538399" lon="9.376119539009785"><ele>525.4000000000001</ele><time>2026-04-26T07:28:23.997Z</time></trkpt><trkpt lat="44.906051646845995" lon="9.37598832078113"><ele>522.6</ele><time>2026-04-26T07:28:25Z</time></trkpt><trkpt lat="44.90613552779564" lon="9.375873255010168"><ele>519.8000000000001</ele><time>2026-04-26T07:28:26Z</time></trkpt><trkpt lat="44.90622351297319" lon="9.375805643084657"><ele>517.0</ele><time>2026-04-26T07:28:27Z</time></trkpt><trkpt lat="44.90629838285178" lon="9.375733171424336"><ele>517.0</ele><time>2026-04-26T07:28:28Z</time></trkpt><trkpt lat="44.90639636335738" lon="9.375689864163425"><ele>517.0</ele><time>2026-04-26T07:28:29Z</time></trkpt><trkpt lat="44.90649084450424" lon="9.375651164397445"><ele>517.0</ele><time>2026-04-26T07:28:30Z</time></trkpt><trkpt lat="44.90656930494028" lon="9.375598758931861"><ele>517.0</ele><time>2026-04-26T07:28:31Z</time></trkpt><trkpt lat="44.90665517171144" lon="9.375527358356889"><ele>517.0</ele><time>2026-04-26T07:28:32Z</time></trkpt><trkpt lat="44.906722858407505" lon="9.375431412163353"><ele>514.6</ele><time>2026-04-26T07:28:33Z</time></trkpt><trkpt lat="44.90675025771501" lon="9.37532728297773"><ele>512.2</ele><time>2026-04-26T07:28:34Z</time></trkpt><trkpt lat="44.9067608469832" lon="9.37521136229078"><ele>509.8</ele><time>2026-04-26T07:28:35Z</time></trkpt><trkpt lat="44.9067927460651" lon="9.375092069998036"><ele>507.4</ele><time>2026-04-26T07:28:36Z</time></trkpt><trkpt lat="44.90681074578864" lon="9.374942559718225"><ele>505.0</ele><time>2026-04-26T07:28:37Z</time></trkpt><trkpt lat="44.90680929577696" lon="9.37480270336928"><ele>505.00000000000006</ele><time>2026-04-26T07:28:38Z</time></trkpt><trkpt lat="44.90680846266915" lon="9.374689813376998"><ele>505.0</ele><time>2026-04-26T07:28:39Z</time></trkpt><trkpt lat="44.9068100579456" lon="9.374574953454076"><ele>505.0</ele><time>2026-04-26T07:28:40Z</time></trkpt><trkpt lat="44.906820905409134" lon="9.374481370509356"><ele>505.0</ele><time>2026-04-26T07:28:41Z</time></trkpt><trkpt lat="44.90685961309095" lon="9.374380332370443"><ele>505.00000000000006</ele><time>2026-04-26T07:28:42Z</time></trkpt><trkpt lat="44.9069077197483" lon="9.37423870475784"><ele>505.0</ele><time>2026-04-26T07:28:43Z</time></trkpt><trkpt lat="44.9069614827871" lon="9.374141273966904"><ele>506.8</ele><time>2026-04-26T07:28:44Z</time></trkpt><trkpt lat="44.907039475226746" lon="9.374050339384874"><ele>508.6</ele><time>2026-04-26T07:28:46Z</time></trkpt><trkpt lat="44.90712122704772" lon="9.374050494694025"><ele>510.4</ele><time>2026-04-26T07:28:50Z</time></trkpt><trkpt lat="44.90724144508152" lon="9.37406247087581"><ele>512.2</ele><time>2026-04-26T07:28:52Z</time></trkpt><trkpt lat="44.907321302280614" lon="9.37406027785655"><ele>514.0</ele><time>2026-04-26T07:28:54Z</time></trkpt><trkpt lat="44.90728601845522" lon="9.373979685814207"><ele>514.0</ele><time>2026-04-26T07:29:37.999Z</time></trkpt><trkpt lat="44.907219336091615" lon="9.37402601344449"><ele>514.0</ele><time>2026-04-26T07:29:39.999Z</time></trkpt><trkpt lat="44.907135449830264" lon="9.374042016867529"><ele>514.0</ele><time>2026-04-26T07:29:41.999Z</time></trkpt><trkpt lat="44.907074875858584" lon="9.374001088104139"><ele>514.0</ele><time>2026-04-26T07:29:43.998Z</time></trkpt><trkpt lat="44.90701969487364" lon="9.373942118777277"><ele>514.0</ele><time>2026-04-26T07:29:44.998Z</time></trkpt><trkpt lat="44.90691184557849" lon="9.373896999679108"><ele>514.0</ele><time>2026-04-26T07:29:46.998Z</time></trkpt><trkpt lat="44.90686468119875" lon="9.37381930373429"><ele>516.4</ele><time>2026-04-26T07:29:48.998Z</time></trkpt><trkpt lat="44.90694419864435" lon="9.373722953301208"><ele>518.8</ele><time>2026-04-26T07:29:50.998Z</time></trkpt><trkpt lat="44.907061970950785" lon="9.3736818357309"><ele>521.2</ele><time>2026-04-26T07:29:52.998Z</time></trkpt><trkpt lat="44.90711666203143" lon="9.37358908390026"><ele>523.6</ele><time>2026-04-26T07:29:55.998Z</time></trkpt><trkpt lat="44.907077725098624" lon="9.373494196711738"><ele>526.0</ele><time>2026-04-26T07:29:57.998Z</time></trkpt><trkpt lat="44.90701585002574" lon="9.373462713410833"><ele>526.0</ele><time>2026-04-26T07:29:58.998Z</time></trkpt><trkpt lat="44.90690481792828" lon="9.373453335981383"><ele>526.0</ele><time>2026-04-26T07:30:00.998Z</time></trkpt><trkpt lat="44.90682767635193" lon="9.373384229603937"><ele>526.0</ele><time>2026-04-26T07:30:02.998Z</time></trkpt><trkpt lat="44.90672499574472" lon="9.373324405572395"><ele>526.0</ele><time>2026-04-26T07:30:04.998Z</time></trkpt><trkpt lat="44.90665251362732" lon="9.373195707755473"><ele>526.0</ele><time>2026-04-26T07:30:07.998Z</time></trkpt><trkpt lat="44.9065617407117" lon="9.373101824436759"><ele>531.1666666666667</ele><time>2026-04-26T07:30:09.998Z</time></trkpt><trkpt lat="44.90650035589924" lon="9.373040895549599"><ele>536.3333333333334</ele><time>2026-04-26T07:30:10.998Z</time></trkpt><trkpt lat="44.90646393502521" lon="9.372966953817562"><ele>541.5</ele><time>2026-04-26T07:30:12.998Z</time></trkpt><trkpt lat="44.90639660359974" lon="9.37299451427452"><ele>546.6666666666666</ele><time>2026-04-26T07:30:14.998Z</time></trkpt><trkpt lat="44.9063116901009" lon="9.373116825000565"><ele>551.8333333333333</ele><time>2026-04-26T07:30:16.998Z</time></trkpt><trkpt lat="44.90625160576888" lon="9.373046031683897"><ele>557.0</ele><time>2026-04-26T07:30:18.998Z</time></trkpt><trkpt lat="44.906235360940954" lon="9.372918509930926"><ele>560.2</ele><time>2026-04-26T07:30:20.998Z</time></trkpt><trkpt lat="44.90621667072699" lon="9.372790321352062"><ele>563.4000000000001</ele><time>2026-04-26T07:30:22.998Z</time></trkpt><trkpt lat="44.90618396033368" lon="9.372664767496522"><ele>566.5999999999999</ele><time>2026-04-26T07:30:24.998Z</time></trkpt><trkpt lat="44.906161851378734" lon="9.372544548081544"><ele>569.8</ele><time>2026-04-26T07:30:26.997Z</time></trkpt><trkpt lat="44.90623053664027" lon="9.372484500438047"><ele>573.0</ele><time>2026-04-26T07:30:28.997Z</time></trkpt><trkpt lat="44.90633506594638" lon="9.372459875461496"><ele>573.0</ele><time>2026-04-26T07:30:31Z</time></trkpt><trkpt lat="44.906297910848274" lon="9.37236222631184"><ele>573.0</ele><time>2026-04-26T07:30:43Z</time></trkpt><trkpt lat="44.90620396624284" lon="9.372382232551148"><ele>573.0</ele><time>2026-04-26T07:30:46Z</time></trkpt><trkpt lat="44.90612945112479" lon="9.372314830855856"><ele>573.0</ele><time>2026-04-26T07:30:48Z</time></trkpt><trkpt lat="44.90603137381281" lon="9.372258588023575"><ele>573.0</ele><time>2026-04-26T07:30:50Z</time></trkpt><trkpt lat="44.90600641925187" lon="9.37216268583142"><ele>573.0</ele><time>2026-04-26T07:30:52Z</time></trkpt><trkpt lat="44.90608976791799" lon="9.372118233607381"><ele>575.8333333333334</ele><time>2026-04-26T07:30:54Z</time></trkpt><trkpt lat="44.90611020687" lon="9.372014712793934"><ele>578.6666666666666</ele><time>2026-04-26T07:30:56Z</time></trkpt><trkpt lat="44.9061037206176" lon="9.3719039341038"><ele>581.5</ele><time>2026-04-26T07:30:57Z</time></trkpt><trkpt lat="44.906091677956525" lon="9.371809178292303"><ele>584.3333333333333</ele><time>2026-04-26T07:30:58Z</time></trkpt><trkpt lat="44.90608454309908" lon="9.371651957132025"><ele>587.1666666666666</ele><time>2026-04-26T07:31:00Z</time></trkpt><trkpt lat="44.90609771272319" lon="9.371554372498391"><ele>590.0</ele><time>2026-04-26T07:31:01Z</time></trkpt><trkpt lat="44.906105611614706" lon="9.371448856884507"><ele>590.0</ele><time>2026-04-26T07:31:03Z</time></trkpt><trkpt lat="44.90601968263485" lon="9.371483598185117"><ele>590.0</ele><time>2026-04-26T07:31:05Z</time></trkpt><trkpt lat="44.90593682257861" lon="9.371471063867636"><ele>590.0</ele><time>2026-04-26T07:31:07.999Z</time></trkpt><trkpt lat="44.90593858586056" lon="9.371340809914221"><ele>590.0</ele><time>2026-04-26T07:31:11.999Z</time></trkpt><trkpt lat="44.905953258135156" lon="9.371247983191477"><ele>590.0</ele><time>2026-04-26T07:31:20.999Z</time></trkpt><trkpt lat="44.90599272881562" lon="9.371161960620954"><ele>590.0</ele><time>2026-04-26T07:31:49.998Z</time></trkpt><trkpt lat="44.90600077487614" lon="9.371039487125621"><ele>593.1666666666666</ele><time>2026-04-26T07:31:52.998Z</time></trkpt><trkpt lat="44.906018409061744" lon="9.370928165988474"><ele>596.3333333333333</ele><time>2026-04-26T07:31:54.998Z</time></trkpt><trkpt lat="44.906036297584244" lon="9.370797419614357"><ele>599.5</ele><time>2026-04-26T07:31:56.998Z</time></trkpt><trkpt lat="44.90604422316349" lon="9.370678016486236"><ele>602.6666666666666</ele><time>2026-04-26T07:31:58.998Z</time></trkpt><trkpt lat="44.90602434919951" lon="9.370557626014673"><ele>605.8333333333334</ele><time>2026-04-26T07:32:00.998Z</time></trkpt><trkpt lat="44.90598005788063" lon="9.370624020842163"><ele>609.0</ele><time>2026-04-26T07:32:02.998Z</time></trkpt><trkpt lat="44.9059161193492" lon="9.370741919225964"><ele>618.4</ele><time>2026-04-26T07:32:04.998Z</time></trkpt><trkpt lat="44.905810404665246" lon="9.370855507902007"><ele>627.8</ele><time>2026-04-26T07:32:06.998Z</time></trkpt><trkpt lat="44.90575334480122" lon="9.370915820188483"><ele>637.1999999999999</ele><time>2026-04-26T07:32:07.998Z</time></trkpt><trkpt lat="44.90569372518596" lon="9.370959287652042"><ele>646.5999999999999</ele><time>2026-04-26T07:32:08.998Z</time></trkpt><trkpt lat="44.905564743757445" lon="9.370997326228151"><ele>656.0</ele><time>2026-04-26T07:32:10.998Z</time></trkpt><trkpt lat="44.90549558991575" lon="9.371006833543372"><ele>656.0</ele><time>2026-04-26T07:32:11.998Z</time></trkpt><trkpt lat="44.905390525358634" lon="9.370999637450629"><ele>656.0</ele><time>2026-04-26T07:32:13.998Z</time></trkpt><trkpt lat="44.905314673446036" lon="9.370997874208813"><ele>656.0</ele><time>2026-04-26T07:32:14.998Z</time></trkpt><trkpt lat="44.90523175248981" lon="9.371017107257122"><ele>656.0</ele><time>2026-04-26T07:32:15.998Z</time></trkpt><trkpt lat="44.90516508747355" lon="9.371048422567652"><ele>656.0</ele><time>2026-04-26T07:32:16.998Z</time></trkpt><trkpt lat="44.9051070133851" lon="9.371097721054637"><ele>656.0</ele><time>2026-04-26T07:32:17.998Z</time></trkpt><trkpt lat="44.905073138591675" lon="9.371173584720133"><ele>660.0</ele><time>2026-04-26T07:32:18.998Z</time></trkpt><trkpt lat="44.90501473840862" lon="9.371282067851656"><ele>664.0</ele><time>2026-04-26T07:32:19.998Z</time></trkpt><trkpt lat="44.90496646990055" lon="9.371393349380382"><ele>668.0</ele><time>2026-04-26T07:32:20.998Z</time></trkpt><trkpt lat="44.904938712778375" lon="9.371535838479133"><ele>672.0</ele><time>2026-04-26T07:32:22.998Z</time></trkpt><trkpt lat="44.904886006074335" lon="9.37164591719326"><ele>676.0</ele><time>2026-04-26T07:32:24.998Z</time></trkpt><trkpt lat="44.904843646170285" lon="9.371734547730798"><ele>676.0</ele><time>2026-04-26T07:32:25.998Z</time></trkpt><trkpt lat="44.90479373112102" lon="9.371832202944429"><ele>676.0</ele><time>2026-04-26T07:32:27.998Z</time></trkpt><trkpt lat="44.904713399477124" lon="9.371891777811818"><ele>676.0</ele><time>2026-04-26T07:32:29.998Z</time></trkpt><trkpt lat="44.90464266088905" lon="9.371961904725046"><ele>676.0</ele><time>2026-04-26T07:32:31.997Z</time></trkpt><trkpt lat="44.904575458712166" lon="9.371907369801683"><ele>676.0</ele><time>2026-04-26T07:46:08.999Z</time></trkpt><trkpt lat="44.904630712981245" lon="9.37174993123384"><ele>676.0</ele><time>2026-04-26T07:46:10.999Z</time></trkpt><trkpt lat="44.904652005352304" lon="9.371661318973876"><ele>676.0</ele><time>2026-04-26T07:46:11.999Z</time></trkpt><trkpt lat="44.90466196851052" lon="9.37157095210087"><ele>676.0</ele><time>2026-04-26T07:46:12.999Z</time></trkpt><trkpt lat="44.90465122687703" lon="9.371404935857559"><ele>676.0</ele><time>2026-04-26T07:46:14.999Z</time></trkpt><trkpt lat="44.904661324129805" lon="9.371291907739803"><ele>676.0</ele><time>2026-04-26T07:46:16.999Z</time></trkpt><trkpt lat="44.90469405080792" lon="9.37117737989011"><ele>676.0</ele><time>2026-04-26T07:46:18.999Z</time></trkpt><trkpt lat="44.90469680636581" lon="9.371068510005504"><ele>677.3333333333334</ele><time>2026-04-26T07:46:20.999Z</time></trkpt><trkpt lat="44.9047241318593" lon="9.370929581470115"><ele>678.6666666666667</ele><time>2026-04-26T07:46:22.999Z</time></trkpt><trkpt lat="44.904734207925955" lon="9.37082063733962"><ele>680.0</ele><time>2026-04-26T07:46:23.999Z</time></trkpt><trkpt lat="44.90473227498865" lon="9.370724407616628"><ele>681.3333333333334</ele><time>2026-04-26T07:46:24.999Z</time></trkpt><trkpt lat="44.90474135039177" lon="9.37059794867862"><ele>682.6666666666666</ele><time>2026-04-26T07:46:27.999Z</time></trkpt><trkpt lat="44.9047938660101" lon="9.370488069311238"><ele>684.0</ele><time>2026-04-26T07:46:29.999Z</time></trkpt><trkpt lat="44.904779465337484" lon="9.370387697081146"><ele>686.4000000000001</ele><time>2026-04-26T07:46:31.998Z</time></trkpt><trkpt lat="44.90475939830577" lon="9.37026668220447"><ele>688.8</ele><time>2026-04-26T07:46:33.998Z</time></trkpt><trkpt lat="44.904801247879384" lon="9.370124452662925"><ele>691.2</ele><time>2026-04-26T07:46:35.998Z</time></trkpt><trkpt lat="44.90486708522042" lon="9.370032306851494"><ele>693.5999999999999</ele><time>2026-04-26T07:46:37.998Z</time></trkpt><trkpt lat="44.904996590257895" lon="9.369932409425909"><ele>696.0</ele><time>2026-04-26T07:46:39.998Z</time></trkpt><trkpt lat="44.90506371887875" lon="9.369878621328269"><ele>694.3333333333334</ele><time>2026-04-26T07:46:40.998Z</time></trkpt><trkpt lat="44.905154026291" lon="9.369864518695039"><ele>692.6666666666666</ele><time>2026-04-26T07:46:42.998Z</time></trkpt><trkpt lat="44.90520839544893" lon="9.369809935681063"><ele>691.0</ele><time>2026-04-26T07:46:45.998Z</time></trkpt><trkpt lat="44.90525431876005" lon="9.369731865937535"><ele>689.3333333333333</ele><time>2026-04-26T07:46:59.998Z</time></trkpt><trkpt lat="44.90530886740763" lon="9.369607307508122"><ele>687.6666666666666</ele><time>2026-04-26T07:47:01.998Z</time></trkpt><trkpt lat="44.90533987509574" lon="9.36950612097442"><ele>686.0</ele><time>2026-04-26T07:47:02.998Z</time></trkpt><trkpt lat="44.905396026111916" lon="9.369349957020518"><ele>686.0</ele><time>2026-04-26T07:47:04.998Z</time></trkpt><trkpt lat="44.905423098208864" lon="9.369184078346509"><ele>686.0</ele><time>2026-04-26T07:47:06.998Z</time></trkpt><trkpt lat="44.9054432491524" lon="9.369088627779513"><ele>686.0</ele><time>2026-04-26T07:47:08.998Z</time></trkpt><trkpt lat="44.90548396130679" lon="9.36897350340953"><ele>686.0</ele><time>2026-04-26T07:47:11.998Z</time></trkpt><trkpt lat="44.905525010074705" lon="9.36880518227823"><ele>686.0</ele><time>2026-04-26T07:47:13.998Z</time></trkpt><trkpt lat="44.9055605034411" lon="9.368697232087374"><ele>687.1999999999999</ele><time>2026-04-26T07:47:14.997Z</time></trkpt><trkpt lat="44.90561225135539" lon="9.368550034113941"><ele>688.4</ele><time>2026-04-26T07:47:16.997Z</time></trkpt><trkpt lat="44.90566990221023" lon="9.368416920645489"><ele>689.6</ele><time>2026-04-26T07:47:19Z</time></trkpt><trkpt lat="44.90568499093645" lon="9.368314908173272"><ele>690.8</ele><time>2026-04-26T07:47:20Z</time></trkpt><trkpt lat="44.905705087008265" lon="9.36818627445398"><ele>692.0</ele><time>2026-04-26T07:47:22Z</time></trkpt><trkpt lat="44.905722889032155" lon="9.368100055168753"><ele>691.4000000000001</ele><time>2026-04-26T07:47:23Z</time></trkpt><trkpt lat="44.90573469118615" lon="9.367967263422106"><ele>690.8000000000001</ele><time>2026-04-26T07:47:25Z</time></trkpt><trkpt lat="44.9057615492327" lon="9.367858284797649"><ele>690.2</ele><time>2026-04-26T07:47:27Z</time></trkpt><trkpt lat="44.90578144055183" lon="9.367741771135888"><ele>689.6</ele><time>2026-04-26T07:47:29Z</time></trkpt><trkpt lat="44.90578441797126" lon="9.367574589286914"><ele>689.0</ele><time>2026-04-26T07:47:31Z</time></trkpt><trkpt lat="44.90579579901231" lon="9.367404300848186"><ele>689.0</ele><time>2026-04-26T07:47:33Z</time></trkpt><trkpt lat="44.905803029875536" lon="9.367237442851073"><ele>689.0</ele><time>2026-04-26T07:47:35Z</time></trkpt><trkpt lat="44.9058095062787" lon="9.367138991838246"><ele>689.0</ele><time>2026-04-26T07:47:36Z</time></trkpt><trkpt lat="44.90581490582381" lon="9.367046880031834"><ele>689.0</ele><time>2026-04-26T07:47:37Z</time></trkpt><trkpt lat="44.90581899041776" lon="9.366950870166662"><ele>689.0</ele><time>2026-04-26T07:47:38Z</time></trkpt><trkpt lat="44.90583118763422" lon="9.36684210222538"><ele>689.0</ele><time>2026-04-26T07:47:39Z</time></trkpt><trkpt lat="44.90583872815244" lon="9.36674176974609"><ele>687.2</ele><time>2026-04-26T07:47:40Z</time></trkpt><trkpt lat="44.90584302579574" lon="9.366602189329832"><ele>685.4000000000001</ele><time>2026-04-26T07:47:42Z</time></trkpt><trkpt lat="44.90586449459021" lon="9.366488400251544"><ele>683.6</ele><time>2026-04-26T07:47:44Z</time></trkpt><trkpt lat="44.905968348191024" lon="9.366444167127495"><ele>681.8</ele><time>2026-04-26T07:47:46Z</time></trkpt><trkpt lat="44.90603679326915" lon="9.36631773006874"><ele>680.0</ele><time>2026-04-26T07:47:48Z</time></trkpt><trkpt lat="44.90606427077576" lon="9.36623603001578"><ele>679.3333333333333</ele><time>2026-04-26T07:47:50Z</time></trkpt><trkpt lat="44.906077478864766" lon="9.36614250240135"><ele>678.6666666666666</ele><time>2026-04-26T07:47:51Z</time></trkpt><trkpt lat="44.90606383734887" lon="9.366043768045554"><ele>678.0</ele><time>2026-04-26T07:47:53Z</time></trkpt><trkpt lat="44.90601177938622" lon="9.36594554182145"><ele>677.3333333333334</ele><time>2026-04-26T07:48:20.999Z</time></trkpt><trkpt lat="44.90594517719726" lon="9.365846960253531"><ele>676.6666666666667</ele><time>2026-04-26T07:48:22.999Z</time></trkpt><trkpt lat="44.90589216413553" lon="9.365775421535561"><ele>676.0</ele><time>2026-04-26T07:48:24.999Z</time></trkpt><trkpt lat="44.90582534603683" lon="9.365715189409876"><ele>675.5999999999999</ele><time>2026-04-26T07:48:26.999Z</time></trkpt><trkpt lat="44.90586271593934" lon="9.365581024942871"><ele>675.2</ele><time>2026-04-26T07:48:30.999Z</time></trkpt><trkpt lat="44.905894912036615" lon="9.365461205120535"><ele>674.8</ele><time>2026-04-26T07:48:32.999Z</time></trkpt><trkpt lat="44.90590829828521" lon="9.365295138448467"><ele>674.4000000000001</ele><time>2026-04-26T07:48:34.999Z</time></trkpt><trkpt lat="44.905930034488165" lon="9.36519508614869"><ele>674.0</ele><time>2026-04-26T07:48:35.999Z</time></trkpt><trkpt lat="44.90593898379687" lon="9.365085019024054"><ele>675.2</ele><time>2026-04-26T07:48:36.999Z</time></trkpt><trkpt lat="44.90596881692726" lon="9.36494161423456"><ele>676.4000000000001</ele><time>2026-04-26T07:48:38.998Z</time></trkpt><trkpt lat="44.906007265050846" lon="9.36484321022089"><ele>677.6</ele><time>2026-04-26T07:48:40.998Z</time></trkpt><trkpt lat="44.906038184748496" lon="9.364707481627175"><ele>678.8</ele><time>2026-04-26T07:48:42.998Z</time></trkpt><trkpt lat="44.906071816118285" lon="9.364568078618714"><ele>680.0</ele><time>2026-04-26T07:48:44.998Z</time></trkpt><trkpt lat="44.9061180829493" lon="9.364479772748716"><ele>677.5</ele><time>2026-04-26T07:48:46.998Z</time></trkpt><trkpt lat="44.90616471729088" lon="9.364400818949777"><ele>675.0</ele><time>2026-04-26T07:48:50.998Z</time></trkpt><trkpt lat="44.90622620632861" lon="9.364345088228653"><ele>672.5</ele><time>2026-04-26T07:48:52.998Z</time></trkpt><trkpt lat="44.90624107282548" lon="9.364240077892399"><ele>670.0</ele><time>2026-04-26T07:48:54.998Z</time></trkpt><trkpt lat="44.90623920368418" lon="9.364122080864798"><ele>667.5</ele><time>2026-04-26T07:48:56.998Z</time></trkpt><trkpt lat="44.90631783599481" lon="9.364015233480135"><ele>665.0</ele><time>2026-04-26T07:48:58.998Z</time></trkpt><trkpt lat="44.90636129963949" lon="9.36387249897168"><ele>662.8</ele><time>2026-04-26T07:49:00.998Z</time></trkpt><trkpt lat="44.90638355833545" lon="9.363743319847028"><ele>660.6</ele><time>2026-04-26T07:49:02.998Z</time></trkpt><trkpt lat="44.90638211400435" lon="9.363612199661862"><ele>658.4000000000001</ele><time>2026-04-26T07:49:04.998Z</time></trkpt><trkpt lat="44.9064127728751" lon="9.363457220628344"><ele>656.2</ele><time>2026-04-26T07:49:06.998Z</time></trkpt><trkpt lat="44.90643338085069" lon="9.36336477117319"><ele>654.0</ele><time>2026-04-26T07:49:07.998Z</time></trkpt><trkpt lat="44.90646368087753" lon="9.36324234134369"><ele>654.0</ele><time>2026-04-26T07:49:08.998Z</time></trkpt><trkpt lat="44.906493260943606" lon="9.363133344892768"><ele>654.0</ele><time>2026-04-26T07:49:09.998Z</time></trkpt><trkpt lat="44.90651442347388" lon="9.363041271625294"><ele>654.0</ele><time>2026-04-26T07:49:10.998Z</time></trkpt><trkpt lat="44.90655116876476" lon="9.362903368709958"><ele>654.0</ele><time>2026-04-26T07:49:12.998Z</time></trkpt><trkpt lat="44.906600400593874" lon="9.362814257903699"><ele>654.0</ele><time>2026-04-26T07:49:14.998Z</time></trkpt><trkpt lat="44.90662315211894" lon="9.362716179306496"><ele>654.0</ele><time>2026-04-26T07:49:16.998Z</time></trkpt><trkpt lat="44.90664442916146" lon="9.362588780079268"><ele>652.5</ele><time>2026-04-26T07:49:18.998Z</time></trkpt><trkpt lat="44.906643894573044" lon="9.362435332986404"><ele>651.0</ele><time>2026-04-26T07:49:20.997Z</time></trkpt><trkpt lat="44.906659138699595" lon="9.362281897501736"><ele>649.5</ele><time>2026-04-26T07:49:22.997Z</time></trkpt><trkpt lat="44.906671806618675" lon="9.36209646648109"><ele>648.0</ele><time>2026-04-26T07:49:25Z</time></trkpt><trkpt lat="44.90667635694557" lon="9.36194056047432"><ele>646.5999999999999</ele><time>2026-04-26T07:49:27Z</time></trkpt><trkpt lat="44.90670513373586" lon="9.361850917599257"><ele>645.1999999999999</ele><time>2026-04-26T07:49:28Z</time></trkpt><trkpt lat="44.90674978201822" lon="9.361765050011414"><ele>643.8</ele><time>2026-04-26T07:49:29Z</time></trkpt><trkpt lat="44.906787694033554" lon="9.36162306173329"><ele>642.4</ele><time>2026-04-26T07:49:31Z</time></trkpt><trkpt lat="44.906835591636636" lon="9.361495988078854"><ele>641.0</ele><time>2026-04-26T07:49:33Z</time></trkpt><trkpt lat="44.906857470113806" lon="9.361357408344599"><ele>636.8</ele><time>2026-04-26T07:49:35Z</time></trkpt><trkpt lat="44.90686233463395" lon="9.361212804070208"><ele>632.5999999999999</ele><time>2026-04-26T07:49:37Z</time></trkpt><trkpt lat="44.906860866522074" lon="9.36107308123933"><ele>628.4</ele><time>2026-04-26T07:49:39Z</time></trkpt><trkpt lat="44.90689100954632" lon="9.360935467361136"><ele>624.2</ele><time>2026-04-26T07:49:40Z</time></trkpt><trkpt lat="44.906940483382996" lon="9.36079155307546"><ele>620.0</ele><time>2026-04-26T07:49:42Z</time></trkpt><trkpt lat="44.90697296986512" lon="9.36070199529949"><ele>620.0</ele><time>2026-04-26T07:49:43Z</time></trkpt><trkpt lat="44.90697451580524" lon="9.360580547107451"><ele>620.0</ele><time>2026-04-26T07:49:45Z</time></trkpt><trkpt lat="44.906985303858775" lon="9.360443779526447"><ele>620.0</ele><time>2026-04-26T07:49:47Z</time></trkpt><trkpt lat="44.9070049252957" lon="9.360317386668909"><ele>620.0</ele><time>2026-04-26T07:49:50Z</time></trkpt><trkpt lat="44.90700696563334" lon="9.36011059918046"><ele>620.0</ele><time>2026-04-26T07:49:52Z</time></trkpt><trkpt lat="44.907005269150716" lon="9.359987047743507"><ele>618.6666666666666</ele><time>2026-04-26T07:49:54Z</time></trkpt><trkpt lat="44.9070234853069" lon="9.359864647554312"><ele>617.3333333333333</ele><time>2026-04-26T07:49:56Z</time></trkpt><trkpt lat="44.90700453505195" lon="9.359745873528771"><ele>616.0</ele><time>2026-04-26T07:49:58.999Z</time></trkpt><trkpt lat="44.90706110774943" lon="9.35961728389599"><ele>614.6666666666666</ele><time>2026-04-26T07:50:00.999Z</time></trkpt><trkpt lat="44.90706797712013" lon="9.3594856280706"><ele>613.3333333333334</ele><time>2026-04-26T07:50:02.999Z</time></trkpt><trkpt lat="44.907077717580584" lon="9.35939398237144"><ele>612.0</ele><time>2026-04-26T07:50:44.998Z</time></trkpt><trkpt lat="44.90707719426681" lon="9.359302241262277"><ele>610.5</ele><time>2026-04-26T07:50:48.998Z</time></trkpt><trkpt lat="44.90705285251334" lon="9.359192659144032"><ele>609.0</ele><time>2026-04-26T07:50:51.998Z</time></trkpt><trkpt lat="44.907043200863235" lon="9.359070210853542"><ele>607.5</ele><time>2026-04-26T07:50:53.998Z</time></trkpt><trkpt lat="44.90703562632175" lon="9.358949852180633"><ele>606.0</ele><time>2026-04-26T07:50:54.998Z</time></trkpt><trkpt lat="44.90702279646422" lon="9.358803131217838"><ele>604.5</ele><time>2026-04-26T07:50:55.998Z</time></trkpt><trkpt lat="44.90701524457554" lon="9.358678618766213"><ele>603.0</ele><time>2026-04-26T07:50:56.998Z</time></trkpt><trkpt lat="44.90701365430636" lon="9.358562645278685"><ele>601.3333333333334</ele><time>2026-04-26T07:50:57.998Z</time></trkpt><trkpt lat="44.90702187351822" lon="9.358458081435133"><ele>599.6666666666666</ele><time>2026-04-26T07:50:58.998Z</time></trkpt><trkpt lat="44.907050492102826" lon="9.35828738028658"><ele>598.0</ele><time>2026-04-26T07:51:00.998Z</time></trkpt><trkpt lat="44.90704551571559" lon="9.358195296951253"><ele>596.3333333333333</ele><time>2026-04-26T07:51:01.998Z</time></trkpt><trkpt lat="44.90701904125652" lon="9.358082297378"><ele>594.6666666666666</ele><time>2026-04-26T07:51:02.998Z</time></trkpt><trkpt lat="44.90699137581433" lon="9.35796906407193"><ele>593.0</ele><time>2026-04-26T07:51:03.998Z</time></trkpt><trkpt lat="44.90697074940478" lon="9.357862589845865"><ele>591.6666666666666</ele><time>2026-04-26T07:51:04.998Z</time></trkpt><trkpt lat="44.906944527244946" lon="9.357756996443566"><ele>590.3333333333333</ele><time>2026-04-26T07:51:05.998Z</time></trkpt><trkpt lat="44.90690280935168" lon="9.357662382521882"><ele>589.0</ele><time>2026-04-26T07:51:06.998Z</time></trkpt><trkpt lat="44.90688460685987" lon="9.357543336620301"><ele>587.6666666666666</ele><time>2026-04-26T07:51:07.998Z</time></trkpt><trkpt lat="44.90688113553869" lon="9.35742632154941"><ele>586.3333333333334</ele><time>2026-04-26T07:51:08.998Z</time></trkpt><trkpt lat="44.90687219908207" lon="9.357334868673846"><ele>585.0</ele><time>2026-04-26T07:51:09.998Z</time></trkpt><trkpt lat="44.90683550786869" lon="9.357205724004412"><ele>585.6666666666666</ele><time>2026-04-26T07:51:11.998Z</time></trkpt><trkpt lat="44.906757782154855" lon="9.357146997777328"><ele>586.3333333333334</ele><time>2026-04-26T07:51:13.998Z</time></trkpt><trkpt lat="44.906690883880735" lon="9.357093787858904"><ele>587.0</ele><time>2026-04-26T07:51:15.998Z</time></trkpt><trkpt lat="44.90663264905266" lon="9.356983153296898"><ele>587.6666666666667</ele><time>2026-04-26T07:51:17.998Z</time></trkpt><trkpt lat="44.90657845230249" lon="9.356889405347992"><ele>588.3333333333334</ele><time>2026-04-26T07:51:19.998Z</time></trkpt><trkpt lat="44.906534991123905" lon="9.356790490459707"><ele>589.0</ele><time>2026-04-26T07:51:21.998Z</time></trkpt><trkpt lat="44.906511386169946" lon="9.356700847421328"><ele>589.0</ele><time>2026-04-26T07:51:36Z</time></trkpt><trkpt lat="44.906422633531896" lon="9.356708836954374"><ele>589.0</ele><time>2026-04-26T07:51:54Z</time></trkpt><trkpt lat="44.906370226880384" lon="9.356828502182886"><ele>589.0</ele><time>2026-04-26T07:51:56Z</time></trkpt><trkpt lat="44.90636471554587" lon="9.356934241565515"><ele>589.0</ele><time>2026-04-26T07:51:57Z</time></trkpt><trkpt lat="44.90632165523403" lon="9.357024577660031"><ele>589.0</ele><time>2026-04-26T07:51:58Z</time></trkpt><trkpt lat="44.90626632219494" lon="9.357143599753982"><ele>589.0</ele><time>2026-04-26T07:51:59Z</time></trkpt><trkpt lat="44.90623358895759" lon="9.357236665548506"><ele>590.6</ele><time>2026-04-26T07:52:00Z</time></trkpt><trkpt lat="44.90617909146774" lon="9.357292965815303"><ele>592.2</ele><time>2026-04-26T07:52:02Z</time></trkpt><trkpt lat="44.906094034667845" lon="9.357326566563987"><ele>593.8000000000001</ele><time>2026-04-26T07:52:04Z</time></trkpt><trkpt lat="44.905953249461525" lon="9.357319399895573"><ele>595.4</ele><time>2026-04-26T07:52:05.999Z</time></trkpt><trkpt lat="44.90586691101527" lon="9.357331630538585"><ele>597.0</ele><time>2026-04-26T07:52:07.999Z</time></trkpt><trkpt lat="44.90579158539224" lon="9.357426469067613"><ele>593.0</ele><time>2026-04-26T07:52:09.999Z</time></trkpt><trkpt lat="44.90573210476377" lon="9.357379217546391"><ele>589.0</ele><time>2026-04-26T07:52:10.999Z</time></trkpt><trkpt lat="44.90567623442028" lon="9.357294640015704"><ele>585.0</ele><time>2026-04-26T07:52:11.999Z</time></trkpt><trkpt lat="44.90557029517907" lon="9.357245686232913"><ele>581.0</ele><time>2026-04-26T07:52:13.999Z</time></trkpt><trkpt lat="44.905503049955655" lon="9.357258574421754"><ele>577.0</ele><time>2026-04-26T07:52:14.999Z</time></trkpt><trkpt lat="44.90542808041085" lon="9.357249807205362"><ele>573.0</ele><time>2026-04-26T07:52:15.999Z</time></trkpt><trkpt lat="44.905360774937854" lon="9.35718588739999"><ele>573.0</ele><time>2026-04-26T07:52:16.999Z</time></trkpt><trkpt lat="44.90525914137057" lon="9.357151862356432"><ele>573.0</ele><time>2026-04-26T07:52:18.999Z</time></trkpt><trkpt lat="44.905202624138305" lon="9.357204304893811"><ele>573.0</ele><time>2026-04-26T07:52:19.999Z</time></trkpt><trkpt lat="44.90510024201546" lon="9.357231562758685"><ele>573.0</ele><time>2026-04-26T07:52:21.999Z</time></trkpt><trkpt lat="44.905032317078614" lon="9.357119267844233"><ele>573.0</ele><time>2026-04-26T07:52:23.999Z</time></trkpt><trkpt lat="44.904979745816256" lon="9.357187815344075"><ele>573.0</ele><time>2026-04-26T07:53:37Z</time></trkpt><trkpt lat="44.905019280815644" lon="9.357259186414582"><ele>573.0</ele><time>2026-04-26T07:53:39Z</time></trkpt><trkpt lat="44.905074266230855" lon="9.357359241007499"><ele>573.0</ele><time>2026-04-26T07:53:41Z</time></trkpt><trkpt lat="44.90511279004948" lon="9.357539079154531"><ele>573.0</ele><time>2026-04-26T07:53:43Z</time></trkpt><trkpt lat="44.905122489741444" lon="9.357684890585107"><ele>573.0</ele><time>2026-04-26T07:53:44Z</time></trkpt><trkpt lat="44.905128475605" lon="9.357844139378932"><ele>573.0</ele><time>2026-04-26T07:53:45Z</time></trkpt><trkpt lat="44.90512815317385" lon="9.358005008668485"><ele>573.0</ele><time>2026-04-26T07:53:46Z</time></trkpt><trkpt lat="44.90513363291746" lon="9.358130566979835"><ele>573.0</ele><time>2026-04-26T07:53:47Z</time></trkpt><trkpt lat="44.90512225364287" lon="9.358230783905439"><ele>573.0</ele><time>2026-04-26T07:53:48Z</time></trkpt><trkpt lat="44.90508765340287" lon="9.35831836859994"><ele>573.0</ele><time>2026-04-26T07:53:49Z</time></trkpt><trkpt lat="44.90503355598639" lon="9.358411638444998"><ele>573.0</ele><time>2026-04-26T07:53:50Z</time></trkpt><trkpt lat="44.90498760036817" lon="9.3584966045418"><ele>571.1999999999999</ele><time>2026-04-26T07:53:51Z</time></trkpt><trkpt lat="44.90497886139538" lon="9.358685298471704"><ele>569.4</ele><time>2026-04-26T07:53:53Z</time></trkpt><trkpt lat="44.904998692145156" lon="9.35883169153266"><ele>567.5999999999999</ele><time>2026-04-26T07:53:54Z</time></trkpt><trkpt lat="44.90502555474438" lon="9.358989619817555"><ele>565.8</ele><time>2026-04-26T07:53:55Z</time></trkpt><trkpt lat="44.90503002122182" lon="9.359105837150842"><ele>564.0</ele><time>2026-04-26T07:53:56Z</time></trkpt><trkpt lat="44.90501252132829" lon="9.359195305921112"><ele>564.0</ele><time>2026-04-26T07:53:57Z</time></trkpt><trkpt lat="44.904958830556815" lon="9.359277270509578"><ele>564.0</ele><time>2026-04-26T07:53:58Z</time></trkpt><trkpt lat="44.904895738428095" lon="9.359328014732947"><ele>564.0</ele><time>2026-04-26T07:53:59Z</time></trkpt><trkpt lat="44.90483243382493" lon="9.359352179902903"><ele>564.0</ele><time>2026-04-26T07:54:00Z</time></trkpt><trkpt lat="44.90471792702938" lon="9.359324531357775"><ele>564.0</ele><time>2026-04-26T07:54:02Z</time></trkpt><trkpt lat="44.90463235681575" lon="9.359292962432527"><ele>564.0</ele><time>2026-04-26T07:54:03Z</time></trkpt><trkpt lat="44.90452521370689" lon="9.359255661030813"><ele>564.0</ele><time>2026-04-26T07:54:04Z</time></trkpt><trkpt lat="44.90442988343851" lon="9.359196210036211"><ele>564.0</ele><time>2026-04-26T07:54:05Z</time></trkpt><trkpt lat="44.90435142475996" lon="9.359122847628374"><ele>564.0</ele><time>2026-04-26T07:54:06Z</time></trkpt><trkpt lat="44.90427410443351" lon="9.359045407956398"><ele>564.0</ele><time>2026-04-26T07:54:07Z</time></trkpt><trkpt lat="44.904199450281354" lon="9.35898365625678"><ele>564.0</ele><time>2026-04-26T07:54:08Z</time></trkpt><trkpt lat="44.904114166856296" lon="9.358931946790625"><ele>564.0</ele><time>2026-04-26T07:54:09Z</time></trkpt><trkpt lat="44.9040140468294" lon="9.358896805606195"><ele>564.0</ele><time>2026-04-26T07:54:10Z</time></trkpt><trkpt lat="44.90392153813807" lon="9.358879038972471"><ele>564.0</ele><time>2026-04-26T07:54:11Z</time></trkpt><trkpt lat="44.90385654321087" lon="9.358879175755655"><ele>564.0</ele><time>2026-04-26T07:54:12Z</time></trkpt><trkpt lat="44.903766198659596" lon="9.358942412603193"><ele>564.0</ele><time>2026-04-26T07:54:13.999Z</time></trkpt><trkpt lat="44.90371683094049" lon="9.359126622135692"><ele>564.0</ele><time>2026-04-26T07:54:15.999Z</time></trkpt><trkpt lat="44.90371803063372" lon="9.359237850291208"><ele>564.0</ele><time>2026-04-26T07:54:16.999Z</time></trkpt><trkpt lat="44.90373228068303" lon="9.359333025746666"><ele>564.0</ele><time>2026-04-26T07:54:17.999Z</time></trkpt><trkpt lat="44.90373595286539" lon="9.35944152040278"><ele>564.0</ele><time>2026-04-26T07:54:19.999Z</time></trkpt><trkpt lat="44.90378685314" lon="9.359578956988683"><ele>564.0</ele><time>2026-04-26T07:54:21.999Z</time></trkpt><trkpt lat="44.903803469752894" lon="9.359679801378816"><ele>564.0</ele><time>2026-04-26T07:54:22.999Z</time></trkpt><trkpt lat="44.903837162623994" lon="9.359791868147692"><ele>566.6</ele><time>2026-04-26T07:54:23.999Z</time></trkpt><trkpt lat="44.903875587134216" lon="9.359901862910684"><ele>569.2</ele><time>2026-04-26T07:54:24.999Z</time></trkpt><trkpt lat="44.903927908891156" lon="9.359993252873796"><ele>571.8000000000001</ele><time>2026-04-26T07:54:25.999Z</time></trkpt><trkpt lat="44.90398923571509" lon="9.360072730990305"><ele>574.4</ele><time>2026-04-26T07:54:26.999Z</time></trkpt><trkpt lat="44.90407502736655" lon="9.360184333396191"><ele>577.0</ele><time>2026-04-26T07:54:27.999Z</time></trkpt><trkpt lat="44.90417210642932" lon="9.360301175101101"><ele>577.0</ele><time>2026-04-26T07:54:28.999Z</time></trkpt><trkpt lat="44.904232652716274" lon="9.360403979851911"><ele>577.0</ele><time>2026-04-26T07:54:29.999Z</time></trkpt><trkpt lat="44.90428162186786" lon="9.36052570869151"><ele>577.0</ele><time>2026-04-26T07:54:30.999Z</time></trkpt><trkpt lat="44.90433363674861" lon="9.3606868715647"><ele>577.0</ele><time>2026-04-26T07:54:31.999Z</time></trkpt><trkpt lat="44.90438575103485" lon="9.360845267322091"><ele>577.0</ele><time>2026-04-26T07:54:32.999Z</time></trkpt><trkpt lat="44.90445194212973" lon="9.360999433162698"><ele>579.75</ele><time>2026-04-26T07:54:33.999Z</time></trkpt><trkpt lat="44.90451250973626" lon="9.361140153436677"><ele>582.5</ele><time>2026-04-26T07:54:34.999Z</time></trkpt><trkpt lat="44.904581316296095" lon="9.361298968829107"><ele>585.25</ele><time>2026-04-26T07:54:35.999Z</time></trkpt><trkpt lat="44.90463266377763" lon="9.361429603903808"><ele>588.0</ele><time>2026-04-26T07:54:36.999Z</time></trkpt><trkpt lat="44.904688664282666" lon="9.361571269042383"><ele>590.1999999999999</ele><time>2026-04-26T07:54:37.999Z</time></trkpt><trkpt lat="44.904747626133414" lon="9.361727004322951"><ele>592.4</ele><time>2026-04-26T07:54:38.999Z</time></trkpt><trkpt lat="44.90480368769479" lon="9.361895868406739"><ele>594.5999999999999</ele><time>2026-04-26T07:54:39.999Z</time></trkpt><trkpt lat="44.90484120461227" lon="9.362028557112458"><ele>596.8</ele><time>2026-04-26T07:54:40.999Z</time></trkpt><trkpt lat="44.904853607911825" lon="9.36213386975066"><ele>599.0</ele><time>2026-04-26T07:54:41.999Z</time></trkpt><trkpt lat="44.904819646766256" lon="9.362225576199776"><ele>600.1666666666666</ele><time>2026-04-26T07:54:42.999Z</time></trkpt><trkpt lat="44.90476683368393" lon="9.362312951523608"><ele>601.3333333333333</ele><time>2026-04-26T07:54:43.999Z</time></trkpt><trkpt lat="44.904707955345955" lon="9.362389848239069"><ele>602.5</ele><time>2026-04-26T07:54:44.999Z</time></trkpt><trkpt lat="44.904644188848444" lon="9.36249875699938"><ele>603.6666666666666</ele><time>2026-04-26T07:54:46.999Z</time></trkpt><trkpt lat="44.904643705740874" lon="9.362599601046595"><ele>604.8333333333334</ele><time>2026-04-26T07:54:48.999Z</time></trkpt><trkpt lat="44.90465409691354" lon="9.362711620401674"><ele>606.0</ele><time>2026-04-26T07:54:50.999Z</time></trkpt><trkpt lat="44.90468839910594" lon="9.362879177013955"><ele>606.0</ele><time>2026-04-26T07:54:52.999Z</time></trkpt><trkpt lat="44.904706811421924" lon="9.363008321851362"><ele>606.0</ele><time>2026-04-26T07:54:53.999Z</time></trkpt><trkpt lat="44.904725320050424" lon="9.363160838758512"><ele>606.0</ele><time>2026-04-26T07:54:54.999Z</time></trkpt><trkpt lat="44.90474936785982" lon="9.363341010104325"><ele>606.0</ele><time>2026-04-26T07:54:55.999Z</time></trkpt><trkpt lat="44.90477579227876" lon="9.363472983639994"><ele>606.0</ele><time>2026-04-26T07:54:56.998Z</time></trkpt><trkpt lat="44.9047823737618" lon="9.36356695167856"><ele>608.0</ele><time>2026-04-26T07:54:57.998Z</time></trkpt><trkpt lat="44.904765260550434" lon="9.363663361845719"><ele>610.0</ele><time>2026-04-26T07:54:58.998Z</time></trkpt><trkpt lat="44.904741285249095" lon="9.363747073374377"><ele>612.0</ele><time>2026-04-26T07:54:59.998Z</time></trkpt><trkpt lat="44.904703936490115" lon="9.363824029699309"><ele>614.0</ele><time>2026-04-26T07:55:00.998Z</time></trkpt><trkpt lat="44.90462358021502" lon="9.363901844336366"><ele>616.0</ele><time>2026-04-26T07:55:01.998Z</time></trkpt><trkpt lat="44.904556532550274" lon="9.363949470624895"><ele>618.0</ele><time>2026-04-26T07:55:02.998Z</time></trkpt><trkpt lat="44.90445768791555" lon="9.363974315818009"><ele>618.8</ele><time>2026-04-26T07:55:03.998Z</time></trkpt><trkpt lat="44.90437838441606" lon="9.36398761369565"><ele>619.5999999999999</ele><time>2026-04-26T07:55:04.998Z</time></trkpt><trkpt lat="44.904307994284686" lon="9.36400837934883"><ele>620.4000000000001</ele><time>2026-04-26T07:55:05.998Z</time></trkpt><trkpt lat="44.90422489873802" lon="9.364021772620552"><ele>621.2</ele><time>2026-04-26T07:55:06.998Z</time></trkpt><trkpt lat="44.904116885934094" lon="9.364045117802767"><ele>622.0</ele><time>2026-04-26T07:55:07.998Z</time></trkpt><trkpt lat="44.90398758604827" lon="9.364050707761924"><ele>622.0</ele><time>2026-04-26T07:55:08.998Z</time></trkpt><trkpt lat="44.90383884067509" lon="9.364024779129926"><ele>622.0</ele><time>2026-04-26T07:55:09.998Z</time></trkpt><trkpt lat="44.90368163014186" lon="9.364016052615826"><ele>622.0</ele><time>2026-04-26T07:55:10.998Z</time></trkpt><trkpt lat="44.90354990243756" lon="9.363991076925018"><ele>622.0</ele><time>2026-04-26T07:55:11.998Z</time></trkpt><trkpt lat="44.90341479384098" lon="9.363933580416527"><ele>621.0</ele><time>2026-04-26T07:55:12.998Z</time></trkpt><trkpt lat="44.9032981798625" lon="9.363866810801898"><ele>620.0</ele><time>2026-04-26T07:55:13.998Z</time></trkpt><trkpt lat="44.9032010215151" lon="9.363796494607632"><ele>619.0</ele><time>2026-04-26T07:55:14.998Z</time></trkpt><trkpt lat="44.903123208253405" lon="9.363729881043582"><ele>618.0</ele><time>2026-04-26T07:55:15.998Z</time></trkpt><trkpt lat="44.90302931175957" lon="9.363676241152746"><ele>617.0</ele><time>2026-04-26T07:55:17.998Z</time></trkpt><trkpt lat="44.90297602310872" lon="9.363755751157207"><ele>620.5</ele><time>2026-04-26T07:55:21.998Z</time></trkpt><trkpt lat="44.90296894291556" lon="9.363918547150437"><ele>624.0</ele><time>2026-04-26T07:55:23.998Z</time></trkpt><trkpt lat="44.90296419668572" lon="9.364187147932864"><ele>627.5</ele><time>2026-04-26T07:55:25.998Z</time></trkpt><trkpt lat="44.902944178297325" lon="9.364309589828704"><ele>631.0</ele><time>2026-04-26T07:55:26.998Z</time></trkpt><trkpt lat="44.90291876228245" lon="9.364448177421233"><ele>631.0</ele><time>2026-04-26T07:55:27.998Z</time></trkpt><trkpt lat="44.902905427202214" lon="9.364591273591234"><ele>631.0</ele><time>2026-04-26T07:55:28.998Z</time></trkpt><trkpt lat="44.90286453802541" lon="9.364685776098687"><ele>631.0</ele><time>2026-04-26T07:55:29.998Z</time></trkpt><trkpt lat="44.90283826076255" lon="9.364796249516793"><ele>631.0</ele><time>2026-04-26T07:55:30.998Z</time></trkpt><trkpt lat="44.90282651696205" lon="9.364914054802416"><ele>631.0</ele><time>2026-04-26T07:55:31.998Z</time></trkpt><trkpt lat="44.902829848732296" lon="9.365037473923037"><ele>631.0</ele><time>2026-04-26T07:55:32.998Z</time></trkpt><trkpt lat="44.90283750859096" lon="9.365191533575956"><ele>632.8</ele><time>2026-04-26T07:55:33.998Z</time></trkpt><trkpt lat="44.902833098155526" lon="9.36539702595192"><ele>634.6</ele><time>2026-04-26T07:55:34.998Z</time></trkpt><trkpt lat="44.90283736567614" lon="9.365543600118466"><ele>636.4</ele><time>2026-04-26T07:55:35.998Z</time></trkpt><trkpt lat="44.90284277186271" lon="9.365665872187279"><ele>638.2</ele><time>2026-04-26T07:55:36.998Z</time></trkpt><trkpt lat="44.90284197162902" lon="9.365792566787155"><ele>640.0</ele><time>2026-04-26T07:55:37.998Z</time></trkpt><trkpt lat="44.90282523568717" lon="9.36591423862399"><ele>641.0</ele><time>2026-04-26T07:55:38.998Z</time></trkpt><trkpt lat="44.90282350252316" lon="9.366026222448502"><ele>642.0</ele><time>2026-04-26T07:55:39.997Z</time></trkpt><trkpt lat="44.902842394192604" lon="9.366137100486892"><ele>643.0</ele><time>2026-04-26T07:55:40.997Z</time></trkpt><trkpt lat="44.90287932679904" lon="9.366254576631025"><ele>644.0</ele><time>2026-04-26T07:55:41.997Z</time></trkpt><trkpt lat="44.90293072161026" lon="9.366398070879631"><ele>645.0</ele><time>2026-04-26T07:55:43Z</time></trkpt><trkpt lat="44.90296034762835" lon="9.366582913583136"><ele>645.0</ele><time>2026-04-26T07:55:44Z</time></trkpt><trkpt lat="44.90297272012528" lon="9.366726672286093"><ele>645.0</ele><time>2026-04-26T07:55:45Z</time></trkpt><trkpt lat="44.902993638977996" lon="9.366876012979924"><ele>645.0</ele><time>2026-04-26T07:55:46Z</time></trkpt><trkpt lat="44.90304178024456" lon="9.367037049884196"><ele>645.0</ele><time>2026-04-26T07:55:47Z</time></trkpt><trkpt lat="44.90307059459216" lon="9.367153889353807"><ele>645.0</ele><time>2026-04-26T07:55:48Z</time></trkpt><trkpt lat="44.90303567571903" lon="9.367321714283676"><ele>644.6</ele><time>2026-04-26T07:55:50Z</time></trkpt><trkpt lat="44.90298382911251" lon="9.367396600478983"><ele>644.2</ele><time>2026-04-26T07:55:51Z</time></trkpt><trkpt lat="44.902920468723266" lon="9.36751324057959"><ele>643.8</ele><time>2026-04-26T07:55:53Z</time></trkpt><trkpt lat="44.902901492077234" lon="9.367604970269962"><ele>643.4</ele><time>2026-04-26T07:55:54Z</time></trkpt><trkpt lat="44.9028750896036" lon="9.367774133740127"><ele>643.0</ele><time>2026-04-26T07:55:56Z</time></trkpt><trkpt lat="44.90288142187709" lon="9.367897713240163"><ele>643.0</ele><time>2026-04-26T07:55:57Z</time></trkpt><trkpt lat="44.902890081966916" lon="9.36801960893588"><ele>643.0</ele><time>2026-04-26T07:55:58Z</time></trkpt><trkpt lat="44.90288227334178" lon="9.368112904401933"><ele>643.0</ele><time>2026-04-26T07:55:59Z</time></trkpt><trkpt lat="44.90285305724833" lon="9.36819449640346"><ele>643.0</ele><time>2026-04-26T07:56:00Z</time></trkpt><trkpt lat="44.902800936253705" lon="9.368342056622753"><ele>643.0</ele><time>2026-04-26T07:56:02Z</time></trkpt><trkpt lat="44.90278710687391" lon="9.368468415410902"><ele>643.0</ele><time>2026-04-26T07:56:04Z</time></trkpt><trkpt lat="44.902681377233904" lon="9.368519649090752"><ele>642.5</ele><time>2026-04-26T07:56:42.999Z</time></trkpt><trkpt lat="44.90258844507839" lon="9.36845231665479"><ele>642.0</ele><time>2026-04-26T07:56:43.999Z</time></trkpt><trkpt lat="44.90245454565165" lon="9.368402611445024"><ele>641.5</ele><time>2026-04-26T07:56:44.999Z</time></trkpt><trkpt lat="44.902328710104" lon="9.36838430793429"><ele>641.0</ele><time>2026-04-26T07:56:45.999Z</time></trkpt><trkpt lat="44.90223099843623" lon="9.368356618001608"><ele>637.6666666666666</ele><time>2026-04-26T07:56:46.999Z</time></trkpt><trkpt lat="44.90214564660011" lon="9.368326730816227"><ele>634.3333333333333</ele><time>2026-04-26T07:56:47.999Z</time></trkpt><trkpt lat="44.90207120548372" lon="9.368298194393827"><ele>631.0</ele><time>2026-04-26T07:56:48.999Z</time></trkpt><trkpt lat="44.90200076943906" lon="9.36826481175341"><ele>627.6666666666666</ele><time>2026-04-26T07:56:49.999Z</time></trkpt><trkpt lat="44.90193380635262" lon="9.368208180512037"><ele>624.3333333333334</ele><time>2026-04-26T07:56:50.999Z</time></trkpt><trkpt lat="44.90187966728534" lon="9.368119633834898"><ele>621.0</ele><time>2026-04-26T07:56:51.999Z</time></trkpt><trkpt lat="44.90184422271056" lon="9.368013311319805"><ele>620.0</ele><time>2026-04-26T07:56:52.999Z</time></trkpt><trkpt lat="44.90183215804888" lon="9.367891403644574"><ele>619.0</ele><time>2026-04-26T07:56:53.999Z</time></trkpt><trkpt lat="44.901841090345265" lon="9.36777097072427"><ele>618.0</ele><time>2026-04-26T07:56:54.999Z</time></trkpt><trkpt lat="44.90185317237703" lon="9.367660563889153"><ele>617.0</ele><time>2026-04-26T07:56:55.999Z</time></trkpt><trkpt lat="44.901834253697146" lon="9.367561256223775"><ele>616.0</ele><time>2026-04-26T07:56:56.999Z</time></trkpt><trkpt lat="44.901780981978554" lon="9.367471286388925"><ele>615.0</ele><time>2026-04-26T07:56:57.999Z</time></trkpt><trkpt lat="44.9017084083674" lon="9.367383627840889"><ele>614.1428571428571</ele><time>2026-04-26T07:56:58.999Z</time></trkpt><trkpt lat="44.90166435214853" lon="9.367284546881676"><ele>613.2857142857143</ele><time>2026-04-26T07:56:59.998Z</time></trkpt><trkpt lat="44.90164663680677" lon="9.3671880172622"><ele>612.4285714285714</ele><time>2026-04-26T07:57:00.998Z</time></trkpt><trkpt lat="44.901654859233155" lon="9.36708817880469"><ele>611.5714285714286</ele><time>2026-04-26T07:57:01.998Z</time></trkpt><trkpt lat="44.90169431825669" lon="9.366991557105539"><ele>610.7142857142858</ele><time>2026-04-26T07:57:02.998Z</time></trkpt><trkpt lat="44.90172727500022" lon="9.36689364356414"><ele>609.8571428571429</ele><time>2026-04-26T07:57:03.998Z</time></trkpt><trkpt lat="44.90174492709952" lon="9.366807395273849"><ele>609.0</ele><time>2026-04-26T07:57:04.998Z</time></trkpt><trkpt lat="44.90175367610714" lon="9.366707401033526"><ele>606.0</ele><time>2026-04-26T07:57:05.998Z</time></trkpt><trkpt lat="44.90173240569463" lon="9.366612714616426"><ele>603.0</ele><time>2026-04-26T07:57:06.998Z</time></trkpt><trkpt lat="44.901724698474226" lon="9.36651273397884"><ele>600.0</ele><time>2026-04-26T07:57:07.998Z</time></trkpt><trkpt lat="44.90171007371551" lon="9.366419963245594"><ele>597.0</ele><time>2026-04-26T07:57:08.998Z</time></trkpt><trkpt lat="44.901637590486544" lon="9.366289384302604"><ele>594.0</ele><time>2026-04-26T07:57:10.998Z</time></trkpt><trkpt lat="44.90156767593551" lon="9.366144666240965"><ele>592.4285714285714</ele><time>2026-04-26T07:57:12.998Z</time></trkpt><trkpt lat="44.90154464724332" lon="9.366049253481837"><ele>590.8571428571429</ele><time>2026-04-26T07:57:13.998Z</time></trkpt><trkpt lat="44.901518776388954" lon="9.365952794347836"><ele>589.2857142857143</ele><time>2026-04-26T07:57:14.998Z</time></trkpt><trkpt lat="44.9014797715417" lon="9.36586749557671"><ele>587.7142857142858</ele><time>2026-04-26T07:57:15.998Z</time></trkpt><trkpt lat="44.90142652977965" lon="9.36581292592962"><ele>586.1428571428571</ele><time>2026-04-26T07:57:16.998Z</time></trkpt><trkpt lat="44.90137541341009" lon="9.36575215331593"><ele>584.5714285714287</ele><time>2026-04-26T07:57:17.998Z</time></trkpt><trkpt lat="44.90135794091042" lon="9.365658144251498"><ele>583.0</ele><time>2026-04-26T07:57:18.998Z</time></trkpt><trkpt lat="44.901371941355556" lon="9.365545623988076"><ele>579.0</ele><time>2026-04-26T07:57:19.998Z</time></trkpt><trkpt lat="44.90137263948446" lon="9.365440564598007"><ele>575.0</ele><time>2026-04-26T07:57:20.998Z</time></trkpt><trkpt lat="44.90134477871262" lon="9.365347934608694"><ele>571.0</ele><time>2026-04-26T07:57:21.998Z</time></trkpt><trkpt lat="44.901282946326546" lon="9.365256709681551"><ele>567.0</ele><time>2026-04-26T07:57:22.998Z</time></trkpt><trkpt lat="44.901195564931804" lon="9.36515263671512"><ele>563.0</ele><time>2026-04-26T07:57:23.998Z</time></trkpt><trkpt lat="44.90110430384134" lon="9.365055374389947"><ele>563.0</ele><time>2026-04-26T07:57:24.998Z</time></trkpt><trkpt lat="44.901030896625684" lon="9.364992744839437"><ele>563.0</ele><time>2026-04-26T07:57:25.998Z</time></trkpt><trkpt lat="44.90096511506692" lon="9.364971068075656"><ele>563.0</ele><time>2026-04-26T07:57:26.998Z</time></trkpt><trkpt lat="44.90090147558769" lon="9.364994322655098"><ele>563.0</ele><time>2026-04-26T07:57:27.998Z</time></trkpt><trkpt lat="44.90083126746267" lon="9.365063621359187"><ele>563.0</ele><time>2026-04-26T07:57:28.998Z</time></trkpt><trkpt lat="44.90075774539539" lon="9.365147333377694"><ele>563.0</ele><time>2026-04-26T07:57:29.998Z</time></trkpt><trkpt lat="44.90070552450966" lon="9.365240720584822"><ele>561.5</ele><time>2026-04-26T07:57:30.998Z</time></trkpt><trkpt lat="44.900667873708755" lon="9.36531337845244"><ele>560.0</ele><time>2026-04-26T07:57:31.998Z</time></trkpt><trkpt lat="44.90061310532484" lon="9.365369575608343"><ele>558.5</ele><time>2026-04-26T07:57:32.998Z</time></trkpt><trkpt lat="44.900525571442486" lon="9.365431528509651"><ele>557.0</ele><time>2026-04-26T07:57:33.998Z</time></trkpt><trkpt lat="44.90043633095638" lon="9.365486188210294"><ele>555.5</ele><time>2026-04-26T07:57:34.998Z</time></trkpt><trkpt lat="44.900357029970266" lon="9.36551763891001"><ele>554.0</ele><time>2026-04-26T07:57:35.998Z</time></trkpt><trkpt lat="44.900275467072554" lon="9.365540398722308"><ele>554.4</ele><time>2026-04-26T07:57:36.998Z</time></trkpt><trkpt lat="44.90018911790425" lon="9.365534222168067"><ele>554.8</ele><time>2026-04-26T07:57:37.998Z</time></trkpt><trkpt lat="44.9001154297795" lon="9.365542160826823"><ele>555.2</ele><time>2026-04-26T07:57:38.998Z</time></trkpt><trkpt lat="44.90004200009027" lon="9.365575826343285"><ele>555.6</ele><time>2026-04-26T07:57:39.998Z</time></trkpt><trkpt lat="44.899958490755246" lon="9.365668438610667"><ele>556.0</ele><time>2026-04-26T07:57:40.998Z</time></trkpt><trkpt lat="44.89986775705982" lon="9.36576335145563"><ele>556.0</ele><time>2026-04-26T07:57:41.998Z</time></trkpt><trkpt lat="44.899788336031285" lon="9.365841093342503"><ele>556.0</ele><time>2026-04-26T07:57:42.998Z</time></trkpt><trkpt lat="44.899708915996776" lon="9.365895709739219"><ele>556.0</ele><time>2026-04-26T07:57:43.997Z</time></trkpt><trkpt lat="44.899632805732466" lon="9.365920683664593"><ele>556.0</ele><time>2026-04-26T07:57:44.997Z</time></trkpt><trkpt lat="44.89954783455498" lon="9.365925003089492"><ele>556.0</ele><time>2026-04-26T07:57:45.997Z</time></trkpt><trkpt lat="44.899455285556535" lon="9.365925157845865"><ele>556.0</ele><time>2026-04-26T07:57:46.997Z</time></trkpt><trkpt lat="44.899359675347704" lon="9.365926668137813"><ele>556.0</ele><time>2026-04-26T07:57:47.997Z</time></trkpt><trkpt lat="44.899263702075295" lon="9.365914496006052"><ele>556.0</ele><time>2026-04-26T07:57:49Z</time></trkpt><trkpt lat="44.89918998779169" lon="9.365901418031854"><ele>556.0</ele><time>2026-04-26T07:57:50Z</time></trkpt><trkpt lat="44.899107689740596" lon="9.36595241281052"><ele>556.0</ele><time>2026-04-26T07:57:52Z</time></trkpt><trkpt lat="44.89908437046756" lon="9.366073757638377"><ele>556.0</ele><time>2026-04-26T07:57:54Z</time></trkpt><trkpt lat="44.89906016005125" lon="9.366181873841747"><ele>556.0</ele><time>2026-04-26T07:57:57Z</time></trkpt><trkpt lat="44.89904651191234" lon="9.366313108903677"><ele>553.75</ele><time>2026-04-26T07:57:59Z</time></trkpt><trkpt lat="44.89898847461621" lon="9.366691792072936"><ele>551.5</ele><time>2026-04-26T07:58:00Z</time></trkpt><trkpt lat="44.8989699450506" lon="9.366807975210511"><ele>549.25</ele><time>2026-04-26T07:58:01Z</time></trkpt><trkpt lat="44.89893246360692" lon="9.366900743224024"><ele>547.0</ele><time>2026-04-26T07:58:02Z</time></trkpt><trkpt lat="44.89891097393991" lon="9.3669962169765"><ele>547.0</ele><time>2026-04-26T07:58:03Z</time></trkpt><trkpt lat="44.898839519723694" lon="9.36706403226981"><ele>547.0</ele><time>2026-04-26T07:58:04Z</time></trkpt><trkpt lat="44.89873621884928" lon="9.367115161536198"><ele>547.0</ele><time>2026-04-26T07:58:05Z</time></trkpt><trkpt lat="44.8986548725624" lon="9.36715631441553"><ele>547.0</ele><time>2026-04-26T07:58:06Z</time></trkpt><trkpt lat="44.89856983476238" lon="9.367216499353683"><ele>547.0</ele><time>2026-04-26T07:58:07Z</time></trkpt><trkpt lat="44.89848473805586" lon="9.367329247299358"><ele>541.2</ele><time>2026-04-26T07:58:08Z</time></trkpt><trkpt lat="44.898380753582956" lon="9.367470276530439"><ele>535.4000000000001</ele><time>2026-04-26T07:58:09Z</time></trkpt><trkpt lat="44.89830369883195" lon="9.367553561062834"><ele>529.5999999999999</ele><time>2026-04-26T07:58:10Z</time></trkpt><trkpt lat="44.89822690763784" lon="9.367638324923712"><ele>523.8</ele><time>2026-04-26T07:58:11Z</time></trkpt><trkpt lat="44.89816060983305" lon="9.367688224060025"><ele>518.0</ele><time>2026-04-26T07:58:12Z</time></trkpt><trkpt lat="44.89809016111419" lon="9.36772544713723"><ele>518.0</ele><time>2026-04-26T07:58:13Z</time></trkpt><trkpt lat="44.89802165702265" lon="9.367787010735055"><ele>518.0</ele><time>2026-04-26T07:58:14Z</time></trkpt><trkpt lat="44.89790210716802" lon="9.367841396158681"><ele>518.0</ele><time>2026-04-26T07:58:16Z</time></trkpt><trkpt lat="44.897784923854644" lon="9.367792774310772"><ele>518.0</ele><time>2026-04-26T07:58:18Z</time></trkpt><trkpt lat="44.897723004272066" lon="9.36776430764735"><ele>518.0</ele><time>2026-04-26T07:58:19Z</time></trkpt><trkpt lat="44.89762194944312" lon="9.367686861752706"><ele>517.0</ele><time>2026-04-26T07:58:21Z</time></trkpt><trkpt lat="44.897549546756885" lon="9.367539622441877"><ele>516.0</ele><time>2026-04-26T07:58:23Z</time></trkpt><trkpt lat="44.89751265768956" lon="9.367390362330985"><ele>515.0</ele><time>2026-04-26T07:58:24.999Z</time></trkpt><trkpt lat="44.89755711204248" lon="9.367208506937859"><ele>514.0</ele><time>2026-04-26T07:58:26.999Z</time></trkpt><trkpt lat="44.89761967004505" lon="9.367080566811374"><ele>514.0</ele><time>2026-04-26T07:58:27.999Z</time></trkpt><trkpt lat="44.8976858603279" lon="9.36695798571282"><ele>514.0</ele><time>2026-04-26T07:58:28.999Z</time></trkpt><trkpt lat="44.89773198829346" lon="9.366861500129263"><ele>514.0</ele><time>2026-04-26T07:58:29.999Z</time></trkpt><trkpt lat="44.897761133330114" lon="9.366765176249126"><ele>514.0</ele><time>2026-04-26T07:58:30.999Z</time></trkpt><trkpt lat="44.89777970404922" lon="9.366669852802355"><ele>514.0</ele><time>2026-04-26T07:58:31.999Z</time></trkpt><trkpt lat="44.89779495458924" lon="9.366572261767589"><ele>514.0</ele><time>2026-04-26T07:58:32.999Z</time></trkpt><trkpt lat="44.8978064552734" lon="9.366480716817861"><ele>514.0</ele><time>2026-04-26T07:58:33.999Z</time></trkpt><trkpt lat="44.89779430405346" lon="9.366326923599981"><ele>514.0</ele><time>2026-04-26T07:58:35.999Z</time></trkpt><trkpt lat="44.89773251615606" lon="9.366279902849294"><ele>514.0</ele><time>2026-04-26T07:58:36.999Z</time></trkpt><trkpt lat="44.897664721535946" lon="9.366313845503837"><ele>514.0</ele><time>2026-04-26T07:58:37.999Z</time></trkpt><trkpt lat="44.8975887236971" lon="9.366365058881964"><ele>514.0</ele><time>2026-04-26T07:58:38.999Z</time></trkpt><trkpt lat="44.89752907196754" lon="9.366456196950303"><ele>514.0</ele><time>2026-04-26T07:58:39.999Z</time></trkpt><trkpt lat="44.89748967946933" lon="9.366529358452757"><ele>506.79999999999995</ele><time>2026-04-26T07:58:40.999Z</time></trkpt><trkpt lat="44.897421989976415" lon="9.366642885958363"><ele>499.59999999999997</ele><time>2026-04-26T07:58:42.999Z</time></trkpt><trkpt lat="44.89737437680552" lon="9.366704895717563"><ele>492.4</ele><time>2026-04-26T07:58:44.999Z</time></trkpt><trkpt lat="44.89730123876696" lon="9.366759505303147"><ele>485.2</ele><time>2026-04-26T07:58:48.999Z</time></trkpt><trkpt lat="44.897237654568144" lon="9.366751170534444"><ele>478.0</ele><time>2026-04-26T07:58:51.999Z</time></trkpt><trkpt lat="44.89708829587613" lon="9.366776510619925"><ele>478.0</ele><time>2026-04-26T07:58:52.999Z</time></trkpt><trkpt lat="44.897023847669985" lon="9.366742084665148"><ele>477.99999999999994</ele><time>2026-04-26T07:58:54.999Z</time></trkpt><trkpt lat="44.896923480434225" lon="9.366669688791506"><ele>477.99999999999994</ele><time>2026-04-26T07:58:56.999Z</time></trkpt><trkpt lat="44.89680222907047" lon="9.366721966895682"><ele>478.0</ele><time>2026-04-26T07:58:58.999Z</time></trkpt><trkpt lat="44.8967249218144" lon="9.366755126111949"><ele>478.0</ele><time>2026-04-26T07:58:59.999Z</time></trkpt><trkpt lat="44.896662166783216" lon="9.366797958335532"><ele>473.2</ele><time>2026-04-26T07:59:00.999Z</time></trkpt><trkpt lat="44.89659522789962" lon="9.3668671598967"><ele>468.4</ele><time>2026-04-26T07:59:02.999Z</time></trkpt><trkpt lat="44.89653232384078" lon="9.366932473635373"><ele>463.59999999999997</ele><time>2026-04-26T07:59:05.999Z</time></trkpt><trkpt lat="44.896438781895725" lon="9.367122077791135"><ele>458.79999999999995</ele><time>2026-04-26T07:59:07.998Z</time></trkpt><trkpt lat="44.89638810814552" lon="9.367262363975096"><ele>454.0</ele><time>2026-04-26T07:59:08.998Z</time></trkpt><trkpt lat="44.896375126832176" lon="9.367438799014348"><ele>454.0</ele><time>2026-04-26T07:59:10.998Z</time></trkpt><trkpt lat="44.89643101844592" lon="9.367570023570238"><ele>454.0</ele><time>2026-04-26T07:59:12.998Z</time></trkpt><trkpt lat="44.8964571287886" lon="9.367707465719473"><ele>454.0</ele><time>2026-04-26T07:59:13.998Z</time></trkpt><trkpt lat="44.896506331204066" lon="9.36783288617273"><ele>454.0</ele><time>2026-04-26T07:59:14.998Z</time></trkpt><trkpt lat="44.89652786322681" lon="9.367960167073857"><ele>454.0</ele><time>2026-04-26T07:59:15.998Z</time></trkpt><trkpt lat="44.89656586919595" lon="9.36804819195096"><ele>453.4</ele><time>2026-04-26T07:59:16.998Z</time></trkpt><trkpt lat="44.8966189997266" lon="9.368163763177327"><ele>452.79999999999995</ele><time>2026-04-26T07:59:17.998Z</time></trkpt><trkpt lat="44.89665707673076" lon="9.368253593071534"><ele>452.20000000000005</ele><time>2026-04-26T07:59:18.998Z</time></trkpt><trkpt lat="44.896657770064095" lon="9.368396597204107"><ele>451.6</ele><time>2026-04-26T07:59:20.998Z</time></trkpt><trkpt lat="44.89655648896636" lon="9.368502090468262"><ele>451.0</ele><time>2026-04-26T07:59:22.998Z</time></trkpt><trkpt lat="44.89647677698248" lon="9.36849738651611"><ele>451.0</ele><time>2026-04-26T07:59:23.998Z</time></trkpt><trkpt lat="44.8963880524014" lon="9.368507183233174"><ele>451.0</ele><time>2026-04-26T07:59:24.998Z</time></trkpt><trkpt lat="44.896321397417" lon="9.368510491627598"><ele>451.0</ele><time>2026-04-26T07:59:25.998Z</time></trkpt><trkpt lat="44.896305251470665" lon="9.368325625130016"><ele>451.0</ele><time>2026-04-26T07:59:28.998Z</time></trkpt><trkpt lat="44.896246067156305" lon="9.368246870832412"><ele>451.0</ele><time>2026-04-26T07:59:29.998Z</time></trkpt><trkpt lat="44.896219333324396" lon="9.368137447136412"><ele>451.0</ele><time>2026-04-26T07:59:31.998Z</time></trkpt><trkpt lat="44.89610016709722" lon="9.368116693528108"><ele>451.0</ele><time>2026-04-26T07:59:33.998Z</time></trkpt><trkpt lat="44.896004417771366" lon="9.368151828940125"><ele>451.0</ele><time>2026-04-26T07:59:34.998Z</time></trkpt><trkpt lat="44.895919680232325" lon="9.368181143515242"><ele>451.0</ele><time>2026-04-26T07:59:35.998Z</time></trkpt><trkpt lat="44.89583659207643" lon="9.368187480870944"><ele>451.0</ele><time>2026-04-26T07:59:36.998Z</time></trkpt><trkpt lat="44.895785441051316" lon="9.368096101802669"><ele>448.1666666666667</ele><time>2026-04-26T07:59:37.998Z</time></trkpt><trkpt lat="44.89571765242602" lon="9.36804688656999"><ele>445.33333333333337</ele><time>2026-04-26T07:59:38.998Z</time></trkpt><trkpt lat="44.89565249274427" lon="9.367985011958368"><ele>442.5</ele><time>2026-04-26T07:59:39.998Z</time></trkpt><trkpt lat="44.89558752823198" lon="9.367933251794362"><ele>439.66666666666663</ele><time>2026-04-26T07:59:40.998Z</time></trkpt><trkpt lat="44.895529129879556" lon="9.367894289718839"><ele>436.8333333333333</ele><time>2026-04-26T07:59:41.998Z</time></trkpt><trkpt lat="44.895434412205674" lon="9.367832072845248"><ele>434.0</ele><time>2026-04-26T07:59:43.998Z</time></trkpt><trkpt lat="44.89531278767431" lon="9.367794515986802"><ele>433.3333333333333</ele><time>2026-04-26T07:59:45.998Z</time></trkpt><trkpt lat="44.89524756540306" lon="9.367788426305536"><ele>432.66666666666663</ele><time>2026-04-26T07:59:46.998Z</time></trkpt><trkpt lat="44.89517882898767" lon="9.367846828081422"><ele>432.0</ele><time>2026-04-26T07:59:47.998Z</time></trkpt><trkpt lat="44.89511970098002" lon="9.36788663350514"><ele>431.33333333333337</ele><time>2026-04-26T07:59:48.998Z</time></trkpt><trkpt lat="44.895056374170906" lon="9.367896377819804"><ele>430.6666666666667</ele><time>2026-04-26T07:59:49.998Z</time></trkpt><trkpt lat="44.894939002713016" lon="9.367922276995099"><ele>430.0</ele><time>2026-04-26T07:59:51.997Z</time></trkpt><trkpt lat="44.894824176654275" lon="9.367856069639878"><ele>426.6</ele><time>2026-04-26T07:59:53.997Z</time></trkpt><trkpt lat="44.89476034403295" lon="9.367808091799933"><ele>423.2</ele><time>2026-04-26T07:59:55Z</time></trkpt><trkpt lat="44.894692399683095" lon="9.36775674555359"><ele>419.79999999999995</ele><time>2026-04-26T07:59:56Z</time></trkpt><trkpt lat="44.89460418780287" lon="9.367660089866064"><ele>416.4</ele><time>2026-04-26T07:59:58Z</time></trkpt><trkpt lat="44.89451820676778" lon="9.367544100083107"><ele>413.0</ele><time>2026-04-26T08:00:00Z</time></trkpt><trkpt lat="44.894462684644985" lon="9.367455450558804"><ele>412.99999999999994</ele><time>2026-04-26T08:00:01Z</time></trkpt><trkpt lat="44.89440873891689" lon="9.367364659353438"><ele>413.0</ele><time>2026-04-26T08:00:02Z</time></trkpt><trkpt lat="44.894360419398936" lon="9.367279108971712"><ele>413.0</ele><time>2026-04-26T08:00:03Z</time></trkpt><trkpt lat="44.89431791106975" lon="9.367200852749866"><ele>413.0</ele><time>2026-04-26T08:00:04Z</time></trkpt><trkpt lat="44.89427146113501" lon="9.36712227219406"><ele>412.99999999999994</ele><time>2026-04-26T08:00:05Z</time></trkpt><trkpt lat="44.8942206471381" lon="9.367045787325795"><ele>413.0</ele><time>2026-04-26T08:00:06Z</time></trkpt><trkpt lat="44.89415560482754" lon="9.36698377635461"><ele>409.49999999999994</ele><time>2026-04-26T08:00:07Z</time></trkpt><trkpt lat="44.894099483965746" lon="9.366909139297581"><ele>406.0</ele><time>2026-04-26T08:00:08Z</time></trkpt><trkpt lat="44.89404340949846" lon="9.366829625258957"><ele>402.5</ele><time>2026-04-26T08:00:09Z</time></trkpt><trkpt lat="44.89398400394482" lon="9.366758549333218"><ele>399.0</ele><time>2026-04-26T08:00:10Z</time></trkpt><trkpt lat="44.8939237099174" lon="9.366692275572804"><ele>395.49999999999994</ele><time>2026-04-26T08:00:11Z</time></trkpt><trkpt lat="44.893864394264575" lon="9.366631334853997"><ele>392.0</ele><time>2026-04-26T08:00:12Z</time></trkpt><trkpt lat="44.893805511895025" lon="9.366580305627584"><ele>392.0</ele><time>2026-04-26T08:00:13Z</time></trkpt><trkpt lat="44.89375000630473" lon="9.366522518287141"><ele>392.0</ele><time>2026-04-26T08:00:14Z</time></trkpt><trkpt lat="44.8937094732159" lon="9.366440782583574"><ele>392.0</ele><time>2026-04-26T08:00:15Z</time></trkpt><trkpt lat="44.89366126648507" lon="9.366368767663586"><ele>392.0</ele><time>2026-04-26T08:00:16Z</time></trkpt><trkpt lat="44.893604705212816" lon="9.366310511388399"><ele>392.0</ele><time>2026-04-26T08:00:17Z</time></trkpt><trkpt lat="44.89357446162223" lon="9.36622095986122"><ele>392.0</ele><time>2026-04-26T08:00:18Z</time></trkpt><trkpt lat="44.89353883815219" lon="9.366143240964233"><ele>392.0</ele><time>2026-04-26T08:00:19Z</time></trkpt><trkpt lat="44.89350098993637" lon="9.366054636963861"><ele>391.8333333333333</ele><time>2026-04-26T08:00:20Z</time></trkpt><trkpt lat="44.893466254514486" lon="9.365954260994378"><ele>391.66666666666663</ele><time>2026-04-26T08:00:21Z</time></trkpt><trkpt lat="44.89342187105649" lon="9.365835055553957"><ele>391.5</ele><time>2026-04-26T08:00:22Z</time></trkpt><trkpt lat="44.893391460541004" lon="9.365707457663234"><ele>391.33333333333337</ele><time>2026-04-26T08:00:23Z</time></trkpt><trkpt lat="44.89336791230278" lon="9.36560442348949"><ele>391.1666666666667</ele><time>2026-04-26T08:00:24Z</time></trkpt><trkpt lat="44.8933245797586" lon="9.365535182128976"><ele>391.0</ele><time>2026-04-26T08:00:25Z</time></trkpt><trkpt lat="44.89326082570585" lon="9.365416779234577"><ele>387.50000000000006</ele><time>2026-04-26T08:00:27Z</time></trkpt><trkpt lat="44.893201500076394" lon="9.36537061775362"><ele>384.0</ele><time>2026-04-26T08:00:28Z</time></trkpt><trkpt lat="44.89313096918226" lon="9.36532577418421"><ele>380.5</ele><time>2026-04-26T08:00:29Z</time></trkpt><trkpt lat="44.89309036057519" lon="9.365234839480886"><ele>377.0</ele><time>2026-04-26T08:00:30Z</time></trkpt><trkpt lat="44.89299854087743" lon="9.365156739610342"><ele>373.5</ele><time>2026-04-26T08:00:31.999Z</time></trkpt><trkpt lat="44.892928809995865" lon="9.365178613722945"><ele>370.0</ele><time>2026-04-26T08:00:33.999Z</time></trkpt><trkpt lat="44.89286993207689" lon="9.365300708912342"><ele>370.0</ele><time>2026-04-26T08:00:35.999Z</time></trkpt><trkpt lat="44.89286225413537" lon="9.365400123539054"><ele>370.0</ele><time>2026-04-26T08:00:36.999Z</time></trkpt><trkpt lat="44.892875855764466" lon="9.365566500162783"><ele>370.0</ele><time>2026-04-26T08:00:38.999Z</time></trkpt><trkpt lat="44.89283892610404" lon="9.365769904264434"><ele>370.0</ele><time>2026-04-26T08:00:39.999Z</time></trkpt><trkpt lat="44.89282352315494" lon="9.365856148947193"><ele>370.0</ele><time>2026-04-26T08:00:40.999Z</time></trkpt><trkpt lat="44.892776913044806" lon="9.365935764507311"><ele>370.8333333333333</ele><time>2026-04-26T08:00:42.999Z</time></trkpt><trkpt lat="44.89271200854496" lon="9.365918281892247"><ele>371.66666666666663</ele><time>2026-04-26T08:00:44.999Z</time></trkpt><trkpt lat="44.892648236594425" lon="9.366055859033013"><ele>372.5</ele><time>2026-04-26T08:00:48.999Z</time></trkpt><trkpt lat="44.89258851255604" lon="9.366108511021363"><ele>373.3333333333333</ele><time>2026-04-26T08:00:49.999Z</time></trkpt><trkpt lat="44.89252261036811" lon="9.366199009393034"><ele>374.1666666666667</ele><time>2026-04-26T08:00:50.999Z</time></trkpt><trkpt lat="44.89244981895682" lon="9.366292049279895"><ele>375.0</ele><time>2026-04-26T08:00:51.999Z</time></trkpt><trkpt lat="44.89233753766451" lon="9.366333469110586"><ele>371.25</ele><time>2026-04-26T08:00:52.999Z</time></trkpt><trkpt lat="44.89221426627195" lon="9.366336762894896"><ele>367.5</ele><time>2026-04-26T08:00:53.999Z</time></trkpt><trkpt lat="44.892087273727704" lon="9.3663038588742"><ele>363.75</ele><time>2026-04-26T08:00:54.999Z</time></trkpt><trkpt lat="44.89196385232916" lon="9.366265502329298"><ele>360.0</ele><time>2026-04-26T08:00:55.999Z</time></trkpt><trkpt lat="44.8918314583768" lon="9.366253277717671"><ele>358.75</ele><time>2026-04-26T08:00:56.999Z</time></trkpt><trkpt lat="44.89171206802347" lon="9.36630126471421"><ele>357.5</ele><time>2026-04-26T08:00:57.999Z</time></trkpt><trkpt lat="44.891604498569166" lon="9.366410175964443"><ele>356.25</ele><time>2026-04-26T08:00:58.999Z</time></trkpt><trkpt lat="44.8915053432984" lon="9.366573815220871"><ele>355.0</ele><time>2026-04-26T08:00:59.999Z</time></trkpt><trkpt lat="44.89142530027004" lon="9.36676087709489"><ele>357.75</ele><time>2026-04-26T08:01:00.999Z</time></trkpt><trkpt lat="44.89135522409873" lon="9.366949675389112"><ele>360.5</ele><time>2026-04-26T08:01:01.999Z</time></trkpt><trkpt lat="44.89127169337526" lon="9.367099896111375"><ele>363.25</ele><time>2026-04-26T08:01:02.999Z</time></trkpt><trkpt lat="44.891185846646614" lon="9.367242709789345"><ele>366.0</ele><time>2026-04-26T08:01:03.999Z</time></trkpt><trkpt lat="44.89109970442772" lon="9.36738293076093"><ele>365.75</ele><time>2026-04-26T08:01:04.999Z</time></trkpt><trkpt lat="44.89099980497046" lon="9.367501332928686"><ele>365.5</ele><time>2026-04-26T08:01:05.999Z</time></trkpt><trkpt lat="44.890888211273165" lon="9.36759238451362"><ele>365.25</ele><time>2026-04-26T08:01:06.999Z</time></trkpt><trkpt lat="44.89077477741085" lon="9.367668143327213"><ele>365.0</ele><time>2026-04-26T08:01:07.999Z</time></trkpt><trkpt lat="44.89065387999481" lon="9.367728118063459"><ele>365.0</ele><time>2026-04-26T08:01:08.999Z</time></trkpt><trkpt lat="44.89052910360119" lon="9.367788521852143"><ele>365.0</ele><time>2026-04-26T08:01:09.999Z</time></trkpt><trkpt lat="44.890403993481144" lon="9.367865805076153"><ele>365.0</ele><time>2026-04-26T08:01:10.999Z</time></trkpt><trkpt lat="44.89027794503377" lon="9.367956786045264"><ele>365.0</ele><time>2026-04-26T08:01:11.999Z</time></trkpt><trkpt lat="44.89015539822689" lon="9.368068964629114"><ele>367.0</ele><time>2026-04-26T08:01:12.999Z</time></trkpt><trkpt lat="44.89003727393821" lon="9.368200052889406"><ele>369.0</ele><time>2026-04-26T08:01:13.999Z</time></trkpt><trkpt lat="44.88991993945749" lon="9.368337530788688"><ele>371.0</ele><time>2026-04-26T08:01:14.998Z</time></trkpt><trkpt lat="44.88980740376452" lon="9.368467361551225"><ele>373.0</ele><time>2026-04-26T08:01:15.998Z</time></trkpt><trkpt lat="44.88969625015765" lon="9.368588742018531"><ele>373.0</ele><time>2026-04-26T08:01:16.998Z</time></trkpt><trkpt lat="44.889603168374684" lon="9.368700800422179"><ele>373.0</ele><time>2026-04-26T08:01:17.998Z</time></trkpt><trkpt lat="44.88952754234549" lon="9.368822759065697"><ele>373.0</ele><time>2026-04-26T08:01:18.998Z</time></trkpt><trkpt lat="44.88946240806417" lon="9.368971343154337"><ele>373.0</ele><time>2026-04-26T08:01:19.998Z</time></trkpt><trkpt lat="44.8894238525828" lon="9.369145085445169"><ele>377.75</ele><time>2026-04-26T08:01:20.998Z</time></trkpt><trkpt lat="44.88942819136268" lon="9.369351429914973"><ele>382.5</ele><time>2026-04-26T08:01:21.998Z</time></trkpt><trkpt lat="44.8894177220054" lon="9.369566492737226"><ele>387.25</ele><time>2026-04-26T08:01:22.998Z</time></trkpt><trkpt lat="44.88940472463228" lon="9.369745279907708"><ele>392.0</ele><time>2026-04-26T08:01:23.998Z</time></trkpt><trkpt lat="44.88936815619402" lon="9.369907181146369"><ele>390.0</ele><time>2026-04-26T08:01:24.998Z</time></trkpt><trkpt lat="44.88927183561188" lon="9.370009385875687"><ele>388.0</ele><time>2026-04-26T08:01:25.998Z</time></trkpt><trkpt lat="44.88916428621453" lon="9.370097843379398"><ele>386.0</ele><time>2026-04-26T08:01:26.998Z</time></trkpt><trkpt lat="44.88902338753531" lon="9.37008926766964"><ele>384.0</ele><time>2026-04-26T08:01:27.998Z</time></trkpt><trkpt lat="44.88890295009106" lon="9.37002644321453"><ele>384.0</ele><time>2026-04-26T08:01:28.998Z</time></trkpt><trkpt lat="44.88876912449074" lon="9.369947746799049"><ele>384.0</ele><time>2026-04-26T08:01:29.998Z</time></trkpt><trkpt lat="44.88863048145888" lon="9.369856373214276"><ele>384.0</ele><time>2026-04-26T08:01:30.998Z</time></trkpt><trkpt lat="44.8885010040994" lon="9.369772131037557"><ele>384.0</ele><time>2026-04-26T08:01:31.998Z</time></trkpt><trkpt lat="44.88836306061144" lon="9.369698618031501"><ele>381.25</ele><time>2026-04-26T08:01:32.998Z</time></trkpt><trkpt lat="44.88823666615106" lon="9.369625927080373"><ele>378.5</ele><time>2026-04-26T08:01:33.998Z</time></trkpt><trkpt lat="44.88812356827306" lon="9.369555172954742"><ele>375.75</ele><time>2026-04-26T08:01:34.998Z</time></trkpt><trkpt lat="44.88802265125561" lon="9.369493809745501"><ele>373.0</ele><time>2026-04-26T08:01:35.998Z</time></trkpt><trkpt lat="44.887921742873765" lon="9.369436870454125"><ele>373.0</ele><time>2026-04-26T08:01:36.998Z</time></trkpt><trkpt lat="44.88782210379622" lon="9.36937300729022"><ele>373.0</ele><time>2026-04-26T08:01:37.998Z</time></trkpt><trkpt lat="44.88772982281955" lon="9.369327938369075"><ele>373.0</ele><time>2026-04-26T08:01:38.998Z</time></trkpt><trkpt lat="44.88764299809401" lon="9.369294665514472"><ele>373.0</ele><time>2026-04-26T08:01:39.998Z</time></trkpt><trkpt lat="44.88754508966563" lon="9.369277540776773"><ele>373.0</ele><time>2026-04-26T08:01:40.998Z</time></trkpt><trkpt lat="44.88745055859084" lon="9.369284567278447"><ele>374.16666666666663</ele><time>2026-04-26T08:01:41.998Z</time></trkpt><trkpt lat="44.88736392274601" lon="9.36929885356793"><ele>375.3333333333333</ele><time>2026-04-26T08:01:42.998Z</time></trkpt><trkpt lat="44.88730340439996" lon="9.369337800996934"><ele>376.5</ele><time>2026-04-26T08:01:43.998Z</time></trkpt><trkpt lat="44.887236274051176" lon="9.369378077043923"><ele>377.6666666666667</ele><time>2026-04-26T08:01:44.998Z</time></trkpt><trkpt lat="44.88716135755185" lon="9.369430657909234"><ele>378.83333333333337</ele><time>2026-04-26T08:01:45.998Z</time></trkpt><trkpt lat="44.88708318992037" lon="9.369513125511505"><ele>380.0</ele><time>2026-04-26T08:01:46.998Z</time></trkpt><trkpt lat="44.88700439120858" lon="9.369614253090528"><ele>381.83333333333337</ele><time>2026-04-26T08:01:47.998Z</time></trkpt><trkpt lat="44.88694648671666" lon="9.36970991201572"><ele>383.6666666666667</ele><time>2026-04-26T08:01:48.998Z</time></trkpt><trkpt lat="44.88689398395044" lon="9.369805700703559"><ele>385.5</ele><time>2026-04-26T08:01:49.998Z</time></trkpt><trkpt lat="44.88686083856715" lon="9.369897762976711"><ele>387.33333333333337</ele><time>2026-04-26T08:01:50.998Z</time></trkpt><trkpt lat="44.88682830372016" lon="9.370012993945107"><ele>389.1666666666667</ele><time>2026-04-26T08:01:51.998Z</time></trkpt><trkpt lat="44.88679338492459" lon="9.370165309110611"><ele>391.0</ele><time>2026-04-26T08:01:52.998Z</time></trkpt><trkpt lat="44.886784861690195" lon="9.370281542144744"><ele>391.0</ele><time>2026-04-26T08:01:53.998Z</time></trkpt><trkpt lat="44.88677884006663" lon="9.370397603783086"><ele>391.0</ele><time>2026-04-26T08:01:54.998Z</time></trkpt><trkpt lat="44.88677582646812" lon="9.37056094452556"><ele>391.0</ele><time>2026-04-26T08:01:56.998Z</time></trkpt><trkpt lat="44.88623338146436" lon="9.370704672483903"><ele>390.4</ele><time>2026-04-26T08:01:59.997Z</time></trkpt><trkpt lat="44.886128743749516" lon="9.370746780763888"><ele>389.8</ele><time>2026-04-26T08:02:01Z</time></trkpt><trkpt lat="44.88603449539196" lon="9.37082515665871"><ele>389.2</ele><time>2026-04-26T08:02:02Z</time></trkpt><trkpt lat="44.88596241220986" lon="9.37089175983121"><ele>388.59999999999997</ele><time>2026-04-26T08:02:03Z</time></trkpt><trkpt lat="44.8858978425181" lon="9.370926677985896"><ele>388.0</ele><time>2026-04-26T08:02:04Z</time></trkpt><trkpt lat="44.885772982234805" lon="9.370875032456109"><ele>385.4</ele><time>2026-04-26T08:02:06Z</time></trkpt><trkpt lat="44.88571083860859" lon="9.370786023076226"><ele>382.79999999999995</ele><time>2026-04-26T08:02:07Z</time></trkpt><trkpt lat="44.88564612193654" lon="9.37065870210641"><ele>380.2</ele><time>2026-04-26T08:02:08Z</time></trkpt><trkpt lat="44.88558032722131" lon="9.370513678425535"><ele>377.6</ele><time>2026-04-26T08:02:09Z</time></trkpt><trkpt lat="44.88551712021573" lon="9.370367856934536"><ele>375.0</ele><time>2026-04-26T08:02:10Z</time></trkpt><trkpt lat="44.88545504489969" lon="9.37023274952131"><ele>373.6666666666667</ele><time>2026-04-26T08:02:11Z</time></trkpt><trkpt lat="44.885397269712655" lon="9.370112875587157"><ele>372.3333333333333</ele><time>2026-04-26T08:02:12Z</time></trkpt><trkpt lat="44.885343221101714" lon="9.370009268791623"><ele>371.0</ele><time>2026-04-26T08:02:13Z</time></trkpt><trkpt lat="44.88529171882895" lon="9.369910350670938"><ele>369.66666666666663</ele><time>2026-04-26T08:02:14Z</time></trkpt><trkpt lat="44.885235652206255" lon="9.36982761162415"><ele>368.3333333333333</ele><time>2026-04-26T08:02:15Z</time></trkpt><trkpt lat="44.885181798123945" lon="9.369771336773077"><ele>367.0</ele><time>2026-04-26T08:02:16Z</time></trkpt><trkpt lat="44.885084567203144" lon="9.369712548857853"><ele>367.0</ele><time>2026-04-26T08:02:18Z</time></trkpt><trkpt lat="44.88500082110227" lon="9.369748641613318"><ele>367.0</ele><time>2026-04-26T08:02:20Z</time></trkpt><trkpt lat="44.88492069848577" lon="9.369812242135753"><ele>367.0</ele><time>2026-04-26T08:02:22Z</time></trkpt><trkpt lat="44.88482690836537" lon="9.369768962620892"><ele>367.0</ele><time>2026-04-26T08:02:24Z</time></trkpt><trkpt lat="44.884749746805355" lon="9.369695564250916"><ele>367.0</ele><time>2026-04-26T08:02:26Z</time></trkpt><trkpt lat="44.88470039170511" lon="9.369617224006289"><ele>367.0</ele><time>2026-04-26T08:02:27Z</time></trkpt><trkpt lat="44.884655173772124" lon="9.369547208801409"><ele>366.8333333333333</ele><time>2026-04-26T08:02:28Z</time></trkpt><trkpt lat="44.884609879151476" lon="9.36947430722367"><ele>366.66666666666663</ele><time>2026-04-26T08:02:29Z</time></trkpt><trkpt lat="44.88455282080274" lon="9.369397131193834"><ele>366.5</ele><time>2026-04-26T08:02:30Z</time></trkpt><trkpt lat="44.884501531449935" lon="9.369297404703975"><ele>366.3333333333333</ele><time>2026-04-26T08:02:31Z</time></trkpt><trkpt lat="44.88447584654169" lon="9.36919362545559"><ele>366.1666666666667</ele><time>2026-04-26T08:02:32Z</time></trkpt><trkpt lat="44.88446456026192" lon="9.36909288278619"><ele>366.0</ele><time>2026-04-26T08:02:33Z</time></trkpt><trkpt lat="44.88445924361697" lon="9.368998682866136"><ele>366.0</ele><time>2026-04-26T08:02:34Z</time></trkpt><trkpt lat="44.88447389739762" lon="9.368901415274197"><ele>366.0</ele><time>2026-04-26T08:02:35Z</time></trkpt><trkpt lat="44.884499268635466" lon="9.36879143742309"><ele>366.0</ele><time>2026-04-26T08:02:35.999Z</time></trkpt><trkpt lat="44.88450995129646" lon="9.368659221292631"><ele>366.0</ele><time>2026-04-26T08:02:36.999Z</time></trkpt><trkpt lat="44.88450769409749" lon="9.368563191517003"><ele>366.0</ele><time>2026-04-26T08:02:37.999Z</time></trkpt><trkpt lat="44.8845788809859" lon="9.368454234800314"><ele>366.0</ele><time>2026-04-26T08:02:39.999Z</time></trkpt><trkpt lat="44.884660976112784" lon="9.368407150263415"><ele>367.20000000000005</ele><time>2026-04-26T08:02:40.999Z</time></trkpt><trkpt lat="44.88474975182182" lon="9.368325283436093"><ele>368.40000000000003</ele><time>2026-04-26T08:02:41.999Z</time></trkpt><trkpt lat="44.88482196568545" lon="9.36821663375877"><ele>369.6</ele><time>2026-04-26T08:02:42.999Z</time></trkpt><trkpt lat="44.884889012432005" lon="9.368120884422185"><ele>370.8</ele><time>2026-04-26T08:02:43.999Z</time></trkpt><trkpt lat="44.88496401014171" lon="9.36801338330061"><ele>372.0</ele><time>2026-04-26T08:02:44.999Z</time></trkpt><trkpt lat="44.88505783687661" lon="9.367883512495576"><ele>372.8</ele><time>2026-04-26T08:02:45.999Z</time></trkpt><trkpt lat="44.88514662619688" lon="9.367771293189591"><ele>373.6</ele><time>2026-04-26T08:02:46.999Z</time></trkpt><trkpt lat="44.88522268247471" lon="9.367674649226668"><ele>374.40000000000003</ele><time>2026-04-26T08:02:47.999Z</time></trkpt><trkpt lat="44.88529705608866" lon="9.367582715382664"><ele>375.20000000000005</ele><time>2026-04-26T08:02:48.999Z</time></trkpt><trkpt lat="44.885379733278" lon="9.367474147139959"><ele>376.0</ele><time>2026-04-26T08:02:49.999Z</time></trkpt><trkpt lat="44.88545413940226" lon="9.367377776697062"><ele>376.0</ele><time>2026-04-26T08:02:50.999Z</time></trkpt><trkpt lat="44.88551708976354" lon="9.367277594402895"><ele>376.0</ele><time>2026-04-26T08:02:51.999Z</time></trkpt><trkpt lat="44.88557200063181" lon="9.367178667119353"><ele>376.0</ele><time>2026-04-26T08:02:52.999Z</time></trkpt><trkpt lat="44.88560758618241" lon="9.367093018771461"><ele>376.0</ele><time>2026-04-26T08:02:53.999Z</time></trkpt><trkpt lat="44.88562104236593" lon="9.366985421623049"><ele>376.0</ele><time>2026-04-26T08:02:55.999Z</time></trkpt><trkpt lat="44.885549520866" lon="9.366840234157552"><ele>377.0</ele><time>2026-04-26T08:02:57.999Z</time></trkpt><trkpt lat="44.885491877862925" lon="9.366727903708659"><ele>378.0</ele><time>2026-04-26T08:02:58.999Z</time></trkpt><trkpt lat="44.885439717763056" lon="9.366613515365456"><ele>379.0</ele><time>2026-04-26T08:02:59.999Z</time></trkpt><trkpt lat="44.885404994232836" lon="9.366530101378205"><ele>380.0</ele><time>2026-04-26T08:03:00.999Z</time></trkpt><trkpt lat="44.88531526911815" lon="9.366387979270492"><ele>381.0</ele><time>2026-04-26T08:03:02.999Z</time></trkpt><trkpt lat="44.885268251157456" lon="9.366324975839452"><ele>381.8</ele><time>2026-04-26T08:03:03.999Z</time></trkpt><trkpt lat="44.88524793328235" lon="9.366228814587512"><ele>382.6</ele><time>2026-04-26T08:03:05.999Z</time></trkpt><trkpt lat="44.8852772571524" lon="9.36607000396743"><ele>383.4</ele><time>2026-04-26T08:03:07.999Z</time></trkpt><trkpt lat="44.88528789873663" lon="9.36595035515736"><ele>384.2</ele><time>2026-04-26T08:03:08.999Z</time></trkpt><trkpt lat="44.885285980727716" lon="9.365803133177602"><ele>385.0</ele><time>2026-04-26T08:03:09.999Z</time></trkpt><trkpt lat="44.88527902422461" lon="9.365678816431197"><ele>385.0</ele><time>2026-04-26T08:03:10.999Z</time></trkpt><trkpt lat="44.88525860036507" lon="9.365572808323696"><ele>385.0</ele><time>2026-04-26T08:03:11.999Z</time></trkpt><trkpt lat="44.88521007238848" lon="9.365466898521234"><ele>385.0</ele><time>2026-04-26T08:03:12.999Z</time></trkpt><trkpt lat="44.88513550896613" lon="9.365358186570218"><ele>385.0</ele><time>2026-04-26T08:03:13.999Z</time></trkpt><trkpt lat="44.885073756128264" lon="9.365264184119273"><ele>385.0</ele><time>2026-04-26T08:03:14.999Z</time></trkpt><trkpt lat="44.88504207088275" lon="9.36511146097495"><ele>386.6666666666667</ele><time>2026-04-26T08:03:16.999Z</time></trkpt><trkpt lat="44.88503402637295" lon="9.365002917238455"><ele>388.33333333333337</ele><time>2026-04-26T08:03:17.999Z</time></trkpt><trkpt lat="44.88505663169347" lon="9.364859834144143"><ele>390.0</ele><time>2026-04-26T08:03:18.999Z</time></trkpt><trkpt lat="44.88507921263641" lon="9.36471809637151"><ele>391.66666666666663</ele><time>2026-04-26T08:03:19.998Z</time></trkpt><trkpt lat="44.885065955689235" lon="9.364619481951213"><ele>393.3333333333333</ele><time>2026-04-26T08:03:20.998Z</time></trkpt><trkpt lat="44.88502508355251" lon="9.364544227172487"><ele>395.0</ele><time>2026-04-26T08:03:21.998Z</time></trkpt><trkpt lat="44.88496137489483" lon="9.364474989168654"><ele>396.75</ele><time>2026-04-26T08:03:22.998Z</time></trkpt><trkpt lat="44.88487187943473" lon="9.364407510304089"><ele>398.5</ele><time>2026-04-26T08:03:23.998Z</time></trkpt><trkpt lat="44.884757436138976" lon="9.364334139998947"><ele>400.25</ele><time>2026-04-26T08:03:24.998Z</time></trkpt><trkpt lat="44.884649621886105" lon="9.364260188228855"><ele>402.0</ele><time>2026-04-26T08:03:25.998Z</time></trkpt><trkpt lat="44.88455576395335" lon="9.36416905756973"><ele>402.0</ele><time>2026-04-26T08:03:26.998Z</time></trkpt><trkpt lat="44.88448241318508" lon="9.36406643740396"><ele>402.0</ele><time>2026-04-26T08:03:27.998Z</time></trkpt><trkpt lat="44.88442093226176" lon="9.363935237947269"><ele>402.0</ele><time>2026-04-26T08:03:28.998Z</time></trkpt><trkpt lat="44.884362952524285" lon="9.363777553188047"><ele>402.0</ele><time>2026-04-26T08:03:29.998Z</time></trkpt><trkpt lat="44.88433143995461" lon="9.3636416228818"><ele>402.0</ele><time>2026-04-26T08:03:30.998Z</time></trkpt><trkpt lat="44.88431346434709" lon="9.363504498365844"><ele>402.6666666666667</ele><time>2026-04-26T08:03:31.998Z</time></trkpt><trkpt lat="44.88429481146886" lon="9.363375055193705"><ele>403.33333333333337</ele><time>2026-04-26T08:03:32.998Z</time></trkpt><trkpt lat="44.88427230920854" lon="9.363282473911408"><ele>404.0</ele><time>2026-04-26T08:03:33.998Z</time></trkpt><trkpt lat="44.884259071812856" lon="9.363128555300522"><ele>404.6666666666667</ele><time>2026-04-26T08:03:35.998Z</time></trkpt><trkpt lat="44.88424570207875" lon="9.363021097316834"><ele>405.33333333333337</ele><time>2026-04-26T08:03:36.998Z</time></trkpt><trkpt lat="44.884229941934585" lon="9.362928499186474"><ele>406.0</ele><time>2026-04-26T08:03:37.998Z</time></trkpt><trkpt lat="44.884212859160975" lon="9.362835943118084"><ele>409.00000000000006</ele><time>2026-04-26T08:03:38.998Z</time></trkpt><trkpt lat="44.88418734084144" lon="9.36274491326688"><ele>412.0</ele><time>2026-04-26T08:03:39.998Z</time></trkpt><trkpt lat="44.88409809064838" lon="9.362624167106818"><ele>415.0</ele><time>2026-04-26T08:03:41.998Z</time></trkpt><trkpt lat="44.88402874135882" lon="9.36257420416535"><ele>418.0</ele><time>2026-04-26T08:03:42.998Z</time></trkpt><trkpt lat="44.88396197905283" lon="9.362525126142321"><ele>421.00000000000006</ele><time>2026-04-26T08:03:43.998Z</time></trkpt><trkpt lat="44.88389011375674" lon="9.362460790748615"><ele>424.0</ele><time>2026-04-26T08:03:45.998Z</time></trkpt><trkpt lat="44.883871379292536" lon="9.362310027508798"><ele>424.6</ele><time>2026-04-26T08:04:32Z</time></trkpt><trkpt lat="44.88383394255914" lon="9.362147118524101"><ele>425.2</ele><time>2026-04-26T08:04:34Z</time></trkpt><trkpt lat="44.883816691780936" lon="9.361952394789139"><ele>425.80000000000007</ele><time>2026-04-26T08:04:36Z</time></trkpt><trkpt lat="44.88382440000158" lon="9.361845239075384"><ele>426.40000000000003</ele><time>2026-04-26T08:04:37Z</time></trkpt><trkpt lat="44.883844760482894" lon="9.36174202629014"><ele>427.0</ele><time>2026-04-26T08:04:38Z</time></trkpt><trkpt lat="44.88387217809652" lon="9.361646542308202"><ele>427.00000000000006</ele><time>2026-04-26T08:04:39Z</time></trkpt><trkpt lat="44.88392220571873" lon="9.36156090961519"><ele>427.0</ele><time>2026-04-26T08:04:40Z</time></trkpt><trkpt lat="44.88398493552698" lon="9.361470815793247"><ele>427.0</ele><time>2026-04-26T08:04:41Z</time></trkpt><trkpt lat="44.884054463968425" lon="9.361372701583978"><ele>427.0</ele><time>2026-04-26T08:04:42Z</time></trkpt><trkpt lat="44.88411880345377" lon="9.361273098670628"><ele>427.00000000000006</ele><time>2026-04-26T08:04:42.999Z</time></trkpt><trkpt lat="44.88417371854653" lon="9.361177160686358"><ele>427.0</ele><time>2026-04-26T08:04:43.999Z</time></trkpt><trkpt lat="44.884228701748846" lon="9.361077121547012"><ele>426.1666666666667</ele><time>2026-04-26T08:04:44.999Z</time></trkpt><trkpt lat="44.88427132997461" lon="9.361006650376845"><ele>425.33333333333337</ele><time>2026-04-26T08:04:45.999Z</time></trkpt><trkpt lat="44.88433405997036" lon="9.360929871004737"><ele>424.5</ele><time>2026-04-26T08:04:47.999Z</time></trkpt><trkpt lat="44.884306909593434" lon="9.360809826057356"><ele>423.66666666666663</ele><time>2026-04-26T08:04:50.999Z</time></trkpt><trkpt lat="44.884201974402586" lon="9.36074423795404"><ele>422.8333333333333</ele><time>2026-04-26T08:04:52.999Z</time></trkpt><trkpt lat="44.88412949460751" lon="9.360717909943508"><ele>422.0</ele><time>2026-04-26T08:04:53.999Z</time></trkpt><trkpt lat="44.8840475999063" lon="9.360663913246015"><ele>424.8</ele><time>2026-04-26T08:04:54.999Z</time></trkpt><trkpt lat="44.88396331240702" lon="9.36059091195465"><ele>427.6</ele><time>2026-04-26T08:04:55.999Z</time></trkpt><trkpt lat="44.88391698102485" lon="9.360480178710182"><ele>430.40000000000003</ele><time>2026-04-26T08:04:56.999Z</time></trkpt><trkpt lat="44.88383418570394" lon="9.360371432237493"><ele>433.20000000000005</ele><time>2026-04-26T08:04:57.999Z</time></trkpt><trkpt lat="44.8837321628653" lon="9.360227498221084"><ele>436.0</ele><time>2026-04-26T08:04:58.999Z</time></trkpt><trkpt lat="44.88362667960275" lon="9.360055927756262"><ele>437.25</ele><time>2026-04-26T08:04:59.999Z</time></trkpt><trkpt lat="44.88353859579494" lon="9.35988368127661"><ele>438.5</ele><time>2026-04-26T08:05:00.999Z</time></trkpt><trkpt lat="44.88345743492858" lon="9.359734963258965"><ele>439.75</ele><time>2026-04-26T08:05:01.999Z</time></trkpt><trkpt lat="44.883363409837344" lon="9.359588388573789"><ele>441.0</ele><time>2026-04-26T08:05:02.999Z</time></trkpt><trkpt lat="44.88325933944283" lon="9.359451488564215"><ele>445.75</ele><time>2026-04-26T08:05:03.999Z</time></trkpt><trkpt lat="44.883166661048634" lon="9.359314663500703"><ele>450.5</ele><time>2026-04-26T08:05:04.999Z</time></trkpt><trkpt lat="44.88308183565992" lon="9.359180694313046"><ele>455.25</ele><time>2026-04-26T08:05:05.999Z</time></trkpt><trkpt lat="44.8830012022963" lon="9.35906072435772"><ele>460.0</ele><time>2026-04-26T08:05:06.999Z</time></trkpt><trkpt lat="44.88291232176983" lon="9.358942263109627"><ele>461.5</ele><time>2026-04-26T08:05:07.999Z</time></trkpt><trkpt lat="44.882822885983224" lon="9.358837334610467"><ele>463.0</ele><time>2026-04-26T08:05:08.999Z</time></trkpt><trkpt lat="44.88272522976084" lon="9.358755514567026"><ele>464.5</ele><time>2026-04-26T08:05:09.999Z</time></trkpt><trkpt lat="44.882620214586055" lon="9.358700846898202"><ele>466.0</ele><time>2026-04-26T08:05:10.999Z</time></trkpt><trkpt lat="44.882504214439166" lon="9.358693809680744"><ele>469.0</ele><time>2026-04-26T08:05:11.999Z</time></trkpt><trkpt lat="44.88238598640555" lon="9.358673248190943"><ele>472.0</ele><time>2026-04-26T08:05:12.999Z</time></trkpt><trkpt lat="44.882277162394956" lon="9.358625242623258"><ele>475.0</ele><time>2026-04-26T08:05:13.999Z</time></trkpt><trkpt lat="44.882190273501735" lon="9.358598058445986"><ele>478.0</ele><time>2026-04-26T08:05:14.999Z</time></trkpt><trkpt lat="44.88212228362514" lon="9.358567135373715"><ele>481.0</ele><time>2026-04-26T08:05:15.999Z</time></trkpt><trkpt lat="44.882084252618206" lon="9.358492059349228"><ele>481.00000000000006</ele><time>2026-04-26T08:05:16.999Z</time></trkpt><trkpt lat="44.88203749191073" lon="9.358407113547603"><ele>481.0</ele><time>2026-04-26T08:05:17.999Z</time></trkpt><trkpt lat="44.8819876006836" lon="9.358301107420159"><ele>481.0</ele><time>2026-04-26T08:05:18.999Z</time></trkpt><trkpt lat="44.88194512517164" lon="9.35818726987429"><ele>481.0</ele><time>2026-04-26T08:05:19.999Z</time></trkpt><trkpt lat="44.881931382565384" lon="9.358065607766324"><ele>481.00000000000006</ele><time>2026-04-26T08:05:20.999Z</time></trkpt><trkpt lat="44.881923384496176" lon="9.357939809286913"><ele>481.0</ele><time>2026-04-26T08:05:21.999Z</time></trkpt><trkpt lat="44.88192514702651" lon="9.357800852363326"><ele>483.4</ele><time>2026-04-26T08:05:22.999Z</time></trkpt><trkpt lat="44.881915336981365" lon="9.357659516909115"><ele>485.8</ele><time>2026-04-26T08:05:23.999Z</time></trkpt><trkpt lat="44.88189261003319" lon="9.357541340571712"><ele>488.19999999999993</ele><time>2026-04-26T08:05:24.999Z</time></trkpt><trkpt lat="44.881885193905894" lon="9.357434956682834"><ele>490.59999999999997</ele><time>2026-04-26T08:05:25.998Z</time></trkpt><trkpt lat="44.88193567874044" lon="9.357310226979424"><ele>493.0</ele><time>2026-04-26T08:05:27.998Z</time></trkpt><trkpt lat="44.8820531609192" lon="9.357243318381991"><ele>493.00000000000006</ele><time>2026-04-26T08:05:29.998Z</time></trkpt><trkpt lat="44.88212932734669" lon="9.357226511640132"><ele>493.0</ele><time>2026-04-26T08:05:30.998Z</time></trkpt><trkpt lat="44.88218878796646" lon="9.357164846676142"><ele>493.0</ele><time>2026-04-26T08:05:31.998Z</time></trkpt><trkpt lat="44.88224375517157" lon="9.357089977794207"><ele>493.0</ele><time>2026-04-26T08:05:32.998Z</time></trkpt><trkpt lat="44.882268149732575" lon="9.356964204228623"><ele>493.00000000000006</ele><time>2026-04-26T08:05:33.998Z</time></trkpt><trkpt lat="44.88226727092241" lon="9.356834585573178"><ele>493.0</ele><time>2026-04-26T08:05:34.998Z</time></trkpt><trkpt lat="44.88224337000964" lon="9.356717698882381"><ele>494.83333333333337</ele><time>2026-04-26T08:05:35.998Z</time></trkpt><trkpt lat="44.88221210530474" lon="9.356613902810494"><ele>496.6666666666667</ele><time>2026-04-26T08:05:36.998Z</time></trkpt><trkpt lat="44.882183986438164" lon="9.356520447808096"><ele>498.5</ele><time>2026-04-26T08:05:37.998Z</time></trkpt><trkpt lat="44.882143647315665" lon="9.356437453834143"><ele>500.33333333333337</ele><time>2026-04-26T08:05:38.998Z</time></trkpt><trkpt lat="44.88211986473902" lon="9.356336564349485"><ele>502.1666666666667</ele><time>2026-04-26T08:05:39.998Z</time></trkpt><trkpt lat="44.88210289227806" lon="9.356227496354373"><ele>504.0</ele><time>2026-04-26T08:05:40.998Z</time></trkpt><trkpt lat="44.882075009252254" lon="9.356122575676268"><ele>506.6666666666667</ele><time>2026-04-26T08:05:41.998Z</time></trkpt><trkpt lat="44.88204866522266" lon="9.356019729613834"><ele>509.33333333333337</ele><time>2026-04-26T08:05:42.998Z</time></trkpt><trkpt lat="44.88202930131873" lon="9.355919369312268"><ele>512.0</ele><time>2026-04-26T08:05:43.998Z</time></trkpt><trkpt lat="44.88202675240817" lon="9.355821841291949"><ele>514.6666666666667</ele><time>2026-04-26T08:05:44.998Z</time></trkpt><trkpt lat="44.882093336983324" lon="9.355683484344926"><ele>517.3333333333334</ele><time>2026-04-26T08:05:46.998Z</time></trkpt><trkpt lat="44.88213458846132" lon="9.35559338103067"><ele>520.0</ele><time>2026-04-26T08:05:48.998Z</time></trkpt><trkpt lat="44.882173162115755" lon="9.355488244273987"><ele>522.5</ele><time>2026-04-26T08:05:50.998Z</time></trkpt><trkpt lat="44.88219516004446" lon="9.355314208389984"><ele>525.0</ele><time>2026-04-26T08:05:52.998Z</time></trkpt><trkpt lat="44.88187474257875" lon="9.355235283355904"><ele>525.0</ele><time>2026-04-26T08:05:53.998Z</time></trkpt><trkpt lat="44.88180491519506" lon="9.355160216459536"><ele>525.0</ele><time>2026-04-26T08:05:54.998Z</time></trkpt><trkpt lat="44.8817605391793" lon="9.35505992764951"><ele>525.0</ele><time>2026-04-26T08:05:55.998Z</time></trkpt><trkpt lat="44.881717093728156" lon="9.354956768505101"><ele>525.0</ele><time>2026-04-26T08:05:56.998Z</time></trkpt><trkpt lat="44.881662705956586" lon="9.354903518046411"><ele>525.0</ele><time>2026-04-26T08:05:57.998Z</time></trkpt><trkpt lat="44.88159345437011" lon="9.35488085794653"><ele>525.0</ele><time>2026-04-26T08:05:58.998Z</time></trkpt><trkpt lat="44.881496900836424" lon="9.354866376138284"><ele>527.8</ele><time>2026-04-26T08:05:59.998Z</time></trkpt><trkpt lat="44.88137481255071" lon="9.354864914950605"><ele>530.6</ele><time>2026-04-26T08:06:00.998Z</time></trkpt><trkpt lat="44.88127153441239" lon="9.354866373341242"><ele>533.4</ele><time>2026-04-26T08:06:01.998Z</time></trkpt><trkpt lat="44.881203224582535" lon="9.354828052224713"><ele>536.2</ele><time>2026-04-26T08:06:02.998Z</time></trkpt><trkpt lat="44.88111883904495" lon="9.35475492443416"><ele>539.0</ele><time>2026-04-26T08:06:03.998Z</time></trkpt><trkpt lat="44.8810101843418" lon="9.35469326749608"><ele>543.25</ele><time>2026-04-26T08:06:04.998Z</time></trkpt><trkpt lat="44.88086905133548" lon="9.354677172188609"><ele>547.5</ele><time>2026-04-26T08:06:05.998Z</time></trkpt><trkpt lat="44.88073463637325" lon="9.35465895434159"><ele>551.75</ele><time>2026-04-26T08:06:06.998Z</time></trkpt><trkpt lat="44.88062876057418" lon="9.354605464407486"><ele>556.0</ele><time>2026-04-26T08:06:07.998Z</time></trkpt><trkpt lat="44.8805154314936" lon="9.354524380242516"><ele>556.0</ele><time>2026-04-26T08:06:08.998Z</time></trkpt><trkpt lat="44.88040409929424" lon="9.354424053923378"><ele>556.0</ele><time>2026-04-26T08:06:09.997Z</time></trkpt><trkpt lat="44.88033033521931" lon="9.354347035493237"><ele>556.0</ele><time>2026-04-26T08:06:10.997Z</time></trkpt><trkpt lat="44.88024157279133" lon="9.354268257373983"><ele>556.0</ele><time>2026-04-26T08:06:13Z</time></trkpt><trkpt lat="44.88017499927354" lon="9.354259016963082"><ele>556.0</ele><time>2026-04-26T08:06:14Z</time></trkpt><trkpt lat="44.88009327819737" lon="9.35424752067349"><ele>560.2</ele><time>2026-04-26T08:06:15Z</time></trkpt><trkpt lat="44.87999966232528" lon="9.35422251458773"><ele>564.4000000000001</ele><time>2026-04-26T08:06:16Z</time></trkpt><trkpt lat="44.87989401290697" lon="9.354180120684775"><ele>568.6</ele><time>2026-04-26T08:06:17Z</time></trkpt><trkpt lat="44.879792376342905" lon="9.354159169609398"><ele>572.8000000000001</ele><time>2026-04-26T08:06:18Z</time></trkpt><trkpt lat="44.87967576542154" lon="9.354133543809422"><ele>577.0</ele><time>2026-04-26T08:06:19Z</time></trkpt><trkpt lat="44.87956647359497" lon="9.35411584918131"><ele>577.0</ele><time>2026-04-26T08:06:20Z</time></trkpt><trkpt lat="44.87945785475595" lon="9.35412934769404"><ele>577.0</ele><time>2026-04-26T08:06:21Z</time></trkpt><trkpt lat="44.879347105300006" lon="9.354131533982642"><ele>577.0</ele><time>2026-04-26T08:06:22Z</time></trkpt><trkpt lat="44.87925550550341" lon="9.35410708803542"><ele>577.0</ele><time>2026-04-26T08:06:23Z</time></trkpt><trkpt lat="44.87917483868959" lon="9.354048210984772"><ele>577.0</ele><time>2026-04-26T08:06:24Z</time></trkpt><trkpt lat="44.87911452925284" lon="9.353988204278567"><ele>579.5</ele><time>2026-04-26T08:06:25Z</time></trkpt><trkpt lat="44.87906734576631" lon="9.35392169394679"><ele>582.0</ele><time>2026-04-26T08:06:27Z</time></trkpt><trkpt lat="44.879011704808946" lon="9.35384304606012"><ele>584.5</ele><time>2026-04-26T08:06:30Z</time></trkpt><trkpt lat="44.87895822527068" lon="9.353785015169372"><ele>587.0</ele><time>2026-04-26T08:06:32Z</time></trkpt><trkpt lat="44.878886822199476" lon="9.35371604651043"><ele>589.5</ele><time>2026-04-26T08:06:35Z</time></trkpt><trkpt lat="44.87880085295305" lon="9.353652268189949"><ele>592.0</ele><time>2026-04-26T08:06:38Z</time></trkpt><trkpt lat="44.878724841103214" lon="9.353619255660915"><ele>592.0</ele><time>2026-04-26T08:06:40Z</time></trkpt><trkpt lat="44.878655200105435" lon="9.353608347119385"><ele>592.0</ele><time>2026-04-26T08:06:41Z</time></trkpt><trkpt lat="44.87852153303572" lon="9.353585448552526"><ele>592.0</ele><time>2026-04-26T08:06:43Z</time></trkpt><trkpt lat="44.87844699202297" lon="9.3535785177319"><ele>592.0</ele><time>2026-04-26T08:06:44Z</time></trkpt><trkpt lat="44.8783709682235" lon="9.353566379699965"><ele>592.0</ele><time>2026-04-26T08:06:45Z</time></trkpt><trkpt lat="44.87829797006996" lon="9.353526244532956"><ele>592.0</ele><time>2026-04-26T08:06:46Z</time></trkpt><trkpt lat="44.878222840696" lon="9.353485595252828"><ele>595.0</ele><time>2026-04-26T08:06:47Z</time></trkpt><trkpt lat="44.87811577253484" lon="9.35343767217374"><ele>598.0</ele><time>2026-04-26T08:06:48Z</time></trkpt><trkpt lat="44.87800584540502" lon="9.353373724300807"><ele>601.0</ele><time>2026-04-26T08:06:48.999Z</time></trkpt><trkpt lat="44.87790698618131" lon="9.35330164724739"><ele>604.0</ele><time>2026-04-26T08:06:49.999Z</time></trkpt><trkpt lat="44.87782172263846" lon="9.35323905279626"><ele>607.0</ele><time>2026-04-26T08:06:50.999Z</time></trkpt><trkpt lat="44.877753236585356" lon="9.353205080120427"><ele>607.0</ele><time>2026-04-26T08:06:51.999Z</time></trkpt><trkpt lat="44.87761658935573" lon="9.353210406533282"><ele>607.0</ele><time>2026-04-26T08:06:53.999Z</time></trkpt><trkpt lat="44.87752966410581" lon="9.353238536412544"><ele>607.0</ele><time>2026-04-26T08:06:54.999Z</time></trkpt><trkpt lat="44.87745561862238" lon="9.35325630704651"><ele>607.0</ele><time>2026-04-26T08:06:55.999Z</time></trkpt><trkpt lat="44.87736325372588" lon="9.353207626019987"><ele>607.0</ele><time>2026-04-26T08:06:57.999Z</time></trkpt><trkpt lat="44.87724911115383" lon="9.353168486243042"><ele>610.8000000000001</ele><time>2026-04-26T08:06:59.999Z</time></trkpt><trkpt lat="44.87713484638829" lon="9.35325681173819"><ele>614.6</ele><time>2026-04-26T08:07:01.999Z</time></trkpt><trkpt lat="44.87706875628735" lon="9.353336812461226"><ele>618.4000000000001</ele><time>2026-04-26T08:07:02.999Z</time></trkpt><trkpt lat="44.876992868115856" lon="9.353441979217253"><ele>622.2</ele><time>2026-04-26T08:07:03.999Z</time></trkpt><trkpt lat="44.876915805881914" lon="9.35352389318611"><ele>626.0</ele><time>2026-04-26T08:07:04.999Z</time></trkpt><trkpt lat="44.876845846393316" lon="9.353563291484878"><ele>629.2</ele><time>2026-04-26T08:07:05.999Z</time></trkpt><trkpt lat="44.87675525888804" lon="9.353574366386255"><ele>632.4000000000001</ele><time>2026-04-26T08:07:06.999Z</time></trkpt><trkpt lat="44.87666085566971" lon="9.353576192074032"><ele>635.6</ele><time>2026-04-26T08:07:07.999Z</time></trkpt><trkpt lat="44.87656735825063" lon="9.353684257488322"><ele>638.8000000000001</ele><time>2026-04-26T08:07:09.999Z</time></trkpt><trkpt lat="44.87653199673079" lon="9.35377916602713"><ele>642.0</ele><time>2026-04-26T08:07:10.999Z</time></trkpt><trkpt lat="44.87646488774427" lon="9.353852557421382"><ele>642.0</ele><time>2026-04-26T08:07:11.999Z</time></trkpt><trkpt lat="44.87639311705238" lon="9.35386506953639"><ele>642.0</ele><time>2026-04-26T08:07:12.999Z</time></trkpt><trkpt lat="44.87631159865264" lon="9.35385054165232"><ele>642.0</ele><time>2026-04-26T08:07:13.999Z</time></trkpt><trkpt lat="44.876231121651955" lon="9.353817264411687"><ele>642.0</ele><time>2026-04-26T08:07:14.999Z</time></trkpt><trkpt lat="44.87617036986923" lon="9.353755638302902"><ele>642.0</ele><time>2026-04-26T08:07:15.999Z</time></trkpt><trkpt lat="44.87608887461615" lon="9.353644026694433"><ele>642.0</ele><time>2026-04-26T08:07:16.999Z</time></trkpt><trkpt lat="44.87599127453202" lon="9.353544816080085"><ele>645.1666666666666</ele><time>2026-04-26T08:07:17.999Z</time></trkpt><trkpt lat="44.875920757963826" lon="9.353499588988342"><ele>648.3333333333334</ele><time>2026-04-26T08:07:18.999Z</time></trkpt><trkpt lat="44.87585768338355" lon="9.353490060782816"><ele>651.5</ele><time>2026-04-26T08:07:19.999Z</time></trkpt><trkpt lat="44.875777585393955" lon="9.353503665746041"><ele>654.6666666666667</ele><time>2026-04-26T08:07:20.999Z</time></trkpt><trkpt lat="44.87566450476665" lon="9.353519679382071"><ele>657.8333333333334</ele><time>2026-04-26T08:07:21.999Z</time></trkpt><trkpt lat="44.875563621667695" lon="9.353524286965238"><ele>661.0</ele><time>2026-04-26T08:07:22.999Z</time></trkpt><trkpt lat="44.875477741177974" lon="9.35354165797262"><ele>661.0</ele><time>2026-04-26T08:07:23.999Z</time></trkpt><trkpt lat="44.8754097722065" lon="9.353514126132064"><ele>661.0</ele><time>2026-04-26T08:07:24.999Z</time></trkpt><trkpt lat="44.87534179689924" lon="9.35346558948505"><ele>661.0</ele><time>2026-04-26T08:07:25.999Z</time></trkpt><trkpt lat="44.87527084722585" lon="9.35345753081607"><ele>661.0</ele><time>2026-04-26T08:07:26.999Z</time></trkpt><trkpt lat="44.87520762693852" lon="9.353490433810748"><ele>661.0</ele><time>2026-04-26T08:07:27.999Z</time></trkpt><trkpt lat="44.87514619100092" lon="9.353529300198328"><ele>661.0</ele><time>2026-04-26T08:07:28.999Z</time></trkpt><trkpt lat="44.87507889064058" lon="9.353549939660446"><ele>661.0</ele><time>2026-04-26T08:07:29.999Z</time></trkpt><trkpt lat="44.87500103781391" lon="9.35352658363693"><ele>664.4</ele><time>2026-04-26T08:07:30.999Z</time></trkpt><trkpt lat="44.87490586466975" lon="9.35353032265296"><ele>667.8</ele><time>2026-04-26T08:07:31.998Z</time></trkpt><trkpt lat="44.874800323711966" lon="9.35354979311811"><ele>671.1999999999999</ele><time>2026-04-26T08:07:32.998Z</time></trkpt><trkpt lat="44.87472184796864" lon="9.353570532911231"><ele>674.5999999999999</ele><time>2026-04-26T08:07:33.998Z</time></trkpt><trkpt lat="44.87463843833726" lon="9.353577321128752"><ele>678.0</ele><time>2026-04-26T08:07:35.998Z</time></trkpt><trkpt lat="44.8746342880025" lon="9.353454963148476"><ele>678.0</ele><time>2026-04-26T08:07:40.998Z</time></trkpt><trkpt lat="44.87462362356986" lon="9.353305857928"><ele>678.0</ele><time>2026-04-26T08:07:42.998Z</time></trkpt><trkpt lat="44.87462367597957" lon="9.353150561993987"><ele>678.0</ele><time>2026-04-26T08:07:43.998Z</time></trkpt><trkpt lat="44.874624111610146" lon="9.353002111672081"><ele>678.0</ele><time>2026-04-26T08:07:44.998Z</time></trkpt><trkpt lat="44.87462178554541" lon="9.35285688010046"><ele>678.0</ele><time>2026-04-26T08:07:45.998Z</time></trkpt><trkpt lat="44.874613613360374" lon="9.352701789885659"><ele>677.8333333333334</ele><time>2026-04-26T08:07:46.998Z</time></trkpt><trkpt lat="44.874616533546934" lon="9.352574013259742"><ele>677.6666666666666</ele><time>2026-04-26T08:07:47.998Z</time></trkpt><trkpt lat="44.8746240948124" lon="9.35245437412799"><ele>677.5</ele><time>2026-04-26T08:07:48.998Z</time></trkpt><trkpt lat="44.87463398751169" lon="9.352329589709589"><ele>677.3333333333333</ele><time>2026-04-26T08:07:49.998Z</time></trkpt><trkpt lat="44.87464895516743" lon="9.352211545508744"><ele>677.1666666666666</ele><time>2026-04-26T08:07:50.998Z</time></trkpt><trkpt lat="44.87466770215173" lon="9.35210082747355"><ele>677.0</ele><time>2026-04-26T08:07:51.998Z</time></trkpt><trkpt lat="44.874684427238876" lon="9.35198609608542"><ele>676.8333333333333</ele><time>2026-04-26T08:07:52.998Z</time></trkpt><trkpt lat="44.874694431523295" lon="9.351864122711842"><ele>676.6666666666666</ele><time>2026-04-26T08:07:53.998Z</time></trkpt><trkpt lat="44.87470100573165" lon="9.351749173322158"><ele>676.5</ele><time>2026-04-26T08:07:54.998Z</time></trkpt><trkpt lat="44.87469518840582" lon="9.351635353758574"><ele>676.3333333333334</ele><time>2026-04-26T08:07:55.998Z</time></trkpt><trkpt lat="44.87468291558661" lon="9.35153200326017"><ele>676.1666666666667</ele><time>2026-04-26T08:07:56.998Z</time></trkpt><trkpt lat="44.874674669810965" lon="9.35141959814879"><ele>676.0</ele><time>2026-04-26T08:07:57.998Z</time></trkpt><trkpt lat="44.87461866695742" lon="9.351329373867479"><ele>676.6666666666667</ele><time>2026-04-26T08:07:58.998Z</time></trkpt><trkpt lat="44.87458638139099" lon="9.35121396129622"><ele>677.3333333333334</ele><time>2026-04-26T08:07:59.998Z</time></trkpt><trkpt lat="44.87455656027711" lon="9.351095543158861"><ele>678.0</ele><time>2026-04-26T08:08:00.998Z</time></trkpt><trkpt lat="44.874572345451654" lon="9.350985373615387"><ele>678.6666666666666</ele><time>2026-04-26T08:08:01.998Z</time></trkpt><trkpt lat="44.874581628221314" lon="9.350864881066464"><ele>679.3333333333333</ele><time>2026-04-26T08:08:02.998Z</time></trkpt><trkpt lat="44.87462120368011" lon="9.350756579797515"><ele>680.0</ele><time>2026-04-26T08:08:03.998Z</time></trkpt><trkpt lat="44.874668681436326" lon="9.350641665623943"><ele>680.0</ele><time>2026-04-26T08:08:04.998Z</time></trkpt><trkpt lat="44.874746111170495" lon="9.350563886542169"><ele>680.0</ele><time>2026-04-26T08:08:05.998Z</time></trkpt><trkpt lat="44.874827512471136" lon="9.350498605460604"><ele>680.0</ele><time>2026-04-26T08:08:06.998Z</time></trkpt><trkpt lat="44.874927506693254" lon="9.350467239696423"><ele>680.0</ele><time>2026-04-26T08:08:07.998Z</time></trkpt><trkpt lat="44.875017013168694" lon="9.350422928023184"><ele>680.0</ele><time>2026-04-26T08:08:08.998Z</time></trkpt><trkpt lat="44.87508995698401" lon="9.350357973883243"><ele>679.1666666666666</ele><time>2026-04-26T08:08:09.998Z</time></trkpt><trkpt lat="44.87514427314101" lon="9.350288206976087"><ele>678.3333333333333</ele><time>2026-04-26T08:08:10.998Z</time></trkpt><trkpt lat="44.87518526244863" lon="9.350206149022306"><ele>677.5</ele><time>2026-04-26T08:08:11.998Z</time></trkpt><trkpt lat="44.8752269654471" lon="9.35013390822638"><ele>676.6666666666666</ele><time>2026-04-26T08:08:12.998Z</time></trkpt><trkpt lat="44.87533229235125" lon="9.350012990577145"><ele>675.8333333333334</ele><time>2026-04-26T08:08:14.998Z</time></trkpt><trkpt lat="44.875390529726644" lon="9.349931133946159"><ele>675.0</ele><time>2026-04-26T08:08:15.997Z</time></trkpt><trkpt lat="44.875476140642355" lon="9.349905715200023"><ele>675.0</ele><time>2026-04-26T08:08:16.997Z</time></trkpt><trkpt lat="44.875561594142354" lon="9.350001850323038"><ele>675.0</ele><time>2026-04-26T08:08:17.997Z</time></trkpt><trkpt lat="44.87545823167294" lon="9.349085732082429"><ele>678.0</ele><time>2026-04-26T08:08:22Z</time></trkpt><trkpt lat="44.875460818684175" lon="9.348935480072583"><ele>681.0</ele><time>2026-04-26T08:08:23Z</time></trkpt><trkpt lat="44.875473011658926" lon="9.34880704658917"><ele>684.0</ele><time>2026-04-26T08:08:24Z</time></trkpt><trkpt lat="44.87557339190716" lon="9.348673868705566"><ele>687.0</ele><time>2026-04-26T08:08:26Z</time></trkpt><trkpt lat="44.87569771386755" lon="9.348610707943191"><ele>688.6666666666666</ele><time>2026-04-26T08:08:27Z</time></trkpt><trkpt lat="44.87578370454725" lon="9.348593284251928"><ele>690.3333333333334</ele><time>2026-04-26T08:08:28Z</time></trkpt><trkpt lat="44.875837164467015" lon="9.348545315980331"><ele>692.0</ele><time>2026-04-26T08:08:29Z</time></trkpt><trkpt lat="44.87587931358052" lon="9.34845078592788"><ele>693.6666666666667</ele><time>2026-04-26T08:08:30Z</time></trkpt><trkpt lat="44.87588379472127" lon="9.34833083081673"><ele>695.3333333333334</ele><time>2026-04-26T08:08:31Z</time></trkpt><trkpt lat="44.87586722296923" lon="9.3482002040179"><ele>697.0</ele><time>2026-04-26T08:08:32Z</time></trkpt><trkpt lat="44.87582184180288" lon="9.348085123321312"><ele>697.0</ele><time>2026-04-26T08:08:33Z</time></trkpt><trkpt lat="44.87570538768344" lon="9.348013789268867"><ele>697.0</ele><time>2026-04-26T08:08:35Z</time></trkpt><trkpt lat="44.87560077519997" lon="9.34804262727937"><ele>697.0</ele><time>2026-04-26T08:08:36Z</time></trkpt><trkpt lat="44.8755225439082" lon="9.348069331948436"><ele>697.0</ele><time>2026-04-26T08:08:37Z</time></trkpt><trkpt lat="44.8754102104964" lon="9.348130272533055"><ele>697.0</ele><time>2026-04-26T08:08:38Z</time></trkpt><trkpt lat="44.87530576495546" lon="9.348180561934813"><ele>697.0</ele><time>2026-04-26T08:08:39Z</time></trkpt><trkpt lat="44.8752209420858" lon="9.348202225566515"><ele>697.0</ele><time>2026-04-26T08:08:40Z</time></trkpt><trkpt lat="44.87515241719812" lon="9.348207108678446"><ele>697.0</ele><time>2026-04-26T08:08:41Z</time></trkpt><trkpt lat="44.875073321048106" lon="9.348225288752499"><ele>697.0</ele><time>2026-04-26T08:08:42Z</time></trkpt><trkpt lat="44.87495721234815" lon="9.348180920450005"><ele>697.0</ele><time>2026-04-26T08:08:44Z</time></trkpt><trkpt lat="44.87492760551059" lon="9.348071422774417"><ele>697.0</ele><time>2026-04-26T08:08:45Z</time></trkpt><trkpt lat="44.87485991068403" lon="9.347941335611306"><ele>699.8333333333334</ele><time>2026-04-26T08:08:46Z</time></trkpt><trkpt lat="44.87479330467183" lon="9.347804185748375"><ele>702.6666666666667</ele><time>2026-04-26T08:08:47Z</time></trkpt><trkpt lat="44.87473938167034" lon="9.347715345547666"><ele>705.5</ele><time>2026-04-26T08:08:48Z</time></trkpt><trkpt lat="44.87468742639835" lon="9.347646681554853"><ele>708.3333333333334</ele><time>2026-04-26T08:08:49Z</time></trkpt><trkpt lat="44.87463087874283" lon="9.347605955025767"><ele>711.1666666666666</ele><time>2026-04-26T08:08:50Z</time></trkpt><trkpt lat="44.87456112694487" lon="9.347601697846066"><ele>714.0</ele><time>2026-04-26T08:08:52Z</time></trkpt><trkpt lat="44.874495459878055" lon="9.34760232028944"><ele>714.0</ele><time>2026-04-26T08:10:05.998Z</time></trkpt><trkpt lat="44.87441506773366" lon="9.347617001588512"><ele>714.0</ele><time>2026-04-26T08:10:07.998Z</time></trkpt><trkpt lat="44.87434863315852" lon="9.347647620939702"><ele>714.0</ele><time>2026-04-26T08:10:08.998Z</time></trkpt><trkpt lat="44.874270251091815" lon="9.347655269239652"><ele>714.0</ele><time>2026-04-26T08:10:09.998Z</time></trkpt><trkpt lat="44.874168252452534" lon="9.34766784225386"><ele>714.0</ele><time>2026-04-26T08:10:10.998Z</time></trkpt><trkpt lat="44.87405168988352" lon="9.347711370746302"><ele>716.6</ele><time>2026-04-26T08:10:11.998Z</time></trkpt><trkpt lat="44.873960427570495" lon="9.347752655762198"><ele>719.2</ele><time>2026-04-26T08:10:12.998Z</time></trkpt><trkpt lat="44.8738636919899" lon="9.347759252667078"><ele>721.8000000000001</ele><time>2026-04-26T08:10:13.998Z</time></trkpt><trkpt lat="44.87377547439039" lon="9.34771837681331"><ele>724.4000000000001</ele><time>2026-04-26T08:10:14.998Z</time></trkpt><trkpt lat="44.87366697156782" lon="9.347671212406858"><ele>727.0</ele><time>2026-04-26T08:10:15.998Z</time></trkpt><trkpt lat="44.873583214463515" lon="9.347658646430649"><ele>727.0</ele><time>2026-04-26T08:10:16.998Z</time></trkpt><trkpt lat="44.873520927712306" lon="9.347677861134658"><ele>727.0</ele><time>2026-04-26T08:10:17.998Z</time></trkpt><trkpt lat="44.87345561838929" lon="9.34769407290896"><ele>727.0</ele><time>2026-04-26T08:10:18.998Z</time></trkpt><trkpt lat="44.873368898912396" lon="9.347755975179519"><ele>727.0</ele><time>2026-04-26T08:10:20.997Z</time></trkpt><trkpt lat="44.87332778482426" lon="9.347828049820002"><ele>727.0</ele><time>2026-04-26T08:10:21.997Z</time></trkpt><trkpt lat="44.87327902898942" lon="9.347901170962398"><ele>727.0</ele><time>2026-04-26T08:10:22.997Z</time></trkpt><trkpt lat="44.87323305489947" lon="9.347974188494362"><ele>727.0</ele><time>2026-04-26T08:10:23.997Z</time></trkpt><trkpt lat="44.87318911333319" lon="9.348048235510872"><ele>728.3333333333334</ele><time>2026-04-26T08:10:25Z</time></trkpt><trkpt lat="44.873130620340774" lon="9.348145342982752"><ele>729.6666666666667</ele><time>2026-04-26T08:10:26Z</time></trkpt><trkpt lat="44.87308038290861" lon="9.348233306982483"><ele>731.0</ele><time>2026-04-26T08:10:27Z</time></trkpt><trkpt lat="44.87303435402997" lon="9.34833632822498"><ele>732.3333333333334</ele><time>2026-04-26T08:10:28Z</time></trkpt><trkpt lat="44.872989996404925" lon="9.348433424805258"><ele>733.6666666666666</ele><time>2026-04-26T08:10:29Z</time></trkpt><trkpt lat="44.872947430149004" lon="9.348520443654767"><ele>735.0</ele><time>2026-04-26T08:10:30Z</time></trkpt><trkpt lat="44.8728761205415" lon="9.348639664926727"><ele>735.0</ele><time>2026-04-26T08:10:32Z</time></trkpt><trkpt lat="44.87282573690472" lon="9.348703665608733"><ele>735.0</ele><time>2026-04-26T08:10:34Z</time></trkpt><trkpt lat="44.87275685323942" lon="9.3488148883801"><ele>735.0</ele><time>2026-04-26T08:10:36Z</time></trkpt><trkpt lat="44.87270346698414" lon="9.348907981501194"><ele>735.0</ele><time>2026-04-26T08:10:38Z</time></trkpt><trkpt lat="44.87265963579616" lon="9.34901601443658"><ele>735.0</ele><time>2026-04-26T08:10:40Z</time></trkpt><trkpt lat="44.87262437473936" lon="9.34918239202925"><ele>735.8</ele><time>2026-04-26T08:10:42Z</time></trkpt><trkpt lat="44.87256332323811" lon="9.349328840296515"><ele>736.6</ele><time>2026-04-26T08:10:44Z</time></trkpt><trkpt lat="44.87251455454308" lon="9.349414868835654"><ele>737.4000000000001</ele><time>2026-04-26T08:10:45Z</time></trkpt><trkpt lat="44.87246729572489" lon="9.34949119189261"><ele>738.2</ele><time>2026-04-26T08:10:46Z</time></trkpt><trkpt lat="44.87239978968058" lon="9.349609771987302"><ele>739.0</ele><time>2026-04-26T08:10:48Z</time></trkpt><trkpt lat="44.87232631257525" lon="9.34974938614232"><ele>739.0</ele><time>2026-04-26T08:10:50Z</time></trkpt><trkpt lat="44.87229474673431" lon="9.349830712676418"><ele>739.0</ele><time>2026-04-26T08:10:51Z</time></trkpt><trkpt lat="44.87224114314366" lon="9.349962495361687"><ele>739.0</ele><time>2026-04-26T08:10:53Z</time></trkpt><trkpt lat="44.87220855061799" lon="9.35003889220555"><ele>739.0</ele><time>2026-04-26T08:10:54Z</time></trkpt><trkpt lat="44.87217198987051" lon="9.350121058453682"><ele>739.0</ele><time>2026-04-26T08:10:55Z</time></trkpt><trkpt lat="44.87212898935111" lon="9.350205867194346"><ele>739.0</ele><time>2026-04-26T08:10:56Z</time></trkpt><trkpt lat="44.87208351264809" lon="9.350271747612004"><ele>739.0</ele><time>2026-04-26T08:10:57Z</time></trkpt><trkpt lat="44.872006134368384" lon="9.350401804534341"><ele>739.0</ele><time>2026-04-26T08:10:59Z</time></trkpt><trkpt lat="44.87196877839867" lon="9.350481529782686"><ele>739.0</ele><time>2026-04-26T08:11:00.999Z</time></trkpt><trkpt lat="44.8719522295108" lon="9.350598927972245"><ele>739.0</ele><time>2026-04-26T08:11:02.999Z</time></trkpt><trkpt lat="44.871902524510574" lon="9.350720916594438"><ele>739.0</ele><time>2026-04-26T08:11:04.999Z</time></trkpt><trkpt lat="44.871839033684246" lon="9.35071371647889"><ele>739.0</ele><time>2026-04-26T08:11:09.999Z</time></trkpt><trkpt lat="44.87181320900694" lon="9.350627682491028"><ele>739.0</ele><time>2026-04-26T08:11:48.998Z</time></trkpt><trkpt lat="44.87182257891829" lon="9.350531150235794"><ele>737.8333333333334</ele><time>2026-04-26T08:11:50.998Z</time></trkpt><trkpt lat="44.871763830894" lon="9.350576691035036"><ele>736.6666666666667</ele><time>2026-04-26T08:11:54.998Z</time></trkpt><trkpt lat="44.871786396514146" lon="9.35066099929786"><ele>735.5</ele><time>2026-04-26T08:11:55.998Z</time></trkpt><trkpt lat="44.8718256899474" lon="9.35076468673081"><ele>734.3333333333334</ele><time>2026-04-26T08:11:56.998Z</time></trkpt><trkpt lat="44.871850456438054" lon="9.350850867655994"><ele>733.1666666666666</ele><time>2026-04-26T08:11:57.998Z</time></trkpt><trkpt lat="44.87187629434443" lon="9.350969253339146"><ele>732.0</ele><time>2026-04-26T08:11:59.998Z</time></trkpt><trkpt lat="44.87190182172737" lon="9.351094005360444"><ele>732.0</ele><time>2026-04-26T08:12:02.998Z</time></trkpt><trkpt lat="44.871922004016255" lon="9.351208912645285"><ele>732.0</ele><time>2026-04-26T08:12:03.998Z</time></trkpt><trkpt lat="44.871926872521314" lon="9.351368536569938"><ele>732.0</ele><time>2026-04-26T08:12:04.998Z</time></trkpt><trkpt lat="44.87192572752904" lon="9.351548473106584"><ele>732.0</ele><time>2026-04-26T08:12:05.998Z</time></trkpt><trkpt lat="44.871922751818424" lon="9.351664789693375"><ele>732.0</ele><time>2026-04-26T08:12:06.998Z</time></trkpt><trkpt lat="44.87196233305927" lon="9.351816094733406"><ele>732.8</ele><time>2026-04-26T08:12:08.998Z</time></trkpt><trkpt lat="44.87200490444004" lon="9.35193882429813"><ele>733.6</ele><time>2026-04-26T08:12:10.998Z</time></trkpt><trkpt lat="44.87199832425122" lon="9.352038259757279"><ele>734.4</ele><time>2026-04-26T08:12:46Z</time></trkpt><trkpt lat="44.87202496545526" lon="9.351908988093836"><ele>735.1999999999999</ele><time>2026-04-26T08:12:50Z</time></trkpt><trkpt lat="44.87198987604348" lon="9.351810845854008"><ele>736.0</ele><time>2026-04-26T08:12:51Z</time></trkpt><trkpt lat="44.87194000930616" lon="9.3516716890452"><ele>736.0</ele><time>2026-04-26T08:12:53Z</time></trkpt><trkpt lat="44.871923045220875" lon="9.351486511999566"><ele>736.0</ele><time>2026-04-26T08:12:55Z</time></trkpt><trkpt lat="44.87192899621015" lon="9.351327185755926"><ele>736.0</ele><time>2026-04-26T08:12:56Z</time></trkpt><trkpt lat="44.87193025544183" lon="9.351188799689607"><ele>736.0</ele><time>2026-04-26T08:12:57Z</time></trkpt><trkpt lat="44.87192015828979" lon="9.351070360299282"><ele>736.0</ele><time>2026-04-26T08:12:58Z</time></trkpt><trkpt lat="44.87188968251383" lon="9.3509635840843"><ele>735.1999999999999</ele><time>2026-04-26T08:12:59Z</time></trkpt><trkpt lat="44.87184705443771" lon="9.350851870922877"><ele>734.4</ele><time>2026-04-26T08:13:00Z</time></trkpt><trkpt lat="44.87183781267653" lon="9.35073055271407"><ele>733.6</ele><time>2026-04-26T08:13:01Z</time></trkpt><trkpt lat="44.87178548033634" lon="9.350598732900066"><ele>732.8</ele><time>2026-04-26T08:13:02Z</time></trkpt><trkpt lat="44.87174899543282" lon="9.350462426853326"><ele>732.0</ele><time>2026-04-26T08:13:03Z</time></trkpt><trkpt lat="44.87168887116064" lon="9.350310177861545"><ele>736.6</ele><time>2026-04-26T08:13:04Z</time></trkpt><trkpt lat="44.871613477410975" lon="9.350145766847573"><ele>741.2</ele><time>2026-04-26T08:13:05Z</time></trkpt><trkpt lat="44.871562724230884" lon="9.350023352710707"><ele>745.8</ele><time>2026-04-26T08:13:05.999Z</time></trkpt><trkpt lat="44.871531053123746" lon="9.349913501122636"><ele>750.4</ele><time>2026-04-26T08:13:06.999Z</time></trkpt><trkpt lat="44.87148014688827" lon="9.349796776093845"><ele>755.0</ele><time>2026-04-26T08:13:07.999Z</time></trkpt><trkpt lat="44.871394691155665" lon="9.349694678088266"><ele>758.2</ele><time>2026-04-26T08:13:08.999Z</time></trkpt><trkpt lat="44.87131671788541" lon="9.349629815410905"><ele>761.4</ele><time>2026-04-26T08:13:09.999Z</time></trkpt><trkpt lat="44.87124969549257" lon="9.349496465857781"><ele>764.5999999999999</ele><time>2026-04-26T08:13:11.999Z</time></trkpt><trkpt lat="44.871241050905105" lon="9.349395460218318"><ele>767.8</ele><time>2026-04-26T08:13:12.999Z</time></trkpt><trkpt lat="44.8712316906993" lon="9.349274206106374"><ele>771.0</ele><time>2026-04-26T08:13:13.999Z</time></trkpt><trkpt lat="44.871224978614904" lon="9.34915016218734"><ele>771.0</ele><time>2026-04-26T08:13:14.999Z</time></trkpt><trkpt lat="44.87122079873531" lon="9.349023254702052"><ele>771.0</ele><time>2026-04-26T08:13:15.999Z</time></trkpt><trkpt lat="44.87123061447297" lon="9.348930748671288"><ele>771.0</ele><time>2026-04-26T08:13:16.999Z</time></trkpt><trkpt lat="44.87125763165887" lon="9.348831767511431"><ele>771.0</ele><time>2026-04-26T08:13:17.999Z</time></trkpt><trkpt lat="44.87128729326642" lon="9.348718395831481"><ele>771.0</ele><time>2026-04-26T08:13:18.999Z</time></trkpt><trkpt lat="44.87131180880849" lon="9.34860073650334"><ele>771.0</ele><time>2026-04-26T08:13:19.999Z</time></trkpt><trkpt lat="44.87133907906829" lon="9.348495259100458"><ele>771.1666666666666</ele><time>2026-04-26T08:13:20.999Z</time></trkpt><trkpt lat="44.87136562915654" lon="9.348391814428465"><ele>771.3333333333333</ele><time>2026-04-26T08:13:21.999Z</time></trkpt><trkpt lat="44.87139734815777" lon="9.34829306962834"><ele>771.5</ele><time>2026-04-26T08:13:22.999Z</time></trkpt><trkpt lat="44.8714341025052" lon="9.34821828681885"><ele>771.6666666666666</ele><time>2026-04-26T08:13:23.999Z</time></trkpt><trkpt lat="44.87147430779718" lon="9.34811935794361"><ele>771.8333333333333</ele><time>2026-04-26T08:13:25.999Z</time></trkpt><trkpt lat="44.871479881170345" lon="9.348012422747054"><ele>772.0</ele><time>2026-04-26T08:13:27.999Z</time></trkpt><trkpt lat="44.87142385992597" lon="9.347904920740909"><ele>772.0</ele><time>2026-04-26T08:13:29.999Z</time></trkpt><trkpt lat="44.871376052071405" lon="9.347833027230154"><ele>772.0</ele><time>2026-04-26T08:13:30.999Z</time></trkpt><trkpt lat="44.8713083487276" lon="9.347741671921723"><ele>772.0</ele><time>2026-04-26T08:13:31.999Z</time></trkpt><trkpt lat="44.87124761862628" lon="9.347637645819834"><ele>772.0</ele><time>2026-04-26T08:13:32.999Z</time></trkpt><trkpt lat="44.87119859922947" lon="9.347502082028903"><ele>772.0</ele><time>2026-04-26T08:13:33.999Z</time></trkpt><trkpt lat="44.871168532467614" lon="9.347370453852514"><ele>771.9999999999999</ele><time>2026-04-26T08:13:34.999Z</time></trkpt><trkpt lat="44.871152575694026" lon="9.34726027065465"><ele>772.0</ele><time>2026-04-26T08:13:35.999Z</time></trkpt><trkpt lat="44.871126109334526" lon="9.347169689255749"><ele>772.0</ele><time>2026-04-26T08:13:36.999Z</time></trkpt><trkpt lat="44.871031466751944" lon="9.347080455454819"><ele>772.0</ele><time>2026-04-26T08:13:38.999Z</time></trkpt><trkpt lat="44.870987644111565" lon="9.34700346918295"><ele>771.9999999999999</ele><time>2026-04-26T08:13:39.999Z</time></trkpt><trkpt lat="44.870953750508264" lon="9.346885820839208"><ele>772.0</ele><time>2026-04-26T08:13:40.999Z</time></trkpt><trkpt lat="44.87091622768721" lon="9.346742149407554"><ele>773.8</ele><time>2026-04-26T08:13:41.999Z</time></trkpt><trkpt lat="44.870877981752855" lon="9.346594815296202"><ele>775.6</ele><time>2026-04-26T08:13:42.999Z</time></trkpt><trkpt lat="44.87083018584846" lon="9.346486893018756"><ele>777.4</ele><time>2026-04-26T08:13:43.999Z</time></trkpt><trkpt lat="44.87078620932531" lon="9.346370757835386"><ele>779.1999999999999</ele><time>2026-04-26T08:13:44.999Z</time></trkpt><trkpt lat="44.87073788001657" lon="9.346258171421985"><ele>781.0</ele><time>2026-04-26T08:13:45.999Z</time></trkpt><trkpt lat="44.87068746790523" lon="9.346153507220404"><ele>782.0</ele><time>2026-04-26T08:13:46.999Z</time></trkpt><trkpt lat="44.87065298033225" lon="9.34604382714941"><ele>783.0</ele><time>2026-04-26T08:13:47.999Z</time></trkpt><trkpt lat="44.87062437895141" lon="9.345908297995908"><ele>784.0</ele><time>2026-04-26T08:13:48.999Z</time></trkpt><trkpt lat="44.87061181921725" lon="9.3457620696781"><ele>785.0</ele><time>2026-04-26T08:13:49.998Z</time></trkpt><trkpt lat="44.870618269309965" lon="9.345640156912514"><ele>786.0</ele><time>2026-04-26T08:13:50.998Z</time></trkpt><trkpt lat="44.87064138332069" lon="9.345517320011407"><ele>787.0</ele><time>2026-04-26T08:13:51.998Z</time></trkpt><trkpt lat="44.87066479580624" lon="9.345381081817447"><ele>788.0</ele><time>2026-04-26T08:13:52.998Z</time></trkpt><trkpt lat="44.87066876294096" lon="9.345248201331923"><ele>789.0</ele><time>2026-04-26T08:13:53.998Z</time></trkpt><trkpt lat="44.87064814757778" lon="9.345123773995317"><ele>790.0</ele><time>2026-04-26T08:13:54.998Z</time></trkpt><trkpt lat="44.87061861154212" lon="9.344993973143119"><ele>791.0</ele><time>2026-04-26T08:13:55.998Z</time></trkpt><trkpt lat="44.87060099822462" lon="9.344844851892772"><ele>792.6666666666667</ele><time>2026-04-26T08:13:56.998Z</time></trkpt><trkpt lat="44.870594232444574" lon="9.344703053963242"><ele>794.3333333333334</ele><time>2026-04-26T08:13:57.998Z</time></trkpt><trkpt lat="44.870574292519365" lon="9.344574617631999"><ele>796.0</ele><time>2026-04-26T08:13:58.998Z</time></trkpt><trkpt lat="44.87058967625454" lon="9.344472786207508"><ele>797.6666666666667</ele><time>2026-04-26T08:13:59.998Z</time></trkpt><trkpt lat="44.87066220075848" lon="9.344413253307847"><ele>799.3333333333334</ele><time>2026-04-26T08:14:00.998Z</time></trkpt><trkpt lat="44.87074275783856" lon="9.344378354717328"><ele>801.0</ele><time>2026-04-26T08:14:01.998Z</time></trkpt><trkpt lat="44.87083058838629" lon="9.344293826948366"><ele>801.0</ele><time>2026-04-26T08:14:02.998Z</time></trkpt><trkpt lat="44.870906994508324" lon="9.34417066160586"><ele>801.0</ele><time>2026-04-26T08:14:03.998Z</time></trkpt><trkpt lat="44.870960993889284" lon="9.34404676012058"><ele>801.0</ele><time>2026-04-26T08:14:04.998Z</time></trkpt><trkpt lat="44.87100048445091" lon="9.343966366749614"><ele>801.0</ele><time>2026-04-26T08:14:05.998Z</time></trkpt><trkpt lat="44.871056610579316" lon="9.343899127892293"><ele>801.0</ele><time>2026-04-26T08:14:06.998Z</time></trkpt><trkpt lat="44.87112313999208" lon="9.343831860320183"><ele>801.0</ele><time>2026-04-26T08:14:07.998Z</time></trkpt><trkpt lat="44.87119126105425" lon="9.343754431537853"><ele>801.6666666666666</ele><time>2026-04-26T08:14:08.998Z</time></trkpt><trkpt lat="44.87124056884049" lon="9.343674640820483"><ele>802.3333333333333</ele><time>2026-04-26T08:14:09.998Z</time></trkpt><trkpt lat="44.87130252926841" lon="9.3435899511803"><ele>803.0</ele><time>2026-04-26T08:14:10.998Z</time></trkpt><trkpt lat="44.87136594287916" lon="9.343512475797592"><ele>803.6666666666666</ele><time>2026-04-26T08:14:11.998Z</time></trkpt><trkpt lat="44.8714352935405" lon="9.343430741961848"><ele>804.3333333333333</ele><time>2026-04-26T08:14:12.998Z</time></trkpt><trkpt lat="44.871504475062736" lon="9.343345173356555"><ele>805.0</ele><time>2026-04-26T08:14:13.998Z</time></trkpt><trkpt lat="44.87158299047396" lon="9.343240081478433"><ele>804.9999999999999</ele><time>2026-04-26T08:14:14.998Z</time></trkpt><trkpt lat="44.871654138494065" lon="9.343145647694985"><ele>805.0</ele><time>2026-04-26T08:14:15.998Z</time></trkpt><trkpt lat="44.87171386575162" lon="9.343067271341402"><ele>805.0</ele><time>2026-04-26T08:14:16.998Z</time></trkpt><trkpt lat="44.8717687893309" lon="9.342994565924442"><ele>805.0</ele><time>2026-04-26T08:14:17.998Z</time></trkpt><trkpt lat="44.87181231493408" lon="9.34291200293507"><ele>804.9999999999999</ele><time>2026-04-26T08:14:18.998Z</time></trkpt><trkpt lat="44.87184851552066" lon="9.34282240347542"><ele>805.0</ele><time>2026-04-26T08:14:19.998Z</time></trkpt><trkpt lat="44.87188113364285" lon="9.34273846017347"><ele>803.9999999999999</ele><time>2026-04-26T08:14:20.998Z</time></trkpt><trkpt lat="44.8719217269085" lon="9.342667284817216"><ele>803.0</ele><time>2026-04-26T08:14:21.998Z</time></trkpt><trkpt lat="44.871972616414844" lon="9.34260128859323"><ele>802.0</ele><time>2026-04-26T08:14:22.998Z</time></trkpt><trkpt lat="44.87203352991602" lon="9.34248408106104"><ele>801.0</ele><time>2026-04-26T08:14:23.998Z</time></trkpt><trkpt lat="44.872089928050286" lon="9.342387992786945"><ele>799.9999999999999</ele><time>2026-04-26T08:14:24.998Z</time></trkpt><trkpt lat="44.87213966721428" lon="9.34229366171973"><ele>799.0</ele><time>2026-04-26T08:14:25.998Z</time></trkpt><trkpt lat="44.87219001261234" lon="9.342212548626835"><ele>802.6</ele><time>2026-04-26T08:14:26.998Z</time></trkpt><trkpt lat="44.872246978893834" lon="9.342167190072066"><ele>806.2</ele><time>2026-04-26T08:14:27.998Z</time></trkpt><trkpt lat="44.87232152927621" lon="9.342116456387465"><ele>809.8000000000001</ele><time>2026-04-26T08:14:28.998Z</time></trkpt><trkpt lat="44.87240742446056" lon="9.342030008965288"><ele>813.4000000000001</ele><time>2026-04-26T08:14:29.998Z</time></trkpt><trkpt lat="44.87249533306614" lon="9.341894775860718"><ele>817.0</ele><time>2026-04-26T08:14:30.998Z</time></trkpt><trkpt lat="44.872569559383685" lon="9.341824812273838"><ele>816.9999999999999</ele><time>2026-04-26T08:14:31.998Z</time></trkpt><trkpt lat="44.87261769271014" lon="9.341754032866046"><ele>817.0</ele><time>2026-04-26T08:14:32.997Z</time></trkpt><trkpt lat="44.87263451200998" lon="9.34162874376633"><ele>817.0</ele><time>2026-04-26T08:14:40Z</time></trkpt><trkpt lat="44.87259533127657" lon="9.34155591710189"><ele>817.0</ele><time>2026-04-26T08:14:41Z</time></trkpt><trkpt lat="44.87254407343781" lon="9.341492528666231"><ele>817.0</ele><time>2026-04-26T08:14:42Z</time></trkpt><trkpt lat="44.87248645042923" lon="9.341446494730905"><ele>816.9999999999999</ele><time>2026-04-26T08:14:43Z</time></trkpt><trkpt lat="44.87243934511125" lon="9.341363176285611"><ele>817.0</ele><time>2026-04-26T08:14:44Z</time></trkpt><trkpt lat="44.87242132029921" lon="9.341255916915694"><ele>818.6</ele><time>2026-04-26T08:14:45Z</time></trkpt><trkpt lat="44.87240771069332" lon="9.341152264667164"><ele>820.2</ele><time>2026-04-26T08:14:46Z</time></trkpt><trkpt lat="44.872376886509166" lon="9.340997672838885"><ele>821.8</ele><time>2026-04-26T08:14:48Z</time></trkpt><trkpt lat="44.87230725240084" lon="9.340957345434237"><ele>823.4</ele><time>2026-04-26T08:14:49Z</time></trkpt><trkpt lat="44.87221403046172" lon="9.340981915729527"><ele>825.0</ele><time>2026-04-26T08:14:50Z</time></trkpt><trkpt lat="44.87211854105824" lon="9.341032509570413"><ele>825.0</ele><time>2026-04-26T08:14:51Z</time></trkpt><trkpt lat="44.87204464137261" lon="9.341063488821245"><ele>825.0</ele><time>2026-04-26T08:14:52Z</time></trkpt><trkpt lat="44.8719885796567" lon="9.340916075087318"><ele>825.0</ele><time>2026-04-26T08:14:54Z</time></trkpt><trkpt lat="44.8719963946243" lon="9.340793663881918"><ele>825.0</ele><time>2026-04-26T08:14:55Z</time></trkpt><trkpt lat="44.87199794907047" lon="9.340668316069834"><ele>825.0</ele><time>2026-04-26T08:14:56Z</time></trkpt><trkpt lat="44.87198027395827" lon="9.340563616614553"><ele>825.0</ele><time>2026-04-26T08:14:57Z</time></trkpt><trkpt lat="44.87194544482309" lon="9.340462743184574"><ele>825.6</ele><time>2026-04-26T08:14:58Z</time></trkpt><trkpt lat="44.8718718417918" lon="9.34036020188666"><ele>826.2</ele><time>2026-04-26T08:14:59Z</time></trkpt><trkpt lat="44.871809004272116" lon="9.340228718823367"><ele>826.8</ele><time>2026-04-26T08:15:01Z</time></trkpt><trkpt lat="44.87173484469234" lon="9.34024565780891"><ele>827.4</ele><time>2026-04-26T08:15:04Z</time></trkpt><trkpt lat="44.87167954553827" lon="9.34029753587411"><ele>828.0</ele><time>2026-04-26T08:15:06Z</time></trkpt><trkpt lat="44.87162366833712" lon="9.34040812699378"><ele>830.8</ele><time>2026-04-26T08:15:08Z</time></trkpt><trkpt lat="44.87155735191539" lon="9.340500327323964"><ele>833.5999999999999</ele><time>2026-04-26T08:15:10Z</time></trkpt><trkpt lat="44.87150252371064" lon="9.340548089100858"><ele>836.4000000000001</ele><time>2026-04-26T08:15:11.999Z</time></trkpt><trkpt lat="44.87142520428097" lon="9.340607467460874"><ele>839.2</ele><time>2026-04-26T08:15:14.999Z</time></trkpt><trkpt lat="44.87131908105588" lon="9.340767437423164"><ele>842.0</ele><time>2026-04-26T08:15:16.999Z</time></trkpt><trkpt lat="44.87126715515878" lon="9.340820411015418"><ele>842.3333333333334</ele><time>2026-04-26T08:15:17.999Z</time></trkpt><trkpt lat="44.87119900607268" lon="9.34086837093692"><ele>842.6666666666667</ele><time>2026-04-26T08:15:18.999Z</time></trkpt><trkpt lat="44.871123873414845" lon="9.340900285434476"><ele>843.0</ele><time>2026-04-26T08:15:19.999Z</time></trkpt><trkpt lat="44.8710510928891" lon="9.340918587191684"><ele>843.3333333333333</ele><time>2026-04-26T08:15:20.999Z</time></trkpt><trkpt lat="44.87097236441393" lon="9.34090438420887"><ele>843.6666666666666</ele><time>2026-04-26T08:15:21.999Z</time></trkpt><trkpt lat="44.87087485624997" lon="9.340838619861344"><ele>844.0</ele><time>2026-04-26T08:15:23.999Z</time></trkpt><trkpt lat="44.87079630846318" lon="9.340767626998735"><ele>845.2</ele><time>2026-04-26T08:15:26.999Z</time></trkpt><trkpt lat="44.87075356991364" lon="9.34066453897761"><ele>846.4000000000001</ele><time>2026-04-26T08:35:22.998Z</time></trkpt><trkpt lat="44.87072879789629" lon="9.340558170466224"><ele>847.6</ele><time>2026-04-26T08:35:24.998Z</time></trkpt><trkpt lat="44.870674131487995" lon="9.340416037270588"><ele>848.8</ele><time>2026-04-26T08:35:27.998Z</time></trkpt><trkpt lat="44.870655066068686" lon="9.340302324439842"><ele>850.0</ele><time>2026-04-26T08:35:28.998Z</time></trkpt><trkpt lat="44.87063703803668" lon="9.34017839135716"><ele>850.1666666666666</ele><time>2026-04-26T08:35:29.998Z</time></trkpt><trkpt lat="44.87062513180568" lon="9.340052447525126"><ele>850.3333333333333</ele><time>2026-04-26T08:35:30.998Z</time></trkpt><trkpt lat="44.87062673820126" lon="9.339930590007564"><ele>850.5</ele><time>2026-04-26T08:35:31.997Z</time></trkpt><trkpt lat="44.87062570300576" lon="9.339811219962398"><ele>850.6666666666667</ele><time>2026-04-26T08:35:32.997Z</time></trkpt><trkpt lat="44.870616976245095" lon="9.339716239205664"><ele>850.8333333333334</ele><time>2026-04-26T08:35:33.997Z</time></trkpt><trkpt lat="44.87055003916732" lon="9.339575530990654"><ele>851.0</ele><time>2026-04-26T08:35:35.997Z</time></trkpt><trkpt lat="44.870515916388236" lon="9.339426403531865"><ele>851.1999999999999</ele><time>2026-04-26T08:35:38Z</time></trkpt><trkpt lat="44.87052636184562" lon="9.339329253785984"><ele>851.4</ele><time>2026-04-26T08:35:39Z</time></trkpt><trkpt lat="44.87054517628759" lon="9.339244155560891"><ele>851.6</ele><time>2026-04-26T08:35:40Z</time></trkpt><trkpt lat="44.87057154621687" lon="9.339062115812297"><ele>851.8</ele><time>2026-04-26T08:35:42Z</time></trkpt><trkpt lat="44.870569402884506" lon="9.338954457861918"><ele>852.0</ele><time>2026-04-26T08:35:43Z</time></trkpt><trkpt lat="44.87051831068335" lon="9.338813898810027"><ele>852.0</ele><time>2026-04-26T08:35:45Z</time></trkpt><trkpt lat="44.87050822111885" lon="9.338686879415684"><ele>852.0</ele><time>2026-04-26T08:35:47Z</time></trkpt><trkpt lat="44.87051662507431" lon="9.338598501760583"><ele>852.0</ele><time>2026-04-26T08:35:48Z</time></trkpt><trkpt lat="44.870491559673155" lon="9.338470049155307"><ele>852.0</ele><time>2026-04-26T08:35:50Z</time></trkpt><trkpt lat="44.87051220456996" lon="9.338338885262182"><ele>852.0</ele><time>2026-04-26T08:35:52Z</time></trkpt><trkpt lat="44.8705370005129" lon="9.338202959149527"><ele>852.0</ele><time>2026-04-26T08:35:54Z</time></trkpt><trkpt lat="44.870556456605655" lon="9.3380563267792"><ele>850.0</ele><time>2026-04-26T08:35:56Z</time></trkpt><trkpt lat="44.8705558340588" lon="9.337912117241638"><ele>848.0</ele><time>2026-04-26T08:35:58Z</time></trkpt><trkpt lat="44.87060909946523" lon="9.337838739129827"><ele>846.0</ele><time>2026-04-26T08:36:00Z</time></trkpt><trkpt lat="44.87063741723784" lon="9.337719499318712"><ele>844.0</ele><time>2026-04-26T08:36:02Z</time></trkpt><trkpt lat="44.870668417523454" lon="9.337566312004524"><ele>842.0</ele><time>2026-04-26T08:36:04Z</time></trkpt><trkpt lat="44.87068605799272" lon="9.337452341785092"><ele>842.0</ele><time>2026-04-26T08:36:07Z</time></trkpt><trkpt lat="44.87070469461028" lon="9.33733188533675"><ele>842.0</ele><time>2026-04-26T08:36:10Z</time></trkpt><trkpt lat="44.870705592805294" lon="9.337143857269396"><ele>842.0</ele><time>2026-04-26T08:36:12Z</time></trkpt><trkpt lat="44.87072618374541" lon="9.337002060357111"><ele>842.0</ele><time>2026-04-26T08:36:13.999Z</time></trkpt><trkpt lat="44.87067617459769" lon="9.336881484869512"><ele>842.0</ele><time>2026-04-26T08:36:15.999Z</time></trkpt><trkpt lat="44.870681873728365" lon="9.33677650509923"><ele>839.2</ele><time>2026-04-26T08:36:17.999Z</time></trkpt><trkpt lat="44.8707228104464" lon="9.33665968003768"><ele>836.4000000000001</ele><time>2026-04-26T08:36:19.999Z</time></trkpt><trkpt lat="44.870686984003946" lon="9.336517919525683"><ele>833.5999999999999</ele><time>2026-04-26T08:36:21.999Z</time></trkpt><trkpt lat="44.87067016531657" lon="9.336381930950905"><ele>830.8</ele><time>2026-04-26T08:36:23.999Z</time></trkpt><trkpt lat="44.87066267262865" lon="9.336224919430467"><ele>828.0</ele><time>2026-04-26T08:36:25.999Z</time></trkpt><trkpt lat="44.87065879941501" lon="9.336060749114507"><ele>826.0</ele><time>2026-04-26T08:36:27.999Z</time></trkpt><trkpt lat="44.870659339174125" lon="9.33597154553178"><ele>824.0</ele><time>2026-04-26T08:36:28.999Z</time></trkpt><trkpt lat="44.87065949635913" lon="9.335872971246275"><ele>822.0</ele><time>2026-04-26T08:36:29.999Z</time></trkpt><trkpt lat="44.87063391264208" lon="9.335725513492255"><ele>820.0</ele><time>2026-04-26T08:36:31.999Z</time></trkpt><trkpt lat="44.87061153138681" lon="9.335586066989931"><ele>818.0</ele><time>2026-04-26T08:36:33.999Z</time></trkpt><trkpt lat="44.87062587662322" lon="9.335446175442058"><ele>816.0</ele><time>2026-04-26T08:36:35.999Z</time></trkpt><trkpt lat="44.87066371897201" lon="9.335312302105635"><ele>815.5</ele><time>2026-04-26T08:36:37.999Z</time></trkpt><trkpt lat="44.87068515966065" lon="9.33516291291757"><ele>815.0</ele><time>2026-04-26T08:36:39.999Z</time></trkpt><trkpt lat="44.87067903923133" lon="9.335036724223208"><ele>814.5</ele><time>2026-04-26T08:36:42.999Z</time></trkpt><trkpt lat="44.87073393637462" lon="9.334899361803915"><ele>814.0</ele><time>2026-04-26T08:36:44.999Z</time></trkpt><trkpt lat="44.870762087618665" lon="9.334815121075179"><ele>813.5</ele><time>2026-04-26T08:36:45.999Z</time></trkpt><trkpt lat="44.87080084420642" lon="9.334741778253361"><ele>813.0</ele><time>2026-04-26T08:36:46.999Z</time></trkpt><trkpt lat="44.87084743909425" lon="9.334661894863423"><ele>811.8</ele><time>2026-04-26T08:36:48.999Z</time></trkpt><trkpt lat="44.87085383911421" lon="9.334544286769557"><ele>810.5999999999999</ele><time>2026-04-26T08:36:50.999Z</time></trkpt><trkpt lat="44.8708398711821" lon="9.334388456427874"><ele>809.4000000000001</ele><time>2026-04-26T08:36:52.999Z</time></trkpt><trkpt lat="44.870828208133" lon="9.334282878306947"><ele>808.2</ele><time>2026-04-26T08:36:54.999Z</time></trkpt><trkpt lat="44.87079010387959" lon="9.334149715697171"><ele>807.0</ele><time>2026-04-26T08:36:56.998Z</time></trkpt><trkpt lat="44.87070937043927" lon="9.334013755101957"><ele>807.0</ele><time>2026-04-26T08:36:58.998Z</time></trkpt><trkpt lat="44.87067475570546" lon="9.333927599687431"><ele>807.0</ele><time>2026-04-26T08:36:59.998Z</time></trkpt><trkpt lat="44.87065673522839" lon="9.33383310531434"><ele>807.0</ele><time>2026-04-26T08:37:00.998Z</time></trkpt><trkpt lat="44.87062919317366" lon="9.333731640777977"><ele>807.0</ele><time>2026-04-26T08:37:01.998Z</time></trkpt><trkpt lat="44.87060156724664" lon="9.333646622785896"><ele>807.0</ele><time>2026-04-26T08:37:02.998Z</time></trkpt><trkpt lat="44.87054920815832" lon="9.333501553729208"><ele>807.0</ele><time>2026-04-26T08:37:04.998Z</time></trkpt><trkpt lat="44.87052239009944" lon="9.333368770952404"><ele>804.4000000000001</ele><time>2026-04-26T08:37:06.998Z</time></trkpt><trkpt lat="44.870490213383405" lon="9.333270533788658"><ele>801.8000000000001</ele><time>2026-04-26T08:37:08.998Z</time></trkpt><trkpt lat="44.870492621002555" lon="9.333135840879525"><ele>799.2</ele><time>2026-04-26T08:37:10.998Z</time></trkpt><trkpt lat="44.87046260601615" lon="9.333007242761639"><ele>796.6</ele><time>2026-04-26T08:37:12.998Z</time></trkpt><trkpt lat="44.870378463906285" lon="9.332937416368331"><ele>794.0</ele><time>2026-04-26T08:37:14.998Z</time></trkpt><trkpt lat="44.870318350670765" lon="9.33285314659126"><ele>791.6666666666667</ele><time>2026-04-26T08:37:16.998Z</time></trkpt><trkpt lat="44.87035398474171" lon="9.332735638872792"><ele>789.3333333333334</ele><time>2026-04-26T08:37:18.998Z</time></trkpt><trkpt lat="44.87037614371833" lon="9.332623188369414"><ele>787.0</ele><time>2026-04-26T08:37:20.998Z</time></trkpt><trkpt lat="44.87042933135541" lon="9.332494671258775"><ele>784.6666666666667</ele><time>2026-04-26T08:37:22.998Z</time></trkpt><trkpt lat="44.87050053257461" lon="9.332390076244645"><ele>782.3333333333334</ele><time>2026-04-26T08:37:24.998Z</time></trkpt><trkpt lat="44.870555885357895" lon="9.3323468068694"><ele>780.0</ele><time>2026-04-26T08:37:25.998Z</time></trkpt><trkpt lat="44.87063698705902" lon="9.332252182163716"><ele>777.8333333333334</ele><time>2026-04-26T08:37:27.998Z</time></trkpt><trkpt lat="44.87068426274608" lon="9.33213643950461"><ele>775.6666666666666</ele><time>2026-04-26T08:37:29.998Z</time></trkpt><trkpt lat="44.870682348851744" lon="9.33204308927203"><ele>773.5</ele><time>2026-04-26T08:37:30.998Z</time></trkpt><trkpt lat="44.8706885282002" lon="9.33192579250101"><ele>771.3333333333333</ele><time>2026-04-26T08:37:31.998Z</time></trkpt><trkpt lat="44.870654616503934" lon="9.33179532138003"><ele>769.1666666666666</ele><time>2026-04-26T08:37:33.998Z</time></trkpt><trkpt lat="44.87063439321127" lon="9.331667387027077"><ele>767.0</ele><time>2026-04-26T08:37:35.998Z</time></trkpt><trkpt lat="44.87065734702802" lon="9.33153409575611"><ele>767.0</ele><time>2026-04-26T08:37:37.998Z</time></trkpt><trkpt lat="44.87063508885986" lon="9.331391880112976"><ele>767.0</ele><time>2026-04-26T08:37:48Z</time></trkpt><trkpt lat="44.87061080685852" lon="9.331308810087556"><ele>767.0</ele><time>2026-04-26T08:37:51Z</time></trkpt><trkpt lat="44.8705868136153" lon="9.3312028973667"><ele>767.0</ele><time>2026-04-26T08:37:52Z</time></trkpt><trkpt lat="44.870563242448355" lon="9.331101558670087"><ele>767.0</ele><time>2026-04-26T08:37:54Z</time></trkpt><trkpt lat="44.87048894646184" lon="9.331145645058543"><ele>767.0</ele><time>2026-04-26T08:37:59Z</time></trkpt><trkpt lat="44.87040444477597" lon="9.331275256508883"><ele>767.0</ele><time>2026-04-26T08:38:01Z</time></trkpt><trkpt lat="44.87035457759572" lon="9.331359277862862"><ele>767.0</ele><time>2026-04-26T08:38:02Z</time></trkpt><trkpt lat="44.870295881324076" lon="9.331446921407966"><ele>767.0</ele><time>2026-04-26T08:38:04Z</time></trkpt><trkpt lat="44.870208678864756" lon="9.33150049005325"><ele>767.0</ele><time>2026-04-26T08:38:07Z</time></trkpt><trkpt lat="44.87013882097047" lon="9.331553544333055"><ele>767.0</ele><time>2026-04-26T08:38:09Z</time></trkpt><trkpt lat="44.87007369428389" lon="9.33159525583313"><ele>767.0</ele><time>2026-04-26T08:38:11Z</time></trkpt><trkpt lat="44.869982290556344" lon="9.331704467214495"><ele>766.0</ele><time>2026-04-26T08:38:13Z</time></trkpt><trkpt lat="44.86992617742472" lon="9.331761309006886"><ele>765.0</ele><time>2026-04-26T08:38:14Z</time></trkpt><trkpt lat="44.869851982462336" lon="9.331804710825812"><ele>764.0</ele><time>2026-04-26T08:38:15Z</time></trkpt><trkpt lat="44.8697777772886" lon="9.331835909154478"><ele>763.0</ele><time>2026-04-26T08:38:16Z</time></trkpt><trkpt lat="44.8697093417951" lon="9.331864681816759"><ele>762.0</ele><time>2026-04-26T08:38:17Z</time></trkpt><trkpt lat="44.86961097635101" lon="9.331926412238165"><ele>761.0</ele><time>2026-04-26T08:38:18.999Z</time></trkpt><trkpt lat="44.869495587691034" lon="9.331990318218859"><ele>761.0</ele><time>2026-04-26T08:38:20.999Z</time></trkpt><trkpt lat="44.86943911552901" lon="9.332055985937453"><ele>761.0</ele><time>2026-04-26T08:38:21.999Z</time></trkpt><trkpt lat="44.869404681426296" lon="9.332173619149101"><ele>761.0</ele><time>2026-04-26T08:38:22.999Z</time></trkpt><trkpt lat="44.86938762463844" lon="9.332266524445718"><ele>761.0</ele><time>2026-04-26T08:38:23.999Z</time></trkpt><trkpt lat="44.86938387533715" lon="9.332358546037895"><ele>761.0</ele><time>2026-04-26T08:38:25.999Z</time></trkpt><trkpt lat="44.869333751125865" lon="9.332489621350705"><ele>761.0</ele><time>2026-04-26T08:38:28.999Z</time></trkpt><trkpt lat="44.86928328875824" lon="9.332599475373616"><ele>759.1999999999999</ele><time>2026-04-26T08:38:31.999Z</time></trkpt><trkpt lat="44.86923640861243" lon="9.332777428884786"><ele>757.4</ele><time>2026-04-26T08:38:33.999Z</time></trkpt><trkpt lat="44.869162709573104" lon="9.33285344059012"><ele>755.6</ele><time>2026-04-26T08:38:35.999Z</time></trkpt><trkpt lat="44.86913357774433" lon="9.332942373904997"><ele>753.8</ele><time>2026-04-26T08:38:37.999Z</time></trkpt><trkpt lat="44.86910194293852" lon="9.33309005668893"><ele>752.0</ele><time>2026-04-26T08:38:38.999Z</time></trkpt><trkpt lat="44.869122122443464" lon="9.333268717740536"><ele>752.0</ele><time>2026-04-26T08:38:39.999Z</time></trkpt><trkpt lat="44.86911835363694" lon="9.333424170761434"><ele>752.0</ele><time>2026-04-26T08:38:41.999Z</time></trkpt><trkpt lat="44.86910475742656" lon="9.333562145437583"><ele>752.0</ele><time>2026-04-26T08:38:43.999Z</time></trkpt><trkpt lat="44.86918077769599" lon="9.33370738536245"><ele>752.0</ele><time>2026-04-26T08:38:45.999Z</time></trkpt><trkpt lat="44.869196375212006" lon="9.333795870661987"><ele>752.0</ele><time>2026-04-26T08:38:46.999Z</time></trkpt><trkpt lat="44.869158114311695" lon="9.333951272481942"><ele>752.4000000000001</ele><time>2026-04-26T08:38:48.999Z</time></trkpt><trkpt lat="44.86912665709393" lon="9.334057732466357"><ele>752.8000000000001</ele><time>2026-04-26T08:38:58.999Z</time></trkpt><trkpt lat="44.869025582148765" lon="9.33413304772477"><ele>753.2</ele><time>2026-04-26T08:39:01.998Z</time></trkpt><trkpt lat="44.86896590539428" lon="9.334185888895117"><ele>753.6</ele><time>2026-04-26T08:39:02.998Z</time></trkpt><trkpt lat="44.86889357360732" lon="9.334303489415662"><ele>754.0</ele><time>2026-04-26T08:39:04.998Z</time></trkpt><trkpt lat="44.86886443133609" lon="9.334504814511408"><ele>754.0</ele><time>2026-04-26T08:39:06.998Z</time></trkpt><trkpt lat="44.86881922584993" lon="9.334616828375168"><ele>754.0</ele><time>2026-04-26T08:39:07.998Z</time></trkpt><trkpt lat="44.868762103406205" lon="9.334687397027473"><ele>754.0</ele><time>2026-04-26T08:39:08.998Z</time></trkpt><trkpt lat="44.868696699900134" lon="9.334746007052678"><ele>754.0</ele><time>2026-04-26T08:39:09.998Z</time></trkpt><trkpt lat="44.86861803715255" lon="9.334796945807593"><ele>754.0</ele><time>2026-04-26T08:39:13.998Z</time></trkpt><trkpt lat="44.86855176848123" lon="9.334857286402675"><ele>754.0</ele><time>2026-04-26T08:39:16.998Z</time></trkpt><trkpt lat="44.86849267095335" lon="9.334938110756726"><ele>753.8000000000001</ele><time>2026-04-26T08:39:19.998Z</time></trkpt><trkpt lat="44.86842226904049" lon="9.334993545263092"><ele>753.6</ele><time>2026-04-26T08:39:22.998Z</time></trkpt><trkpt lat="44.86836302117712" lon="9.335066160656734"><ele>753.4</ele><time>2026-04-26T08:39:24.998Z</time></trkpt><trkpt lat="44.86828863890923" lon="9.335203980994772"><ele>753.2</ele><time>2026-04-26T08:39:26.998Z</time></trkpt><trkpt lat="44.86822442042105" lon="9.33538947567999"><ele>753.0</ele><time>2026-04-26T08:39:28.998Z</time></trkpt><trkpt lat="44.86821322595695" lon="9.335484566894138"><ele>754.8</ele><time>2026-04-26T08:39:29.998Z</time></trkpt><trkpt lat="44.8681750526032" lon="9.335646046118825"><ele>756.5999999999999</ele><time>2026-04-26T08:39:31.998Z</time></trkpt><trkpt lat="44.86813391545247" lon="9.335756490902261"><ele>758.4000000000001</ele><time>2026-04-26T08:39:32.998Z</time></trkpt><trkpt lat="44.86811491618339" lon="9.335869252405727"><ele>760.2</ele><time>2026-04-26T08:39:33.998Z</time></trkpt><trkpt lat="44.86803150799709" lon="9.335999447023877"><ele>762.0</ele><time>2026-04-26T08:39:35.998Z</time></trkpt><trkpt lat="44.86797710129693" lon="9.336050564515833"><ele>762.0</ele><time>2026-04-26T08:39:36.998Z</time></trkpt><trkpt lat="44.86791185576535" lon="9.336117271320065"><ele>762.0</ele><time>2026-04-26T08:39:37.998Z</time></trkpt><trkpt lat="44.86782662589143" lon="9.336205327852012"><ele>762.0</ele><time>2026-04-26T08:39:38.998Z</time></trkpt><trkpt lat="44.86775391268826" lon="9.336275548230768"><ele>762.0</ele><time>2026-04-26T08:39:39.998Z</time></trkpt><trkpt lat="44.86769074779231" lon="9.336347418970577"><ele>762.0</ele><time>2026-04-26T08:39:40.998Z</time></trkpt><trkpt lat="44.86764390749778" lon="9.33641224812458"><ele>762.0</ele><time>2026-04-26T08:39:41.998Z</time></trkpt><trkpt lat="44.86761834345628" lon="9.336599406498586"><ele>761.8333333333334</ele><time>2026-04-26T08:39:43.997Z</time></trkpt><trkpt lat="44.86758152114719" lon="9.336694481490737"><ele>761.6666666666666</ele><time>2026-04-26T08:39:44.997Z</time></trkpt><trkpt lat="44.86752587433742" lon="9.336807161142486"><ele>761.5</ele><time>2026-04-26T08:39:45.997Z</time></trkpt><trkpt lat="44.86748751132681" lon="9.336894278861418"><ele>761.3333333333333</ele><time>2026-04-26T08:39:46.997Z</time></trkpt><trkpt lat="44.8674649100209" lon="9.337008396225336"><ele>761.1666666666666</ele><time>2026-04-26T08:39:47.997Z</time></trkpt><trkpt lat="44.86745500661523" lon="9.337150906200655"><ele>761.0</ele><time>2026-04-26T08:39:49Z</time></trkpt><trkpt lat="44.86745699087964" lon="9.337304533011404"><ele>761.0</ele><time>2026-04-26T08:39:50Z</time></trkpt><trkpt lat="44.86747797911646" lon="9.337419453761203"><ele>761.0</ele><time>2026-04-26T08:39:51Z</time></trkpt><trkpt lat="44.86748835815824" lon="9.337562381658904"><ele>761.0</ele><time>2026-04-26T08:39:53Z</time></trkpt><trkpt lat="44.8674288564908" lon="9.337671967281551"><ele>761.0</ele><time>2026-04-26T08:39:55Z</time></trkpt><trkpt lat="44.86744173506902" lon="9.337776207131851"><ele>761.0</ele><time>2026-04-26T08:39:56Z</time></trkpt><trkpt lat="44.867462589449254" lon="9.337888771196527"><ele>761.0</ele><time>2026-04-26T08:39:57Z</time></trkpt><trkpt lat="44.867487295348546" lon="9.337982724169365"><ele>762.1666666666666</ele><time>2026-04-26T08:39:58Z</time></trkpt><trkpt lat="44.867495804661154" lon="9.338073281782673"><ele>763.3333333333333</ele><time>2026-04-26T08:39:59Z</time></trkpt><trkpt lat="44.867500120140605" lon="9.338176765390742"><ele>764.5</ele><time>2026-04-26T08:40:00Z</time></trkpt><trkpt lat="44.86751490454449" lon="9.338285113642582"><ele>765.6666666666666</ele><time>2026-04-26T08:40:01Z</time></trkpt><trkpt lat="44.86753149196573" lon="9.338388787769246"><ele>766.8333333333334</ele><time>2026-04-26T08:40:02Z</time></trkpt><trkpt lat="44.867546068963655" lon="9.338477726701733"><ele>768.0</ele><time>2026-04-26T08:40:03Z</time></trkpt><trkpt lat="44.867514498642336" lon="9.33863356130845"><ele>768.0</ele><time>2026-04-26T08:40:05Z</time></trkpt><trkpt lat="44.86747609634926" lon="9.338706681451933"><ele>768.0</ele><time>2026-04-26T08:40:06Z</time></trkpt><trkpt lat="44.86741967688845" lon="9.338811493315314"><ele>768.0</ele><time>2026-04-26T08:40:07Z</time></trkpt><trkpt lat="44.86737036245142" lon="9.338932518794058"><ele>768.0</ele><time>2026-04-26T08:40:09Z</time></trkpt><trkpt lat="44.86732951270447" lon="9.339019753427216"><ele>768.0</ele><time>2026-04-26T08:40:17Z</time></trkpt><trkpt lat="44.86735423489812" lon="9.33911942731763"><ele>768.0</ele><time>2026-04-26T08:40:27.999Z</time></trkpt><trkpt lat="44.86735719589084" lon="9.339252952302532"><ele>768.2</ele><time>2026-04-26T08:40:31.999Z</time></trkpt><trkpt lat="44.867377321491176" lon="9.339466718664088"><ele>768.4</ele><time>2026-04-26T08:40:33.999Z</time></trkpt><trkpt lat="44.8673786589292" lon="9.33960541610929"><ele>768.6</ele><time>2026-04-26T08:40:34.999Z</time></trkpt><trkpt lat="44.86737978267329" lon="9.339747900327739"><ele>768.8000000000001</ele><time>2026-04-26T08:40:35.999Z</time></trkpt><trkpt lat="44.867386257434" lon="9.339842602672057"><ele>769.0</ele><time>2026-04-26T08:40:36.999Z</time></trkpt><trkpt lat="44.86743575648109" lon="9.340003135896573"><ele>769.4000000000001</ele><time>2026-04-26T08:40:38.999Z</time></trkpt><trkpt lat="44.86751273516704" lon="9.340060927922982"><ele>769.8</ele><time>2026-04-26T08:40:39.999Z</time></trkpt><trkpt lat="44.86753984798687" lon="9.340180364256794"><ele>770.2</ele><time>2026-04-26T08:40:41.999Z</time></trkpt><trkpt lat="44.86753621387955" lon="9.34036063976973"><ele>770.5999999999999</ele><time>2026-04-26T08:40:43.999Z</time></trkpt><trkpt lat="44.86753288437487" lon="9.340488481449368"><ele>771.0</ele><time>2026-04-26T08:40:44.999Z</time></trkpt><trkpt lat="44.86756366111686" lon="9.340634774405137"><ele>775.3333333333334</ele><time>2026-04-26T08:40:45.999Z</time></trkpt><trkpt lat="44.86761217327098" lon="9.340778068879048"><ele>779.6666666666667</ele><time>2026-04-26T08:40:46.999Z</time></trkpt><trkpt lat="44.86762266822815" lon="9.340891573836721"><ele>784.0</ele><time>2026-04-26T08:40:47.999Z</time></trkpt><trkpt lat="44.86761904559209" lon="9.341021137796163"><ele>788.3333333333334</ele><time>2026-04-26T08:40:48.999Z</time></trkpt><trkpt lat="44.86761174513797" lon="9.34115398848854"><ele>792.6666666666667</ele><time>2026-04-26T08:40:49.999Z</time></trkpt><trkpt lat="44.86761672483574" lon="9.341246470527649"><ele>797.0</ele><time>2026-04-26T08:40:50.999Z</time></trkpt><trkpt lat="44.867621888953174" lon="9.341403231943875"><ele>797.3333333333334</ele><time>2026-04-26T08:40:52.999Z</time></trkpt><trkpt lat="44.867614246786296" lon="9.341491748036646"><ele>797.6666666666667</ele><time>2026-04-26T08:40:53.999Z</time></trkpt><trkpt lat="44.86760290421854" lon="9.341622769852052"><ele>798.0</ele><time>2026-04-26T08:40:55.999Z</time></trkpt><trkpt lat="44.867593726136725" lon="9.34171659275044"><ele>798.3333333333333</ele><time>2026-04-26T08:40:56.999Z</time></trkpt><trkpt lat="44.86757089826342" lon="9.341823305748598"><ele>798.6666666666666</ele><time>2026-04-26T08:40:57.999Z</time></trkpt><trkpt lat="44.86752939720562" lon="9.341962890322485"><ele>799.0</ele><time>2026-04-26T08:40:59.999Z</time></trkpt><trkpt lat="44.86748890726206" lon="9.34205381297106"><ele>796.0</ele><time>2026-04-26T08:41:05.999Z</time></trkpt><trkpt lat="44.86744733919421" lon="9.34218030041074"><ele>793.0</ele><time>2026-04-26T08:41:09.998Z</time></trkpt><trkpt lat="44.86743218196703" lon="9.342291825548589"><ele>790.0</ele><time>2026-04-26T08:41:11.998Z</time></trkpt><trkpt lat="44.867451111481046" lon="9.342455420406221"><ele>787.0</ele><time>2026-04-26T08:41:13.998Z</time></trkpt><trkpt lat="44.867480833113156" lon="9.342606111846267"><ele>784.0</ele><time>2026-04-26T08:41:14.998Z</time></trkpt><trkpt lat="44.867491806481944" lon="9.342697976955472"><ele>784.0</ele><time>2026-04-26T08:41:15.998Z</time></trkpt><trkpt lat="44.86747343032007" lon="9.34282817723935"><ele>784.0</ele><time>2026-04-26T08:41:17.998Z</time></trkpt><trkpt lat="44.86735303313129" lon="9.342779119379445"><ele>784.0</ele><time>2026-04-26T08:41:21.998Z</time></trkpt><trkpt lat="44.86725466607916" lon="9.342800424516824"><ele>784.0</ele><time>2026-04-26T08:41:23.998Z</time></trkpt><trkpt lat="44.86718655152698" lon="9.342786362847328"><ele>784.0</ele><time>2026-04-26T08:41:24.998Z</time></trkpt><trkpt lat="44.86709439776502" lon="9.34278493481944"><ele>784.0</ele><time>2026-04-26T08:41:25.998Z</time></trkpt><trkpt lat="44.866945611078116" lon="9.3428057335611"><ele>784.0</ele><time>2026-04-26T08:41:26.998Z</time></trkpt><trkpt lat="44.866833450271734" lon="9.34279349116077"><ele>784.0</ele><time>2026-04-26T08:41:27.998Z</time></trkpt><trkpt lat="44.86673053095557" lon="9.342768859185012"><ele>784.0</ele><time>2026-04-26T08:41:28.998Z</time></trkpt><trkpt lat="44.866616042058865" lon="9.342728081193929"><ele>783.2</ele><time>2026-04-26T08:41:29.998Z</time></trkpt><trkpt lat="44.86649216320731" lon="9.34270649641366"><ele>782.4000000000001</ele><time>2026-04-26T08:41:30.998Z</time></trkpt><trkpt lat="44.866416710591906" lon="9.342702374857643"><ele>781.6</ele><time>2026-04-26T08:41:31.998Z</time></trkpt><trkpt lat="44.86635603995086" lon="9.342762335426874"><ele>780.8</ele><time>2026-04-26T08:41:33.998Z</time></trkpt><trkpt lat="44.86627184734903" lon="9.34272775590394"><ele>780.0</ele><time>2026-04-26T08:41:37.998Z</time></trkpt><trkpt lat="44.8661638468778" lon="9.342667487996655"><ele>780.0</ele><time>2026-04-26T08:41:39.998Z</time></trkpt><trkpt lat="44.86608288021904" lon="9.342629062209568"><ele>780.0</ele><time>2026-04-26T08:41:40.998Z</time></trkpt><trkpt lat="44.86599714981031" lon="9.342634182981005"><ele>780.0</ele><time>2026-04-26T08:41:41.998Z</time></trkpt><trkpt lat="44.86587271916209" lon="9.342719232123693"><ele>780.0</ele><time>2026-04-26T08:41:42.998Z</time></trkpt><trkpt lat="44.865760692656266" lon="9.342698535861548"><ele>780.0</ele><time>2026-04-26T08:41:44.998Z</time></trkpt><trkpt lat="44.865635304228356" lon="9.342643916134053"><ele>780.6666666666666</ele><time>2026-04-26T08:41:46.998Z</time></trkpt><trkpt lat="44.8655696867868" lon="9.342619065153205"><ele>781.3333333333333</ele><time>2026-04-26T08:41:47.998Z</time></trkpt><trkpt lat="44.865497380865925" lon="9.34257751272943"><ele>782.0</ele><time>2026-04-26T08:41:48.998Z</time></trkpt><trkpt lat="44.86542623494541" lon="9.342521928550656"><ele>782.6666666666666</ele><time>2026-04-26T08:41:49.997Z</time></trkpt><trkpt lat="44.86533690270131" lon="9.34246547762138"><ele>783.3333333333333</ele><time>2026-04-26T08:41:50.997Z</time></trkpt><trkpt lat="44.8652581173187" lon="9.342421598211471"><ele>784.0</ele><time>2026-04-26T08:41:51.997Z</time></trkpt><trkpt lat="44.86518392734888" lon="9.34237509921481"><ele>784.0</ele><time>2026-04-26T08:41:52.997Z</time></trkpt><trkpt lat="44.86512151127934" lon="9.342342787797724"><ele>784.0</ele><time>2026-04-26T08:41:53.997Z</time></trkpt><trkpt lat="44.86506149281763" lon="9.342306560707021"><ele>784.0</ele><time>2026-04-26T08:41:55Z</time></trkpt><trkpt lat="44.86499057918162" lon="9.342273412124747"><ele>784.0</ele><time>2026-04-26T08:41:56Z</time></trkpt><trkpt lat="44.864922251831366" lon="9.342250677052348"><ele>784.0</ele><time>2026-04-26T08:41:57Z</time></trkpt><trkpt lat="44.86486156785051" lon="9.342226594788734"><ele>784.0</ele><time>2026-04-26T08:41:58Z</time></trkpt><trkpt lat="44.86476279532174" lon="9.342221180624746"><ele>784.0</ele><time>2026-04-26T08:41:59Z</time></trkpt><trkpt lat="44.864662391205165" lon="9.342189692245487"><ele>784.0</ele><time>2026-04-26T08:42:00Z</time></trkpt><trkpt lat="44.86454675707426" lon="9.342174505819472"><ele>784.0</ele><time>2026-04-26T08:42:01Z</time></trkpt><trkpt lat="44.864426808053736" lon="9.34216789665395"><ele>784.0</ele><time>2026-04-26T08:42:02Z</time></trkpt><trkpt lat="44.86430962433407" lon="9.342162071859132"><ele>784.0</ele><time>2026-04-26T08:42:03Z</time></trkpt><trkpt lat="44.86420617470524" lon="9.34215332998152"><ele>782.8333333333333</ele><time>2026-04-26T08:42:04Z</time></trkpt><trkpt lat="44.864111026883" lon="9.342138654341461"><ele>781.6666666666666</ele><time>2026-04-26T08:42:05Z</time></trkpt><trkpt lat="44.86402993911347" lon="9.342134067803704"><ele>780.5</ele><time>2026-04-26T08:42:06Z</time></trkpt><trkpt lat="44.86395244278831" lon="9.342124257651903"><ele>779.3333333333333</ele><time>2026-04-26T08:42:07Z</time></trkpt><trkpt lat="44.86387777748047" lon="9.342085723231556"><ele>778.1666666666666</ele><time>2026-04-26T08:42:08Z</time></trkpt><trkpt lat="44.8637906526561" lon="9.342013312494508"><ele>777.0</ele><time>2026-04-26T08:42:09Z</time></trkpt><trkpt lat="44.86369092326494" lon="9.341943356326418"><ele>777.0</ele><time>2026-04-26T08:42:10Z</time></trkpt><trkpt lat="44.86361433878418" lon="9.341914629182911"><ele>777.0</ele><time>2026-04-26T08:42:11Z</time></trkpt><trkpt lat="44.863547924810646" lon="9.341913166143554"><ele>777.0</ele><time>2026-04-26T08:42:12Z</time></trkpt><trkpt lat="44.86341015788576" lon="9.341945505452166"><ele>777.0</ele><time>2026-04-26T08:42:14Z</time></trkpt><trkpt lat="44.86333055249388" lon="9.341973174531216"><ele>777.0</ele><time>2026-04-26T08:42:15Z</time></trkpt><trkpt lat="44.86325611917632" lon="9.34198674656924"><ele>777.0</ele><time>2026-04-26T08:42:16Z</time></trkpt><trkpt lat="44.86318395786012" lon="9.342004706494311"><ele>775.8333333333334</ele><time>2026-04-26T08:42:17Z</time></trkpt><trkpt lat="44.86311386841107" lon="9.342020320976012"><ele>774.6666666666667</ele><time>2026-04-26T08:42:18Z</time></trkpt><trkpt lat="44.86304284315216" lon="9.342023634865306"><ele>773.5</ele><time>2026-04-26T08:42:19Z</time></trkpt><trkpt lat="44.862967594674515" lon="9.342032580462341"><ele>772.3333333333334</ele><time>2026-04-26T08:42:20Z</time></trkpt><trkpt lat="44.86289911792707" lon="9.342024553035428"><ele>771.1666666666667</ele><time>2026-04-26T08:42:21Z</time></trkpt><trkpt lat="44.86282289374911" lon="9.342007551388898"><ele>770.0</ele><time>2026-04-26T08:42:23Z</time></trkpt><trkpt lat="44.86275424994247" lon="9.342081679523801"><ele>770.0000000000001</ele><time>2026-04-26T08:42:30.999Z</time></trkpt><trkpt lat="44.86268083919868" lon="9.34212607972368"><ele>770.0</ele><time>2026-04-26T08:42:32.999Z</time></trkpt><trkpt lat="44.862588406611685" lon="9.342141740582536"><ele>770.0</ele><time>2026-04-26T08:42:34.999Z</time></trkpt><trkpt lat="44.862519625619505" lon="9.342137757417587"><ele>770.0</ele><time>2026-04-26T08:42:35.999Z</time></trkpt><trkpt lat="44.8624391085122" lon="9.342135193161077"><ele>770.0000000000001</ele><time>2026-04-26T08:42:36.999Z</time></trkpt><trkpt lat="44.86235042223707" lon="9.342143707647669"><ele>770.0</ele><time>2026-04-26T08:42:37.999Z</time></trkpt><trkpt lat="44.86227113334678" lon="9.342196796319124"><ele>770.3333333333334</ele><time>2026-04-26T08:42:38.999Z</time></trkpt><trkpt lat="44.86218920719353" lon="9.34224209041835"><ele>770.6666666666667</ele><time>2026-04-26T08:42:39.999Z</time></trkpt><trkpt lat="44.86212799954121" lon="9.342297597020245"><ele>771.0</ele><time>2026-04-26T08:42:40.999Z</time></trkpt><trkpt lat="44.862056173176576" lon="9.342354462944439"><ele>771.3333333333333</ele><time>2026-04-26T08:42:41.999Z</time></trkpt><trkpt lat="44.861967205641584" lon="9.342392393303108"><ele>771.6666666666666</ele><time>2026-04-26T08:42:42.999Z</time></trkpt><trkpt lat="44.861864486964514" lon="9.342433244445802"><ele>772.0</ele><time>2026-04-26T08:42:43.999Z</time></trkpt><trkpt lat="44.86174010234834" lon="9.342480176783676"><ele>772.75</ele><time>2026-04-26T08:42:44.999Z</time></trkpt><trkpt lat="44.861634872653646" lon="9.342527339457785"><ele>773.5</ele><time>2026-04-26T08:42:45.999Z</time></trkpt><trkpt lat="44.86152488103608" lon="9.34259677566642"><ele>774.25</ele><time>2026-04-26T08:42:46.999Z</time></trkpt><trkpt lat="44.861420102421214" lon="9.342654123793167"><ele>775.0</ele><time>2026-04-26T08:42:47.999Z</time></trkpt><trkpt lat="44.86131696593708" lon="9.342697993828393"><ele>775.0</ele><time>2026-04-26T08:42:48.999Z</time></trkpt><trkpt lat="44.86120497653424" lon="9.342719895497183"><ele>775.0</ele><time>2026-04-26T08:42:49.999Z</time></trkpt><trkpt lat="44.861098622664656" lon="9.342729379860042"><ele>775.0</ele><time>2026-04-26T08:42:50.999Z</time></trkpt><trkpt lat="44.861011532780495" lon="9.342743063022105"><ele>775.0</ele><time>2026-04-26T08:42:51.999Z</time></trkpt><trkpt lat="44.8609434314695" lon="9.342771795135704"><ele>775.0</ele><time>2026-04-26T08:42:52.999Z</time></trkpt><trkpt lat="44.86084389099574" lon="9.342883840044442"><ele>775.2</ele><time>2026-04-26T08:42:54.999Z</time></trkpt><trkpt lat="44.860804113365546" lon="9.342981717372318"><ele>775.4</ele><time>2026-04-26T08:42:55.999Z</time></trkpt><trkpt lat="44.86071098647661" lon="9.34306220711793"><ele>775.5999999999999</ele><time>2026-04-26T08:42:57.999Z</time></trkpt><trkpt lat="44.860667458544384" lon="9.343155505597855"><ele>775.8</ele><time>2026-04-26T08:42:58.999Z</time></trkpt><trkpt lat="44.86058917629736" lon="9.343322249380046"><ele>776.0</ele><time>2026-04-26T08:42:59.999Z</time></trkpt><trkpt lat="44.860515159107486" lon="9.343446765970473"><ele>776.1666666666667</ele><time>2026-04-26T08:43:00.999Z</time></trkpt><trkpt lat="44.86043570722874" lon="9.34354437286159"><ele>776.3333333333334</ele><time>2026-04-26T08:43:01.999Z</time></trkpt><trkpt lat="44.860386030047174" lon="9.3436929418731"><ele>776.5</ele><time>2026-04-26T08:43:03.999Z</time></trkpt><trkpt lat="44.86034627283422" lon="9.34378593018054"><ele>776.6666666666667</ele><time>2026-04-26T08:43:04.999Z</time></trkpt><trkpt lat="44.86029991257216" lon="9.343862600680612"><ele>776.8333333333334</ele><time>2026-04-26T08:43:05.999Z</time></trkpt><trkpt lat="44.86026657470219" lon="9.343939300736194"><ele>777.0</ele><time>2026-04-26T08:43:06.999Z</time></trkpt><trkpt lat="44.86021199781332" lon="9.344056832975024"><ele>777.0</ele><time>2026-04-26T08:43:07.999Z</time></trkpt><trkpt lat="44.860156104139406" lon="9.344169883460067"><ele>777.0</ele><time>2026-04-26T08:43:08.999Z</time></trkpt><trkpt lat="44.86009345729148" lon="9.344272512533523"><ele>777.0</ele><time>2026-04-26T08:43:09.999Z</time></trkpt><trkpt lat="44.86005911138402" lon="9.344368271759276"><ele>777.0</ele><time>2026-04-26T08:43:10.999Z</time></trkpt><trkpt lat="44.86003565049189" lon="9.344463510636595"><ele>777.0</ele><time>2026-04-26T08:43:11.999Z</time></trkpt><trkpt lat="44.86001206174078" lon="9.34457602167734"><ele>777.0</ele><time>2026-04-26T08:43:12.998Z</time></trkpt><trkpt lat="44.85998187635935" lon="9.344709209360179"><ele>777.6</ele><time>2026-04-26T08:43:13.998Z</time></trkpt><trkpt lat="44.85994203486716" lon="9.344864646595378"><ele>778.2</ele><time>2026-04-26T08:43:14.998Z</time></trkpt><trkpt lat="44.85990710701354" lon="9.344982966747827"><ele>778.8</ele><time>2026-04-26T08:43:15.998Z</time></trkpt><trkpt lat="44.8598777156707" lon="9.345090518811825"><ele>779.4</ele><time>2026-04-26T08:43:16.998Z</time></trkpt><trkpt lat="44.8598366440197" lon="9.345199433518662"><ele>780.0</ele><time>2026-04-26T08:43:17.998Z</time></trkpt><trkpt lat="44.85977516340168" lon="9.345318360103406"><ele>780.0</ele><time>2026-04-26T08:43:18.998Z</time></trkpt><trkpt lat="44.85969574474613" lon="9.345430306249334"><ele>780.0</ele><time>2026-04-26T08:43:19.998Z</time></trkpt><trkpt lat="44.85961640659542" lon="9.345532493632037"><ele>780.0</ele><time>2026-04-26T08:43:20.998Z</time></trkpt><trkpt lat="44.859536264784204" lon="9.345607358081859"><ele>780.0</ele><time>2026-04-26T08:43:21.998Z</time></trkpt><trkpt lat="44.8594571378538" lon="9.345658882157052"><ele>780.0</ele><time>2026-04-26T08:43:22.998Z</time></trkpt><trkpt lat="44.85937291695342" lon="9.345726089512327"><ele>779.4</ele><time>2026-04-26T08:43:23.998Z</time></trkpt><trkpt lat="44.85929327364845" lon="9.345769720264018"><ele>778.8</ele><time>2026-04-26T08:43:24.998Z</time></trkpt><trkpt lat="44.85921356104529" lon="9.345782461629142"><ele>778.2</ele><time>2026-04-26T08:43:25.998Z</time></trkpt><trkpt lat="44.85910300727093" lon="9.345755607570403"><ele>777.6</ele><time>2026-04-26T08:43:26.998Z</time></trkpt><trkpt lat="44.85899553502032" lon="9.345746132480183"><ele>777.0</ele><time>2026-04-26T08:43:27.998Z</time></trkpt><trkpt lat="44.85890994474282" lon="9.345753784945995"><ele>777.0</ele><time>2026-04-26T08:43:28.998Z</time></trkpt><trkpt lat="44.85882099087035" lon="9.345776394293697"><ele>777.0</ele><time>2026-04-26T08:43:29.998Z</time></trkpt><trkpt lat="44.85872707745143" lon="9.345789885083832"><ele>777.0</ele><time>2026-04-26T08:43:30.998Z</time></trkpt><trkpt lat="44.85864402540513" lon="9.345804097271333"><ele>777.0</ele><time>2026-04-26T08:43:31.998Z</time></trkpt><trkpt lat="44.858566949983825" lon="9.345801498600157"><ele>777.0</ele><time>2026-04-26T08:43:32.998Z</time></trkpt><trkpt lat="44.8584742936918" lon="9.345795438895411"><ele>777.0</ele><time>2026-04-26T08:43:33.998Z</time></trkpt><trkpt lat="44.858369350788614" lon="9.345815359593239"><ele>776.8</ele><time>2026-04-26T08:43:34.998Z</time></trkpt><trkpt lat="44.858278529589676" lon="9.345846568691323"><ele>776.6</ele><time>2026-04-26T08:43:35.998Z</time></trkpt><trkpt lat="44.85821555046761" lon="9.345870870984587"><ele>776.4</ele><time>2026-04-26T08:43:36.998Z</time></trkpt><trkpt lat="44.85815079022296" lon="9.345896443615208"><ele>776.1999999999999</ele><time>2026-04-26T08:43:37.998Z</time></trkpt><trkpt lat="44.858042013243" lon="9.345921186934776"><ele>776.0</ele><time>2026-04-26T08:43:39.998Z</time></trkpt><trkpt lat="44.85790184203501" lon="9.345904712549238"><ele>776.0</ele><time>2026-04-26T08:43:41.998Z</time></trkpt><trkpt lat="44.85779801261598" lon="9.34589344018861"><ele>776.0</ele><time>2026-04-26T08:43:42.998Z</time></trkpt><trkpt lat="44.85767930167481" lon="9.345872730144833"><ele>776.0</ele><time>2026-04-26T08:43:43.998Z</time></trkpt><trkpt lat="44.85758574864824" lon="9.345842780219852"><ele>776.0</ele><time>2026-04-26T08:43:44.998Z</time></trkpt><trkpt lat="44.857503622809084" lon="9.34583202334303"><ele>776.0</ele><time>2026-04-26T08:43:45.998Z</time></trkpt><trkpt lat="44.85737876007219" lon="9.345872479494416"><ele>774.5999999999999</ele><time>2026-04-26T08:43:47.998Z</time></trkpt><trkpt lat="44.85729436989738" lon="9.345906295178297"><ele>773.2</ele><time>2026-04-26T08:43:48.998Z</time></trkpt><trkpt lat="44.85721029266439" lon="9.345886429800114"><ele>771.8</ele><time>2026-04-26T08:43:49.998Z</time></trkpt><trkpt lat="44.857115928771854" lon="9.345822251374162"><ele>770.4000000000001</ele><time>2026-04-26T08:43:50.998Z</time></trkpt><trkpt lat="44.856994720176665" lon="9.345755682658684"><ele>769.0</ele><time>2026-04-26T08:43:51.998Z</time></trkpt><trkpt lat="44.856853447536785" lon="9.34568585394349"><ele>768.0</ele><time>2026-04-26T08:43:52.998Z</time></trkpt><trkpt lat="44.8567296070244" lon="9.345624280037967"><ele>767.0</ele><time>2026-04-26T08:43:53.998Z</time></trkpt><trkpt lat="44.856629373870156" lon="9.345573421548412"><ele>766.0</ele><time>2026-04-26T08:43:54.998Z</time></trkpt><trkpt lat="44.85653826318226" lon="9.345520225396474"><ele>765.0</ele><time>2026-04-26T08:43:55.997Z</time></trkpt><trkpt lat="44.856468175273534" lon="9.345473942239293"><ele>764.0</ele><time>2026-04-26T08:43:56.997Z</time></trkpt><trkpt lat="44.856387697489524" lon="9.345464130886834"><ele>763.0</ele><time>2026-04-26T08:43:57.997Z</time></trkpt><trkpt lat="44.85627365597804" lon="9.345480267153484"><ele>762.0</ele><time>2026-04-26T08:43:58.997Z</time></trkpt><trkpt lat="44.856168658553955" lon="9.34551183308147"><ele>761.0</ele><time>2026-04-26T08:43:59.997Z</time></trkpt><trkpt lat="44.856098591762425" lon="9.34553611758944"><ele>760.0</ele><time>2026-04-26T08:44:01Z</time></trkpt><trkpt lat="44.855984997394586" lon="9.345539150394877"><ele>759.0</ele><time>2026-04-26T08:44:03Z</time></trkpt><trkpt lat="44.855922020103876" lon="9.34550509665209"><ele>757.6666666666666</ele><time>2026-04-26T08:44:04Z</time></trkpt><trkpt lat="44.85585629961978" lon="9.345475002890463"><ele>756.3333333333334</ele><time>2026-04-26T08:44:05Z</time></trkpt><trkpt lat="44.85577260423852" lon="9.34546805806948"><ele>755.0</ele><time>2026-04-26T08:44:06Z</time></trkpt><trkpt lat="44.85570793526061" lon="9.345491124967513"><ele>753.6666666666667</ele><time>2026-04-26T08:44:07Z</time></trkpt><trkpt lat="44.85561810985217" lon="9.345510951017097"><ele>752.3333333333334</ele><time>2026-04-26T08:44:08Z</time></trkpt><trkpt lat="44.855511553408355" lon="9.34550825761983"><ele>751.0</ele><time>2026-04-26T08:44:09Z</time></trkpt><trkpt lat="44.855385584460564" lon="9.34549015608067"><ele>751.0</ele><time>2026-04-26T08:44:10Z</time></trkpt><trkpt lat="44.85525463612348" lon="9.345470175692407"><ele>751.0</ele><time>2026-04-26T08:44:11Z</time></trkpt><trkpt lat="44.855142727276295" lon="9.345464780438174"><ele>751.0</ele><time>2026-04-26T08:44:12Z</time></trkpt><trkpt lat="44.855046436653375" lon="9.34545827816601"><ele>751.0</ele><time>2026-04-26T08:44:13Z</time></trkpt><trkpt lat="44.85495379086175" lon="9.345455426620571"><ele>751.0</ele><time>2026-04-26T08:44:14Z</time></trkpt><trkpt lat="44.85485183281819" lon="9.34548120222303"><ele>750.4</ele><time>2026-04-26T08:44:15Z</time></trkpt><trkpt lat="44.854734670451904" lon="9.345517187906488"><ele>749.8</ele><time>2026-04-26T08:44:16Z</time></trkpt><trkpt lat="44.854622387015375" lon="9.345542649958611"><ele>749.1999999999999</ele><time>2026-04-26T08:44:17Z</time></trkpt><trkpt lat="44.854517445813734" lon="9.345558327142916"><ele>748.5999999999999</ele><time>2026-04-26T08:44:18Z</time></trkpt><trkpt lat="44.85442410536137" lon="9.345567519626304"><ele>748.0</ele><time>2026-04-26T08:44:19Z</time></trkpt><trkpt lat="44.85434746302306" lon="9.345563006767893"><ele>746.8571428571428</ele><time>2026-04-26T08:44:20Z</time></trkpt><trkpt lat="44.85427774631928" lon="9.345563687721171"><ele>745.7142857142858</ele><time>2026-04-26T08:44:21Z</time></trkpt><trkpt lat="44.854212531481565" lon="9.345588209184818"><ele>744.5714285714286</ele><time>2026-04-26T08:44:22Z</time></trkpt><trkpt lat="44.85415523093424" lon="9.345633944853292"><ele>743.4285714285713</ele><time>2026-04-26T08:44:23Z</time></trkpt><trkpt lat="44.85409545252075" lon="9.345676489184225"><ele>742.2857142857142</ele><time>2026-04-26T08:44:24Z</time></trkpt><trkpt lat="44.85402695614293" lon="9.345701655239196"><ele>741.1428571428571</ele><time>2026-04-26T08:44:25Z</time></trkpt><trkpt lat="44.853953620405605" lon="9.345711956561441"><ele>740.0</ele><time>2026-04-26T08:44:26Z</time></trkpt><trkpt lat="44.85386918616561" lon="9.345712788673657"><ele>740.0</ele><time>2026-04-26T08:44:27Z</time></trkpt><trkpt lat="44.853798867924056" lon="9.34569673587972"><ele>740.0</ele><time>2026-04-26T08:44:28Z</time></trkpt><trkpt lat="44.85373338924915" lon="9.345674948807602"><ele>740.0</ele><time>2026-04-26T08:44:29Z</time></trkpt><trkpt lat="44.85365573995063" lon="9.345689011055292"><ele>740.0</ele><time>2026-04-26T08:44:30Z</time></trkpt><trkpt lat="44.8535505214428" lon="9.345755590139305"><ele>740.0</ele><time>2026-04-26T08:44:31Z</time></trkpt><trkpt lat="44.85342467459022" lon="9.34581110227247"><ele>737.0</ele><time>2026-04-26T08:44:32Z</time></trkpt><trkpt lat="44.85330761579541" lon="9.345829490089615"><ele>734.0</ele><time>2026-04-26T08:44:33Z</time></trkpt><trkpt lat="44.85320642548052" lon="9.345836891723899"><ele>731.0</ele><time>2026-04-26T08:44:34Z</time></trkpt><trkpt lat="44.85311795356563" lon="9.345854512633734"><ele>728.0</ele><time>2026-04-26T08:44:35Z</time></trkpt><trkpt lat="44.853057081402454" lon="9.346022761216433"><ele>725.0</ele><time>2026-04-26T08:44:35.999Z</time></trkpt><trkpt lat="44.85298699834629" lon="9.346037779153404"><ele>725.0</ele><time>2026-04-26T08:44:36.999Z</time></trkpt><trkpt lat="44.852896114058595" lon="9.346064031169291"><ele>725.0</ele><time>2026-04-26T08:44:38.999Z</time></trkpt><trkpt lat="44.85280849997724" lon="9.34611256972339"><ele>725.0</ele><time>2026-04-26T08:44:40.999Z</time></trkpt><trkpt lat="44.85274196584597" lon="9.346152348466822"><ele>725.0</ele><time>2026-04-26T08:44:42.999Z</time></trkpt><trkpt lat="44.85267020014959" lon="9.346195265289307"><ele>725.0</ele><time>2026-04-26T08:44:45.999Z</time></trkpt><trkpt lat="44.852600245757785" lon="9.346235138332705"><ele>725.0</ele><time>2026-04-26T08:44:49.999Z</time></trkpt><trkpt lat="44.85252921929112" lon="9.346230613098985"><ele>724.4</ele><time>2026-04-26T08:44:53.999Z</time></trkpt><trkpt lat="44.85243972037283" lon="9.346257562859893"><ele>723.8</ele><time>2026-04-26T08:44:56.999Z</time></trkpt><trkpt lat="44.85235356004048" lon="9.346284124096428"><ele>723.2</ele><time>2026-04-26T08:44:59.999Z</time></trkpt><trkpt lat="44.852293823243166" lon="9.346330493928935"><ele>722.6</ele><time>2026-04-26T08:45:01.999Z</time></trkpt><trkpt lat="44.85221230888262" lon="9.346388489349218"><ele>722.0</ele><time>2026-04-26T08:45:03.999Z</time></trkpt><trkpt lat="44.852133256780505" lon="9.346504582464208"><ele>722.0</ele><time>2026-04-26T08:45:05.999Z</time></trkpt><trkpt lat="44.85208752821401" lon="9.346565813197566"><ele>722.0</ele><time>2026-04-26T08:45:06.999Z</time></trkpt><trkpt lat="44.85202740749811" lon="9.346603467795834"><ele>722.0</ele><time>2026-04-26T08:45:07.999Z</time></trkpt><trkpt lat="44.85195756374041" lon="9.346648975796885"><ele>722.0</ele><time>2026-04-26T08:45:08.999Z</time></trkpt><trkpt lat="44.85188106708411" lon="9.34669493662062"><ele>722.0</ele><time>2026-04-26T08:45:09.999Z</time></trkpt><trkpt lat="44.85180502814822" lon="9.346754730107985"><ele>722.0</ele><time>2026-04-26T08:45:10.999Z</time></trkpt><trkpt lat="44.851721489090146" lon="9.346788519649861"><ele>722.8333333333333</ele><time>2026-04-26T08:45:11.999Z</time></trkpt><trkpt lat="44.851631907286176" lon="9.346815400805667"><ele>723.6666666666666</ele><time>2026-04-26T08:45:12.999Z</time></trkpt><trkpt lat="44.851547710961185" lon="9.34682928984932"><ele>724.5</ele><time>2026-04-26T08:45:13.999Z</time></trkpt><trkpt lat="44.851466738781276" lon="9.34685111245299"><ele>725.3333333333334</ele><time>2026-04-26T08:45:14.999Z</time></trkpt><trkpt lat="44.851381960543435" lon="9.346881149689823"><ele>726.1666666666667</ele><time>2026-04-26T08:45:15.999Z</time></trkpt><trkpt lat="44.851296112299636" lon="9.346905381519576"><ele>727.0</ele><time>2026-04-26T08:45:16.999Z</time></trkpt><trkpt lat="44.851211000649194" lon="9.346928944221137"><ele>727.0</ele><time>2026-04-26T08:45:17.999Z</time></trkpt><trkpt lat="44.85112715477156" lon="9.346950893180276"><ele>727.0</ele><time>2026-04-26T08:45:18.998Z</time></trkpt><trkpt lat="44.85104297691775" lon="9.346970418604451"><ele>727.0</ele><time>2026-04-26T08:45:19.998Z</time></trkpt><trkpt lat="44.85096215349516" lon="9.346990572058875"><ele>727.0</ele><time>2026-04-26T08:45:20.998Z</time></trkpt><trkpt lat="44.850888669619856" lon="9.347003935228782"><ele>727.0</ele><time>2026-04-26T08:45:21.998Z</time></trkpt><trkpt lat="44.850816547186895" lon="9.347018314663577"><ele>727.0</ele><time>2026-04-26T08:45:22.998Z</time></trkpt><trkpt lat="44.85075554335892" lon="9.347041798208123"><ele>727.1666666666667</ele><time>2026-04-26T08:45:23.998Z</time></trkpt><trkpt lat="44.85069206280118" lon="9.347055757301408"><ele>727.3333333333334</ele><time>2026-04-26T08:45:24.998Z</time></trkpt><trkpt lat="44.85062017035167" lon="9.347075824157532"><ele>727.5</ele><time>2026-04-26T08:45:25.998Z</time></trkpt><trkpt lat="44.85050402449843" lon="9.347095933458654"><ele>727.6666666666666</ele><time>2026-04-26T08:45:27.998Z</time></trkpt><trkpt lat="44.850391862341816" lon="9.347123041451395"><ele>727.8333333333333</ele><time>2026-04-26T08:45:29.998Z</time></trkpt><trkpt lat="44.85032314867435" lon="9.347135279720163"><ele>728.0</ele><time>2026-04-26T08:45:30.998Z</time></trkpt><trkpt lat="44.85026280129589" lon="9.347107839184357"><ele>728.0</ele><time>2026-04-26T08:45:31.998Z</time></trkpt><trkpt lat="44.850183696222544" lon="9.34712772071539"><ele>728.0</ele><time>2026-04-26T08:45:33.998Z</time></trkpt><trkpt lat="44.850083859770045" lon="9.347490898122913"><ele>728.0</ele><time>2026-04-26T08:45:35.998Z</time></trkpt><trkpt lat="44.84999376774478" lon="9.347523112851837"><ele>728.0</ele><time>2026-04-26T08:45:36.998Z</time></trkpt><trkpt lat="44.8499043750172" lon="9.347560915124095"><ele>730.0</ele><time>2026-04-26T08:45:37.998Z</time></trkpt><trkpt lat="44.84981194815582" lon="9.347630933036386"><ele>732.0</ele><time>2026-04-26T08:45:38.998Z</time></trkpt><trkpt lat="44.8497116355199" lon="9.347692709546847"><ele>734.0</ele><time>2026-04-26T08:45:39.998Z</time></trkpt><trkpt lat="44.84959246740512" lon="9.347719247772437"><ele>736.0</ele><time>2026-04-26T08:45:40.998Z</time></trkpt><trkpt lat="44.84947239555769" lon="9.347706893825999"><ele>736.0</ele><time>2026-04-26T08:45:41.998Z</time></trkpt><trkpt lat="44.849370852288764" lon="9.347685949769696"><ele>736.0</ele><time>2026-04-26T08:45:42.998Z</time></trkpt><trkpt lat="44.849280475300645" lon="9.347697972132929"><ele>736.0</ele><time>2026-04-26T08:45:43.998Z</time></trkpt><trkpt lat="44.84918235857318" lon="9.347743210437878"><ele>736.0</ele><time>2026-04-26T08:45:44.998Z</time></trkpt><trkpt lat="44.84908835258" lon="9.347774114615927"><ele>736.0</ele><time>2026-04-26T08:45:45.998Z</time></trkpt><trkpt lat="44.84899936467104" lon="9.347812658213586"><ele>738.3333333333334</ele><time>2026-04-26T08:45:46.998Z</time></trkpt><trkpt lat="44.84891750862908" lon="9.347825616510555"><ele>740.6666666666667</ele><time>2026-04-26T08:45:47.998Z</time></trkpt><trkpt lat="44.84884430402214" lon="9.347820320942086"><ele>743.0</ele><time>2026-04-26T08:45:48.998Z</time></trkpt><trkpt lat="44.84875372832611" lon="9.347821193017225"><ele>745.3333333333334</ele><time>2026-04-26T08:45:49.998Z</time></trkpt><trkpt lat="44.84865465929232" lon="9.347834490473995"><ele>747.6666666666666</ele><time>2026-04-26T08:45:50.998Z</time></trkpt><trkpt lat="44.84856705829736" lon="9.347846044958109"><ele>750.0</ele><time>2026-04-26T08:45:51.998Z</time></trkpt><trkpt lat="44.84850088035476" lon="9.347849205194452"><ele>751.4</ele><time>2026-04-26T08:45:52.998Z</time></trkpt><trkpt lat="44.848433688501615" lon="9.347865770672414"><ele>752.8</ele><time>2026-04-26T08:45:53.998Z</time></trkpt><trkpt lat="44.84829615104271" lon="9.347825499051195"><ele>754.2</ele><time>2026-04-26T08:45:55.998Z</time></trkpt><trkpt lat="44.8482125574082" lon="9.347790974635174"><ele>755.6</ele><time>2026-04-26T08:45:56.998Z</time></trkpt><trkpt lat="44.848121529788266" lon="9.347750608295241"><ele>757.0</ele><time>2026-04-26T08:45:57.998Z</time></trkpt><trkpt lat="44.84802311527685" lon="9.347694342725086"><ele>757.0</ele><time>2026-04-26T08:45:58.998Z</time></trkpt><trkpt lat="44.84794860968961" lon="9.347664418255171"><ele>757.0</ele><time>2026-04-26T08:45:59.998Z</time></trkpt><trkpt lat="44.84785148111691" lon="9.34762985086719"><ele>757.0</ele><time>2026-04-26T08:46:00.998Z</time></trkpt><trkpt lat="44.847738052930616" lon="9.347597450850683"><ele>757.0</ele><time>2026-04-26T08:46:01.998Z</time></trkpt><trkpt lat="44.84761826295029" lon="9.347562752322137"><ele>757.0</ele><time>2026-04-26T08:46:02.997Z</time></trkpt><trkpt lat="44.8475117091863" lon="9.347531741396597"><ele>757.25</ele><time>2026-04-26T08:46:03.997Z</time></trkpt><trkpt lat="44.847406588116364" lon="9.347498209788146"><ele>757.5</ele><time>2026-04-26T08:46:04.997Z</time></trkpt><trkpt lat="44.84729370356938" lon="9.347469777418363"><ele>757.75</ele><time>2026-04-26T08:46:05.997Z</time></trkpt><trkpt lat="44.847170239571206" lon="9.34745141835585"><ele>758.0</ele><time>2026-04-26T08:46:07Z</time></trkpt><trkpt lat="44.847048353155905" lon="9.347428734142147"><ele>758.0</ele><time>2026-04-26T08:46:08Z</time></trkpt><trkpt lat="44.84694904858531" lon="9.34741195201261"><ele>758.0</ele><time>2026-04-26T08:46:09Z</time></trkpt><trkpt lat="44.84685645830684" lon="9.347389800783878"><ele>758.0</ele><time>2026-04-26T08:46:10Z</time></trkpt><trkpt lat="44.84675758739021" lon="9.347366705966472"><ele>758.0</ele><time>2026-04-26T08:46:11Z</time></trkpt><trkpt lat="44.84665953914128" lon="9.347341648079132"><ele>758.0</ele><time>2026-04-26T08:46:12Z</time></trkpt><trkpt lat="44.84655363741015" lon="9.347298286862877"><ele>758.0</ele><time>2026-04-26T08:46:13Z</time></trkpt><trkpt lat="44.84643861185837" lon="9.347256647834325"><ele>758.0</ele><time>2026-04-26T08:46:14Z</time></trkpt><trkpt lat="44.8463105112985" lon="9.347231909179486"><ele>758.0</ele><time>2026-04-26T08:46:15Z</time></trkpt><trkpt lat="44.84615872293605" lon="9.347253945463727"><ele>758.0</ele><time>2026-04-26T08:46:16Z</time></trkpt><trkpt lat="44.84599206206273" lon="9.347299008093518"><ele>758.5</ele><time>2026-04-26T08:46:17Z</time></trkpt><trkpt lat="44.845843378880474" lon="9.347348723076479"><ele>759.0</ele><time>2026-04-26T08:46:18Z</time></trkpt><trkpt lat="44.84572543524039" lon="9.347397394877305"><ele>759.5</ele><time>2026-04-26T08:46:19Z</time></trkpt><trkpt lat="44.84563692847884" lon="9.347454835511424"><ele>760.0</ele><time>2026-04-26T08:46:20Z</time></trkpt><trkpt lat="44.84557140905013" lon="9.34752116059556"><ele>760.0</ele><time>2026-04-26T08:46:21Z</time></trkpt><trkpt lat="44.845503614137215" lon="9.347557291570187"><ele>760.0</ele><time>2026-04-26T08:46:22Z</time></trkpt><trkpt lat="44.84541104082524" lon="9.34758577857441"><ele>760.0</ele><time>2026-04-26T08:46:23Z</time></trkpt><trkpt lat="44.8453060434627" lon="9.347610337255468"><ele>760.0</ele><time>2026-04-26T08:46:24Z</time></trkpt><trkpt lat="44.84519071164583" lon="9.347648168801628"><ele>760.0</ele><time>2026-04-26T08:46:25Z</time></trkpt><trkpt lat="44.845090091314475" lon="9.347658318382237"><ele>761.25</ele><time>2026-04-26T08:46:26Z</time></trkpt><trkpt lat="44.844972270549725" lon="9.347663127422441"><ele>762.5</ele><time>2026-04-26T08:46:27Z</time></trkpt><trkpt lat="44.84483112599102" lon="9.347686010419183"><ele>763.75</ele><time>2026-04-26T08:46:28Z</time></trkpt><trkpt lat="44.84468801281829" lon="9.347690072251957"><ele>765.0</ele><time>2026-04-26T08:46:29Z</time></trkpt><trkpt lat="44.84454219074508" lon="9.347699129379063"><ele>765.0</ele><time>2026-04-26T08:46:30Z</time></trkpt><trkpt lat="44.84440673734276" lon="9.347740615144613"><ele>765.0</ele><time>2026-04-26T08:46:31Z</time></trkpt><trkpt lat="44.84429005274878" lon="9.347763776148495"><ele>765.0</ele><time>2026-04-26T08:46:32Z</time></trkpt><trkpt lat="44.84419259619107" lon="9.347786764446784"><ele>765.0</ele><time>2026-04-26T08:46:33Z</time></trkpt><trkpt lat="44.844110994968005" lon="9.34782965150078"><ele>765.0</ele><time>2026-04-26T08:46:34Z</time></trkpt><trkpt lat="44.84404438941533" lon="9.347917360575643"><ele>766.0</ele><time>2026-04-26T08:46:35Z</time></trkpt><trkpt lat="44.843988809404465" lon="9.348009270189204"><ele>767.0</ele><time>2026-04-26T08:46:36Z</time></trkpt><trkpt lat="44.843899710484834" lon="9.348040834439457"><ele>768.0</ele><time>2026-04-26T08:46:37Z</time></trkpt><trkpt lat="44.8437855823455" lon="9.348005446657343"><ele>769.0</ele><time>2026-04-26T08:46:38Z</time></trkpt><trkpt lat="44.84365734305966" lon="9.347950852088339"><ele>770.0</ele><time>2026-04-26T08:46:39Z</time></trkpt><trkpt lat="44.84352346382441" lon="9.347924832861064"><ele>771.2</ele><time>2026-04-26T08:46:40Z</time></trkpt><trkpt lat="44.84339853900468" lon="9.347921268345413"><ele>772.4</ele><time>2026-04-26T08:46:41Z</time></trkpt><trkpt lat="44.84329659911895" lon="9.347925182122646"><ele>773.5999999999999</ele><time>2026-04-26T08:46:41.999Z</time></trkpt><trkpt lat="44.84321939136952" lon="9.347921293364593"><ele>774.8</ele><time>2026-04-26T08:46:42.999Z</time></trkpt><trkpt lat="44.843151271413255" lon="9.347887340148645"><ele>776.0</ele><time>2026-04-26T08:46:43.999Z</time></trkpt><trkpt lat="44.84309214125577" lon="9.347823719469092"><ele>776.0</ele><time>2026-04-26T08:46:44.999Z</time></trkpt><trkpt lat="44.84302881745371" lon="9.347769563339863"><ele>776.0</ele><time>2026-04-26T08:46:45.999Z</time></trkpt><trkpt lat="44.842923638985106" lon="9.347766408620146"><ele>776.0</ele><time>2026-04-26T08:46:46.999Z</time></trkpt><trkpt lat="44.84280091016865" lon="9.347794401677001"><ele>776.0</ele><time>2026-04-26T08:46:47.999Z</time></trkpt><trkpt lat="44.842676890578616" lon="9.347863707989049"><ele>776.0</ele><time>2026-04-26T08:46:48.999Z</time></trkpt><trkpt lat="44.84254879934366" lon="9.347926567903945"><ele>776.75</ele><time>2026-04-26T08:46:49.999Z</time></trkpt><trkpt lat="44.84240850513596" lon="9.347941468791854"><ele>777.5</ele><time>2026-04-26T08:46:50.999Z</time></trkpt><trkpt lat="44.842247021885335" lon="9.347932597727846"><ele>778.25</ele><time>2026-04-26T08:46:51.999Z</time></trkpt><trkpt lat="44.84212611460491" lon="9.34793653431203"><ele>779.0</ele><time>2026-04-26T08:46:52.999Z</time></trkpt><trkpt lat="44.84205383922392" lon="9.347949359816827"><ele>779.0</ele><time>2026-04-26T08:46:53.999Z</time></trkpt><trkpt lat="44.841958885535554" lon="9.347905637845184"><ele>779.0</ele><time>2026-04-26T08:46:55.999Z</time></trkpt><trkpt lat="44.84190267852046" lon="9.347843355874678"><ele>779.0</ele><time>2026-04-26T08:46:56.999Z</time></trkpt><trkpt lat="44.841834029975495" lon="9.347780558375895"><ele>779.0</ele><time>2026-04-26T08:46:57.999Z</time></trkpt><trkpt lat="44.84175102039652" lon="9.347733902155332"><ele>779.0</ele><time>2026-04-26T08:46:58.999Z</time></trkpt><trkpt lat="44.84164333352516" lon="9.347750765950316"><ele>782.0</ele><time>2026-04-26T08:46:59.999Z</time></trkpt><trkpt lat="44.84150114137197" lon="9.347763336013262"><ele>785.0</ele><time>2026-04-26T08:47:00.999Z</time></trkpt><trkpt lat="44.841374550516754" lon="9.347743658692949"><ele>788.0</ele><time>2026-04-26T08:47:01.999Z</time></trkpt><trkpt lat="44.84128327339537" lon="9.347736670553719"><ele>791.0</ele><time>2026-04-26T08:47:02.999Z</time></trkpt><trkpt lat="44.84120052028463" lon="9.347781623261218"><ele>791.0</ele><time>2026-04-26T08:47:03.999Z</time></trkpt><trkpt lat="44.84112173653404" lon="9.347805919001972"><ele>791.0</ele><time>2026-04-26T08:47:04.999Z</time></trkpt><trkpt lat="44.84102798787351" lon="9.347792453860352"><ele>791.0</ele><time>2026-04-26T08:47:05.999Z</time></trkpt><trkpt lat="44.84091971398511" lon="9.347775446555602"><ele>791.0</ele><time>2026-04-26T08:47:06.999Z</time></trkpt><trkpt lat="44.840811190606324" lon="9.347840134587408"><ele>791.0</ele><time>2026-04-26T08:47:07.999Z</time></trkpt><trkpt lat="44.84066221601815" lon="9.347919223365325"><ele>793.0</ele><time>2026-04-26T08:47:08.999Z</time></trkpt><trkpt lat="44.840493843998416" lon="9.347986832371491"><ele>795.0</ele><time>2026-04-26T08:47:09.999Z</time></trkpt><trkpt lat="44.840331474884415" lon="9.348042933555343"><ele>797.0</ele><time>2026-04-26T08:47:10.999Z</time></trkpt><trkpt lat="44.84022125131083" lon="9.348078545670521"><ele>797.4000000000001</ele><time>2026-04-26T08:47:11.999Z</time></trkpt><trkpt lat="44.840153912861474" lon="9.348107627799685"><ele>797.8000000000001</ele><time>2026-04-26T08:47:12.999Z</time></trkpt><trkpt lat="44.84006780924915" lon="9.348209521782023"><ele>798.2</ele><time>2026-04-26T08:47:14.999Z</time></trkpt><trkpt lat="44.83998048349844" lon="9.34829066789366"><ele>798.6</ele><time>2026-04-26T08:47:16.999Z</time></trkpt><trkpt lat="44.83990196963114" lon="9.34833323421892"><ele>799.0</ele><time>2026-04-26T08:47:17.999Z</time></trkpt><trkpt lat="44.83982498071221" lon="9.348404049398361"><ele>800.6</ele><time>2026-04-26T08:47:18.999Z</time></trkpt><trkpt lat="44.83976590105931" lon="9.34847797986154"><ele>802.2</ele><time>2026-04-26T08:47:19.999Z</time></trkpt><trkpt lat="44.839704184484944" lon="9.348526063070134"><ele>803.8000000000001</ele><time>2026-04-26T08:47:20.999Z</time></trkpt><trkpt lat="44.839645341685184" lon="9.348560404303791"><ele>805.4000000000001</ele><time>2026-04-26T08:47:21.999Z</time></trkpt><trkpt lat="44.83954137037763" lon="9.34864204503888"><ele>807.0</ele><time>2026-04-26T08:47:23.999Z</time></trkpt><trkpt lat="44.83942964221789" lon="9.348720183544184"><ele>807.0</ele><time>2026-04-26T08:47:25.998Z</time></trkpt><trkpt lat="44.83932064339949" lon="9.348785874440694"><ele>807.0</ele><time>2026-04-26T08:47:27.998Z</time></trkpt><trkpt lat="44.83922007177886" lon="9.348836163939657"><ele>807.0</ele><time>2026-04-26T08:47:29.998Z</time></trkpt><trkpt lat="44.8391012362255" lon="9.348876259710442"><ele>807.0</ele><time>2026-04-26T08:47:31.998Z</time></trkpt><trkpt lat="44.839035180933784" lon="9.34891133245786"><ele>807.0</ele><time>2026-04-26T08:47:32.998Z</time></trkpt><trkpt lat="44.83895956395058" lon="9.34894375829667"><ele>805.5</ele><time>2026-04-26T08:47:33.998Z</time></trkpt><trkpt lat="44.838883849351255" lon="9.348975947921982"><ele>804.0</ele><time>2026-04-26T08:47:34.998Z</time></trkpt><trkpt lat="44.83881504126496" lon="9.349022552872807"><ele>802.5</ele><time>2026-04-26T08:47:35.998Z</time></trkpt><trkpt lat="44.83874398591404" lon="9.349066017563226"><ele>801.0</ele><time>2026-04-26T08:47:36.998Z</time></trkpt><trkpt lat="44.83867204968293" lon="9.349108970179978"><ele>799.5</ele><time>2026-04-26T08:47:37.998Z</time></trkpt><trkpt lat="44.838596435071956" lon="9.349148083195772"><ele>798.0</ele><time>2026-04-26T08:47:38.998Z</time></trkpt><trkpt lat="44.83853112581726" lon="9.349188010201008"><ele>798.5</ele><time>2026-04-26T08:47:39.998Z</time></trkpt><trkpt lat="44.838467769655225" lon="9.349215822400613"><ele>799.0</ele><time>2026-04-26T08:47:40.998Z</time></trkpt><trkpt lat="44.838400573927295" lon="9.34923889314403"><ele>799.5</ele><time>2026-04-26T08:47:41.998Z</time></trkpt><trkpt lat="44.83832367709856" lon="9.349254576829981"><ele>800.0</ele><time>2026-04-26T08:47:42.998Z</time></trkpt><trkpt lat="44.838242409122216" lon="9.34926407613153"><ele>800.5</ele><time>2026-04-26T08:47:43.998Z</time></trkpt><trkpt lat="44.83815492473295" lon="9.349279502465274"><ele>801.0</ele><time>2026-04-26T08:47:44.998Z</time></trkpt><trkpt lat="44.83805912225134" lon="9.349304204618427"><ele>801.0</ele><time>2026-04-26T08:47:45.998Z</time></trkpt><trkpt lat="44.83797978767119" lon="9.349328867776977"><ele>801.0</ele><time>2026-04-26T08:47:46.998Z</time></trkpt><trkpt lat="44.83791633973315" lon="9.349363155126934"><ele>801.0</ele><time>2026-04-26T08:47:47.998Z</time></trkpt><trkpt lat="44.83785097802412" lon="9.349409256315367"><ele>801.0</ele><time>2026-04-26T08:47:48.998Z</time></trkpt><trkpt lat="44.83777602220345" lon="9.349462002179779"><ele>801.0</ele><time>2026-04-26T08:47:49.998Z</time></trkpt><trkpt lat="44.83769746299813" lon="9.349527523127877"><ele>801.0</ele><time>2026-04-26T08:47:50.998Z</time></trkpt><trkpt lat="44.837621326332" lon="9.349611391903004"><ele>800.8</ele><time>2026-04-26T08:47:51.998Z</time></trkpt><trkpt lat="44.837546803419635" lon="9.349703365418673"><ele>800.5999999999999</ele><time>2026-04-26T08:47:52.998Z</time></trkpt><trkpt lat="44.83747252885099" lon="9.34979852467417"><ele>800.4</ele><time>2026-04-26T08:47:53.998Z</time></trkpt><trkpt lat="44.8373942741675" lon="9.349891118160585"><ele>800.2</ele><time>2026-04-26T08:47:54.998Z</time></trkpt><trkpt lat="44.83731867406986" lon="9.34997655081326"><ele>800.0</ele><time>2026-04-26T08:47:55.998Z</time></trkpt><trkpt lat="44.837253686762196" lon="9.350061330153732"><ele>800.0</ele><time>2026-04-26T08:47:56.998Z</time></trkpt><trkpt lat="44.8371878068006" lon="9.350145820640076"><ele>800.0</ele><time>2026-04-26T08:47:57.998Z</time></trkpt><trkpt lat="44.8371092388445" lon="9.350215704616247"><ele>800.0</ele><time>2026-04-26T08:47:58.998Z</time></trkpt><trkpt lat="44.83703804553615" lon="9.350273944700005"><ele>800.0</ele><time>2026-04-26T08:47:59.998Z</time></trkpt><trkpt lat="44.83694287950572" lon="9.350344725808698"><ele>800.0</ele><time>2026-04-26T08:48:01.998Z</time></trkpt><trkpt lat="44.8368261357328" lon="9.35042009634492"><ele>800.2</ele><time>2026-04-26T08:48:03.998Z</time></trkpt><trkpt lat="44.83675200560475" lon="9.35044615110548"><ele>800.4</ele><time>2026-04-26T08:48:05.998Z</time></trkpt><trkpt lat="44.83671584584471" lon="9.35056547967234"><ele>800.5999999999999</ele><time>2026-04-26T08:48:07.998Z</time></trkpt><trkpt lat="44.83667060479591" lon="9.350741110383545"><ele>800.8</ele><time>2026-04-26T08:48:09.997Z</time></trkpt><trkpt lat="44.83663015280344" lon="9.350832223564606"><ele>801.0</ele><time>2026-04-26T08:48:10.997Z</time></trkpt><trkpt lat="44.836584090607126" lon="9.350930762619374"><ele>801.6666666666666</ele><time>2026-04-26T08:48:11.997Z</time></trkpt><trkpt lat="44.83653803739587" lon="9.35102552038061"><ele>802.3333333333333</ele><time>2026-04-26T08:48:13Z</time></trkpt><trkpt lat="44.83648843908427" lon="9.351106821985967"><ele>803.0</ele><time>2026-04-26T08:48:14Z</time></trkpt><trkpt lat="44.836430396588916" lon="9.351187439269621"><ele>803.6666666666666</ele><time>2026-04-26T08:48:15Z</time></trkpt><trkpt lat="44.83636790010687" lon="9.351267448313276"><ele>804.3333333333333</ele><time>2026-04-26T08:48:16Z</time></trkpt><trkpt lat="44.83630366677416" lon="9.35134654837317"><ele>805.0</ele><time>2026-04-26T08:48:17Z</time></trkpt><trkpt lat="44.83623756690543" lon="9.351416790979702"><ele>804.9999999999999</ele><time>2026-04-26T08:48:18Z</time></trkpt><trkpt lat="44.836175731180404" lon="9.351488688339181"><ele>805.0</ele><time>2026-04-26T08:48:19Z</time></trkpt><trkpt lat="44.83611485881666" lon="9.351549421446634"><ele>805.0</ele><time>2026-04-26T08:48:20Z</time></trkpt><trkpt lat="44.83605085121332" lon="9.351609812315125"><ele>805.0</ele><time>2026-04-26T08:48:21Z</time></trkpt><trkpt lat="44.83598578946913" lon="9.351661975813688"><ele>804.9999999999999</ele><time>2026-04-26T08:48:22Z</time></trkpt><trkpt lat="44.83591945106259" lon="9.351718661695317"><ele>805.0</ele><time>2026-04-26T08:48:23Z</time></trkpt><trkpt lat="44.835846977945685" lon="9.351781686187879"><ele>806.6666666666666</ele><time>2026-04-26T08:48:24Z</time></trkpt><trkpt lat="44.835773729060286" lon="9.351840545811914"><ele>808.3333333333333</ele><time>2026-04-26T08:48:25Z</time></trkpt><trkpt lat="44.83570973042815" lon="9.351899546249758"><ele>810.0</ele><time>2026-04-26T08:48:26Z</time></trkpt><trkpt lat="44.83566053100625" lon="9.351981592648997"><ele>811.6666666666667</ele><time>2026-04-26T08:48:27Z</time></trkpt><trkpt lat="44.835614503211445" lon="9.352072711471155"><ele>813.3333333333334</ele><time>2026-04-26T08:48:28Z</time></trkpt><trkpt lat="44.8355782766642" lon="9.352169664658032"><ele>815.0</ele><time>2026-04-26T08:48:29Z</time></trkpt><trkpt lat="44.83555433277174" lon="9.352259921277604"><ele>815.8</ele><time>2026-04-26T08:48:30Z</time></trkpt><trkpt lat="44.83552078629905" lon="9.352356711543862"><ele>816.6</ele><time>2026-04-26T08:48:31Z</time></trkpt><trkpt lat="44.835489211261" lon="9.352457627360552"><ele>817.4000000000001</ele><time>2026-04-26T08:48:32Z</time></trkpt><trkpt lat="44.835412969473715" lon="9.352573545040691"><ele>818.2</ele><time>2026-04-26T08:48:33Z</time></trkpt><trkpt lat="44.83536706136417" lon="9.352716039203727"><ele>819.0</ele><time>2026-04-26T08:48:34Z</time></trkpt><trkpt lat="44.83530878609701" lon="9.352873524215088"><ele>819.0</ele><time>2026-04-26T08:48:35Z</time></trkpt><trkpt lat="44.835206801753415" lon="9.352998314379693"><ele>819.0</ele><time>2026-04-26T08:48:36Z</time></trkpt><trkpt lat="44.83510893676853" lon="9.35317734763482"><ele>819.0</ele><time>2026-04-26T08:48:37Z</time></trkpt><trkpt lat="44.83500476065584" lon="9.353362477377205"><ele>822.5</ele><time>2026-04-26T08:48:38Z</time></trkpt><trkpt lat="44.83493697000986" lon="9.353525347613333"><ele>826.0</ele><time>2026-04-26T08:48:39Z</time></trkpt><trkpt lat="44.834868105883544" lon="9.353657653366753"><ele>829.5</ele><time>2026-04-26T08:48:40Z</time></trkpt><trkpt lat="44.834799331714116" lon="9.35377746226874"><ele>833.0</ele><time>2026-04-26T08:48:41Z</time></trkpt><trkpt lat="44.83470240884068" lon="9.353852769481144"><ele>834.0</ele><time>2026-04-26T08:48:42Z</time></trkpt><trkpt lat="44.83459977898329" lon="9.353934971599797"><ele>835.0</ele><time>2026-04-26T08:48:43Z</time></trkpt><trkpt lat="44.83450134837073" lon="9.354037102526238"><ele>836.0</ele><time>2026-04-26T08:48:44Z</time></trkpt><trkpt lat="44.83439595870097" lon="9.354103244268773"><ele>837.0</ele><time>2026-04-26T08:48:45Z</time></trkpt><trkpt lat="44.83429398732273" lon="9.354177801578532"><ele>840.25</ele><time>2026-04-26T08:48:46Z</time></trkpt><trkpt lat="44.83419021867516" lon="9.35425881455939"><ele>843.5</ele><time>2026-04-26T08:48:47Z</time></trkpt><trkpt lat="44.834077901030014" lon="9.354310842487275"><ele>846.75</ele><time>2026-04-26T08:48:47.999Z</time></trkpt><trkpt lat="44.83397665488857" lon="9.354398554322103"><ele>850.0</ele><time>2026-04-26T08:48:48.999Z</time></trkpt><trkpt lat="44.83387242202695" lon="9.354465948090205"><ele>850.0</ele><time>2026-04-26T08:48:49.999Z</time></trkpt><trkpt lat="44.83376783567869" lon="9.354534449804682"><ele>850.0</ele><time>2026-04-26T08:48:50.999Z</time></trkpt><trkpt lat="44.833666031363954" lon="9.354601928440728"><ele>850.0</ele><time>2026-04-26T08:48:51.999Z</time></trkpt><trkpt lat="44.833554447006925" lon="9.354647050385099"><ele>850.0</ele><time>2026-04-26T08:48:52.999Z</time></trkpt><trkpt lat="44.83344968221711" lon="9.354711290845"><ele>852.4</ele><time>2026-04-26T08:48:53.999Z</time></trkpt><trkpt lat="44.83335162116609" lon="9.354790391041455"><ele>854.8</ele><time>2026-04-26T08:48:54.999Z</time></trkpt><trkpt lat="44.833250311719844" lon="9.354851861061626"><ele>857.2</ele><time>2026-04-26T08:48:55.999Z</time></trkpt><trkpt lat="44.83315353403939" lon="9.354885044333445"><ele>859.6</ele><time>2026-04-26T08:48:56.999Z</time></trkpt><trkpt lat="44.83306950831479" lon="9.354935494251832"><ele>862.0</ele><time>2026-04-26T08:48:57.999Z</time></trkpt><trkpt lat="44.83299139599124" lon="9.355002248242805"><ele>861.9999999999999</ele><time>2026-04-26T08:48:58.999Z</time></trkpt><trkpt lat="44.83291053774701" lon="9.355035505030392"><ele>862.0</ele><time>2026-04-26T08:48:59.999Z</time></trkpt><trkpt lat="44.832843434494144" lon="9.355052776545543"><ele>862.0</ele><time>2026-04-26T08:49:00.999Z</time></trkpt><trkpt lat="44.832772457005255" lon="9.355012246921746"><ele>862.0</ele><time>2026-04-26T08:49:01.999Z</time></trkpt><trkpt lat="44.832708119733724" lon="9.354928536908822"><ele>861.9999999999999</ele><time>2026-04-26T08:49:02.999Z</time></trkpt><trkpt lat="44.83262820882575" lon="9.35488882884417"><ele>862.0</ele><time>2026-04-26T08:49:03.999Z</time></trkpt><trkpt lat="44.832526554900056" lon="9.354885968299042"><ele>863.8</ele><time>2026-04-26T08:49:04.999Z</time></trkpt><trkpt lat="44.832425214442964" lon="9.354883502284627"><ele>865.6</ele><time>2026-04-26T08:49:05.999Z</time></trkpt><trkpt lat="44.83234204108607" lon="9.354890139553298"><ele>867.3999999999999</ele><time>2026-04-26T08:49:06.999Z</time></trkpt><trkpt lat="44.83224185654563" lon="9.354945466366509"><ele>869.1999999999999</ele><time>2026-04-26T08:49:07.999Z</time></trkpt><trkpt lat="44.83215957140998" lon="9.355025002452642"><ele>871.0</ele><time>2026-04-26T08:49:08.999Z</time></trkpt><trkpt lat="44.83211999160092" lon="9.355114733770774"><ele>870.9999999999999</ele><time>2026-04-26T08:49:09.999Z</time></trkpt><trkpt lat="44.83207177821784" lon="9.355195133044717"><ele>871.0</ele><time>2026-04-26T08:49:10.999Z</time></trkpt><trkpt lat="44.83199505641757" lon="9.355241855841692"><ele>871.0</ele><time>2026-04-26T08:49:11.999Z</time></trkpt><trkpt lat="44.83193568566729" lon="9.355302536242"><ele>871.0</ele><time>2026-04-26T08:49:12.999Z</time></trkpt><trkpt lat="44.83185413565167" lon="9.355280587491137"><ele>870.9999999999999</ele><time>2026-04-26T08:49:39.998Z</time></trkpt><trkpt lat="44.831787378657744" lon="9.355260493782854"><ele>871.0</ele><time>2026-04-26T08:49:40.998Z</time></trkpt><trkpt lat="44.83170772208584" lon="9.355218445297469"><ele>871.8</ele><time>2026-04-26T08:49:41.998Z</time></trkpt><trkpt lat="44.831619633868364" lon="9.355165379970048"><ele>872.5999999999999</ele><time>2026-04-26T08:49:42.998Z</time></trkpt><trkpt lat="44.83152621950716" lon="9.355100387394316"><ele>873.4</ele><time>2026-04-26T08:49:43.998Z</time></trkpt><trkpt lat="44.83144241369895" lon="9.355022886808891"><ele>874.2</ele><time>2026-04-26T08:49:44.998Z</time></trkpt><trkpt lat="44.83136611032231" lon="9.354920515965368"><ele>875.0</ele><time>2026-04-26T08:49:45.998Z</time></trkpt><trkpt lat="44.83129149974777" lon="9.354815301023983"><ele>875.0</ele><time>2026-04-26T08:49:46.998Z</time></trkpt><trkpt lat="44.83121396783003" lon="9.354718616209354"><ele>875.0</ele><time>2026-04-26T08:49:47.998Z</time></trkpt><trkpt lat="44.83112881787661" lon="9.354637321918915"><ele>875.0</ele><time>2026-04-26T08:49:48.998Z</time></trkpt><trkpt lat="44.831042032785604" lon="9.35456582261281"><ele>875.0</ele><time>2026-04-26T08:49:49.998Z</time></trkpt><trkpt lat="44.83096046767759" lon="9.35451489393538"><ele>875.0</ele><time>2026-04-26T08:49:50.998Z</time></trkpt><trkpt lat="44.83089321659151" lon="9.354490764793486"><ele>875.6666666666667</ele><time>2026-04-26T08:49:51.998Z</time></trkpt><trkpt lat="44.83083264578654" lon="9.354438865283212"><ele>876.3333333333334</ele><time>2026-04-26T08:49:52.998Z</time></trkpt><trkpt lat="44.8307669356654" lon="9.354407885565582"><ele>877.0</ele><time>2026-04-26T08:49:53.998Z</time></trkpt><trkpt lat="44.83069392687222" lon="9.35437936529096"><ele>877.6666666666667</ele><time>2026-04-26T08:49:54.998Z</time></trkpt><trkpt lat="44.83062255773704" lon="9.35435340940377"><ele>878.3333333333334</ele><time>2026-04-26T08:49:55.998Z</time></trkpt><trkpt lat="44.83051695620059" lon="9.354315003608662"><ele>879.0</ele><time>2026-04-26T08:49:57.998Z</time></trkpt><trkpt lat="44.830435161477695" lon="9.35428122989302"><ele>879.0</ele><time>2026-04-26T08:49:59.998Z</time></trkpt><trkpt lat="44.83032204865504" lon="9.354222175335469"><ele>879.0000000000001</ele><time>2026-04-26T08:50:01.998Z</time></trkpt><trkpt lat="44.83024172370551" lon="9.354187544722993"><ele>879.0000000000001</ele><time>2026-04-26T08:50:02.998Z</time></trkpt><trkpt lat="44.83015743708158" lon="9.354114574350692"><ele>879.0</ele><time>2026-04-26T08:50:03.998Z</time></trkpt><trkpt lat="44.83006351235446" lon="9.354061449310002"><ele>879.0</ele><time>2026-04-26T08:50:04.998Z</time></trkpt><trkpt lat="44.82996832511162" lon="9.354017863901145"><ele>880.8000000000001</ele><time>2026-04-26T08:50:05.998Z</time></trkpt><trkpt lat="44.829899289589406" lon="9.353959685516639"><ele>882.6000000000001</ele><time>2026-04-26T08:50:06.998Z</time></trkpt><trkpt lat="44.82978267928599" lon="9.35392928819698"><ele>884.4</ele><time>2026-04-26T08:50:08.998Z</time></trkpt><trkpt lat="44.82963875634039" lon="9.353912214462877"><ele>886.2</ele><time>2026-04-26T08:50:10.998Z</time></trkpt><trkpt lat="44.82953612159184" lon="9.35394217741721"><ele>888.0</ele><time>2026-04-26T08:50:11.998Z</time></trkpt><trkpt lat="44.82942163491658" lon="9.353987990051147"><ele>887.0</ele><time>2026-04-26T08:50:12.998Z</time></trkpt><trkpt lat="44.829305128155696" lon="9.354028203207326"><ele>886.0</ele><time>2026-04-26T08:50:13.998Z</time></trkpt><trkpt lat="44.82918200903199" lon="9.354069318149664"><ele>885.0</ele><time>2026-04-26T08:50:14.997Z</time></trkpt><trkpt lat="44.82905714157504" lon="9.354109023710947"><ele>884.0</ele><time>2026-04-26T08:50:15.997Z</time></trkpt><trkpt lat="44.828940304294264" lon="9.35414499682232"><ele>884.0</ele><time>2026-04-26T08:50:16.997Z</time></trkpt><trkpt lat="44.82881801994442" lon="9.35418264892354"><ele>884.0</ele><time>2026-04-26T08:50:17.997Z</time></trkpt><trkpt lat="44.828707580542854" lon="9.354216652175749"><ele>884.0</ele><time>2026-04-26T08:50:19Z</time></trkpt><trkpt lat="44.82858700585569" lon="9.354252600336878"><ele>884.0</ele><time>2026-04-26T08:50:20Z</time></trkpt><trkpt lat="44.82846858704632" lon="9.354305675858841"><ele>882.8000000000001</ele><time>2026-04-26T08:50:21Z</time></trkpt><trkpt lat="44.828359454412826" lon="9.354329043656685"><ele>881.6000000000001</ele><time>2026-04-26T08:50:22Z</time></trkpt><trkpt lat="44.828254068556" lon="9.35433851460595"><ele>880.4</ele><time>2026-04-26T08:50:23Z</time></trkpt><trkpt lat="44.828161638521216" lon="9.35428482293488"><ele>879.2</ele><time>2026-04-26T08:50:24Z</time></trkpt><trkpt lat="44.828066280559874" lon="9.354214254769868"><ele>878.0</ele><time>2026-04-26T08:50:25Z</time></trkpt><trkpt lat="44.82795692344382" lon="9.354115365005313"><ele>878.0</ele><time>2026-04-26T08:50:26Z</time></trkpt><trkpt lat="44.82783664513135" lon="9.35401895528946"><ele>878.0</ele><time>2026-04-26T08:50:27Z</time></trkpt><trkpt lat="44.8277179622881" lon="9.353935988704594"><ele>878.0</ele><time>2026-04-26T08:50:28Z</time></trkpt><trkpt lat="44.827608067006366" lon="9.353867838935011"><ele>878.0</ele><time>2026-04-26T08:50:29Z</time></trkpt><trkpt lat="44.82750078305051" lon="9.353808109620557"><ele>875.5</ele><time>2026-04-26T08:50:30Z</time></trkpt><trkpt lat="44.82739515932675" lon="9.353758449834697"><ele>873.0</ele><time>2026-04-26T08:50:31Z</time></trkpt><trkpt lat="44.82728995372217" lon="9.353716066113556"><ele>870.5</ele><time>2026-04-26T08:50:32Z</time></trkpt><trkpt lat="44.827179517742806" lon="9.353696923637957"><ele>868.0</ele><time>2026-04-26T08:50:33Z</time></trkpt><trkpt lat="44.82706768714683" lon="9.353646080785653"><ele>868.0</ele><time>2026-04-26T08:50:34Z</time></trkpt><trkpt lat="44.82695490262592" lon="9.353600864339665"><ele>868.0</ele><time>2026-04-26T08:50:35Z</time></trkpt><trkpt lat="44.826851180196314" lon="9.353569245884138"><ele>868.0</ele><time>2026-04-26T08:50:36Z</time></trkpt><trkpt lat="44.82675573073718" lon="9.353534256994863"><ele>868.0</ele><time>2026-04-26T08:50:37Z</time></trkpt><trkpt lat="44.82667326861709" lon="9.353488795770769"><ele>868.0</ele><time>2026-04-26T08:50:38Z</time></trkpt><trkpt lat="44.82659353268659" lon="9.3534190055714"><ele>867.8</ele><time>2026-04-26T08:50:39Z</time></trkpt><trkpt lat="44.82653117379173" lon="9.353296504481337"><ele>867.5999999999999</ele><time>2026-04-26T08:50:40Z</time></trkpt><trkpt lat="44.82644993052872" lon="9.353203594958408"><ele>867.4000000000001</ele><time>2026-04-26T08:50:41Z</time></trkpt><trkpt lat="44.82637616561097" lon="9.35309763110291"><ele>867.2</ele><time>2026-04-26T08:50:42Z</time></trkpt><trkpt lat="44.82627312197511" lon="9.353012236941279"><ele>867.0</ele><time>2026-04-26T08:50:43Z</time></trkpt><trkpt lat="44.82616002879281" lon="9.35296303750461"><ele>867.0</ele><time>2026-04-26T08:50:44Z</time></trkpt><trkpt lat="44.82607794721221" lon="9.352890332808807"><ele>867.0</ele><time>2026-04-26T08:50:45Z</time></trkpt><trkpt lat="44.82599074012258" lon="9.35284192176275"><ele>867.0</ele><time>2026-04-26T08:50:46Z</time></trkpt><trkpt lat="44.82588984971196" lon="9.352811463261173"><ele>867.0</ele><time>2026-04-26T08:50:47Z</time></trkpt><trkpt lat="44.82581869624642" lon="9.352771533039869"><ele>867.0</ele><time>2026-04-26T08:50:48Z</time></trkpt><trkpt lat="44.825713087515695" lon="9.352695356795666"><ele>868.8</ele><time>2026-04-26T08:50:50Z</time></trkpt><trkpt lat="44.82562879546838" lon="9.352638742728644"><ele>870.6</ele><time>2026-04-26T08:50:52Z</time></trkpt><trkpt lat="44.8255556046482" lon="9.352605268638797"><ele>872.3999999999999</ele><time>2026-04-26T08:50:55.999Z</time></trkpt><trkpt lat="44.82547525898108" lon="9.352783946939502"><ele>874.1999999999999</ele><time>2026-04-26T08:51:01.999Z</time></trkpt><trkpt lat="44.82539258690442" lon="9.352822413540698"><ele>876.0</ele><time>2026-04-26T08:52:16.998Z</time></trkpt><trkpt lat="44.82545607859934" lon="9.352815139290193"><ele>876.0</ele><time>2026-04-26T08:53:15.999Z</time></trkpt><trkpt lat="44.82543186014738" lon="9.352701924358383"><ele>876.0</ele><time>2026-04-26T09:21:58Z</time></trkpt><trkpt lat="44.825479815283856" lon="9.352767709884386"><ele>876.0</ele><time>2026-04-26T09:22:46.999Z</time></trkpt><trkpt lat="44.82556569837897" lon="9.352779627553446"><ele>876.0</ele><time>2026-04-26T09:23:01.999Z</time></trkpt><trkpt lat="44.82562596232617" lon="9.352850661633646"><ele>876.0</ele><time>2026-04-26T09:23:03.999Z</time></trkpt><trkpt lat="44.8256758501993" lon="9.352911277647177"><ele>876.0</ele><time>2026-04-26T09:23:04.999Z</time></trkpt><trkpt lat="44.825746190896126" lon="9.353073325886378"><ele>876.8</ele><time>2026-04-26T09:23:06.999Z</time></trkpt><trkpt lat="44.825791941104164" lon="9.35317471920348"><ele>877.5999999999999</ele><time>2026-04-26T09:23:07.999Z</time></trkpt><trkpt lat="44.825857601874326" lon="9.35327593884762"><ele>878.4</ele><time>2026-04-26T09:23:08.999Z</time></trkpt><trkpt lat="44.82596094444162" lon="9.353379798244436"><ele>879.2</ele><time>2026-04-26T09:23:09.999Z</time></trkpt><trkpt lat="44.82604184416453" lon="9.353429825983499"><ele>880.0</ele><time>2026-04-26T09:23:10.999Z</time></trkpt><trkpt lat="44.82611467073446" lon="9.35348961165592"><ele>880.0</ele><time>2026-04-26T09:23:11.999Z</time></trkpt><trkpt lat="44.82614386641375" lon="9.35357755222555"><ele>880.0</ele><time>2026-04-26T09:23:12.999Z</time></trkpt><trkpt lat="44.826116684700395" lon="9.353662841188214"><ele>880.0</ele><time>2026-04-26T09:23:13.999Z</time></trkpt><trkpt lat="44.82612894598495" lon="9.353873659642943"><ele>880.0</ele><time>2026-04-26T09:23:15.998Z</time></trkpt><trkpt lat="44.826184581807595" lon="9.35401667981187"><ele>880.0</ele><time>2026-04-26T09:23:16.998Z</time></trkpt><trkpt lat="44.82623426532685" lon="9.354088902657828"><ele>882.2</ele><time>2026-04-26T09:23:17.998Z</time></trkpt><trkpt lat="44.82623749611698" lon="9.354192212698205"><ele>884.4</ele><time>2026-04-26T09:23:18.998Z</time></trkpt><trkpt lat="44.82619535472437" lon="9.354342486961169"><ele>886.5999999999999</ele><time>2026-04-26T09:23:20.998Z</time></trkpt><trkpt lat="44.82618787609913" lon="9.354474467220205"><ele>888.8</ele><time>2026-04-26T09:23:21.998Z</time></trkpt><trkpt lat="44.82617760720408" lon="9.354602060106222"><ele>891.0</ele><time>2026-04-26T09:23:22.998Z</time></trkpt><trkpt lat="44.826182395346464" lon="9.35474627154757"><ele>893.0</ele><time>2026-04-26T09:23:23.998Z</time></trkpt><trkpt lat="44.82615704750994" lon="9.354860536913362"><ele>894.9999999999999</ele><time>2026-04-26T09:23:24.998Z</time></trkpt><trkpt lat="44.826100069027824" lon="9.35499216176839"><ele>896.9999999999999</ele><time>2026-04-26T09:23:25.998Z</time></trkpt><trkpt lat="44.8260492087768" lon="9.355086772634536"><ele>899.0</ele><time>2026-04-26T09:23:26.998Z</time></trkpt><trkpt lat="44.82597786885082" lon="9.355138144389533"><ele>901.0</ele><time>2026-04-26T09:23:28.998Z</time></trkpt><trkpt lat="44.825980778481586" lon="9.355275624509755"><ele>901.0</ele><time>2026-04-26T09:23:30.998Z</time></trkpt><trkpt lat="44.825998046496736" lon="9.355434794055052"><ele>900.9999999999999</ele><time>2026-04-26T09:23:32.998Z</time></trkpt><trkpt lat="44.82598250537991" lon="9.355572666063896"><ele>900.9999999999999</ele><time>2026-04-26T09:23:33.998Z</time></trkpt><trkpt lat="44.825987980624156" lon="9.355718428665968"><ele>901.0</ele><time>2026-04-26T09:23:34.998Z</time></trkpt><trkpt lat="44.826013315940685" lon="9.35581983309483"><ele>901.0</ele><time>2026-04-26T09:23:35.998Z</time></trkpt><trkpt lat="44.82604989492499" lon="9.355997934745927"><ele>903.4999999999999</ele><time>2026-04-26T09:23:37.998Z</time></trkpt><trkpt lat="44.826052138354115" lon="9.35608683420451"><ele>906.0</ele><time>2026-04-26T09:23:38.998Z</time></trkpt><trkpt lat="44.825992456947574" lon="9.356226092323737"><ele>908.5</ele><time>2026-04-26T09:23:40.998Z</time></trkpt><trkpt lat="44.82593410886657" lon="9.356365982104863"><ele>911.0</ele><time>2026-04-26T09:23:42.998Z</time></trkpt><trkpt lat="44.82590207437456" lon="9.356443444860306"><ele>913.4999999999999</ele><time>2026-04-26T09:23:43.998Z</time></trkpt><trkpt lat="44.825876396030466" lon="9.356536703165661"><ele>916.0</ele><time>2026-04-26T09:23:44.998Z</time></trkpt><trkpt lat="44.825875714491424" lon="9.35670079907429"><ele>919.1999999999999</ele><time>2026-04-26T09:23:46.998Z</time></trkpt><trkpt lat="44.82597393209944" lon="9.356752781273888"><ele>922.3999999999999</ele><time>2026-04-26T09:23:48.998Z</time></trkpt><trkpt lat="44.82603655849158" lon="9.356780980142618"><ele>925.6</ele><time>2026-04-26T09:23:53.998Z</time></trkpt><trkpt lat="44.82613486147884" lon="9.356707665968303"><ele>928.8</ele><time>2026-04-26T09:23:57Z</time></trkpt><trkpt lat="44.8262157726976" lon="9.356660837178953"><ele>932.0</ele><time>2026-04-26T09:23:58Z</time></trkpt><trkpt lat="44.826324858345714" lon="9.356656074702574"><ele>932.0</ele><time>2026-04-26T09:24:00Z</time></trkpt><trkpt lat="44.82643637507968" lon="9.356650133431486"><ele>932.0</ele><time>2026-04-26T09:24:03Z</time></trkpt><trkpt lat="44.826585553081486" lon="9.356621030409453"><ele>932.0</ele><time>2026-04-26T09:24:05Z</time></trkpt><trkpt lat="44.826655893290756" lon="9.356649436758637"><ele>932.0</ele><time>2026-04-26T09:24:07Z</time></trkpt><trkpt lat="44.826729189597096" lon="9.356614961615113"><ele>932.0</ele><time>2026-04-26T09:24:09Z</time></trkpt><trkpt lat="44.82684457001417" lon="9.356562121788754"><ele>930.4000000000001</ele><time>2026-04-26T09:24:11Z</time></trkpt><trkpt lat="44.82695368186304" lon="9.356490596243928"><ele>928.8000000000001</ele><time>2026-04-26T09:24:13Z</time></trkpt><trkpt lat="44.827050282006404" lon="9.356482424079678"><ele>927.2</ele><time>2026-04-26T09:24:15Z</time></trkpt><trkpt lat="44.82709742054098" lon="9.356552921547191"><ele>925.6</ele><time>2026-04-26T09:24:17Z</time></trkpt><trkpt lat="44.827142287340635" lon="9.356658499938087"><ele>924.0</ele><time>2026-04-26T09:24:19Z</time></trkpt><trkpt lat="44.82720887567819" lon="9.35678561641447"><ele>924.0</ele><time>2026-04-26T09:24:21Z</time></trkpt><trkpt lat="44.82732128416568" lon="9.356849689974537"><ele>924.0000000000001</ele><time>2026-04-26T09:24:23Z</time></trkpt><trkpt lat="44.82741328174012" lon="9.356788787525458"><ele>924.0000000000001</ele><time>2026-04-26T09:24:25Z</time></trkpt><trkpt lat="44.827475222276206" lon="9.35676950393583"><ele>924.0</ele><time>2026-04-26T09:24:28Z</time></trkpt><trkpt lat="44.82758516754217" lon="9.356795730554081"><ele>924.0</ele><time>2026-04-26T09:24:31Z</time></trkpt><trkpt lat="44.827666377051955" lon="9.356736738696256"><ele>923.2</ele><time>2026-04-26T09:24:34Z</time></trkpt><trkpt lat="44.82773194863374" lon="9.35671573950973"><ele>922.4000000000001</ele><time>2026-04-26T09:24:35.999Z</time></trkpt><trkpt lat="44.82779769722639" lon="9.356657088106731"><ele>921.6</ele><time>2026-04-26T09:24:37.999Z</time></trkpt><trkpt lat="44.827870461312315" lon="9.356616829060059"><ele>920.8</ele><time>2026-04-26T09:24:38.999Z</time></trkpt><trkpt lat="44.827936648309496" lon="9.356590770291755"><ele>920.0</ele><time>2026-04-26T09:24:41.999Z</time></trkpt><trkpt lat="44.82841705089838" lon="9.35609714272716"><ele>918.3333333333334</ele><time>2026-04-26T09:24:43.999Z</time></trkpt><trkpt lat="44.828481965922606" lon="9.356071619665213"><ele>916.6666666666667</ele><time>2026-04-26T09:24:44.999Z</time></trkpt><trkpt lat="44.82859050863205" lon="9.35606027728863"><ele>915.0</ele><time>2026-04-26T09:24:46.999Z</time></trkpt><trkpt lat="44.8286769724656" lon="9.35601386252627"><ele>913.3333333333333</ele><time>2026-04-26T09:24:48.999Z</time></trkpt><trkpt lat="44.82874757918572" lon="9.356011365264907"><ele>911.6666666666666</ele><time>2026-04-26T09:24:49.999Z</time></trkpt><trkpt lat="44.82882693304613" lon="9.356010778220611"><ele>910.0</ele><time>2026-04-26T09:24:50.999Z</time></trkpt><trkpt lat="44.82892991054902" lon="9.355982861588442"><ele>910.0</ele><time>2026-04-26T09:24:52.999Z</time></trkpt><trkpt lat="44.829033811970035" lon="9.355915417644242"><ele>910.0</ele><time>2026-04-26T09:24:54.999Z</time></trkpt><trkpt lat="44.829116531166974" lon="9.3558844499403"><ele>910.0</ele><time>2026-04-26T09:24:56.999Z</time></trkpt><trkpt lat="44.82919629414639" lon="9.355850964916408"><ele>910.0</ele><time>2026-04-26T09:24:58.999Z</time></trkpt><trkpt lat="44.829280171852545" lon="9.355765522273781"><ele>910.0</ele><time>2026-04-26T09:25:00.999Z</time></trkpt><trkpt lat="44.82934229139148" lon="9.355724385021484"><ele>909.3333333333333</ele><time>2026-04-26T09:25:01.999Z</time></trkpt><trkpt lat="44.8293823892236" lon="9.355648254453794"><ele>908.6666666666666</ele><time>2026-04-26T09:25:02.999Z</time></trkpt><trkpt lat="44.82943217146844" lon="9.355518040676921"><ele>908.0</ele><time>2026-04-26T09:25:04.999Z</time></trkpt><trkpt lat="44.829462557305256" lon="9.355364000624087"><ele>907.3333333333333</ele><time>2026-04-26T09:25:06.999Z</time></trkpt><trkpt lat="44.82952182216322" lon="9.355295704903345"><ele>906.6666666666666</ele><time>2026-04-26T09:25:07.999Z</time></trkpt><trkpt lat="44.82957334415742" lon="9.355233564520582"><ele>906.0</ele><time>2026-04-26T09:25:08.999Z</time></trkpt><trkpt lat="44.829680637097944" lon="9.355179481215941"><ele>905.1666666666666</ele><time>2026-04-26T09:25:10.999Z</time></trkpt><trkpt lat="44.829752707899644" lon="9.35521265744056"><ele>904.3333333333333</ele><time>2026-04-26T09:25:11.999Z</time></trkpt><trkpt lat="44.82982198125866" lon="9.355266362710331"><ele>903.5</ele><time>2026-04-26T09:25:12.999Z</time></trkpt><trkpt lat="44.829883997637516" lon="9.35531339512285"><ele>902.6666666666666</ele><time>2026-04-26T09:25:13.999Z</time></trkpt><trkpt lat="44.82997202153747" lon="9.355396386806227"><ele>901.8333333333333</ele><time>2026-04-26T09:25:15.999Z</time></trkpt><trkpt lat="44.83003118384879" lon="9.355431166618175"><ele>901.0</ele><time>2026-04-26T09:25:17.998Z</time></trkpt><trkpt lat="44.830101645605744" lon="9.355463858462079"><ele>898.6666666666666</ele><time>2026-04-26T09:25:21.998Z</time></trkpt><trkpt lat="44.83017974181785" lon="9.355504517464214"><ele>896.3333333333333</ele><time>2026-04-26T09:25:35.998Z</time></trkpt><trkpt lat="44.830244547549704" lon="9.355586568283462"><ele>894.0</ele><time>2026-04-26T09:25:39.998Z</time></trkpt><trkpt lat="44.8302979368186" lon="9.355638657147905"><ele>891.6666666666667</ele><time>2026-04-26T09:25:41.998Z</time></trkpt><trkpt lat="44.83038378504284" lon="9.355712566936724"><ele>889.3333333333334</ele><time>2026-04-26T09:25:43.998Z</time></trkpt><trkpt lat="44.830459043140124" lon="9.355774818516204"><ele>887.0</ele><time>2026-04-26T09:25:45.998Z</time></trkpt><trkpt lat="44.83054577879928" lon="9.355786130384889"><ele>887.0</ele><time>2026-04-26T09:25:47.998Z</time></trkpt><trkpt lat="44.8306332894573" lon="9.35577155323569"><ele>887.0</ele><time>2026-04-26T09:25:49.998Z</time></trkpt><trkpt lat="44.83072671568152" lon="9.355721592499956"><ele>887.0</ele><time>2026-04-26T09:25:51.998Z</time></trkpt><trkpt lat="44.83084752144448" lon="9.355698580972415"><ele>887.0</ele><time>2026-04-26T09:25:53.998Z</time></trkpt><trkpt lat="44.83092036699813" lon="9.355723389029423"><ele>887.0</ele><time>2026-04-26T09:25:54.998Z</time></trkpt><trkpt lat="44.83101125996582" lon="9.355788975251167"><ele>884.4000000000001</ele><time>2026-04-26T09:25:56.998Z</time></trkpt><trkpt lat="44.83110707210578" lon="9.355851338325634"><ele>881.8000000000001</ele><time>2026-04-26T09:25:58.998Z</time></trkpt><trkpt lat="44.83118474226415" lon="9.355927527024319"><ele>879.2</ele><time>2026-04-26T09:26:01Z</time></trkpt><trkpt lat="44.831262003755235" lon="9.355870461762391"><ele>876.6</ele><time>2026-04-26T09:26:03Z</time></trkpt><trkpt lat="44.831363313002576" lon="9.355821900169916"><ele>874.0</ele><time>2026-04-26T09:26:05Z</time></trkpt><trkpt lat="44.83142641239176" lon="9.355816515231"><ele>874.0</ele><time>2026-04-26T09:26:06Z</time></trkpt><trkpt lat="44.8315242375732" lon="9.355735977384189"><ele>874.0000000000001</ele><time>2026-04-26T09:26:08Z</time></trkpt><trkpt lat="44.83156787063985" lon="9.355659966471014"><ele>874.0000000000001</ele><time>2026-04-26T09:26:09Z</time></trkpt><trkpt lat="44.83162936497697" lon="9.35557175047785"><ele>874.0</ele><time>2026-04-26T09:26:10Z</time></trkpt><trkpt lat="44.83169227752655" lon="9.355499266302488"><ele>874.0</ele><time>2026-04-26T09:26:11Z</time></trkpt><trkpt lat="44.83180067075623" lon="9.355401589808794"><ele>873.4000000000001</ele><time>2026-04-26T09:26:13Z</time></trkpt><trkpt lat="44.83190475687312" lon="9.355368078330523"><ele>872.8000000000001</ele><time>2026-04-26T09:26:15Z</time></trkpt><trkpt lat="44.831990026557385" lon="9.355371210840836"><ele>872.1999999999999</ele><time>2026-04-26T09:26:24Z</time></trkpt><trkpt lat="44.83210286577592" lon="9.355349780683747"><ele>871.5999999999999</ele><time>2026-04-26T09:26:26Z</time></trkpt><trkpt lat="44.83218100315108" lon="9.35529626131794"><ele>871.0</ele><time>2026-04-26T09:26:28Z</time></trkpt><trkpt lat="44.83226975917365" lon="9.355658511229304"><ele>869.0</ele><time>2026-04-26T09:26:30Z</time></trkpt><trkpt lat="44.83233087104328" lon="9.355774071749067"><ele>866.9999999999999</ele><time>2026-04-26T09:26:32Z</time></trkpt><trkpt lat="44.83241098823322" lon="9.35586219280546"><ele>864.9999999999999</ele><time>2026-04-26T09:26:34Z</time></trkpt><trkpt lat="44.83247111303853" lon="9.355924284928752"><ele>863.0</ele><time>2026-04-26T09:26:36Z</time></trkpt><trkpt lat="44.832492545394686" lon="9.356017248821823"><ele>861.0</ele><time>2026-04-26T09:26:41.999Z</time></trkpt><trkpt lat="44.8324144285967" lon="9.356114239556836"><ele>861.0</ele><time>2026-04-26T09:26:43.999Z</time></trkpt><trkpt lat="44.83236850769199" lon="9.356190488483946"><ele>860.9999999999999</ele><time>2026-04-26T09:26:45.999Z</time></trkpt><trkpt lat="44.83231983697601" lon="9.356282897837838"><ele>860.9999999999999</ele><time>2026-04-26T09:26:47.999Z</time></trkpt><trkpt lat="44.832340689696906" lon="9.356408552593585"><ele>861.0</ele><time>2026-04-26T09:26:49.999Z</time></trkpt><trkpt lat="44.83237550567295" lon="9.356586671806186"><ele>861.0</ele><time>2026-04-26T09:26:51.999Z</time></trkpt><trkpt lat="44.83236406375011" lon="9.356706722871628"><ele>858.6666666666666</ele><time>2026-04-26T09:26:52.999Z</time></trkpt><trkpt lat="44.832354389122564" lon="9.356802753199213"><ele>856.3333333333333</ele><time>2026-04-26T09:26:53.999Z</time></trkpt><trkpt lat="44.832339871218146" lon="9.356932494345514"><ele>854.0</ele><time>2026-04-26T09:26:55.999Z</time></trkpt><trkpt lat="44.83229865973335" lon="9.357048242555473"><ele>851.6666666666666</ele><time>2026-04-26T09:26:57.999Z</time></trkpt><trkpt lat="44.83226759260091" lon="9.357136103054069"><ele>849.3333333333333</ele><time>2026-04-26T09:26:58.999Z</time></trkpt><trkpt lat="44.83224673436763" lon="9.357220201606173"><ele>847.0</ele><time>2026-04-26T09:27:00.999Z</time></trkpt><trkpt lat="44.83229590377728" lon="9.357360547218127"><ele>845.5</ele><time>2026-04-26T09:27:03.999Z</time></trkpt><trkpt lat="44.83238062387912" lon="9.357457752544802"><ele>844.0</ele><time>2026-04-26T09:27:05.999Z</time></trkpt><trkpt lat="44.832496882476" lon="9.35752992110563"><ele>842.5</ele><time>2026-04-26T09:27:08.999Z</time></trkpt><trkpt lat="44.83261369988146" lon="9.357588880032377"><ele>841.0</ele><time>2026-04-26T09:27:10.999Z</time></trkpt><trkpt lat="44.83271562476349" lon="9.35763318343672"><ele>838.3333333333333</ele><time>2026-04-26T09:27:12.999Z</time></trkpt><trkpt lat="44.83278653451341" lon="9.357659346503507"><ele>835.6666666666666</ele><time>2026-04-26T09:27:15.999Z</time></trkpt><trkpt lat="44.832892529179595" lon="9.357688118091689"><ele>833.0</ele><time>2026-04-26T09:27:18.999Z</time></trkpt><trkpt lat="44.83295891186024" lon="9.357727053146334"><ele>830.3333333333333</ele><time>2026-04-26T09:27:20.999Z</time></trkpt><trkpt lat="44.83303202363136" lon="9.35771804815693"><ele>827.6666666666666</ele><time>2026-04-26T09:27:22.998Z</time></trkpt><trkpt lat="44.8330973743897" lon="9.357797896311451"><ele>825.0</ele><time>2026-04-26T09:27:25.998Z</time></trkpt><trkpt lat="44.833141207865374" lon="9.357874295638577"><ele>825.0</ele><time>2026-04-26T09:27:26.998Z</time></trkpt><trkpt lat="44.83322054142936" lon="9.357976805162947"><ele>825.0</ele><time>2026-04-26T09:27:27.998Z</time></trkpt><trkpt lat="44.83327802015465" lon="9.358040040365555"><ele>825.0</ele><time>2026-04-26T09:27:28.998Z</time></trkpt><trkpt lat="44.833351126638526" lon="9.358072988232198"><ele>825.0</ele><time>2026-04-26T09:27:29.998Z</time></trkpt><trkpt lat="44.833420492628726" lon="9.358114827255026"><ele>825.0</ele><time>2026-04-26T09:27:30.998Z</time></trkpt><trkpt lat="44.83347562467547" lon="9.35818204345285"><ele>825.0</ele><time>2026-04-26T09:27:31.998Z</time></trkpt><trkpt lat="44.833509664796374" lon="9.358290781381637"><ele>821.8333333333334</ele><time>2026-04-26T09:27:32.998Z</time></trkpt><trkpt lat="44.83354100187769" lon="9.358411661688663"><ele>818.6666666666667</ele><time>2026-04-26T09:27:33.998Z</time></trkpt><trkpt lat="44.83357690136956" lon="9.35852971510763"><ele>815.5</ele><time>2026-04-26T09:27:34.998Z</time></trkpt><trkpt lat="44.83362179887388" lon="9.35862661830803"><ele>812.3333333333334</ele><time>2026-04-26T09:27:35.998Z</time></trkpt><trkpt lat="44.83367968813499" lon="9.35871759708703"><ele>809.1666666666667</ele><time>2026-04-26T09:27:36.998Z</time></trkpt><trkpt lat="44.83375243996019" lon="9.358805368696746"><ele>806.0</ele><time>2026-04-26T09:27:37.998Z</time></trkpt><trkpt lat="44.833841776625164" lon="9.358904770572288"><ele>804.8</ele><time>2026-04-26T09:27:38.998Z</time></trkpt><trkpt lat="44.83392703483713" lon="9.35899804766191"><ele>803.5999999999999</ele><time>2026-04-26T09:27:39.998Z</time></trkpt><trkpt lat="44.834018054773765" lon="9.359096341536047"><ele>802.4</ele><time>2026-04-26T09:27:40.998Z</time></trkpt><trkpt lat="44.83409569375512" lon="9.359184918198453"><ele>801.2</ele><time>2026-04-26T09:27:41.998Z</time></trkpt><trkpt lat="44.83416074585625" lon="9.359274839715031"><ele>800.0</ele><time>2026-04-26T09:27:42.998Z</time></trkpt><trkpt lat="44.834226155106364" lon="9.359362302942696"><ele>800.0000000000001</ele><time>2026-04-26T09:27:43.998Z</time></trkpt><trkpt lat="44.83429226995097" lon="9.359448265134688"><ele>800.0</ele><time>2026-04-26T09:27:44.998Z</time></trkpt><trkpt lat="44.834352043370984" lon="9.359523081544877"><ele>800.0</ele><time>2026-04-26T09:27:45.998Z</time></trkpt><trkpt lat="44.834409222257364" lon="9.359585176165483"><ele>800.0</ele><time>2026-04-26T09:27:46.998Z</time></trkpt><trkpt lat="44.83447320487286" lon="9.35962863651259"><ele>800.0000000000001</ele><time>2026-04-26T09:27:47.998Z</time></trkpt><trkpt lat="44.83454388001549" lon="9.359653862448575"><ele>800.0</ele><time>2026-04-26T09:27:48.998Z</time></trkpt><trkpt lat="44.834606403589504" lon="9.35970580775315"><ele>796.0000000000001</ele><time>2026-04-26T09:27:49.998Z</time></trkpt><trkpt lat="44.83467159535142" lon="9.359780276265372"><ele>792.0</ele><time>2026-04-26T09:27:50.998Z</time></trkpt><trkpt lat="44.83472844285056" lon="9.359859934494674"><ele>788.0</ele><time>2026-04-26T09:27:51.998Z</time></trkpt><trkpt lat="44.83478743114413" lon="9.35993934442809"><ele>784.0</ele><time>2026-04-26T09:27:52.998Z</time></trkpt><trkpt lat="44.834854501661404" lon="9.360014251670446"><ele>780.0000000000001</ele><time>2026-04-26T09:27:53.998Z</time></trkpt><trkpt lat="44.83492524250816" lon="9.360090685012567"><ele>776.0</ele><time>2026-04-26T09:27:54.998Z</time></trkpt><trkpt lat="44.834985695321386" lon="9.360154037320214"><ele>776.0</ele><time>2026-04-26T09:27:55.998Z</time></trkpt><trkpt lat="44.83503556458923" lon="9.360214350186212"><ele>776.0</ele><time>2026-04-26T09:27:56.998Z</time></trkpt><trkpt lat="44.835072924759324" lon="9.360289545957487"><ele>776.0</ele><time>2026-04-26T09:27:57.998Z</time></trkpt><trkpt lat="44.83510325482016" lon="9.360380090301888"><ele>776.0</ele><time>2026-04-26T09:27:58.998Z</time></trkpt><trkpt lat="44.83513271864841" lon="9.360474161417748"><ele>776.0</ele><time>2026-04-26T09:27:59.998Z</time></trkpt><trkpt lat="44.83517645363535" lon="9.360553726282467"><ele>776.0</ele><time>2026-04-26T09:28:00.998Z</time></trkpt><trkpt lat="44.83523145299903" lon="9.36061232539819"><ele>776.0</ele><time>2026-04-26T09:28:01.998Z</time></trkpt><trkpt lat="44.83530477955122" lon="9.360659647554241"><ele>772.1666666666667</ele><time>2026-04-26T09:28:02.998Z</time></trkpt><trkpt lat="44.83537918515865" lon="9.360697190319126"><ele>768.3333333333334</ele><time>2026-04-26T09:28:03.998Z</time></trkpt><trkpt lat="44.83546271190412" lon="9.360732978009024"><ele>764.5</ele><time>2026-04-26T09:28:04.997Z</time></trkpt><trkpt lat="44.83554592877869" lon="9.360778390462357"><ele>760.6666666666667</ele><time>2026-04-26T09:28:05.997Z</time></trkpt><trkpt lat="44.835620125449246" lon="9.360837744636372"><ele>756.8333333333334</ele><time>2026-04-26T09:28:07Z</time></trkpt><trkpt lat="44.83568595991414" lon="9.36089788839751"><ele>753.0</ele><time>2026-04-26T09:28:08Z</time></trkpt><trkpt lat="44.835746000731476" lon="9.360949276915147"><ele>753.0</ele><time>2026-04-26T09:28:09Z</time></trkpt><trkpt lat="44.83580993473747" lon="9.361002473426863"><ele>753.0</ele><time>2026-04-26T09:28:10Z</time></trkpt><trkpt lat="44.83588155662518" lon="9.361054449402507"><ele>753.0</ele><time>2026-04-26T09:28:11Z</time></trkpt><trkpt lat="44.835947097284794" lon="9.361106999156641"><ele>753.0</ele><time>2026-04-26T09:28:12Z</time></trkpt><trkpt lat="44.83600275077825" lon="9.361172114779285"><ele>753.0</ele><time>2026-04-26T09:28:13Z</time></trkpt><trkpt lat="44.83605831828171" lon="9.361238178816594"><ele>753.0</ele><time>2026-04-26T09:28:14Z</time></trkpt><trkpt lat="44.83611780383569" lon="9.361286531947808"><ele>753.0</ele><time>2026-04-26T09:28:15Z</time></trkpt><trkpt lat="44.836176788708066" lon="9.361325187946369"><ele>751.3333333333334</ele><time>2026-04-26T09:28:16Z</time></trkpt><trkpt lat="44.83623754920644" lon="9.361360849000468"><ele>749.6666666666666</ele><time>2026-04-26T09:28:17Z</time></trkpt><trkpt lat="44.83630026670318" lon="9.361413434771496"><ele>748.0</ele><time>2026-04-26T09:28:18Z</time></trkpt><trkpt lat="44.83636572564074" lon="9.361475116362424"><ele>746.3333333333333</ele><time>2026-04-26T09:28:19Z</time></trkpt><trkpt lat="44.83642453637022" lon="9.361514796889999"><ele>744.6666666666666</ele><time>2026-04-26T09:28:20Z</time></trkpt><trkpt lat="44.83651975269712" lon="9.361636710861378"><ele>743.0</ele><time>2026-04-26T09:28:22Z</time></trkpt><trkpt lat="44.836565813460744" lon="9.361712771563479"><ele>740.8</ele><time>2026-04-26T09:28:23Z</time></trkpt><trkpt lat="44.83661603365635" lon="9.361778480860117"><ele>738.5999999999999</ele><time>2026-04-26T09:28:24Z</time></trkpt><trkpt lat="44.83669381891236" lon="9.361887244867926"><ele>736.4000000000001</ele><time>2026-04-26T09:28:26Z</time></trkpt><trkpt lat="44.836692724793174" lon="9.362036930059979"><ele>734.2</ele><time>2026-04-26T09:28:28Z</time></trkpt><trkpt lat="44.836680162462095" lon="9.36215780627647"><ele>732.0</ele><time>2026-04-26T09:28:30Z</time></trkpt><trkpt lat="44.83677081431919" lon="9.362288029252133"><ele>729.0</ele><time>2026-04-26T09:28:32Z</time></trkpt><trkpt lat="44.83683720799523" lon="9.362348367670043"><ele>726.0</ele><time>2026-04-26T09:28:33Z</time></trkpt><trkpt lat="44.836895082477795" lon="9.362403362203763"><ele>723.0</ele><time>2026-04-26T09:28:34Z</time></trkpt><trkpt lat="44.83699738457404" lon="9.362505951308298"><ele>720.0</ele><time>2026-04-26T09:28:36Z</time></trkpt><trkpt lat="44.8370696574011" lon="9.362644977199011"><ele>717.0</ele><time>2026-04-26T09:28:38Z</time></trkpt><trkpt lat="44.837071987803824" lon="9.362802336413315"><ele>717.0</ele><time>2026-04-26T09:28:40Z</time></trkpt><trkpt lat="44.83704459579993" lon="9.362885717540967"><ele>717.0</ele><time>2026-04-26T09:28:41Z</time></trkpt><trkpt lat="44.837023308828975" lon="9.362979533900983"><ele>717.0</ele><time>2026-04-26T09:28:42Z</time></trkpt><trkpt lat="44.83702149824371" lon="9.36308277227297"><ele>717.0</ele><time>2026-04-26T09:28:42.999Z</time></trkpt><trkpt lat="44.837051779945426" lon="9.363251891833288"><ele>717.0</ele><time>2026-04-26T09:28:44.999Z</time></trkpt><trkpt lat="44.837044332890585" lon="9.3633469219155"><ele>717.0</ele><time>2026-04-26T09:28:45.999Z</time></trkpt><trkpt lat="44.837021134065935" lon="9.363485657557723"><ele>715.6</ele><time>2026-04-26T09:28:46.999Z</time></trkpt><trkpt lat="44.83699766151128" lon="9.363653576441328"><ele>714.2</ele><time>2026-04-26T09:28:47.999Z</time></trkpt><trkpt lat="44.83697740686252" lon="9.363802838691214"><ele>712.8</ele><time>2026-04-26T09:28:48.999Z</time></trkpt><trkpt lat="44.83696144855919" lon="9.363914252984785"><ele>711.4</ele><time>2026-04-26T09:28:49.999Z</time></trkpt><trkpt lat="44.83693773380648" lon="9.364054709659525"><ele>710.0</ele><time>2026-04-26T09:28:51.999Z</time></trkpt><trkpt lat="44.836939059728856" lon="9.364160984717214"><ele>709.3333333333333</ele><time>2026-04-26T09:28:53.999Z</time></trkpt><trkpt lat="44.83698761693824" lon="9.364262473611289"><ele>708.6666666666666</ele><time>2026-04-26T09:28:54.999Z</time></trkpt><trkpt lat="44.83700828245865" lon="9.364357368902985"><ele>708.0</ele><time>2026-04-26T09:28:55.999Z</time></trkpt><trkpt lat="44.83703243668998" lon="9.364490134654849"><ele>707.3333333333334</ele><time>2026-04-26T09:28:56.999Z</time></trkpt><trkpt lat="44.83706955349808" lon="9.364608305985405"><ele>706.6666666666667</ele><time>2026-04-26T09:28:57.999Z</time></trkpt><trkpt lat="44.8370995107629" lon="9.36471845978121"><ele>706.0</ele><time>2026-04-26T09:28:58.999Z</time></trkpt><trkpt lat="44.83713402988258" lon="9.36481667486926"><ele>704.3333333333334</ele><time>2026-04-26T09:28:59.999Z</time></trkpt><trkpt lat="44.83717330103407" lon="9.364897207980963"><ele>702.6666666666667</ele><time>2026-04-26T09:29:00.999Z</time></trkpt><trkpt lat="44.837216191213535" lon="9.36499051893505"><ele>701.0</ele><time>2026-04-26T09:29:01.999Z</time></trkpt><trkpt lat="44.83727051216795" lon="9.365142475852235"><ele>699.3333333333334</ele><time>2026-04-26T09:29:03.999Z</time></trkpt><trkpt lat="44.83731908381016" lon="9.36522009298345"><ele>697.6666666666666</ele><time>2026-04-26T09:29:04.999Z</time></trkpt><trkpt lat="44.8373760197628" lon="9.365300681914418"><ele>696.0</ele><time>2026-04-26T09:29:05.999Z</time></trkpt><trkpt lat="44.8374465363038" lon="9.36539459574894"><ele>696.0</ele><time>2026-04-26T09:29:06.999Z</time></trkpt><trkpt lat="44.83750841043091" lon="9.365477068097235"><ele>696.0</ele><time>2026-04-26T09:29:07.999Z</time></trkpt><trkpt lat="44.837560794616046" lon="9.365530872210982"><ele>696.0</ele><time>2026-04-26T09:29:08.999Z</time></trkpt><trkpt lat="44.83763547920882" lon="9.365658896479054"><ele>696.0</ele><time>2026-04-26T09:29:10.999Z</time></trkpt><trkpt lat="44.83772499935928" lon="9.365750893455603"><ele>696.0</ele><time>2026-04-26T09:29:12.999Z</time></trkpt><trkpt lat="44.83779737835942" lon="9.365920448305538"><ele>692.4</ele><time>2026-04-26T09:29:14.999Z</time></trkpt><trkpt lat="44.8378569598214" lon="9.366034229850507"><ele>688.8</ele><time>2026-04-26T09:29:15.999Z</time></trkpt><trkpt lat="44.837907507062" lon="9.366176316957501"><ele>685.1999999999999</ele><time>2026-04-26T09:29:16.999Z</time></trkpt><trkpt lat="44.83793962617242" lon="9.366306908706731"><ele>681.5999999999999</ele><time>2026-04-26T09:29:17.999Z</time></trkpt><trkpt lat="44.83797300517173" lon="9.366431347331229"><ele>678.0</ele><time>2026-04-26T09:29:18.999Z</time></trkpt><trkpt lat="44.838021047445295" lon="9.366534485729273"><ele>678.0</ele><time>2026-04-26T09:29:19.999Z</time></trkpt><trkpt lat="44.83808939588498" lon="9.366660085296333"><ele>678.0</ele><time>2026-04-26T09:29:20.999Z</time></trkpt><trkpt lat="44.83815164198493" lon="9.366759277452667"><ele>678.0</ele><time>2026-04-26T09:29:21.999Z</time></trkpt><trkpt lat="44.83819373485937" lon="9.36687075556727"><ele>678.0</ele><time>2026-04-26T09:29:22.999Z</time></trkpt><trkpt lat="44.83823784097386" lon="9.366980405094143"><ele>678.0</ele><time>2026-04-26T09:29:23.999Z</time></trkpt><trkpt lat="44.83829044214059" lon="9.367087887370628"><ele>678.0</ele><time>2026-04-26T09:29:24.999Z</time></trkpt><trkpt lat="44.83833155529641" lon="9.36718549578169"><ele>678.0</ele><time>2026-04-26T09:29:25.998Z</time></trkpt><trkpt lat="44.8383804275876" lon="9.36728112519646"><ele>678.0</ele><time>2026-04-26T09:29:26.998Z</time></trkpt><trkpt lat="44.838428868553784" lon="9.367375658518817"><ele>678.0</ele><time>2026-04-26T09:29:27.998Z</time></trkpt><trkpt lat="44.838467573796365" lon="9.367459351574349"><ele>678.0</ele><time>2026-04-26T09:29:28.998Z</time></trkpt><trkpt lat="44.83852729209652" lon="9.36756957224423"><ele>678.0</ele><time>2026-04-26T09:29:30.998Z</time></trkpt><trkpt lat="44.838599427807395" lon="9.367682151545804"><ele>674.5999999999999</ele><time>2026-04-26T09:29:32.998Z</time></trkpt><trkpt lat="44.83867451444636" lon="9.367789704160563"><ele>671.1999999999999</ele><time>2026-04-26T09:29:34.998Z</time></trkpt><trkpt lat="44.838783534367266" lon="9.367918355783615"><ele>667.8</ele><time>2026-04-26T09:29:36.998Z</time></trkpt><trkpt lat="44.83882150360369" lon="9.367993254175836"><ele>664.4</ele><time>2026-04-26T09:29:37.998Z</time></trkpt><trkpt lat="44.83885308283486" lon="9.368170739279718"><ele>661.0</ele><time>2026-04-26T09:29:39.998Z</time></trkpt><trkpt lat="44.838856260721236" lon="9.368351218293107"><ele>660.3333333333334</ele><time>2026-04-26T09:29:41.998Z</time></trkpt><trkpt lat="44.83886200826382" lon="9.368446108542718"><ele>659.6666666666667</ele><time>2026-04-26T09:29:42.998Z</time></trkpt><trkpt lat="44.83889920373025" lon="9.368523030507111"><ele>659.0</ele><time>2026-04-26T09:29:43.998Z</time></trkpt><trkpt lat="44.83896782205655" lon="9.36858390266774"><ele>658.3333333333334</ele><time>2026-04-26T09:29:44.998Z</time></trkpt><trkpt lat="44.83902449219604" lon="9.368654728809291"><ele>657.6666666666666</ele><time>2026-04-26T09:29:45.998Z</time></trkpt><trkpt lat="44.83907010731455" lon="9.368782826188378"><ele>657.0</ele><time>2026-04-26T09:29:46.998Z</time></trkpt><trkpt lat="44.839108706090265" lon="9.368911518314796"><ele>655.0</ele><time>2026-04-26T09:29:47.998Z</time></trkpt><trkpt lat="44.839119761784474" lon="9.36900754420222"><ele>653.0</ele><time>2026-04-26T09:29:48.998Z</time></trkpt><trkpt lat="44.839161696453104" lon="9.369120309298584"><ele>651.0</ele><time>2026-04-26T09:29:50.998Z</time></trkpt><trkpt lat="44.83924611780845" lon="9.369218537773499"><ele>649.0</ele><time>2026-04-26T09:29:53.998Z</time></trkpt><trkpt lat="44.839329915790394" lon="9.36925147895343"><ele>647.0</ele><time>2026-04-26T09:29:55.998Z</time></trkpt><trkpt lat="44.839413928904314" lon="9.369272486974488"><ele>645.0</ele><time>2026-04-26T09:29:57.998Z</time></trkpt><trkpt lat="44.83950019076581" lon="9.369329107839214"><ele>642.6</ele><time>2026-04-26T09:29:59.998Z</time></trkpt><trkpt lat="44.8395295798392" lon="9.369409667872274"><ele>640.2</ele><time>2026-04-26T09:30:02.998Z</time></trkpt><trkpt lat="44.83959550836225" lon="9.369445503374308"><ele>637.8</ele><time>2026-04-26T09:30:04.998Z</time></trkpt><trkpt lat="44.83965467148836" lon="9.36948936667709"><ele>635.4</ele><time>2026-04-26T09:30:07.998Z</time></trkpt><trkpt lat="44.83968366267402" lon="9.369579441834407"><ele>633.0</ele><time>2026-04-26T09:30:09.997Z</time></trkpt><trkpt lat="44.83999047881673" lon="9.369996187956442"><ele>630.6</ele><time>2026-04-26T09:30:11.997Z</time></trkpt><trkpt lat="44.840054429368685" lon="9.37009004307899"><ele>628.1999999999999</ele><time>2026-04-26T09:30:14Z</time></trkpt><trkpt lat="44.84013245710991" lon="9.370106935579207"><ele>625.8</ele><time>2026-04-26T09:30:16Z</time></trkpt><trkpt lat="44.84023836183281" lon="9.370139292364696"><ele>623.4</ele><time>2026-04-26T09:30:18Z</time></trkpt><trkpt lat="44.84031403484251" lon="9.370239686367222"><ele>621.0</ele><time>2026-04-26T09:30:20Z</time></trkpt><trkpt lat="44.84034218993973" lon="9.370342963217016"><ele>619.5</ele><time>2026-04-26T09:30:22Z</time></trkpt><trkpt lat="44.84033064749245" lon="9.370471623366697"><ele>618.0</ele><time>2026-04-26T09:30:24Z</time></trkpt><trkpt lat="44.84029062354682" lon="9.37056807301311"><ele>616.5</ele><time>2026-04-26T09:30:25Z</time></trkpt><trkpt lat="44.840239266726435" lon="9.37066924722392"><ele>615.0</ele><time>2026-04-26T09:30:26Z</time></trkpt><trkpt lat="44.840194202133546" lon="9.370739983992248"><ele>613.5</ele><time>2026-04-26T09:30:27Z</time></trkpt><trkpt lat="44.840149828375985" lon="9.370817055941066"><ele>612.0</ele><time>2026-04-26T09:30:29Z</time></trkpt><trkpt lat="44.84017197077565" lon="9.370916452274198"><ele>612.2</ele><time>2026-04-26T09:31:01.999Z</time></trkpt><trkpt lat="44.840284354277124" lon="9.370985802961878"><ele>612.4000000000001</ele><time>2026-04-26T09:31:15.999Z</time></trkpt><trkpt lat="44.84036825406128" lon="9.371064373116594"><ele>612.5999999999999</ele><time>2026-04-26T09:31:17.999Z</time></trkpt><trkpt lat="44.84042840098441" lon="9.371198239688104"><ele>612.8</ele><time>2026-04-26T09:31:19.999Z</time></trkpt><trkpt lat="44.84045293835611" lon="9.371292415050268"><ele>613.0</ele><time>2026-04-26T09:31:20.999Z</time></trkpt><trkpt lat="44.84044887883788" lon="9.371418678693967"><ele>613.0</ele><time>2026-04-26T09:31:22.999Z</time></trkpt><trkpt lat="44.84047029687639" lon="9.371545542593381"><ele>613.0</ele><time>2026-04-26T09:31:25.999Z</time></trkpt><trkpt lat="44.840513341217566" lon="9.371662218886145"><ele>613.0</ele><time>2026-04-26T09:31:27.999Z</time></trkpt><trkpt lat="44.840604366867765" lon="9.3717799660272"><ele>613.0</ele><time>2026-04-26T09:31:29.999Z</time></trkpt><trkpt lat="44.84081794730136" lon="9.3719107094051"><ele>613.0</ele><time>2026-04-26T09:31:31.998Z</time></trkpt><trkpt lat="44.84091809760389" lon="9.371935579639882"><ele>613.0</ele><time>2026-04-26T09:31:32.998Z</time></trkpt><trkpt lat="44.841032695854075" lon="9.371997095340197"><ele>613.0</ele><time>2026-04-26T09:31:33.998Z</time></trkpt><trkpt lat="44.841140223501355" lon="9.372055089956483"><ele>613.0</ele><time>2026-04-26T09:31:34.998Z</time></trkpt><trkpt lat="44.841250221943284" lon="9.372084897689641"><ele>612.4</ele><time>2026-04-26T09:31:35.998Z</time></trkpt><trkpt lat="44.84135946467904" lon="9.372101110070599"><ele>611.8</ele><time>2026-04-26T09:31:36.998Z</time></trkpt><trkpt lat="44.84145243242457" lon="9.372107153482446"><ele>611.2</ele><time>2026-04-26T09:31:37.998Z</time></trkpt><trkpt lat="44.84155735596464" lon="9.372161578801654"><ele>610.6</ele><time>2026-04-26T09:31:39.998Z</time></trkpt><trkpt lat="44.84167181931531" lon="9.372243551392675"><ele>610.0</ele><time>2026-04-26T09:31:40.998Z</time></trkpt><trkpt lat="44.84178193791898" lon="9.372320492335453"><ele>614.6</ele><time>2026-04-26T09:31:41.998Z</time></trkpt><trkpt lat="44.84186672174957" lon="9.372383044597916"><ele>619.2</ele><time>2026-04-26T09:31:42.998Z</time></trkpt><trkpt lat="44.84195333241677" lon="9.372454058086973"><ele>623.8</ele><time>2026-04-26T09:31:43.998Z</time></trkpt><trkpt lat="44.841969382875" lon="9.372591547814947"><ele>628.4</ele><time>2026-04-26T09:31:44.998Z</time></trkpt><trkpt lat="44.84203793501972" lon="9.372691991212413"><ele>633.0</ele><time>2026-04-26T09:31:45.998Z</time></trkpt><trkpt lat="44.8420853024798" lon="9.372808469042411"><ele>633.0</ele><time>2026-04-26T09:31:46.998Z</time></trkpt><trkpt lat="44.84217475795048" lon="9.372842100105844"><ele>633.0</ele><time>2026-04-26T09:31:47.998Z</time></trkpt><trkpt lat="44.84224706145551" lon="9.372857999591643"><ele>633.0</ele><time>2026-04-26T09:31:48.998Z</time></trkpt><trkpt lat="44.84231489254922" lon="9.372890199236949"><ele>633.0</ele><time>2026-04-26T09:31:49.998Z</time></trkpt><trkpt lat="44.84238176771875" lon="9.372887563436217"><ele>633.0</ele><time>2026-04-26T09:31:50.998Z</time></trkpt><trkpt lat="44.8424483351929" lon="9.37286242234823"><ele>633.0</ele><time>2026-04-26T09:31:51.998Z</time></trkpt><trkpt lat="44.842509967419396" lon="9.37281619487993"><ele>633.0</ele><time>2026-04-26T09:31:52.998Z</time></trkpt><trkpt lat="44.84257198606214" lon="9.372784318879436"><ele>632.6</ele><time>2026-04-26T09:31:53.998Z</time></trkpt><trkpt lat="44.84264511235703" lon="9.372778890136942"><ele>632.1999999999999</ele><time>2026-04-26T09:31:54.998Z</time></trkpt><trkpt lat="44.84270889913816" lon="9.372791217801364"><ele>631.8</ele><time>2026-04-26T09:31:55.998Z</time></trkpt><trkpt lat="44.84283038785807" lon="9.372857244513312"><ele>631.4</ele><time>2026-04-26T09:31:57.998Z</time></trkpt><trkpt lat="44.84290813199922" lon="9.372920315925423"><ele>631.0</ele><time>2026-04-26T09:31:58.998Z</time></trkpt><trkpt lat="44.842985129464346" lon="9.37299773982412"><ele>634.6</ele><time>2026-04-26T09:31:59.998Z</time></trkpt><trkpt lat="44.84304259366821" lon="9.373075699925723"><ele>638.2</ele><time>2026-04-26T09:32:00.998Z</time></trkpt><trkpt lat="44.843100691971884" lon="9.373142568744731"><ele>641.8000000000001</ele><time>2026-04-26T09:32:01.998Z</time></trkpt><trkpt lat="44.84304698473065" lon="9.373278493417248"><ele>645.4000000000001</ele><time>2026-04-26T09:32:04.998Z</time></trkpt><trkpt lat="44.843044652980836" lon="9.373372698422122"><ele>649.0</ele><time>2026-04-26T09:32:05.998Z</time></trkpt><trkpt lat="44.843039509784" lon="9.373559963837028"><ele>649.0</ele><time>2026-04-26T09:32:07.998Z</time></trkpt><trkpt lat="44.843051105882" lon="9.373663009801376"><ele>649.0</ele><time>2026-04-26T09:32:08.998Z</time></trkpt><trkpt lat="44.84304999808293" lon="9.37378182536135"><ele>649.0</ele><time>2026-04-26T09:32:09.998Z</time></trkpt><trkpt lat="44.84304874539768" lon="9.373881331414353"><ele>649.0</ele><time>2026-04-26T09:32:10.998Z</time></trkpt><trkpt lat="44.84304050784431" lon="9.373988715481234"><ele>649.0</ele><time>2026-04-26T09:32:12.998Z</time></trkpt><trkpt lat="44.8430820274613" lon="9.37409275969432"><ele>649.0</ele><time>2026-04-26T09:32:13.998Z</time></trkpt><trkpt lat="44.84312178760161" lon="9.374203471649306"><ele>651.8333333333334</ele><time>2026-04-26T09:32:14.997Z</time></trkpt><trkpt lat="44.8431496859856" lon="9.374319386551448"><ele>654.6666666666667</ele><time>2026-04-26T09:32:15.997Z</time></trkpt><trkpt lat="44.84315946003871" lon="9.374419726786321"><ele>657.5</ele><time>2026-04-26T09:32:16.997Z</time></trkpt><trkpt lat="44.84317728929919" lon="9.374573420104653"><ele>660.3333333333334</ele><time>2026-04-26T09:32:19Z</time></trkpt><trkpt lat="44.843189470230655" lon="9.374663440617322"><ele>663.1666666666666</ele><time>2026-04-26T09:32:21Z</time></trkpt><trkpt lat="44.84313557840529" lon="9.374767805422062"><ele>666.0</ele><time>2026-04-26T09:32:25Z</time></trkpt><trkpt lat="44.843159951309225" lon="9.374891794361684"><ele>667.25</ele><time>2026-04-26T09:32:28Z</time></trkpt><trkpt lat="44.84331744139186" lon="9.375118991609531"><ele>668.5</ele><time>2026-04-26T09:32:30Z</time></trkpt><trkpt lat="44.8433784225732" lon="9.375177921040981"><ele>669.75</ele><time>2026-04-26T09:32:31Z</time></trkpt><trkpt lat="44.84343737076267" lon="9.37526469283419"><ele>671.0</ele><time>2026-04-26T09:32:32Z</time></trkpt><trkpt lat="44.84350106849136" lon="9.375367763259025"><ele>671.0</ele><time>2026-04-26T09:32:34Z</time></trkpt><trkpt lat="44.84346443210751" lon="9.375454011788989"><ele>671.0</ele><time>2026-04-26T09:32:37Z</time></trkpt><trkpt lat="44.84333112281762" lon="9.375487589058837"><ele>671.0</ele><time>2026-04-26T09:32:39Z</time></trkpt><trkpt lat="44.84325247397335" lon="9.37560069212526"><ele>671.0</ele><time>2026-04-26T09:32:40Z</time></trkpt><trkpt lat="44.84319852621055" lon="9.37570872693084"><ele>671.0</ele><time>2026-04-26T09:32:41Z</time></trkpt><trkpt lat="44.84314437125119" lon="9.375851846194463"><ele>675.1999999999999</ele><time>2026-04-26T09:32:42Z</time></trkpt><trkpt lat="44.84312326416019" lon="9.376010328192816"><ele>679.4</ele><time>2026-04-26T09:32:43Z</time></trkpt><trkpt lat="44.8430892926547" lon="9.37611080914648"><ele>683.6</ele><time>2026-04-26T09:32:44Z</time></trkpt><trkpt lat="44.8430544062397" lon="9.376201441865069"><ele>687.8</ele><time>2026-04-26T09:32:45Z</time></trkpt><trkpt lat="44.84301325804286" lon="9.376284493889274"><ele>692.0</ele><time>2026-04-26T09:32:46Z</time></trkpt><trkpt lat="44.84314473592528" lon="9.376330115731104"><ele>692.0</ele><time>2026-04-26T09:32:52Z</time></trkpt><trkpt lat="44.843227564081985" lon="9.376306316577644"><ele>692.0</ele><time>2026-04-26T09:32:53Z</time></trkpt><trkpt lat="44.84332723991378" lon="9.37627809709094"><ele>692.0</ele><time>2026-04-26T09:32:54Z</time></trkpt><trkpt lat="44.84342987957637" lon="9.37624738108214"><ele>692.0</ele><time>2026-04-26T09:32:54.999Z</time></trkpt><trkpt lat="44.8435110704465" lon="9.376223408545103"><ele>692.0</ele><time>2026-04-26T09:32:55.999Z</time></trkpt><trkpt lat="44.84358057638428" lon="9.376211630122201"><ele>692.0</ele><time>2026-04-26T09:32:56.999Z</time></trkpt><trkpt lat="44.84364486872752" lon="9.376202944119457"><ele>691.0</ele><time>2026-04-26T09:32:57.999Z</time></trkpt><trkpt lat="44.84372989503967" lon="9.376276958757748"><ele>690.0</ele><time>2026-04-26T09:32:58.999Z</time></trkpt><trkpt lat="44.84381291943667" lon="9.376378850448793"><ele>689.0</ele><time>2026-04-26T09:32:59.999Z</time></trkpt><trkpt lat="44.843930563188074" lon="9.376459523939474"><ele>688.0</ele><time>2026-04-26T09:33:00.999Z</time></trkpt><trkpt lat="44.84404575764079" lon="9.376493094197501"><ele>692.2</ele><time>2026-04-26T09:33:01.999Z</time></trkpt><trkpt lat="44.8441398965922" lon="9.376444441215549"><ele>696.4</ele><time>2026-04-26T09:33:02.999Z</time></trkpt><trkpt lat="44.844205702545" lon="9.376440491271856"><ele>700.6</ele><time>2026-04-26T09:33:03.999Z</time></trkpt><trkpt lat="44.8442951409582" lon="9.376446044964545"><ele>704.8000000000001</ele><time>2026-04-26T09:33:05.999Z</time></trkpt><trkpt lat="44.84438779898498" lon="9.376432710896536"><ele>709.0</ele><time>2026-04-26T09:33:07.999Z</time></trkpt><trkpt lat="44.84448178887663" lon="9.376563960756755"><ele>709.0</ele><time>2026-04-26T09:33:09.999Z</time></trkpt><trkpt lat="44.84455120959695" lon="9.376419919213266"><ele>709.0</ele><time>2026-04-26T09:33:10.999Z</time></trkpt><trkpt lat="44.844664024148955" lon="9.376445170775627"><ele>709.0</ele><time>2026-04-26T09:33:11.999Z</time></trkpt><trkpt lat="44.844751889371636" lon="9.37649315885038"><ele>709.0</ele><time>2026-04-26T09:33:12.999Z</time></trkpt><trkpt lat="44.8448197148346" lon="9.376549336907141"><ele>709.0</ele><time>2026-04-26T09:33:14.999Z</time></trkpt><trkpt lat="44.84487141252986" lon="9.37660703353566"><ele>709.0</ele><time>2026-04-26T09:33:19.999Z</time></trkpt><trkpt lat="44.844918617653235" lon="9.376668203992933"><ele>709.0</ele><time>2026-04-26T09:33:20.999Z</time></trkpt><trkpt lat="44.8449981758904" lon="9.376775004824733"><ele>709.0</ele><time>2026-04-26T09:33:21.999Z</time></trkpt><trkpt lat="44.845064583197924" lon="9.376884341092502"><ele>709.0</ele><time>2026-04-26T09:33:22.999Z</time></trkpt><trkpt lat="44.845117206049075" lon="9.376957797974507"><ele>709.0</ele><time>2026-04-26T09:33:23.999Z</time></trkpt><trkpt lat="44.84501339782894" lon="9.377432623161498"><ele>713.0</ele><time>2026-04-26T09:33:25.999Z</time></trkpt><trkpt lat="44.84502030522056" lon="9.377550985464902"><ele>717.0</ele><time>2026-04-26T09:33:26.999Z</time></trkpt><trkpt lat="44.845046845408696" lon="9.377715189362807"><ele>721.0</ele><time>2026-04-26T09:33:27.999Z</time></trkpt><trkpt lat="44.84508385708804" lon="9.3778566568734"><ele>725.0</ele><time>2026-04-26T09:33:28.999Z</time></trkpt><trkpt lat="44.845132742008744" lon="9.377931788724464"><ele>729.0</ele><time>2026-04-26T09:33:29.999Z</time></trkpt><trkpt lat="44.845233434395325" lon="9.37802875164778"><ele>733.5</ele><time>2026-04-26T09:33:31.999Z</time></trkpt><trkpt lat="44.84531124096509" lon="9.378076508453804"><ele>738.0</ele><time>2026-04-26T09:33:32.999Z</time></trkpt><trkpt lat="44.84538808510439" lon="9.378153412720895"><ele>742.5</ele><time>2026-04-26T09:33:33.999Z</time></trkpt><trkpt lat="44.84543002806007" lon="9.37822830700069"><ele>747.0</ele><time>2026-04-26T09:33:34.999Z</time></trkpt><trkpt lat="44.84546360386686" lon="9.378393164454648"><ele>751.5</ele><time>2026-04-26T09:33:36.999Z</time></trkpt><trkpt lat="44.845516971167754" lon="9.378445187971703"><ele>756.0</ele><time>2026-04-26T09:33:38.998Z</time></trkpt><trkpt lat="44.845606989156266" lon="9.378380842121105"><ele>756.0</ele><time>2026-04-26T09:33:40.998Z</time></trkpt><trkpt lat="44.84574693687189" lon="9.37816320448848"><ele>756.0</ele><time>2026-04-26T09:33:43.998Z</time></trkpt><trkpt lat="44.845860774117675" lon="9.377960696323793"><ele>756.0</ele><time>2026-04-26T09:33:44.998Z</time></trkpt><trkpt lat="44.84592040285763" lon="9.37792672965994"><ele>756.0</ele><time>2026-04-26T09:33:46.998Z</time></trkpt><trkpt lat="44.84586766673017" lon="9.377975962590149"><ele>756.0</ele><time>2026-04-26T09:33:50.998Z</time></trkpt><trkpt lat="44.845884042079874" lon="9.37811147520341"><ele>756.0</ele><time>2026-04-26T09:33:55.998Z</time></trkpt><trkpt lat="44.845856343968514" lon="9.378199745595717"><ele>756.0</ele><time>2026-04-26T09:33:56.998Z</time></trkpt><trkpt lat="44.8458240256717" lon="9.37832210854799"><ele>756.0</ele><time>2026-04-26T09:33:57.998Z</time></trkpt><trkpt lat="44.845804393390345" lon="9.378424225089912"><ele>756.0</ele><time>2026-04-26T09:33:58.998Z</time></trkpt><trkpt lat="44.845805521938935" lon="9.3785391807732"><ele>756.0</ele><time>2026-04-26T09:33:59.998Z</time></trkpt><trkpt lat="44.84581975318385" lon="9.37866164900246"><ele>756.0</ele><time>2026-04-26T09:34:00.998Z</time></trkpt><trkpt lat="44.84585378477894" lon="9.378783232818519"><ele>756.0</ele><time>2026-04-26T09:34:01.998Z</time></trkpt><trkpt lat="44.84590670190449" lon="9.37891290107478"><ele>756.0</ele><time>2026-04-26T09:34:02.998Z</time></trkpt><trkpt lat="44.845882402015434" lon="9.379036678707807"><ele>756.0</ele><time>2026-04-26T09:34:04.998Z</time></trkpt><trkpt lat="44.84582609795514" lon="9.379129071836537"><ele>760.0</ele><time>2026-04-26T09:34:06.998Z</time></trkpt><trkpt lat="44.84575392999684" lon="9.379233930824155"><ele>764.0</ele><time>2026-04-26T09:34:12.998Z</time></trkpt><trkpt lat="44.845802148276455" lon="9.37929545251501"><ele>768.0</ele><time>2026-04-26T09:34:17.998Z</time></trkpt><trkpt lat="44.845868462272094" lon="9.379304509804072"><ele>772.0</ele><time>2026-04-26T09:34:19.998Z</time></trkpt><trkpt lat="44.846153413616825" lon="9.379041893991438"><ele>773.0</ele><time>2026-04-26T09:34:21.997Z</time></trkpt><trkpt lat="44.846234287125064" lon="9.378921212142162"><ele>774.0</ele><time>2026-04-26T09:34:22.997Z</time></trkpt><trkpt lat="44.84631304810734" lon="9.378762429491662"><ele>775.0</ele><time>2026-04-26T09:34:23.997Z</time></trkpt><trkpt lat="44.84637724729646" lon="9.378672691914257"><ele>776.0</ele><time>2026-04-26T09:34:25Z</time></trkpt><trkpt lat="44.846432046686616" lon="9.378575169986092"><ele>777.0</ele><time>2026-04-26T09:34:26Z</time></trkpt><trkpt lat="44.846511206702296" lon="9.378570170152884"><ele>777.0</ele><time>2026-04-26T09:34:29Z</time></trkpt><trkpt lat="44.84656432230465" lon="9.37868858229709"><ele>777.0</ele><time>2026-04-26T09:34:31Z</time></trkpt><trkpt lat="44.846563162383475" lon="9.378815271847323"><ele>777.0</ele><time>2026-04-26T09:34:32Z</time></trkpt><trkpt lat="44.8465408809143" lon="9.378953788571724"><ele>777.0</ele><time>2026-04-26T09:34:33Z</time></trkpt><trkpt lat="44.84652316134688" lon="9.379081881811768"><ele>777.0</ele><time>2026-04-26T09:34:34Z</time></trkpt><trkpt lat="44.84648308531651" lon="9.37927586850425"><ele>780.8</ele><time>2026-04-26T09:34:35Z</time></trkpt><trkpt lat="44.84647002493006" lon="9.37945759196383"><ele>784.6</ele><time>2026-04-26T09:34:36Z</time></trkpt><trkpt lat="44.84645864929224" lon="9.37958539737153"><ele>788.4</ele><time>2026-04-26T09:34:37Z</time></trkpt><trkpt lat="44.84645195532361" lon="9.379755505882706"><ele>792.1999999999999</ele><time>2026-04-26T09:34:39Z</time></trkpt><trkpt lat="44.846413458294506" lon="9.37982946963592"><ele>796.0</ele><time>2026-04-26T09:34:40Z</time></trkpt><trkpt lat="44.84636610891304" lon="9.379938877318866"><ele>798.6666666666666</ele><time>2026-04-26T09:34:41Z</time></trkpt><trkpt lat="44.8463349258368" lon="9.380039571135022"><ele>801.3333333333333</ele><time>2026-04-26T09:34:42Z</time></trkpt><trkpt lat="44.84639127383717" lon="9.380083718171646"><ele>804.0</ele><time>2026-04-26T09:34:44Z</time></trkpt><trkpt lat="44.84643512312905" lon="9.380161426194833"><ele>806.6666666666667</ele><time>2026-04-26T09:34:45Z</time></trkpt><trkpt lat="44.84651023854386" lon="9.380209932307036"><ele>809.3333333333334</ele><time>2026-04-26T09:34:46Z</time></trkpt><trkpt lat="44.84658108788116" lon="9.38019627991103"><ele>812.0</ele><time>2026-04-26T09:34:47Z</time></trkpt><trkpt lat="44.84667500118175" lon="9.38018566600639"><ele>812.0</ele><time>2026-04-26T09:34:48Z</time></trkpt><trkpt lat="44.84677672632071" lon="9.380156068555614"><ele>812.0</ele><time>2026-04-26T09:34:49Z</time></trkpt><trkpt lat="44.84686870881766" lon="9.380157928863467"><ele>812.0</ele><time>2026-04-26T09:34:51Z</time></trkpt><trkpt lat="44.846883169045924" lon="9.380322495874776"><ele>812.0</ele><time>2026-04-26T09:34:53Z</time></trkpt><trkpt lat="44.84683072021298" lon="9.38048215673764"><ele>812.0</ele><time>2026-04-26T09:34:55Z</time></trkpt><trkpt lat="44.84685730252465" lon="9.380611461945566"><ele>816.4000000000001</ele><time>2026-04-26T09:34:57Z</time></trkpt><trkpt lat="44.84694120939858" lon="9.380647797865935"><ele>820.8000000000001</ele><time>2026-04-26T09:34:58Z</time></trkpt><trkpt lat="44.84698897251176" lon="9.380711171651193"><ele>825.2</ele><time>2026-04-26T09:34:59Z</time></trkpt><trkpt lat="44.847001935436985" lon="9.380819176975432"><ele>829.6</ele><time>2026-04-26T09:34:59.999Z</time></trkpt><trkpt lat="44.847030435522534" lon="9.380970565109463"><ele>834.0</ele><time>2026-04-26T09:35:00.999Z</time></trkpt><trkpt lat="44.846993955845335" lon="9.381138378153697"><ele>834.0</ele><time>2026-04-26T09:35:02.999Z</time></trkpt><trkpt lat="44.84707993874225" lon="9.381277129751794"><ele>834.0</ele><time>2026-04-26T09:35:04.999Z</time></trkpt><trkpt lat="44.84712245806103" lon="9.381345145713555"><ele>834.0</ele><time>2026-04-26T09:35:05.999Z</time></trkpt><trkpt lat="44.847169871791316" lon="9.38144322337124"><ele>834.0</ele><time>2026-04-26T09:35:06.999Z</time></trkpt><trkpt lat="44.84721947691952" lon="9.381553576676378"><ele>834.0</ele><time>2026-04-26T09:35:07.999Z</time></trkpt><trkpt lat="44.8472650880338" lon="9.38163592286257"><ele>834.0</ele><time>2026-04-26T09:35:08.999Z</time></trkpt><trkpt lat="44.84731597888698" lon="9.381695809492218"><ele>834.6666666666666</ele><time>2026-04-26T09:35:09.999Z</time></trkpt><trkpt lat="44.847348631431885" lon="9.381774874164277"><ele>835.3333333333333</ele><time>2026-04-26T09:35:12.999Z</time></trkpt><trkpt lat="44.84745403969952" lon="9.381792868602465"><ele>836.0</ele><time>2026-04-26T09:37:14.999Z</time></trkpt><trkpt lat="44.84751891598731" lon="9.381793679643526"><ele>836.6666666666666</ele><time>2026-04-26T09:37:15.999Z</time></trkpt><trkpt lat="44.84762983769668" lon="9.381829299821462"><ele>837.3333333333333</ele><time>2026-04-26T09:37:17.999Z</time></trkpt><trkpt lat="44.847692812872374" lon="9.381881149648967"><ele>838.0</ele><time>2026-04-26T09:37:18.999Z</time></trkpt><trkpt lat="44.84777181591899" lon="9.38194833044013"><ele>838.0</ele><time>2026-04-26T09:37:19.999Z</time></trkpt><trkpt lat="44.847844861486315" lon="9.382021695229419"><ele>838.0</ele><time>2026-04-26T09:37:20.999Z</time></trkpt><trkpt lat="44.847915066707706" lon="9.382120432343632"><ele>838.0</ele><time>2026-04-26T09:37:21.999Z</time></trkpt><trkpt lat="44.848011810967435" lon="9.382214326203387"><ele>838.0</ele><time>2026-04-26T09:37:22.999Z</time></trkpt><trkpt lat="44.848111055714895" lon="9.382306180692652"><ele>838.0</ele><time>2026-04-26T09:37:23.999Z</time></trkpt><trkpt lat="44.84820336272259" lon="9.382382821491674"><ele>837.5999999999999</ele><time>2026-04-26T09:37:24.999Z</time></trkpt><trkpt lat="44.84828229344234" lon="9.3824572036553"><ele>837.1999999999999</ele><time>2026-04-26T09:37:25.999Z</time></trkpt><trkpt lat="44.848360742789815" lon="9.382540568952939"><ele>836.8</ele><time>2026-04-26T09:37:26.999Z</time></trkpt><trkpt lat="44.848423497308644" lon="9.382619717228662"><ele>836.4</ele><time>2026-04-26T09:37:27.999Z</time></trkpt><trkpt lat="44.84847363006168" lon="9.382707533146931"><ele>836.0</ele><time>2026-04-26T09:37:28.999Z</time></trkpt><trkpt lat="44.848539323599205" lon="9.382857219772356"><ele>833.8333333333334</ele><time>2026-04-26T09:37:30.999Z</time></trkpt><trkpt lat="44.84857053019958" lon="9.382946414262097"><ele>831.6666666666667</ele><time>2026-04-26T09:37:31.999Z</time></trkpt><trkpt lat="44.84859934130186" lon="9.383033909807262"><ele>829.5</ele><time>2026-04-26T09:37:32.999Z</time></trkpt><trkpt lat="44.84861813153776" lon="9.383118674870683"><ele>827.3333333333333</ele><time>2026-04-26T09:37:33.999Z</time></trkpt><trkpt lat="44.84872667201147" lon="9.383205255957213"><ele>825.1666666666666</ele><time>2026-04-26T09:37:35.999Z</time></trkpt><trkpt lat="44.84881283742738" lon="9.38318071054624"><ele>823.0</ele><time>2026-04-26T09:37:36.999Z</time></trkpt><trkpt lat="44.84889959933287" lon="9.38316973469169"><ele>821.4285714285714</ele><time>2026-04-26T09:37:37.999Z</time></trkpt><trkpt lat="44.84897754639849" lon="9.38318982439351"><ele>819.8571428571429</ele><time>2026-04-26T09:37:38.999Z</time></trkpt><trkpt lat="44.84903451350909" lon="9.383231330135688"><ele>818.2857142857142</ele><time>2026-04-26T09:37:39.999Z</time></trkpt><trkpt lat="44.84910154099167" lon="9.38325717965144"><ele>816.7142857142858</ele><time>2026-04-26T09:37:40.999Z</time></trkpt><trkpt lat="44.84916713693817" lon="9.38326498512116"><ele>815.1428571428571</ele><time>2026-04-26T09:37:41.999Z</time></trkpt><trkpt lat="44.84923080391199" lon="9.383267054513938"><ele>813.5714285714286</ele><time>2026-04-26T09:37:42.999Z</time></trkpt><trkpt lat="44.849299724412056" lon="9.383239224192678"><ele>812.0</ele><time>2026-04-26T09:37:43.999Z</time></trkpt><trkpt lat="44.84936197779398" lon="9.383185540309343"><ele>809.6666666666667</ele><time>2026-04-26T09:37:44.999Z</time></trkpt><trkpt lat="44.849423339389915" lon="9.383113000557087"><ele>807.3333333333334</ele><time>2026-04-26T09:37:45.999Z</time></trkpt><trkpt lat="44.8494900500337" lon="9.383046061649688"><ele>805.0</ele><time>2026-04-26T09:37:46.999Z</time></trkpt><trkpt lat="44.849547490770085" lon="9.38300803077244"><ele>802.6666666666667</ele><time>2026-04-26T09:37:47.999Z</time></trkpt><trkpt lat="44.84964030548547" lon="9.38301886076821"><ele>800.3333333333334</ele><time>2026-04-26T09:37:49.998Z</time></trkpt><trkpt lat="44.84972713398546" lon="9.383039283228284"><ele>798.0</ele><time>2026-04-26T09:37:51.998Z</time></trkpt><trkpt lat="44.84979026095601" lon="9.383045977748385"><ele>798.0</ele><time>2026-04-26T09:37:54.998Z</time></trkpt><trkpt lat="44.84983206529064" lon="9.383142375994705"><ele>798.0</ele><time>2026-04-26T09:38:16.998Z</time></trkpt><trkpt lat="44.84988182693323" lon="9.383246631531605"><ele>798.0</ele><time>2026-04-26T09:38:18.998Z</time></trkpt><trkpt lat="44.84995309959148" lon="9.383295968281194"><ele>798.0</ele><time>2026-04-26T09:38:19.998Z</time></trkpt><trkpt lat="44.85004747516183" lon="9.383361108843058"><ele>798.0</ele><time>2026-04-26T09:38:20.998Z</time></trkpt><trkpt lat="44.85012313759679" lon="9.383436363691912"><ele>798.0</ele><time>2026-04-26T09:38:21.998Z</time></trkpt><trkpt lat="44.85018590323911" lon="9.383476519165857"><ele>796.1666666666666</ele><time>2026-04-26T09:38:22.998Z</time></trkpt><trkpt lat="44.85027640226556" lon="9.383568365921258"><ele>794.3333333333333</ele><time>2026-04-26T09:38:24.998Z</time></trkpt><trkpt lat="44.85030936806808" lon="9.383664727020928"><ele>792.5</ele><time>2026-04-26T09:38:25.998Z</time></trkpt><trkpt lat="44.85033917007307" lon="9.383758427361915"><ele>790.6666666666666</ele><time>2026-04-26T09:38:26.998Z</time></trkpt><trkpt lat="44.85038536977248" lon="9.383838917226134"><ele>788.8333333333333</ele><time>2026-04-26T09:38:27.998Z</time></trkpt><trkpt lat="44.85045409968834" lon="9.383903487512644"><ele>787.0</ele><time>2026-04-26T09:38:28.998Z</time></trkpt><trkpt lat="44.85051347226067" lon="9.383963400811194"><ele>786.2</ele><time>2026-04-26T09:38:29.998Z</time></trkpt><trkpt lat="44.85059145722179" lon="9.384007290033892"><ele>785.4000000000001</ele><time>2026-04-26T09:38:30.998Z</time></trkpt><trkpt lat="44.850672505172845" lon="9.384043939454623"><ele>784.5999999999999</ele><time>2026-04-26T09:38:31.998Z</time></trkpt><trkpt lat="44.850746232065134" lon="9.38407212352777"><ele>783.8</ele><time>2026-04-26T09:38:32.997Z</time></trkpt><trkpt lat="44.850874725194124" lon="9.384067490391248"><ele>783.0</ele><time>2026-04-26T09:38:34.997Z</time></trkpt><trkpt lat="44.85094739021455" lon="9.384016645802483"><ele>780.4</ele><time>2026-04-26T09:38:35.997Z</time></trkpt><trkpt lat="44.85100740040652" lon="9.383969205089691"><ele>777.8</ele><time>2026-04-26T09:38:37Z</time></trkpt><trkpt lat="44.8511189930333" lon="9.38391912168167"><ele>775.2</ele><time>2026-04-26T09:38:39Z</time></trkpt><trkpt lat="44.851183263283126" lon="9.383917410374035"><ele>772.6</ele><time>2026-04-26T09:38:40Z</time></trkpt><trkpt lat="44.85131490631541" lon="9.38388932157739"><ele>770.0</ele><time>2026-04-26T09:38:42Z</time></trkpt><trkpt lat="44.8513874586232" lon="9.383858632986245"><ele>770.0000000000001</ele><time>2026-04-26T09:38:43Z</time></trkpt><trkpt lat="44.85149915068949" lon="9.383856312936201"><ele>770.0</ele><time>2026-04-26T09:38:45Z</time></trkpt><trkpt lat="44.85158209126751" lon="9.383796143038158"><ele>770.0</ele><time>2026-04-26T09:38:47Z</time></trkpt><trkpt lat="44.851650179689415" lon="9.38375427097814"><ele>770.0</ele><time>2026-04-26T09:38:49Z</time></trkpt><trkpt lat="44.85172113078596" lon="9.383796435088183"><ele>770.0000000000001</ele><time>2026-04-26T09:38:51Z</time></trkpt><trkpt lat="44.85174072901429" lon="9.383894336925788"><ele>770.0</ele><time>2026-04-26T09:38:53Z</time></trkpt><trkpt lat="44.851781598010284" lon="9.383994372405912"><ele>766.6</ele><time>2026-04-26T09:38:54Z</time></trkpt><trkpt lat="44.851849691526844" lon="9.384055092402413"><ele>763.2</ele><time>2026-04-26T09:38:55Z</time></trkpt><trkpt lat="44.85193826676986" lon="9.384057066616352"><ele>759.8</ele><time>2026-04-26T09:38:56Z</time></trkpt><trkpt lat="44.85205947460138" lon="9.384033307848165"><ele>756.4</ele><time>2026-04-26T09:38:58Z</time></trkpt><trkpt lat="44.8521252428864" lon="9.384008131668045"><ele>753.0</ele><time>2026-04-26T09:38:59Z</time></trkpt><trkpt lat="44.852212524225806" lon="9.38396412267219"><ele>753.0</ele><time>2026-04-26T09:39:00Z</time></trkpt><trkpt lat="44.85230635030117" lon="9.383922635633915"><ele>753.0</ele><time>2026-04-26T09:39:01Z</time></trkpt><trkpt lat="44.85238349649189" lon="9.383893893482943"><ele>753.0</ele><time>2026-04-26T09:39:02Z</time></trkpt><trkpt lat="44.85247937243795" lon="9.383863474640474"><ele>753.0</ele><time>2026-04-26T09:39:04Z</time></trkpt><trkpt lat="44.85254570534" lon="9.383785373291019"><ele>753.0</ele><time>2026-04-26T09:39:25.999Z</time></trkpt><trkpt lat="44.852661860098095" lon="9.38375206907595"><ele>751.5999999999999</ele><time>2026-04-26T09:39:27.999Z</time></trkpt><trkpt lat="44.852772657731855" lon="9.383775832183272"><ele>750.1999999999999</ele><time>2026-04-26T09:39:28.999Z</time></trkpt><trkpt lat="44.852853454524755" lon="9.383795823262613"><ele>748.8</ele><time>2026-04-26T09:39:29.999Z</time></trkpt><trkpt lat="44.85295868691968" lon="9.383721295343594"><ele>747.4</ele><time>2026-04-26T09:39:31.999Z</time></trkpt><trkpt lat="44.85302047851392" lon="9.383647271367822"><ele>746.0</ele><time>2026-04-26T09:39:32.999Z</time></trkpt><trkpt lat="44.85315553631404" lon="9.383568232303077"><ele>746.0</ele><time>2026-04-26T09:39:34.999Z</time></trkpt><trkpt lat="44.85322893873968" lon="9.383547466114226"><ele>746.0</ele><time>2026-04-26T09:39:35.999Z</time></trkpt><trkpt lat="44.853332539812754" lon="9.383548489145946"><ele>746.0</ele><time>2026-04-26T09:39:36.999Z</time></trkpt><trkpt lat="44.853451662645035" lon="9.383527242850947"><ele>746.0</ele><time>2026-04-26T09:39:37.999Z</time></trkpt><trkpt lat="44.853554780427146" lon="9.383489714342032"><ele>746.0</ele><time>2026-04-26T09:39:38.999Z</time></trkpt><trkpt lat="44.85364640758577" lon="9.383430596321872"><ele>745.8</ele><time>2026-04-26T09:39:39.999Z</time></trkpt><trkpt lat="44.853731824380354" lon="9.383353297196473"><ele>745.5999999999999</ele><time>2026-04-26T09:39:40.999Z</time></trkpt><trkpt lat="44.85384042059062" lon="9.383299497421847"><ele>745.4</ele><time>2026-04-26T09:39:41.999Z</time></trkpt><trkpt lat="44.85395488513972" lon="9.383265029775009"><ele>745.2</ele><time>2026-04-26T09:39:42.999Z</time></trkpt><trkpt lat="44.8540528821647" lon="9.383234565316464"><ele>745.0</ele><time>2026-04-26T09:39:43.999Z</time></trkpt><trkpt lat="44.85413036852568" lon="9.383191767515115"><ele>745.0</ele><time>2026-04-26T09:39:44.999Z</time></trkpt><trkpt lat="44.85419257211521" lon="9.383158051512833"><ele>745.0</ele><time>2026-04-26T09:39:45.999Z</time></trkpt><trkpt lat="44.85426628499154" lon="9.383162819418233"><ele>745.0</ele><time>2026-04-26T09:39:46.999Z</time></trkpt><trkpt lat="44.85433873788596" lon="9.383168950780343"><ele>745.0</ele><time>2026-04-26T09:39:47.999Z</time></trkpt><trkpt lat="44.854447153199466" lon="9.383116636211188"><ele>745.0</ele><time>2026-04-26T09:39:49.999Z</time></trkpt><trkpt lat="44.85452024373924" lon="9.383070286225495"><ele>745.0</ele><time>2026-04-26T09:39:50.999Z</time></trkpt><trkpt lat="44.85462303231531" lon="9.383028706897946"><ele>742.3333333333334</ele><time>2026-04-26T09:39:51.999Z</time></trkpt><trkpt lat="44.854714555387" lon="9.382988746518395"><ele>739.6666666666667</ele><time>2026-04-26T09:39:52.999Z</time></trkpt><trkpt lat="44.85478994050904" lon="9.382945959199212"><ele>737.0</ele><time>2026-04-26T09:39:53.999Z</time></trkpt><trkpt lat="44.85485937911991" lon="9.382892580149393"><ele>734.3333333333334</ele><time>2026-04-26T09:39:54.999Z</time></trkpt><trkpt lat="44.854942236131166" lon="9.382853212039098"><ele>731.6666666666666</ele><time>2026-04-26T09:39:55.998Z</time></trkpt><trkpt lat="44.855014893639485" lon="9.382792553632566"><ele>729.0</ele><time>2026-04-26T09:39:56.998Z</time></trkpt><trkpt lat="44.855089454350335" lon="9.382724259595589"><ele>728.0</ele><time>2026-04-26T09:39:57.998Z</time></trkpt><trkpt lat="44.85514028964911" lon="9.382651168892453"><ele>727.0</ele><time>2026-04-26T09:39:58.998Z</time></trkpt><trkpt lat="44.8551964697432" lon="9.382565450458484"><ele>726.0</ele><time>2026-04-26T09:39:59.998Z</time></trkpt><trkpt lat="44.85526426700594" lon="9.382492064623692"><ele>725.0</ele><time>2026-04-26T09:40:00.998Z</time></trkpt><trkpt lat="44.85534098554758" lon="9.382451098681045"><ele>724.0</ele><time>2026-04-26T09:40:01.998Z</time></trkpt><trkpt lat="44.855429624631086" lon="9.382412972771053"><ele>723.0</ele><time>2026-04-26T09:40:02.998Z</time></trkpt><trkpt lat="44.855509544121425" lon="9.382367085221972"><ele>723.0</ele><time>2026-04-26T09:40:03.998Z</time></trkpt><trkpt lat="44.85559140004218" lon="9.382303937520938"><ele>723.0</ele><time>2026-04-26T09:40:04.998Z</time></trkpt><trkpt lat="44.85566179817906" lon="9.382241359871298"><ele>723.0</ele><time>2026-04-26T09:40:05.998Z</time></trkpt><trkpt lat="44.855722568246804" lon="9.382179135635393"><ele>723.0</ele><time>2026-04-26T09:40:06.998Z</time></trkpt><trkpt lat="44.85578348749773" lon="9.382063281850215"><ele>723.0</ele><time>2026-04-26T09:40:08.998Z</time></trkpt><trkpt lat="44.85577686263456" lon="9.38197185028397"><ele>723.0</ele><time>2026-04-26T09:40:09.998Z</time></trkpt><trkpt lat="44.855757831540096" lon="9.381856076697629"><ele>722.8333333333334</ele><time>2026-04-26T09:40:10.998Z</time></trkpt><trkpt lat="44.855756018089075" lon="9.381758264003828"><ele>722.6666666666666</ele><time>2026-04-26T09:40:11.998Z</time></trkpt><trkpt lat="44.85579550691291" lon="9.38159866017178"><ele>722.5</ele><time>2026-04-26T09:40:13.998Z</time></trkpt><trkpt lat="44.85587492831694" lon="9.381496926457208"><ele>722.3333333333333</ele><time>2026-04-26T09:40:15.998Z</time></trkpt><trkpt lat="44.855940041620414" lon="9.381487971798528"><ele>722.1666666666666</ele><time>2026-04-26T09:40:16.998Z</time></trkpt><trkpt lat="44.8560045151693" lon="9.38148036771516"><ele>722.0</ele><time>2026-04-26T09:40:19.998Z</time></trkpt><trkpt lat="44.85610165354071" lon="9.381406346923857"><ele>721.0</ele><time>2026-04-26T09:40:23.998Z</time></trkpt><trkpt lat="44.856213278793476" lon="9.381302101697388"><ele>720.0</ele><time>2026-04-26T09:40:25.998Z</time></trkpt><trkpt lat="44.856292618752406" lon="9.381303326381282"><ele>719.0</ele><time>2026-04-26T09:40:26.998Z</time></trkpt><trkpt lat="44.85636836107449" lon="9.381285934516574"><ele>718.0</ele><time>2026-04-26T09:40:27.998Z</time></trkpt><trkpt lat="44.856428959239246" lon="9.38123962787056"><ele>717.0</ele><time>2026-04-26T09:40:28.998Z</time></trkpt><trkpt lat="44.85648465796954" lon="9.381163115481295"><ele>716.0</ele><time>2026-04-26T09:40:29.998Z</time></trkpt><trkpt lat="44.856545025444134" lon="9.381099092041604"><ele>716.0000000000001</ele><time>2026-04-26T09:40:30.998Z</time></trkpt><trkpt lat="44.85659109050358" lon="9.381022997280764"><ele>716.0</ele><time>2026-04-26T09:40:31.998Z</time></trkpt><trkpt lat="44.85660093896948" lon="9.380926040400603"><ele>716.0</ele><time>2026-04-26T09:40:32.998Z</time></trkpt><trkpt lat="44.85659916964716" lon="9.38083662149594"><ele>716.0</ele><time>2026-04-26T09:40:33.998Z</time></trkpt><trkpt lat="44.85663271699034" lon="9.380756773609857"><ele>716.0</ele><time>2026-04-26T09:40:34.998Z</time></trkpt><trkpt lat="44.85669412631444" lon="9.38069203742231"><ele>716.0000000000001</ele><time>2026-04-26T09:40:35.998Z</time></trkpt><trkpt lat="44.856758191775064" lon="9.380629184011724"><ele>716.0</ele><time>2026-04-26T09:40:36.998Z</time></trkpt><trkpt lat="44.85680843540531" lon="9.380553230011918"><ele>715.1999999999999</ele><time>2026-04-26T09:40:37.998Z</time></trkpt><trkpt lat="44.856857254839916" lon="9.38044915517954"><ele>714.4</ele><time>2026-04-26T09:40:38.997Z</time></trkpt><trkpt lat="44.85691615865982" lon="9.380354558566369"><ele>713.6</ele><time>2026-04-26T09:40:39.997Z</time></trkpt><trkpt lat="44.85699538811073" lon="9.380259214446342"><ele>712.8</ele><time>2026-04-26T09:40:40.997Z</time></trkpt><trkpt lat="44.85707115597629" lon="9.380155306628632"><ele>712.0</ele><time>2026-04-26T09:40:41.997Z</time></trkpt><trkpt lat="44.85711765644587" lon="9.380048667773522"><ele>712.0</ele><time>2026-04-26T09:40:43Z</time></trkpt><trkpt lat="44.857162670249586" lon="9.37992337983484"><ele>712.0</ele><time>2026-04-26T09:40:44Z</time></trkpt><trkpt lat="44.85721673806919" lon="9.379843704294254"><ele>712.0</ele><time>2026-04-26T09:40:45Z</time></trkpt><trkpt lat="44.857358943574894" lon="9.37986297923839"><ele>712.0</ele><time>2026-04-26T09:40:47Z</time></trkpt><trkpt lat="44.85746251951513" lon="9.379905548070694"><ele>712.0</ele><time>2026-04-26T09:40:48Z</time></trkpt><trkpt lat="44.85756390282029" lon="9.37993090339019"><ele>709.8333333333334</ele><time>2026-04-26T09:40:49Z</time></trkpt><trkpt lat="44.857645383990885" lon="9.379960820103326"><ele>707.6666666666667</ele><time>2026-04-26T09:40:50Z</time></trkpt><trkpt lat="44.8577236525663" lon="9.38000231613864"><ele>705.5</ele><time>2026-04-26T09:40:51Z</time></trkpt><trkpt lat="44.85778832683017" lon="9.380058764708924"><ele>703.3333333333334</ele><time>2026-04-26T09:40:52Z</time></trkpt><trkpt lat="44.85785697569842" lon="9.380101635792546"><ele>701.1666666666666</ele><time>2026-04-26T09:40:53Z</time></trkpt><trkpt lat="44.857930366096674" lon="9.380138333558724"><ele>699.0</ele><time>2026-04-26T09:40:54Z</time></trkpt><trkpt lat="44.857996343356895" lon="9.380184112206356"><ele>699.0</ele><time>2026-04-26T09:40:55Z</time></trkpt><trkpt lat="44.85807541735177" lon="9.380212132164724"><ele>699.0</ele><time>2026-04-26T09:40:56Z</time></trkpt><trkpt lat="44.858170878660665" lon="9.380216913786882"><ele>699.0</ele><time>2026-04-26T09:40:57Z</time></trkpt><trkpt lat="44.85824875601649" lon="9.380213046631097"><ele>699.0</ele><time>2026-04-26T09:40:58Z</time></trkpt><trkpt lat="44.858312085912914" lon="9.380207393612974"><ele>699.0</ele><time>2026-04-26T09:40:59Z</time></trkpt><trkpt lat="44.85842625549982" lon="9.380217640101145"><ele>699.0</ele><time>2026-04-26T09:41:01Z</time></trkpt><trkpt lat="44.85848904625722" lon="9.380248040704277"><ele>697.6</ele><time>2026-04-26T09:41:02Z</time></trkpt><trkpt lat="44.85853654584979" lon="9.380338116192066"><ele>696.2</ele><time>2026-04-26T09:41:03Z</time></trkpt><trkpt lat="44.85858443592136" lon="9.380455258327586"><ele>694.8000000000001</ele><time>2026-04-26T09:41:04Z</time></trkpt><trkpt lat="44.85864692839429" lon="9.380547413918197"><ele>693.4000000000001</ele><time>2026-04-26T09:41:05Z</time></trkpt><trkpt lat="44.8587112746632" lon="9.380638172859195"><ele>692.0</ele><time>2026-04-26T09:41:06Z</time></trkpt><trkpt lat="44.858772675919106" lon="9.380744377877054"><ele>692.0</ele><time>2026-04-26T09:41:07Z</time></trkpt><trkpt lat="44.85882871792159" lon="9.38083882642146"><ele>692.0</ele><time>2026-04-26T09:41:08Z</time></trkpt><trkpt lat="44.85887742247505" lon="9.380922069207786"><ele>692.0</ele><time>2026-04-26T09:41:09Z</time></trkpt><trkpt lat="44.858921914095895" lon="9.381001454880728"><ele>692.0</ele><time>2026-04-26T09:41:10Z</time></trkpt><trkpt lat="44.85896755891045" lon="9.381076554978199"><ele>692.0</ele><time>2026-04-26T09:41:11Z</time></trkpt><trkpt lat="44.85903180096475" lon="9.381182380271875"><ele>692.0</ele><time>2026-04-26T09:41:13Z</time></trkpt><trkpt lat="44.85910788504941" lon="9.381215802164114"><ele>692.0</ele><time>2026-04-26T09:41:14Z</time></trkpt><trkpt lat="44.85918670841742" lon="9.381226358473048"><ele>692.0</ele><time>2026-04-26T09:41:15Z</time></trkpt><trkpt lat="44.859305388786105" lon="9.38123753195583"><ele>692.0</ele><time>2026-04-26T09:41:17Z</time></trkpt><trkpt lat="44.8593743418113" lon="9.381210289959379"><ele>692.0</ele><time>2026-04-26T09:41:18Z</time></trkpt><trkpt lat="44.859440389197346" lon="9.381190524000868"><ele>692.0</ele><time>2026-04-26T09:41:18.999Z</time></trkpt><trkpt lat="44.85955384858839" lon="9.381210896335865"><ele>687.8</ele><time>2026-04-26T09:41:20.999Z</time></trkpt><trkpt lat="44.85961015180743" lon="9.381254712737668"><ele>683.6</ele><time>2026-04-26T09:41:21.999Z</time></trkpt><trkpt lat="44.85965276784035" lon="9.38137318113916"><ele>679.4</ele><time>2026-04-26T09:41:23.999Z</time></trkpt><trkpt lat="44.85976927840452" lon="9.381385736701972"><ele>675.1999999999999</ele><time>2026-04-26T09:41:25.999Z</time></trkpt><trkpt lat="44.8598787275347" lon="9.38133965640531"><ele>671.0</ele><time>2026-04-26T09:41:27.999Z</time></trkpt><trkpt lat="44.85991682403355" lon="9.38147160866832"><ele>670.1666666666666</ele><time>2026-04-26T09:41:29.999Z</time></trkpt><trkpt lat="44.85987730510384" lon="9.38155827834579"><ele>669.3333333333333</ele><time>2026-04-26T09:41:30.999Z</time></trkpt><trkpt lat="44.859896308964906" lon="9.381663326220036"><ele>668.5</ele><time>2026-04-26T09:41:32.999Z</time></trkpt><trkpt lat="44.85996659613658" lon="9.381672096773032"><ele>667.6666666666666</ele><time>2026-04-26T09:41:33.999Z</time></trkpt><trkpt lat="44.86003132896777" lon="9.381657662331925"><ele>666.8333333333334</ele><time>2026-04-26T09:41:34.999Z</time></trkpt><trkpt lat="44.86010012713616" lon="9.38164227963339"><ele>666.0</ele><time>2026-04-26T09:41:35.999Z</time></trkpt><trkpt lat="44.860181107013155" lon="9.381755162818212"><ele>660.4</ele><time>2026-04-26T09:41:37.999Z</time></trkpt><trkpt lat="44.860180610248015" lon="9.381856813413641"><ele>654.8</ele><time>2026-04-26T09:41:38.999Z</time></trkpt><trkpt lat="44.8602106034912" lon="9.381995172517692"><ele>649.1999999999999</ele><time>2026-04-26T09:41:40.999Z</time></trkpt><trkpt lat="44.8602726267148" lon="9.38204166428428"><ele>643.5999999999999</ele><time>2026-04-26T09:41:41.999Z</time></trkpt><trkpt lat="44.86035754276072" lon="9.382109213888457"><ele>638.0</ele><time>2026-04-26T09:41:43.999Z</time></trkpt><trkpt lat="44.860448216151156" lon="9.38201296687454"><ele>638.0</ele><time>2026-04-26T09:41:45.999Z</time></trkpt><trkpt lat="44.86053101573888" lon="9.38188230328601"><ele>638.0</ele><time>2026-04-26T09:41:47.999Z</time></trkpt><trkpt lat="44.8605833074882" lon="9.381794185998903"><ele>638.0</ele><time>2026-04-26T09:41:49.999Z</time></trkpt><trkpt lat="44.86054555309513" lon="9.381677477950522"><ele>638.0</ele><time>2026-04-26T09:41:51.999Z</time></trkpt><trkpt lat="44.86049175364267" lon="9.381545794528474"><ele>638.0</ele><time>2026-04-26T09:41:53.999Z</time></trkpt><trkpt lat="44.86057152865252" lon="9.381545428161534"><ele>638.0</ele><time>2026-04-26T09:42:06.998Z</time></trkpt><trkpt lat="44.860659126112246" lon="9.381628762303233"><ele>638.0</ele><time>2026-04-26T09:42:07.998Z</time></trkpt><trkpt lat="44.86073646187437" lon="9.381710526040749"><ele>638.0</ele><time>2026-04-26T09:42:08.998Z</time></trkpt><trkpt lat="44.86076381288594" lon="9.381806884738717"><ele>638.0</ele><time>2026-04-26T09:42:09.998Z</time></trkpt><trkpt lat="44.86081248596863" lon="9.381895443565837"><ele>638.0</ele><time>2026-04-26T09:42:11.998Z</time></trkpt><trkpt lat="44.86097332397627" lon="9.381861961817762"><ele>632.6</ele><time>2026-04-26T09:42:14.998Z</time></trkpt><trkpt lat="44.861101740428865" lon="9.381891090181467"><ele>627.1999999999999</ele><time>2026-04-26T09:42:16.998Z</time></trkpt><trkpt lat="44.86116585127831" lon="9.381920080226738"><ele>621.8</ele><time>2026-04-26T09:42:17.998Z</time></trkpt><trkpt lat="44.86124138341993" lon="9.381948824070955"><ele>616.4</ele><time>2026-04-26T09:42:18.998Z</time></trkpt><trkpt lat="44.86134521078202" lon="9.382052796192282"><ele>611.0</ele><time>2026-04-26T09:42:20.998Z</time></trkpt><trkpt lat="44.86140110498799" lon="9.38211810619451"><ele>611.8</ele><time>2026-04-26T09:42:21.998Z</time></trkpt><trkpt lat="44.86143856372001" lon="9.382202572351135"><ele>612.6</ele><time>2026-04-26T09:42:22.998Z</time></trkpt><trkpt lat="44.86148248905651" lon="9.382357190178503"><ele>613.4</ele><time>2026-04-26T09:42:24.998Z</time></trkpt><trkpt lat="44.86147926614275" lon="9.382451008801807"><ele>614.2</ele><time>2026-04-26T09:42:25.998Z</time></trkpt><trkpt lat="44.86144256569284" lon="9.382592933860245"><ele>615.0</ele><time>2026-04-26T09:42:27.998Z</time></trkpt><trkpt lat="44.861425687575355" lon="9.382760860395901"><ele>615.0</ele><time>2026-04-26T09:42:29.998Z</time></trkpt><trkpt lat="44.86143660647856" lon="9.382848763689816"><ele>615.0</ele><time>2026-04-26T09:42:30.998Z</time></trkpt><trkpt lat="44.86146017455747" lon="9.382937907094908"><ele>615.0</ele><time>2026-04-26T09:42:31.998Z</time></trkpt><trkpt lat="44.86150290989923" lon="9.383014216072116"><ele>615.0</ele><time>2026-04-26T09:42:32.998Z</time></trkpt><trkpt lat="44.86156362125814" lon="9.383155331181625"><ele>615.0</ele><time>2026-04-26T09:42:34.998Z</time></trkpt><trkpt lat="44.861621840261" lon="9.383265592712117"><ele>615.0</ele><time>2026-04-26T09:42:36.998Z</time></trkpt><trkpt lat="44.86173318036052" lon="9.383340890950087"><ele>611.5714285714286</ele><time>2026-04-26T09:42:38.998Z</time></trkpt><trkpt lat="44.86179885647577" lon="9.383396550091"><ele>608.1428571428572</ele><time>2026-04-26T09:42:39.998Z</time></trkpt><trkpt lat="44.86184819011179" lon="9.383472980231485"><ele>604.7142857142858</ele><time>2026-04-26T09:42:40.998Z</time></trkpt><trkpt lat="44.861877773349846" lon="9.383556341294083"><ele>601.2857142857142</ele><time>2026-04-26T09:42:41.998Z</time></trkpt><trkpt lat="44.86189128400863" lon="9.383659254160461"><ele>597.8571428571429</ele><time>2026-04-26T09:42:42.998Z</time></trkpt><trkpt lat="44.861907303425525" lon="9.383759722528527"><ele>594.4285714285714</ele><time>2026-04-26T09:42:43.998Z</time></trkpt><trkpt lat="44.861910786503024" lon="9.383869267681748"><ele>591.0</ele><time>2026-04-26T09:42:45.997Z</time></trkpt><trkpt lat="44.86207952294503" lon="9.383802113470523"><ele>591.0</ele><time>2026-04-26T09:42:53Z</time></trkpt><trkpt lat="44.86216407699721" lon="9.38369829824018"><ele>591.0</ele><time>2026-04-26T09:42:55Z</time></trkpt><trkpt lat="44.862274643869085" lon="9.38361085040347"><ele>591.0</ele><time>2026-04-26T09:42:57Z</time></trkpt><trkpt lat="44.86237289332075" lon="9.383553188313124"><ele>591.0</ele><time>2026-04-26T09:42:59Z</time></trkpt><trkpt lat="44.862451569742134" lon="9.38347799820131"><ele>591.0</ele><time>2026-04-26T09:43:01Z</time></trkpt><trkpt lat="44.86248635593564" lon="9.383393617559298"><ele>591.0</ele><time>2026-04-26T09:43:02Z</time></trkpt><trkpt lat="44.86253477697753" lon="9.383307845390812"><ele>591.0</ele><time>2026-04-26T09:43:03Z</time></trkpt><trkpt lat="44.86258786709455" lon="9.383240068537788"><ele>591.0</ele><time>2026-04-26T09:43:04Z</time></trkpt><trkpt lat="44.86265277206229" lon="9.383181179391979"><ele>591.0</ele><time>2026-04-26T09:43:05Z</time></trkpt><trkpt lat="44.862722273842216" lon="9.383127231184295"><ele>591.0</ele><time>2026-04-26T09:43:06Z</time></trkpt><trkpt lat="44.86279644681722" lon="9.383078905481902"><ele>591.0</ele><time>2026-04-26T09:43:07Z</time></trkpt><trkpt lat="44.862893387286405" lon="9.382975386663244"><ele>589.7142857142857</ele><time>2026-04-26T09:43:09Z</time></trkpt><trkpt lat="44.86294677014751" lon="9.382893029700726"><ele>588.4285714285714</ele><time>2026-04-26T09:43:10Z</time></trkpt><trkpt lat="44.86299137110205" lon="9.382800054015448"><ele>587.1428571428571</ele><time>2026-04-26T09:43:11Z</time></trkpt><trkpt lat="44.86302052112503" lon="9.382710082564449"><ele>585.8571428571429</ele><time>2026-04-26T09:43:12Z</time></trkpt><trkpt lat="44.86304228708177" lon="9.382611224092846"><ele>584.5714285714286</ele><time>2026-04-26T09:43:14Z</time></trkpt><trkpt lat="44.86310480092607" lon="9.382581551114667"><ele>583.2857142857142</ele><time>2026-04-26T09:43:16Z</time></trkpt><trkpt lat="44.86316560304933" lon="9.382613941480413"><ele>582.0</ele><time>2026-04-26T09:43:20Z</time></trkpt><trkpt lat="44.86322571178023" lon="9.38265311093486"><ele>582.0</ele><time>2026-04-26T09:43:23.999Z</time></trkpt><trkpt lat="44.86330217359769" lon="9.382699869939191"><ele>582.0</ele><time>2026-04-26T09:43:27.999Z</time></trkpt><trkpt lat="44.86335003283719" lon="9.382774478657026"><ele>582.0</ele><time>2026-04-26T09:43:28.999Z</time></trkpt><trkpt lat="44.863501617938994" lon="9.382985363202177"><ele>582.0</ele><time>2026-04-26T09:43:29.999Z</time></trkpt><trkpt lat="44.863514135043545" lon="9.383098761901422"><ele>582.0</ele><time>2026-04-26T09:43:30.999Z</time></trkpt><trkpt lat="44.863523638746614" lon="9.383259595311886"><ele>579.0</ele><time>2026-04-26T09:43:31.999Z</time></trkpt><trkpt lat="44.86355247238692" lon="9.383367541488651"><ele>576.0</ele><time>2026-04-26T09:43:32.999Z</time></trkpt><trkpt lat="44.86363529747897" lon="9.383493568480363"><ele>573.0</ele><time>2026-04-26T09:43:34.999Z</time></trkpt><trkpt lat="44.86369403462147" lon="9.383549960914886"><ele>570.0</ele><time>2026-04-26T09:43:35.999Z</time></trkpt><trkpt lat="44.863821911674655" lon="9.383654714396696"><ele>567.0</ele><time>2026-04-26T09:43:37.999Z</time></trkpt><trkpt lat="44.86391122807939" lon="9.383743702072705"><ele>567.0</ele><time>2026-04-26T09:43:39.999Z</time></trkpt><trkpt lat="44.86396328209713" lon="9.383819513259574"><ele>567.0</ele><time>2026-04-26T09:43:41.999Z</time></trkpt><trkpt lat="44.86403802566622" lon="9.383924930355365"><ele>567.0</ele><time>2026-04-26T09:43:44.999Z</time></trkpt><trkpt lat="44.86418274978096" lon="9.383908649779867"><ele>567.0</ele><time>2026-04-26T09:43:46.999Z</time></trkpt><trkpt lat="44.864255295295045" lon="9.383888978390047"><ele>567.0</ele><time>2026-04-26T09:43:47.999Z</time></trkpt><trkpt lat="44.86431804917484" lon="9.383859098412263"><ele>564.8000000000001</ele><time>2026-04-26T09:43:48.999Z</time></trkpt><trkpt lat="44.8644111666848" lon="9.383824939285876"><ele>562.6</ele><time>2026-04-26T09:43:49.999Z</time></trkpt><trkpt lat="44.86451812971074" lon="9.383785074616263"><ele>560.4000000000001</ele><time>2026-04-26T09:43:50.999Z</time></trkpt><trkpt lat="44.86464455100339" lon="9.383774270987633"><ele>558.2</ele><time>2026-04-26T09:43:51.999Z</time></trkpt><trkpt lat="44.864747068219444" lon="9.383765329031538"><ele>556.0</ele><time>2026-04-26T09:43:52.999Z</time></trkpt><trkpt lat="44.86483427063674" lon="9.38372358103492"><ele>556.0</ele><time>2026-04-26T09:43:53.999Z</time></trkpt><trkpt lat="44.86492153211005" lon="9.383714551048806"><ele>556.0</ele><time>2026-04-26T09:43:54.999Z</time></trkpt><trkpt lat="44.86499580977099" lon="9.383663566923211"><ele>556.0</ele><time>2026-04-26T09:43:55.999Z</time></trkpt><trkpt lat="44.86508032703459" lon="9.383647898937417"><ele>556.0</ele><time>2026-04-26T09:43:56.999Z</time></trkpt><trkpt lat="44.86515980720553" lon="9.383640723585641"><ele>556.0</ele><time>2026-04-26T09:43:57.999Z</time></trkpt><trkpt lat="44.86524166806375" lon="9.383652302631422"><ele>556.0</ele><time>2026-04-26T09:43:58.999Z</time></trkpt><trkpt lat="44.8653258971407" lon="9.383683280395827"><ele>555.6666666666667</ele><time>2026-04-26T09:43:59.999Z</time></trkpt><trkpt lat="44.86540895375585" lon="9.383728784634295"><ele>555.3333333333334</ele><time>2026-04-26T09:44:00.999Z</time></trkpt><trkpt lat="44.86548406270541" lon="9.383779235947916"><ele>555.0</ele><time>2026-04-26T09:44:01.999Z</time></trkpt><trkpt lat="44.865557798456116" lon="9.383826429417889"><ele>554.6666666666666</ele><time>2026-04-26T09:44:02.999Z</time></trkpt><trkpt lat="44.865623455871706" lon="9.383868919327483"><ele>554.3333333333333</ele><time>2026-04-26T09:44:03.999Z</time></trkpt><trkpt lat="44.86568547925525" lon="9.383909376817396"><ele>554.0</ele><time>2026-04-26T09:44:04.999Z</time></trkpt><trkpt lat="44.865745706053474" lon="9.383955663598973"><ele>554.0</ele><time>2026-04-26T09:44:05.999Z</time></trkpt><trkpt lat="44.8658446502706" lon="9.384065977595847"><ele>554.0</ele><time>2026-04-26T09:44:07.998Z</time></trkpt><trkpt lat="44.86589328801793" lon="9.384231612200798"><ele>554.0</ele><time>2026-04-26T09:44:09.998Z</time></trkpt><trkpt lat="44.86587370393587" lon="9.384383776763004"><ele>554.0</ele><time>2026-04-26T09:44:11.998Z</time></trkpt><trkpt lat="44.86583210773727" lon="9.38447107231546"><ele>554.0</ele><time>2026-04-26T09:44:12.998Z</time></trkpt><trkpt lat="44.865766354130635" lon="9.3845679572609"><ele>554.0</ele><time>2026-04-26T09:44:13.998Z</time></trkpt><trkpt lat="44.86568356256854" lon="9.384652323275244"><ele>554.0</ele><time>2026-04-26T09:44:14.998Z</time></trkpt><trkpt lat="44.86560060946771" lon="9.384727446707926"><ele>554.0</ele><time>2026-04-26T09:44:15.998Z</time></trkpt><trkpt lat="44.8655405745272" lon="9.384821751639018"><ele>554.0</ele><time>2026-04-26T09:44:16.998Z</time></trkpt><trkpt lat="44.86549868080481" lon="9.384923086934787"><ele>554.0</ele><time>2026-04-26T09:44:17.998Z</time></trkpt><trkpt lat="44.865470101210754" lon="9.385031748225172"><ele>552.5</ele><time>2026-04-26T09:44:18.998Z</time></trkpt><trkpt lat="44.865450161822146" lon="9.385139994596145"><ele>551.0</ele><time>2026-04-26T09:44:19.998Z</time></trkpt><trkpt lat="44.8654306086827" lon="9.385242792305542"><ele>549.5</ele><time>2026-04-26T09:44:20.998Z</time></trkpt><trkpt lat="44.86540177398869" lon="9.385329369096263"><ele>548.0</ele><time>2026-04-26T09:44:21.998Z</time></trkpt><trkpt lat="44.86533571325248" lon="9.385453287636942"><ele>546.5</ele><time>2026-04-26T09:44:23.998Z</time></trkpt><trkpt lat="44.86529765767839" lon="9.385532449065856"><ele>545.0</ele><time>2026-04-26T09:44:25.998Z</time></trkpt><trkpt lat="44.86542212886028" lon="9.385596003977165"><ele>543.2</ele><time>2026-04-26T09:44:29.998Z</time></trkpt><trkpt lat="44.865506862655636" lon="9.385663089748242"><ele>541.4</ele><time>2026-04-26T09:44:31.998Z</time></trkpt><trkpt lat="44.86554235130332" lon="9.38579857898495"><ele>539.6</ele><time>2026-04-26T09:44:33.998Z</time></trkpt><trkpt lat="44.865541359432335" lon="9.38592424447143"><ele>537.8</ele><time>2026-04-26T09:44:35.998Z</time></trkpt><trkpt lat="44.86555405057298" lon="9.386088677242208"><ele>536.0</ele><time>2026-04-26T09:44:37.998Z</time></trkpt><trkpt lat="44.86562818434291" lon="9.38622215049212"><ele>536.0</ele><time>2026-04-26T09:44:39.998Z</time></trkpt><trkpt lat="44.865729031196985" lon="9.386339384843021"><ele>536.0</ele><time>2026-04-26T09:44:41.998Z</time></trkpt><trkpt lat="44.86583560571115" lon="9.38640613335029"><ele>536.0</ele><time>2026-04-26T09:44:43.998Z</time></trkpt><trkpt lat="44.86593192588767" lon="9.38648426780376"><ele>536.0</ele><time>2026-04-26T09:44:45.998Z</time></trkpt><trkpt lat="44.866008438257694" lon="9.3865940772822"><ele>531.8</ele><time>2026-04-26T09:44:47.998Z</time></trkpt><trkpt lat="44.86603327847084" lon="9.386677153114785"><ele>527.6</ele><time>2026-04-26T09:44:48.998Z</time></trkpt><trkpt lat="44.8661346494187" lon="9.386750916552929"><ele>523.4</ele><time>2026-04-26T09:44:50.997Z</time></trkpt><trkpt lat="44.86625436562204" lon="9.386807058525106"><ele>519.2</ele><time>2026-04-26T09:44:52.997Z</time></trkpt><trkpt lat="44.866381394209114" lon="9.386790679484598"><ele>515.0</ele><time>2026-04-26T09:44:55Z</time></trkpt><trkpt lat="44.86644602122258" lon="9.386783606193815"><ele>515.0</ele><time>2026-04-26T09:44:56Z</time></trkpt><trkpt lat="44.86655765203327" lon="9.386817791884429"><ele>515.0</ele><time>2026-04-26T09:44:58Z</time></trkpt><trkpt lat="44.86663746496379" lon="9.386851222220608"><ele>515.0</ele><time>2026-04-26T09:45:00Z</time></trkpt><trkpt lat="44.86670052005076" lon="9.386880020300708"><ele>515.0</ele><time>2026-04-26T09:45:02Z</time></trkpt><trkpt lat="44.866780719726954" lon="9.386934661454216"><ele>515.0</ele><time>2026-04-26T09:45:05Z</time></trkpt><trkpt lat="44.866846331427425" lon="9.387014076166508"><ele>515.0</ele><time>2026-04-26T09:45:07Z</time></trkpt><trkpt lat="44.86690522969048" lon="9.38711020654904"><ele>512.6</ele><time>2026-04-26T09:45:09Z</time></trkpt><trkpt lat="44.86695845210533" lon="9.387229850901257"><ele>510.2</ele><time>2026-04-26T09:45:11Z</time></trkpt><trkpt lat="44.867014338386795" lon="9.387307720858477"><ele>507.79999999999995</ele><time>2026-04-26T09:45:13Z</time></trkpt><trkpt lat="44.867108153217" lon="9.387338887878327"><ele>505.4</ele><time>2026-04-26T09:45:15Z</time></trkpt><trkpt lat="44.86720214341799" lon="9.387432922100892"><ele>503.0</ele><time>2026-04-26T09:45:17Z</time></trkpt><trkpt lat="44.86728391195985" lon="9.387521018034246"><ele>503.0</ele><time>2026-04-26T09:45:19Z</time></trkpt><trkpt lat="44.867414502887414" lon="9.38758989092782"><ele>502.99999999999994</ele><time>2026-04-26T09:45:23Z</time></trkpt><trkpt lat="44.867506197992185" lon="9.387602503112886"><ele>502.99999999999994</ele><time>2026-04-26T09:45:25Z</time></trkpt><trkpt lat="44.86759638481098" lon="9.387603835060988"><ele>503.0</ele><time>2026-04-26T09:45:26Z</time></trkpt><trkpt lat="44.86769426561289" lon="9.38759762094872"><ele>503.0</ele><time>2026-04-26T09:45:28Z</time></trkpt><trkpt lat="44.86777992096655" lon="9.38768108595422"><ele>500.0</ele><time>2026-04-26T09:45:30Z</time></trkpt><trkpt lat="44.867815731461555" lon="9.387767625294094"><ele>496.99999999999994</ele><time>2026-04-26T09:45:33.999Z</time></trkpt><trkpt lat="44.86785721902184" lon="9.387857614546723"><ele>493.99999999999994</ele><time>2026-04-26T09:45:35.999Z</time></trkpt><trkpt lat="44.86792573262955" lon="9.387938594281994"><ele>491.0</ele><time>2026-04-26T09:45:37.999Z</time></trkpt><trkpt lat="44.868052697254186" lon="9.38799503878181"><ele>488.0</ele><time>2026-04-26T09:45:39.999Z</time></trkpt><trkpt lat="44.868157229569" lon="9.38799569524926"><ele>487.3333333333333</ele><time>2026-04-26T09:45:40.999Z</time></trkpt><trkpt lat="44.86841940879791" lon="9.388034631821057"><ele>486.66666666666663</ele><time>2026-04-26T09:45:47.999Z</time></trkpt><trkpt lat="44.868519493558544" lon="9.388062462343033"><ele>486.0</ele><time>2026-04-26T09:45:50.999Z</time></trkpt><trkpt lat="44.86862293939844" lon="9.38803368705095"><ele>483.0</ele><time>2026-04-26T09:45:52.999Z</time></trkpt><trkpt lat="44.86870719784099" lon="9.387920640957983"><ele>480.0</ele><time>2026-04-26T09:45:53.999Z</time></trkpt><trkpt lat="44.86878108266858" lon="9.387851951603956"><ele>477.0</ele><time>2026-04-26T09:45:54.999Z</time></trkpt><trkpt lat="44.86883333501183" lon="9.387798871449109"><ele>474.0</ele><time>2026-04-26T09:45:55.999Z</time></trkpt><trkpt lat="44.86888685404074" lon="9.387742175418921"><ele>471.0</ele><time>2026-04-26T09:45:56.999Z</time></trkpt><trkpt lat="44.86898611966065" lon="9.38765115936976"><ele>471.0</ele><time>2026-04-26T09:45:58.999Z</time></trkpt><trkpt lat="44.86906058656809" lon="9.387584974047769"><ele>471.0</ele><time>2026-04-26T09:46:00.999Z</time></trkpt><trkpt lat="44.8691389721075" lon="9.387530928436501"><ele>471.0</ele><time>2026-04-26T09:46:02.999Z</time></trkpt><trkpt lat="44.869195936914394" lon="9.387447632412318"><ele>471.0</ele><time>2026-04-26T09:46:04.999Z</time></trkpt><trkpt lat="44.86923275343231" lon="9.3873718325779"><ele>471.0</ele><time>2026-04-26T09:46:06.999Z</time></trkpt><trkpt lat="44.86929816604068" lon="9.387365639305735"><ele>471.0</ele><time>2026-04-26T09:46:12.999Z</time></trkpt><trkpt lat="44.869359872296776" lon="9.387391390802357"><ele>465.0</ele><time>2026-04-26T09:46:14.998Z</time></trkpt><trkpt lat="44.86940422891333" lon="9.387466560223249"><ele>459.0</ele><time>2026-04-26T09:46:16.998Z</time></trkpt><trkpt lat="44.8694700885901" lon="9.387454826557233"><ele>453.0</ele><time>2026-04-26T09:46:17.998Z</time></trkpt><trkpt lat="44.86950003488129" lon="9.387367827713076"><ele>447.0</ele><time>2026-04-26T09:46:18.998Z</time></trkpt><trkpt lat="44.869461242000284" lon="9.38724561517071"><ele>441.0</ele><time>2026-04-26T09:46:20.998Z</time></trkpt><trkpt lat="44.869444455198845" lon="9.38713279574564"><ele>435.0</ele><time>2026-04-26T09:46:23.998Z</time></trkpt><trkpt lat="44.86955741018412" lon="9.387084312073931"><ele>434.8333333333333</ele><time>2026-04-26T09:46:26.998Z</time></trkpt><trkpt lat="44.86965158200825" lon="9.387085908203371"><ele>434.66666666666663</ele><time>2026-04-26T09:46:28.998Z</time></trkpt><trkpt lat="44.86970241848379" lon="9.387142463596193"><ele>434.5</ele><time>2026-04-26T09:46:30.998Z</time></trkpt><trkpt lat="44.869716884187824" lon="9.387024829201566"><ele>434.3333333333333</ele><time>2026-04-26T09:46:34.998Z</time></trkpt><trkpt lat="44.86974903989919" lon="9.386904960302532"><ele>434.16666666666663</ele><time>2026-04-26T09:46:37.998Z</time></trkpt><trkpt lat="44.869803598429215" lon="9.386843460469434"><ele>434.0</ele><time>2026-04-26T09:46:51.998Z</time></trkpt><trkpt lat="44.86986365361415" lon="9.386897549756698"><ele>433.99999999999994</ele><time>2026-04-26T09:46:53.998Z</time></trkpt><trkpt lat="44.86992058080902" lon="9.386960884830666"><ele>434.0</ele><time>2026-04-26T09:46:55.998Z</time></trkpt><trkpt lat="44.869973631784305" lon="9.38704417609493"><ele>434.0</ele><time>2026-04-26T09:46:57.997Z</time></trkpt><trkpt lat="44.87005297473796" lon="9.3871650878864"><ele>434.0</ele><time>2026-04-26T09:46:59.997Z</time></trkpt><trkpt lat="44.87009583103632" lon="9.38724796769009"><ele>433.99999999999994</ele><time>2026-04-26T09:47:01Z</time></trkpt><trkpt lat="44.87014343585245" lon="9.387365099003487"><ele>434.0</ele><time>2026-04-26T09:47:02Z</time></trkpt><trkpt lat="44.8702044029059" lon="9.38748451084316"><ele>431.4</ele><time>2026-04-26T09:47:03Z</time></trkpt><trkpt lat="44.87025922140638" lon="9.387591015844704"><ele>428.79999999999995</ele><time>2026-04-26T09:47:04Z</time></trkpt><trkpt lat="44.87030881238387" lon="9.387672614172956"><ele>426.20000000000005</ele><time>2026-04-26T09:47:05Z</time></trkpt><trkpt lat="44.870353974565056" lon="9.38774045979265"><ele>423.6</ele><time>2026-04-26T09:47:06Z</time></trkpt><trkpt lat="44.870437254190804" lon="9.387854433636916"><ele>421.0</ele><time>2026-04-26T09:47:08Z</time></trkpt><trkpt lat="44.87051394171351" lon="9.38795558284167"><ele>421.00000000000006</ele><time>2026-04-26T09:47:10Z</time></trkpt><trkpt lat="44.870556510807766" lon="9.388027780023627"><ele>421.0</ele><time>2026-04-26T09:47:12Z</time></trkpt><trkpt lat="44.8706345884503" lon="9.388089134296857"><ele>421.0</ele><time>2026-04-26T09:47:16Z</time></trkpt><trkpt lat="44.87070750043631" lon="9.388078540193677"><ele>421.0</ele><time>2026-04-26T09:47:18Z</time></trkpt><trkpt lat="44.87077536349601" lon="9.38805566040161"><ele>421.00000000000006</ele><time>2026-04-26T09:47:20Z</time></trkpt><trkpt lat="44.870780492755976" lon="9.387929302995968"><ele>421.0</ele><time>2026-04-26T09:47:28Z</time></trkpt><trkpt lat="44.87080204409483" lon="9.38777659821297"><ele>421.0</ele><time>2026-04-26T09:47:29Z</time></trkpt><trkpt lat="44.870791607756914" lon="9.387626579995363"><ele>421.0</ele><time>2026-04-26T09:47:30Z</time></trkpt><trkpt lat="44.87081237181803" lon="9.387493268537106"><ele>421.0</ele><time>2026-04-26T09:47:31Z</time></trkpt><trkpt lat="44.87083799713574" lon="9.387371074669568"><ele>421.0</ele><time>2026-04-26T09:47:32Z</time></trkpt><trkpt lat="44.87087652788734" lon="9.387298991441138"><ele>421.0</ele><time>2026-04-26T09:47:33Z</time></trkpt><trkpt lat="44.87096045286421" lon="9.387194178989986"><ele>420.6666666666667</ele><time>2026-04-26T09:47:34.999Z</time></trkpt><trkpt lat="44.871003698389345" lon="9.387104165862041"><ele>420.33333333333337</ele><time>2026-04-26T09:47:35.999Z</time></trkpt><trkpt lat="44.871000792807166" lon="9.387006355795751"><ele>420.0</ele><time>2026-04-26T09:47:36.999Z</time></trkpt><trkpt lat="44.87101098971313" lon="9.386881690681117"><ele>419.66666666666663</ele><time>2026-04-26T09:47:37.999Z</time></trkpt><trkpt lat="44.871032512167524" lon="9.38676404120853"><ele>419.3333333333333</ele><time>2026-04-26T09:47:38.999Z</time></trkpt><trkpt lat="44.8710455918879" lon="9.386662693819787"><ele>419.0</ele><time>2026-04-26T09:47:39.999Z</time></trkpt><trkpt lat="44.87106197963398" lon="9.38654708394188"><ele>419.0</ele><time>2026-04-26T09:47:40.999Z</time></trkpt><trkpt lat="44.871054702970746" lon="9.386423911963048"><ele>419.0</ele><time>2026-04-26T09:47:41.999Z</time></trkpt><trkpt lat="44.87104009418065" lon="9.386309095514303"><ele>419.0</ele><time>2026-04-26T09:47:42.999Z</time></trkpt><trkpt lat="44.871058614809314" lon="9.386160226278507"><ele>419.0</ele><time>2026-04-26T09:47:44.999Z</time></trkpt><trkpt lat="44.871103120849675" lon="9.386094529451636"><ele>419.0</ele><time>2026-04-26T09:47:45.999Z</time></trkpt><trkpt lat="44.87120483467255" lon="9.386009031135384"><ele>418.16666666666663</ele><time>2026-04-26T09:47:46.999Z</time></trkpt><trkpt lat="44.87128333750827" lon="9.385915201388709"><ele>417.3333333333333</ele><time>2026-04-26T09:47:47.999Z</time></trkpt><trkpt lat="44.87134617689808" lon="9.38582686235423"><ele>416.5</ele><time>2026-04-26T09:47:48.999Z</time></trkpt><trkpt lat="44.87140641488102" lon="9.385776943875028"><ele>415.66666666666663</ele><time>2026-04-26T09:47:49.999Z</time></trkpt><trkpt lat="44.87147314709972" lon="9.385691627529672"><ele>414.8333333333333</ele><time>2026-04-26T09:47:54.999Z</time></trkpt><trkpt lat="44.87152562382308" lon="9.38563849949279"><ele>414.0</ele><time>2026-04-26T09:47:58.999Z</time></trkpt><trkpt lat="44.87149756703997" lon="9.385554091689176"><ele>414.1666666666667</ele><time>2026-04-26T09:47:59.999Z</time></trkpt><trkpt lat="44.87144664013368" lon="9.38540372145453"><ele>414.33333333333337</ele><time>2026-04-26T09:48:00.999Z</time></trkpt><trkpt lat="44.87142403300049" lon="9.385289143452077"><ele>414.5</ele><time>2026-04-26T09:48:02.999Z</time></trkpt><trkpt lat="44.871488182698954" lon="9.385276063517463"><ele>414.6666666666667</ele><time>2026-04-26T09:48:04.999Z</time></trkpt><trkpt lat="44.87147188547974" lon="9.38517386675524"><ele>414.83333333333337</ele><time>2026-04-26T09:48:08.999Z</time></trkpt><trkpt lat="44.871435514572674" lon="9.385070515427705"><ele>415.0</ele><time>2026-04-26T09:48:11.999Z</time></trkpt><trkpt lat="44.87153305190591" lon="9.384068991326942"><ele>414.6666666666667</ele><time>2026-04-26T09:48:13.999Z</time></trkpt><trkpt lat="44.87158131930682" lon="9.38399408922669"><ele>414.33333333333337</ele><time>2026-04-26T09:48:14.999Z</time></trkpt><trkpt lat="44.87160829847163" lon="9.383906600656422"><ele>414.0</ele><time>2026-04-26T09:48:15.999Z</time></trkpt><trkpt lat="44.871542367608434" lon="9.383754923101602"><ele>413.66666666666663</ele><time>2026-04-26T09:48:17.999Z</time></trkpt><trkpt lat="44.87148707957986" lon="9.383695238229993"><ele>413.3333333333333</ele><time>2026-04-26T09:48:18.998Z</time></trkpt><trkpt lat="44.87146112570822" lon="9.38358497184675"><ele>413.0</ele><time>2026-04-26T09:48:19.998Z</time></trkpt><trkpt lat="44.87145995171821" lon="9.383453242797561"><ele>412.0</ele><time>2026-04-26T09:48:20.998Z</time></trkpt><trkpt lat="44.8714670952855" lon="9.383250464822245"><ele>411.0</ele><time>2026-04-26T09:48:22.998Z</time></trkpt><trkpt lat="44.87148074734267" lon="9.38312896984149"><ele>410.0</ele><time>2026-04-26T09:48:23.998Z</time></trkpt><trkpt lat="44.871520588756944" lon="9.38300591379682"><ele>409.0</ele><time>2026-04-26T09:48:24.998Z</time></trkpt><trkpt lat="44.87158713823763" lon="9.382886705045639"><ele>408.0</ele><time>2026-04-26T09:48:25.998Z</time></trkpt><trkpt lat="44.8716198654277" lon="9.382786470496278"><ele>407.2</ele><time>2026-04-26T09:48:26.998Z</time></trkpt><trkpt lat="44.87164512868323" lon="9.382657295418213"><ele>406.4</ele><time>2026-04-26T09:48:27.998Z</time></trkpt><trkpt lat="44.871662008892635" lon="9.382511427489217"><ele>405.59999999999997</ele><time>2026-04-26T09:48:28.998Z</time></trkpt><trkpt lat="44.87168261457864" lon="9.382342512426039"><ele>404.79999999999995</ele><time>2026-04-26T09:48:29.998Z</time></trkpt><trkpt lat="44.87169026473831" lon="9.382230874653171"><ele>404.0</ele><time>2026-04-26T09:48:30.998Z</time></trkpt><trkpt lat="44.871633890136295" lon="9.38243367627415"><ele>403.99999999999994</ele><time>2026-04-26T09:48:31.998Z</time></trkpt><trkpt lat="44.871677414570804" lon="9.382359533445602"><ele>404.0</ele><time>2026-04-26T09:48:32.998Z</time></trkpt><trkpt lat="44.87172805373295" lon="9.38229880093255"><ele>404.0</ele><time>2026-04-26T09:48:33.998Z</time></trkpt><trkpt lat="44.87181958737092" lon="9.382243662908667"><ele>404.0</ele><time>2026-04-26T09:48:35.998Z</time></trkpt><trkpt lat="44.871901734082925" lon="9.382220171145445"><ele>403.99999999999994</ele><time>2026-04-26T09:48:37.998Z</time></trkpt><trkpt lat="44.87196250490688" lon="9.382186541622442"><ele>404.0</ele><time>2026-04-26T09:48:39.998Z</time></trkpt><trkpt lat="44.872011013816284" lon="9.382261587556908"><ele>404.8333333333333</ele><time>2026-04-26T09:48:42.998Z</time></trkpt><trkpt lat="44.87206573948066" lon="9.382329973055276"><ele>405.66666666666663</ele><time>2026-04-26T09:48:58.998Z</time></trkpt><trkpt lat="44.87215325260306" lon="9.38241091683054"><ele>406.5</ele><time>2026-04-26T09:49:18Z</time></trkpt><trkpt lat="44.87221031197592" lon="9.382479365511257"><ele>407.33333333333337</ele><time>2026-04-26T09:49:19Z</time></trkpt><trkpt lat="44.872262118834854" lon="9.382577371023501"><ele>408.1666666666667</ele><time>2026-04-26T09:49:20Z</time></trkpt><trkpt lat="44.87231293263222" lon="9.382689361995437"><ele>409.0</ele><time>2026-04-26T09:49:21Z</time></trkpt><trkpt lat="44.87237324460726" lon="9.382808226807008"><ele>409.0</ele><time>2026-04-26T09:49:22Z</time></trkpt><trkpt lat="44.87245803488228" lon="9.382931180411477"><ele>409.0</ele><time>2026-04-26T09:49:23Z</time></trkpt><trkpt lat="44.87256618318504" lon="9.383052615573716"><ele>409.0</ele><time>2026-04-26T09:49:24Z</time></trkpt><trkpt lat="44.87266950318988" lon="9.383168090993081"><ele>409.0</ele><time>2026-04-26T09:49:25Z</time></trkpt><trkpt lat="44.87278481802831" lon="9.383324146297326"><ele>413.5</ele><time>2026-04-26T09:49:26Z</time></trkpt><trkpt lat="44.87289409017755" lon="9.383470602601573"><ele>418.0</ele><time>2026-04-26T09:49:27Z</time></trkpt><trkpt lat="44.87296900763535" lon="9.383594331662835"><ele>422.5</ele><time>2026-04-26T09:49:28Z</time></trkpt><trkpt lat="44.8730165529496" lon="9.383727297579625"><ele>427.0</ele><time>2026-04-26T09:49:29Z</time></trkpt><trkpt lat="44.87305000185997" lon="9.383838422277407"><ele>429.5</ele><time>2026-04-26T09:49:30Z</time></trkpt><trkpt lat="44.87313012196376" lon="9.383909800090544"><ele>432.0</ele><time>2026-04-26T09:49:31Z</time></trkpt><trkpt lat="44.87326468807704" lon="9.383911432302892"><ele>434.5</ele><time>2026-04-26T09:49:32Z</time></trkpt><trkpt lat="44.87336903622453" lon="9.383916714999103"><ele>437.0</ele><time>2026-04-26T09:49:33Z</time></trkpt><trkpt lat="44.87345661471104" lon="9.384030896441592"><ele>439.20000000000005</ele><time>2026-04-26T09:49:34Z</time></trkpt><trkpt lat="44.87351682830352" lon="9.384137428073105"><ele>441.40000000000003</ele><time>2026-04-26T09:49:35Z</time></trkpt><trkpt lat="44.87356290956532" lon="9.384289419792024"><ele>443.59999999999997</ele><time>2026-04-26T09:49:36Z</time></trkpt><trkpt lat="44.87362901427845" lon="9.384432648734668"><ele>445.79999999999995</ele><time>2026-04-26T09:49:37Z</time></trkpt><trkpt lat="44.87368914847974" lon="9.384515904131451"><ele>448.0</ele><time>2026-04-26T09:49:38Z</time></trkpt><trkpt lat="44.873722306305226" lon="9.384645673742064"><ele>449.1666666666667</ele><time>2026-04-26T09:49:40Z</time></trkpt><trkpt lat="44.873735186941495" lon="9.38482441089644"><ele>450.33333333333337</ele><time>2026-04-26T09:49:41.999Z</time></trkpt><trkpt lat="44.87374309180476" lon="9.384933415826598"><ele>451.5</ele><time>2026-04-26T09:49:42.999Z</time></trkpt><trkpt lat="44.87375540717786" lon="9.38502555457666"><ele>452.66666666666663</ele><time>2026-04-26T09:49:43.999Z</time></trkpt><trkpt lat="44.87383411101453" lon="9.385124467312409"><ele>453.8333333333333</ele><time>2026-04-26T09:49:45.999Z</time></trkpt><trkpt lat="44.87390050091935" lon="9.385136962366802"><ele>455.0</ele><time>2026-04-26T09:49:46.999Z</time></trkpt><trkpt lat="44.87397018555089" lon="9.385163279143299"><ele>455.0</ele><time>2026-04-26T09:49:47.999Z</time></trkpt><trkpt lat="44.874030551467236" lon="9.385202135151113"><ele>455.0</ele><time>2026-04-26T09:49:48.999Z</time></trkpt><trkpt lat="44.87408800463947" lon="9.385280609228158"><ele>455.0</ele><time>2026-04-26T09:49:49.999Z</time></trkpt><trkpt lat="44.874145111285834" lon="9.385380983994997"><ele>455.0</ele><time>2026-04-26T09:49:50.999Z</time></trkpt><trkpt lat="44.874188368844074" lon="9.385466994412749"><ele>455.0</ele><time>2026-04-26T09:49:51.999Z</time></trkpt><trkpt lat="44.874227019941884" lon="9.385540460341977"><ele>455.0</ele><time>2026-04-26T09:49:53.999Z</time></trkpt><trkpt lat="44.87428574434777" lon="9.385578613647006"><ele>455.0</ele><time>2026-04-26T09:49:56.999Z</time></trkpt><trkpt lat="44.874400013174345" lon="9.385680101420355"><ele>457.3333333333333</ele><time>2026-04-26T09:49:58.999Z</time></trkpt><trkpt lat="44.87445510991388" lon="9.385749844674812"><ele>459.66666666666663</ele><time>2026-04-26T09:49:59.999Z</time></trkpt><trkpt lat="44.87450632521502" lon="9.385810110315681"><ele>462.0</ele><time>2026-04-26T09:50:00.999Z</time></trkpt><trkpt lat="44.87458279304535" lon="9.385846569093454"><ele>464.33333333333337</ele><time>2026-04-26T09:50:02.999Z</time></trkpt><trkpt lat="44.87464828908871" lon="9.38580059221248"><ele>466.6666666666667</ele><time>2026-04-26T09:50:04.999Z</time></trkpt><trkpt lat="44.87468978947291" lon="9.385676678545916"><ele>469.0</ele><time>2026-04-26T09:50:06.999Z</time></trkpt><trkpt lat="44.874734233360485" lon="9.38560266917407"><ele>468.79999999999995</ele><time>2026-04-26T09:50:07.999Z</time></trkpt><trkpt lat="44.87478765069962" lon="9.385479615115598"><ele>468.59999999999997</ele><time>2026-04-26T09:50:08.999Z</time></trkpt><trkpt lat="44.87486570067044" lon="9.385372785621298"><ele>468.4</ele><time>2026-04-26T09:50:09.999Z</time></trkpt><trkpt lat="44.87493534563499" lon="9.385277185701902"><ele>468.2</ele><time>2026-04-26T09:50:10.999Z</time></trkpt><trkpt lat="44.87500953009753" lon="9.385185354597754"><ele>468.0</ele><time>2026-04-26T09:50:11.999Z</time></trkpt><trkpt lat="44.875092104306816" lon="9.385098546013026"><ele>470.5</ele><time>2026-04-26T09:50:12.999Z</time></trkpt><trkpt lat="44.8751729533007" lon="9.385017289796123"><ele>473.0</ele><time>2026-04-26T09:50:13.999Z</time></trkpt><trkpt lat="44.87524681983173" lon="9.384939448571664"><ele>475.5</ele><time>2026-04-26T09:50:14.999Z</time></trkpt><trkpt lat="44.87531447284275" lon="9.384864343091506"><ele>478.0</ele><time>2026-04-26T09:50:15.999Z</time></trkpt><trkpt lat="44.87537916926028" lon="9.384808628503121"><ele>480.5</ele><time>2026-04-26T09:50:16.999Z</time></trkpt><trkpt lat="44.87544099818993" lon="9.384752521363767"><ele>483.0</ele><time>2026-04-26T09:50:17.999Z</time></trkpt><trkpt lat="44.87551532935722" lon="9.384695148445676"><ele>482.5</ele><time>2026-04-26T09:50:18.999Z</time></trkpt><trkpt lat="44.87559061549724" lon="9.384636826457202"><ele>482.0</ele><time>2026-04-26T09:50:19.999Z</time></trkpt><trkpt lat="44.87567645300589" lon="9.384579149704827"><ele>481.5</ele><time>2026-04-26T09:50:20.999Z</time></trkpt><trkpt lat="44.87576114648531" lon="9.384524152758233"><ele>481.0</ele><time>2026-04-26T09:50:21.999Z</time></trkpt><trkpt lat="44.87584031239594" lon="9.384458322844324"><ele>480.5</ele><time>2026-04-26T09:50:22.999Z</time></trkpt><trkpt lat="44.87589951489943" lon="9.384401793067571"><ele>480.0</ele><time>2026-04-26T09:50:23.999Z</time></trkpt><trkpt lat="44.87599419489568" lon="9.384407459036865"><ele>480.75</ele><time>2026-04-26T09:50:25.998Z</time></trkpt><trkpt lat="44.876023861444295" lon="9.384532836561707"><ele>481.5</ele><time>2026-04-26T09:50:27.998Z</time></trkpt><trkpt lat="44.87593210802456" lon="9.384684178219322"><ele>482.25</ele><time>2026-04-26T09:50:29.998Z</time></trkpt><trkpt lat="44.87582102031913" lon="9.384776178459433"><ele>483.0</ele><time>2026-04-26T09:50:30.998Z</time></trkpt><trkpt lat="44.8757522158396" lon="9.384876395329945"><ele>483.0</ele><time>2026-04-26T09:50:31.998Z</time></trkpt><trkpt lat="44.87572547903195" lon="9.38499585333856"><ele>482.99999999999994</ele><time>2026-04-26T09:50:33.998Z</time></trkpt><trkpt lat="44.87582689753899" lon="9.38510014398553"><ele>482.99999999999994</ele><time>2026-04-26T09:50:35.998Z</time></trkpt><trkpt lat="44.87589558587665" lon="9.38506779347477"><ele>483.0</ele><time>2026-04-26T09:50:36.998Z</time></trkpt><trkpt lat="44.87595785491921" lon="9.384978311916496"><ele>483.0</ele><time>2026-04-26T09:50:37.998Z</time></trkpt><trkpt lat="44.87602059049748" lon="9.384876238643239"><ele>485.4</ele><time>2026-04-26T09:50:38.998Z</time></trkpt><trkpt lat="44.87609842280975" lon="9.38478590758914"><ele>487.79999999999995</ele><time>2026-04-26T09:50:39.998Z</time></trkpt><trkpt lat="44.87616200527342" lon="9.384689430312044"><ele>490.2</ele><time>2026-04-26T09:50:40.998Z</time></trkpt><trkpt lat="44.876207849229345" lon="9.384583380554915"><ele>492.6</ele><time>2026-04-26T09:50:41.998Z</time></trkpt><trkpt lat="44.876245594000004" lon="9.384464124829028"><ele>495.0</ele><time>2026-04-26T09:50:42.998Z</time></trkpt><trkpt lat="44.87627544791409" lon="9.38434153065874"><ele>495.0</ele><time>2026-04-26T09:50:43.998Z</time></trkpt><trkpt lat="44.876293122970694" lon="9.38423559512514"><ele>495.0</ele><time>2026-04-26T09:50:44.998Z</time></trkpt><trkpt lat="44.876307883351295" lon="9.384142888257573"><ele>495.0</ele><time>2026-04-26T09:50:45.998Z</time></trkpt><trkpt lat="44.876371301477434" lon="9.384042776543534"><ele>495.0</ele><time>2026-04-26T09:50:47.998Z</time></trkpt><trkpt lat="44.87644032245776" lon="9.384176147666649"><ele>495.0</ele><time>2026-04-26T09:50:50.998Z</time></trkpt><trkpt lat="44.87640647968638" lon="9.384266074230865"><ele>495.0</ele><time>2026-04-26T09:50:51.998Z</time></trkpt><trkpt lat="44.876399449741" lon="9.384365368213869"><ele>495.0</ele><time>2026-04-26T09:50:52.998Z</time></trkpt><trkpt lat="44.876388816529726" lon="9.384495265270466"><ele>495.0</ele><time>2026-04-26T09:50:54.998Z</time></trkpt><trkpt lat="44.87639151726258" lon="9.384648002178999"><ele>495.0</ele><time>2026-04-26T09:50:56.998Z</time></trkpt><trkpt lat="44.87640561882118" lon="9.384769140077404"><ele>495.0</ele><time>2026-04-26T09:50:57.998Z</time></trkpt><trkpt lat="44.87642873570893" lon="9.384903279392416"><ele>495.0</ele><time>2026-04-26T09:50:58.998Z</time></trkpt><trkpt lat="44.876447544549904" lon="9.385015736003911"><ele>495.4</ele><time>2026-04-26T09:50:59.998Z</time></trkpt><trkpt lat="44.87648295655723" lon="9.385121835824112"><ele>495.8</ele><time>2026-04-26T09:51:00.998Z</time></trkpt><trkpt lat="44.87657229992275" lon="9.385269104406643"><ele>496.20000000000005</ele><time>2026-04-26T09:51:02.998Z</time></trkpt><trkpt lat="44.87663384060422" lon="9.385337687420197"><ele>496.6</ele><time>2026-04-26T09:51:03.998Z</time></trkpt><trkpt lat="44.87669189695338" lon="9.385392045250645"><ele>497.0</ele><time>2026-04-26T09:51:04.998Z</time></trkpt><trkpt lat="44.87677737214603" lon="9.38540279853027"><ele>499.66666666666663</ele><time>2026-04-26T09:51:05.998Z</time></trkpt><trkpt lat="44.87684195697042" lon="9.385413489041284"><ele>502.3333333333333</ele><time>2026-04-26T09:51:06.998Z</time></trkpt><trkpt lat="44.87690740251145" lon="9.385398992125081"><ele>505.0</ele><time>2026-04-26T09:51:07.998Z</time></trkpt><trkpt lat="44.87697119529972" lon="9.38537301579346"><ele>507.66666666666663</ele><time>2026-04-26T09:51:08.997Z</time></trkpt><trkpt lat="44.87707073156227" lon="9.385314359958961"><ele>510.3333333333333</ele><time>2026-04-26T09:51:10.997Z</time></trkpt><trkpt lat="44.87712605611894" lon="9.385255600017233"><ele>513.0</ele><time>2026-04-26T09:51:14Z</time></trkpt><trkpt lat="44.87716622553635" lon="9.385165021057091"><ele>513.0</ele><time>2026-04-26T09:52:29.999Z</time></trkpt><trkpt lat="44.87717611793554" lon="9.385051259513702"><ele>513.0</ele><time>2026-04-26T09:52:30.999Z</time></trkpt><trkpt lat="44.87717188951725" lon="9.384932827368802"><ele>513.0</ele><time>2026-04-26T09:52:31.999Z</time></trkpt><trkpt lat="44.87716349328164" lon="9.384802407225413"><ele>513.0</ele><time>2026-04-26T09:52:32.998Z</time></trkpt><trkpt lat="44.8771454239138" lon="9.384682734572001"><ele>513.0</ele><time>2026-04-26T09:52:33.998Z</time></trkpt><trkpt lat="44.87712017646861" lon="9.384558739561317"><ele>513.0</ele><time>2026-04-26T09:52:34.998Z</time></trkpt><trkpt lat="44.87709981815392" lon="9.3844481849087"><ele>512.6666666666666</ele><time>2026-04-26T09:52:35.998Z</time></trkpt><trkpt lat="44.877084351537114" lon="9.384345482839775"><ele>512.3333333333334</ele><time>2026-04-26T09:52:36.998Z</time></trkpt><trkpt lat="44.877069126102626" lon="9.384257950391103"><ele>512.0</ele><time>2026-04-26T09:52:37.998Z</time></trkpt><trkpt lat="44.87708124599025" lon="9.38412062438651"><ele>511.6666666666667</ele><time>2026-04-26T09:52:39.998Z</time></trkpt><trkpt lat="44.87714396642131" lon="9.384024494176584"><ele>511.33333333333337</ele><time>2026-04-26T09:52:41.998Z</time></trkpt><trkpt lat="44.8771874014582" lon="9.383942306670063"><ele>511.0</ele><time>2026-04-26T09:52:42.998Z</time></trkpt><trkpt lat="44.87726917654316" lon="9.383860575003256"><ele>511.00000000000006</ele><time>2026-04-26T09:52:44.998Z</time></trkpt><trkpt lat="44.877328918094356" lon="9.38382912665439"><ele>511.0</ele><time>2026-04-26T09:52:45.998Z</time></trkpt><trkpt lat="44.87740864606361" lon="9.383935651804112"><ele>511.0</ele><time>2026-04-26T09:52:46.998Z</time></trkpt><trkpt lat="44.877490273314685" lon="9.384001467660841"><ele>511.0</ele><time>2026-04-26T09:52:47.998Z</time></trkpt><trkpt lat="44.877552297266476" lon="9.384086217390447"><ele>511.00000000000006</ele><time>2026-04-26T09:52:48.998Z</time></trkpt><trkpt lat="44.87760787924456" lon="9.384187652327542"><ele>511.0</ele><time>2026-04-26T09:52:49.998Z</time></trkpt><trkpt lat="44.877651391761084" lon="9.384314641768253"><ele>512.6</ele><time>2026-04-26T09:52:50.998Z</time></trkpt><trkpt lat="44.87773359503808" lon="9.384404195691635"><ele>514.2</ele><time>2026-04-26T09:52:51.998Z</time></trkpt><trkpt lat="44.87784569745899" lon="9.384436195251615"><ele>515.8</ele><time>2026-04-26T09:52:52.998Z</time></trkpt><trkpt lat="44.87793788411934" lon="9.384479927861435"><ele>517.4</ele><time>2026-04-26T09:52:53.998Z</time></trkpt><trkpt lat="44.87801422303329" lon="9.384489899686887"><ele>519.0</ele><time>2026-04-26T09:52:54.998Z</time></trkpt><trkpt lat="44.878129171474725" lon="9.384536592747276"><ele>519.0</ele><time>2026-04-26T09:52:56.998Z</time></trkpt><trkpt lat="44.87824057677354" lon="9.384426718517854"><ele>519.0</ele><time>2026-04-26T09:52:57.998Z</time></trkpt><trkpt lat="44.87835385287555" lon="9.38440182154586"><ele>519.0</ele><time>2026-04-26T09:52:58.998Z</time></trkpt><trkpt lat="44.878469608579" lon="9.384427162539739"><ele>519.0</ele><time>2026-04-26T09:52:59.998Z</time></trkpt><trkpt lat="44.87857125948691" lon="9.384403392337402"><ele>522.5</ele><time>2026-04-26T09:53:00.998Z</time></trkpt><trkpt lat="44.87868661056851" lon="9.3843890982377"><ele>526.0</ele><time>2026-04-26T09:53:01.998Z</time></trkpt><trkpt lat="44.87880842241354" lon="9.384386691054102"><ele>529.5</ele><time>2026-04-26T09:53:02.998Z</time></trkpt><trkpt lat="44.87892601105395" lon="9.384313905981108"><ele>533.0</ele><time>2026-04-26T09:53:03.998Z</time></trkpt><trkpt lat="44.879052678940695" lon="9.384243796857247"><ele>533.0</ele><time>2026-04-26T09:53:04.998Z</time></trkpt><trkpt lat="44.879188799101215" lon="9.384145197694705"><ele>533.0</ele><time>2026-04-26T09:53:05.998Z</time></trkpt><trkpt lat="44.87932285935512" lon="9.384058240208672"><ele>533.0</ele><time>2026-04-26T09:53:06.998Z</time></trkpt><trkpt lat="44.87945225114721" lon="9.384012428332518"><ele>533.0</ele><time>2026-04-26T09:53:07.998Z</time></trkpt><trkpt lat="44.8796016522617" lon="9.384013208745408"><ele>536.3333333333333</ele><time>2026-04-26T09:53:08.998Z</time></trkpt><trkpt lat="44.87976364462801" lon="9.383999930926622"><ele>539.6666666666666</ele><time>2026-04-26T09:53:09.998Z</time></trkpt><trkpt lat="44.879916609604535" lon="9.383938598028694"><ele>543.0</ele><time>2026-04-26T09:53:10.998Z</time></trkpt><trkpt lat="44.88004981397237" lon="9.383854744685484"><ele>540.5</ele><time>2026-04-26T09:53:11.998Z</time></trkpt><trkpt lat="44.88015389070696" lon="9.38376901480915"><ele>538.0</ele><time>2026-04-26T09:53:12.998Z</time></trkpt><trkpt lat="44.880255784250565" lon="9.383711280827097"><ele>535.5</ele><time>2026-04-26T09:53:13.998Z</time></trkpt><trkpt lat="44.88037643346913" lon="9.383725040635099"><ele>533.0</ele><time>2026-04-26T09:53:14.998Z</time></trkpt><trkpt lat="44.88049940782887" lon="9.383735966294257"><ele>533.0</ele><time>2026-04-26T09:53:15.998Z</time></trkpt><trkpt lat="44.88062505081929" lon="9.383753121556184"><ele>533.0</ele><time>2026-04-26T09:53:16.997Z</time></trkpt><trkpt lat="44.88075800554233" lon="9.383778202800825"><ele>533.0</ele><time>2026-04-26T09:53:17.997Z</time></trkpt><trkpt lat="44.88087242322995" lon="9.383813021310932"><ele>533.0</ele><time>2026-04-26T09:53:19Z</time></trkpt><trkpt lat="44.88097385858577" lon="9.38384420198491"><ele>535.8</ele><time>2026-04-26T09:53:20Z</time></trkpt><trkpt lat="44.881054156604804" lon="9.383889346682995"><ele>538.5999999999999</ele><time>2026-04-26T09:53:21Z</time></trkpt><trkpt lat="44.88111474978821" lon="9.38392705938846"><ele>541.4000000000001</ele><time>2026-04-26T09:53:22Z</time></trkpt><trkpt lat="44.88102555999649" lon="9.384114798651252"><ele>544.2</ele><time>2026-04-26T09:53:26Z</time></trkpt><trkpt lat="44.88094509744139" lon="9.384167531166671"><ele>547.0</ele><time>2026-04-26T09:53:27Z</time></trkpt><trkpt lat="44.88086276200355" lon="9.384257778489946"><ele>547.0</ele><time>2026-04-26T09:53:28Z</time></trkpt><trkpt lat="44.88078116791458" lon="9.384367952379902"><ele>547.0</ele><time>2026-04-26T09:53:29Z</time></trkpt><trkpt lat="44.88069852181923" lon="9.384462600594734"><ele>547.0</ele><time>2026-04-26T09:53:30Z</time></trkpt><trkpt lat="44.880600879486266" lon="9.384563788376461"><ele>547.0</ele><time>2026-04-26T09:53:31Z</time></trkpt><trkpt lat="44.880502470768995" lon="9.384672063689862"><ele>550.0</ele><time>2026-04-26T09:53:32Z</time></trkpt><trkpt lat="44.88041036580082" lon="9.384802571166723"><ele>553.0</ele><time>2026-04-26T09:53:33Z</time></trkpt><trkpt lat="44.88031211858528" lon="9.384921933220417"><ele>556.0</ele><time>2026-04-26T09:53:34Z</time></trkpt><trkpt lat="44.880217209984885" lon="9.38504586113215"><ele>559.0</ele><time>2026-04-26T09:53:35Z</time></trkpt><trkpt lat="44.88013106266111" lon="9.385158944052101"><ele>558.4</ele><time>2026-04-26T09:53:36Z</time></trkpt><trkpt lat="44.88004481645741" lon="9.385259649456472"><ele>557.8</ele><time>2026-04-26T09:53:37Z</time></trkpt><trkpt lat="44.87995470160311" lon="9.385334698094345"><ele>557.2</ele><time>2026-04-26T09:53:38Z</time></trkpt><trkpt lat="44.87988741717465" lon="9.385440085803504"><ele>556.6</ele><time>2026-04-26T09:53:39Z</time></trkpt><trkpt lat="44.87982549283789" lon="9.385527559906757"><ele>556.0</ele><time>2026-04-26T09:53:40Z</time></trkpt><trkpt lat="44.87977172190343" lon="9.385615597246"><ele>557.4285714285714</ele><time>2026-04-26T09:53:41Z</time></trkpt><trkpt lat="44.87972870226003" lon="9.385688780993938"><ele>558.8571428571429</ele><time>2026-04-26T09:53:42Z</time></trkpt><trkpt lat="44.87968808421431" lon="9.385815672234695"><ele>560.2857142857143</ele><time>2026-04-26T09:53:44Z</time></trkpt><trkpt lat="44.87975078519112" lon="9.385898542865963"><ele>561.7142857142858</ele><time>2026-04-26T09:53:45Z</time></trkpt><trkpt lat="44.87980072355182" lon="9.385954615764236"><ele>563.1428571428572</ele><time>2026-04-26T09:53:46Z</time></trkpt><trkpt lat="44.87983636479182" lon="9.386028677078986"><ele>564.5714285714286</ele><time>2026-04-26T09:53:47Z</time></trkpt><trkpt lat="44.879854847133366" lon="9.386124095796228"><ele>566.0</ele><time>2026-04-26T09:53:48Z</time></trkpt><trkpt lat="44.87983433449808" lon="9.38622238592742"><ele>566.0</ele><time>2026-04-26T09:53:49Z</time></trkpt><trkpt lat="44.87981268463064" lon="9.386310378444541"><ele>566.0</ele><time>2026-04-26T09:53:50Z</time></trkpt><trkpt lat="44.87983169884305" lon="9.386431442535937"><ele>566.0</ele><time>2026-04-26T09:53:51Z</time></trkpt><trkpt lat="44.87986587559887" lon="9.386548611162127"><ele>566.0</ele><time>2026-04-26T09:53:52Z</time></trkpt><trkpt lat="44.87988905666103" lon="9.386666495245146"><ele>566.0</ele><time>2026-04-26T09:53:54Z</time></trkpt><trkpt lat="44.879926817300564" lon="9.38674998408986"><ele>566.0</ele><time>2026-04-26T09:53:55.999Z</time></trkpt><trkpt lat="44.87995981283374" lon="9.3868357169538"><ele>573.3333333333333</ele><time>2026-04-26T09:53:57.999Z</time></trkpt><trkpt lat="44.88031098249186" lon="9.386705664988062"><ele>580.6666666666666</ele><time>2026-04-26T09:53:58.999Z</time></trkpt><trkpt lat="44.88037566737997" lon="9.386685898727185"><ele>588.0</ele><time>2026-04-26T09:53:59.999Z</time></trkpt><trkpt lat="44.88036994017104" lon="9.386799896537035"><ele>588.0</ele><time>2026-04-26T09:54:02.999Z</time></trkpt><trkpt lat="44.880378009019864" lon="9.38688966137285"><ele>588.0</ele><time>2026-04-26T09:54:04.999Z</time></trkpt><trkpt lat="44.88041121632956" lon="9.38697307680113"><ele>588.0</ele><time>2026-04-26T09:54:06.999Z</time></trkpt><trkpt lat="44.88049098916337" lon="9.387070307924127"><ele>588.0</ele><time>2026-04-26T09:54:08.999Z</time></trkpt><trkpt lat="44.88053624516053" lon="9.38714944230846"><ele>588.0</ele><time>2026-04-26T09:54:10.999Z</time></trkpt><trkpt lat="44.88063479542468" lon="9.38727014565663"><ele>588.0</ele><time>2026-04-26T09:54:12.999Z</time></trkpt><trkpt lat="44.880722529185945" lon="9.387320080283672"><ele>591.6</ele><time>2026-04-26T09:54:14.999Z</time></trkpt><trkpt lat="44.88080056769874" lon="9.387300852039274"><ele>595.1999999999999</ele><time>2026-04-26T09:54:16.999Z</time></trkpt><trkpt lat="44.88084371737395" lon="9.38737090692876"><ele>598.8</ele><time>2026-04-26T09:54:19.999Z</time></trkpt><trkpt lat="44.8808883363516" lon="9.38748690695082"><ele>602.4</ele><time>2026-04-26T09:54:23.999Z</time></trkpt><trkpt lat="44.88104805856947" lon="9.387613851759802"><ele>606.0</ele><time>2026-04-26T09:54:25.999Z</time></trkpt><trkpt lat="44.88125922932529" lon="9.387856525262587"><ele>607.3333333333334</ele><time>2026-04-26T09:54:26.999Z</time></trkpt><trkpt lat="44.88132311065697" lon="9.387919562512325"><ele>608.6666666666666</ele><time>2026-04-26T09:54:27.999Z</time></trkpt><trkpt lat="44.88137043839309" lon="9.38798032398783"><ele>610.0</ele><time>2026-04-26T09:54:28.999Z</time></trkpt><trkpt lat="44.8814023877906" lon="9.388097375363193"><ele>611.3333333333333</ele><time>2026-04-26T09:54:29.999Z</time></trkpt><trkpt lat="44.88146800497336" lon="9.38813866383095"><ele>612.6666666666666</ele><time>2026-04-26T09:54:30.999Z</time></trkpt><trkpt lat="44.88153921335781" lon="9.388162247781585"><ele>614.0</ele><time>2026-04-26T09:54:31.999Z</time></trkpt><trkpt lat="44.88158903214765" lon="9.388240377755046"><ele>616.6</ele><time>2026-04-26T09:54:32.999Z</time></trkpt><trkpt lat="44.88161076390755" lon="9.38832675378048"><ele>619.2</ele><time>2026-04-26T09:54:33.999Z</time></trkpt><trkpt lat="44.881552180780105" lon="9.388449696744669"><ele>621.8000000000001</ele><time>2026-04-26T09:54:35.999Z</time></trkpt><trkpt lat="44.88157731940041" lon="9.388599110753097"><ele>624.4</ele><time>2026-04-26T09:54:37.998Z</time></trkpt><trkpt lat="44.88161883082235" lon="9.388670000005206"><ele>627.0</ele><time>2026-04-26T09:54:38.998Z</time></trkpt><trkpt lat="44.881672991893765" lon="9.388820017760704"><ele>626.5</ele><time>2026-04-26T09:54:39.998Z</time></trkpt><trkpt lat="44.881712827805984" lon="9.388917698583976"><ele>626.0</ele><time>2026-04-26T09:54:40.998Z</time></trkpt><trkpt lat="44.88177300554123" lon="9.389002285263084"><ele>625.5</ele><time>2026-04-26T09:54:41.998Z</time></trkpt><trkpt lat="44.88182927937586" lon="9.38911071297915"><ele>625.0</ele><time>2026-04-26T09:54:42.998Z</time></trkpt><trkpt lat="44.88187657439408" lon="9.389205338296549"><ele>624.5</ele><time>2026-04-26T09:54:43.998Z</time></trkpt><trkpt lat="44.88188973224829" lon="9.389312087879594"><ele>624.0</ele><time>2026-04-26T09:54:44.998Z</time></trkpt><trkpt lat="44.88187539782329" lon="9.389423563531718"><ele>624.0</ele><time>2026-04-26T09:54:45.998Z</time></trkpt><trkpt lat="44.881824604342185" lon="9.389551368140543"><ele>624.0</ele><time>2026-04-26T09:54:46.998Z</time></trkpt><trkpt lat="44.88180651329008" lon="9.389642722522947"><ele>624.0</ele><time>2026-04-26T09:54:47.998Z</time></trkpt><trkpt lat="44.88179514293186" lon="9.389769046661181"><ele>624.0</ele><time>2026-04-26T09:54:48.998Z</time></trkpt><trkpt lat="44.88179775909723" lon="9.389886817410892"><ele>624.0</ele><time>2026-04-26T09:54:49.998Z</time></trkpt><trkpt lat="44.881817725306995" lon="9.389972580965951"><ele>624.0</ele><time>2026-04-26T09:54:50.998Z</time></trkpt><trkpt lat="44.88186201251488" lon="9.390041275764933"><ele>626.2</ele><time>2026-04-26T09:54:51.998Z</time></trkpt><trkpt lat="44.88192298071681" lon="9.390151723127085"><ele>628.4</ele><time>2026-04-26T09:54:52.998Z</time></trkpt><trkpt lat="44.881984251976505" lon="9.39026302124141"><ele>630.6</ele><time>2026-04-26T09:54:53.998Z</time></trkpt><trkpt lat="44.88202620497977" lon="9.390364902902585"><ele>632.8</ele><time>2026-04-26T09:54:54.998Z</time></trkpt><trkpt lat="44.88205769312244" lon="9.390477051765712"><ele>635.0</ele><time>2026-04-26T09:54:55.998Z</time></trkpt><trkpt lat="44.882101277265235" lon="9.390628946062266"><ele>637.4</ele><time>2026-04-26T09:54:56.998Z</time></trkpt><trkpt lat="44.88216625212876" lon="9.390816202488235"><ele>639.8</ele><time>2026-04-26T09:54:57.998Z</time></trkpt><trkpt lat="44.88222371907851" lon="9.390958295061326"><ele>642.2</ele><time>2026-04-26T09:54:58.998Z</time></trkpt><trkpt lat="44.88224702920835" lon="9.391069364919078"><ele>644.6</ele><time>2026-04-26T09:54:59.998Z</time></trkpt><trkpt lat="44.882265123253596" lon="9.391186416031008"><ele>647.0</ele><time>2026-04-26T09:55:00.998Z</time></trkpt><trkpt lat="44.882299883625365" lon="9.391296837374345"><ele>648.8333333333333</ele><time>2026-04-26T09:55:01.998Z</time></trkpt><trkpt lat="44.88234174660052" lon="9.391412944006209"><ele>650.6666666666666</ele><time>2026-04-26T09:55:02.998Z</time></trkpt><trkpt lat="44.882393145595756" lon="9.391511894944232"><ele>652.5</ele><time>2026-04-26T09:55:03.998Z</time></trkpt><trkpt lat="44.88242573053131" lon="9.391592991458083"><ele>654.3333333333334</ele><time>2026-04-26T09:55:04.998Z</time></trkpt><trkpt lat="44.88252778886868" lon="9.391665707019452"><ele>656.1666666666667</ele><time>2026-04-26T09:55:06.998Z</time></trkpt><trkpt lat="44.88258906458524" lon="9.391720993981727"><ele>658.0</ele><time>2026-04-26T09:55:07.998Z</time></trkpt><trkpt lat="44.88264138633332" lon="9.391782688495502"><ele>658.6666666666667</ele><time>2026-04-26T09:55:08.998Z</time></trkpt><trkpt lat="44.882704698619" lon="9.39183518342514"><ele>659.3333333333334</ele><time>2026-04-26T09:55:09.998Z</time></trkpt><trkpt lat="44.88276333546425" lon="9.391878424638515"><ele>660.0</ele><time>2026-04-26T09:55:10.998Z</time></trkpt><trkpt lat="44.882833105370366" lon="9.391910479965977"><ele>660.6666666666666</ele><time>2026-04-26T09:55:11.998Z</time></trkpt><trkpt lat="44.88294420310582" lon="9.391984047201651"><ele>661.3333333333333</ele><time>2026-04-26T09:55:13.998Z</time></trkpt><trkpt lat="44.882993842451505" lon="9.392051876825521"><ele>662.0</ele><time>2026-04-26T09:55:14.998Z</time></trkpt><trkpt lat="44.88305675496517" lon="9.392075266726893"><ele>662.0</ele><time>2026-04-26T09:55:15.998Z</time></trkpt><trkpt lat="44.88312530454045" lon="9.392106538946786"><ele>662.0</ele><time>2026-04-26T09:55:16.998Z</time></trkpt><trkpt lat="44.883167242275256" lon="9.392174851092097"><ele>662.0</ele><time>2026-04-26T09:55:17.998Z</time></trkpt><trkpt lat="44.88324457477407" lon="9.392309994425759"><ele>662.0</ele><time>2026-04-26T09:55:19.998Z</time></trkpt><trkpt lat="44.88329714515289" lon="9.392400193685656"><ele>662.0</ele><time>2026-04-26T09:55:20.998Z</time></trkpt><trkpt lat="44.88335616762282" lon="9.392487186698519"><ele>662.0</ele><time>2026-04-26T09:55:21.997Z</time></trkpt><trkpt lat="44.88340851156832" lon="9.39256842855813"><ele>664.8333333333333</ele><time>2026-04-26T09:55:22.997Z</time></trkpt><trkpt lat="44.883461118007986" lon="9.392629705823605"><ele>667.6666666666666</ele><time>2026-04-26T09:55:23.997Z</time></trkpt><trkpt lat="44.88352949979538" lon="9.392745879920446"><ele>670.5</ele><time>2026-04-26T09:55:26Z</time></trkpt><trkpt lat="44.8835890449278" lon="9.39280044331126"><ele>673.3333333333334</ele><time>2026-04-26T09:55:27Z</time></trkpt><trkpt lat="44.88365439418614" lon="9.392855742177717"><ele>676.1666666666667</ele><time>2026-04-26T09:55:28Z</time></trkpt><trkpt lat="44.88374190603656" lon="9.392879368908567"><ele>679.0</ele><time>2026-04-26T09:55:30Z</time></trkpt><trkpt lat="44.88381180733116" lon="9.392897031064088"><ele>679.0</ele><time>2026-04-26T09:55:31Z</time></trkpt><trkpt lat="44.883901476128806" lon="9.39294156673665"><ele>679.0</ele><time>2026-04-26T09:55:32Z</time></trkpt><trkpt lat="44.883975298172196" lon="9.392976332337334"><ele>679.0</ele><time>2026-04-26T09:55:33Z</time></trkpt><trkpt lat="44.88405840991247" lon="9.392933858444973"><ele>679.0</ele><time>2026-04-26T09:55:35Z</time></trkpt><trkpt lat="44.88412464407263" lon="9.392898883080376"><ele>679.0</ele><time>2026-04-26T09:55:37Z</time></trkpt><trkpt lat="44.88428343943169" lon="9.392830357325337"><ele>679.0</ele><time>2026-04-26T09:55:38Z</time></trkpt><trkpt lat="44.88431774325158" lon="9.392731360292144"><ele>679.0</ele><time>2026-04-26T09:55:39Z</time></trkpt><trkpt lat="44.884356666105525" lon="9.392657879925139"><ele>679.0</ele><time>2026-04-26T09:55:40Z</time></trkpt><trkpt lat="44.884421665066455" lon="9.392619299482194"><ele>679.0</ele><time>2026-04-26T09:55:41Z</time></trkpt><trkpt lat="44.88451125109598" lon="9.39252268691284"><ele>679.0</ele><time>2026-04-26T09:55:58Z</time></trkpt><trkpt lat="44.884593163483224" lon="9.392395346288737"><ele>679.0</ele><time>2026-04-26T09:56:00Z</time></trkpt><trkpt lat="44.88466274254857" lon="9.392322338859666"><ele>679.0</ele><time>2026-04-26T09:56:00.999Z</time></trkpt><trkpt lat="44.88475164467732" lon="9.392266662451911"><ele>679.0</ele><time>2026-04-26T09:56:01.999Z</time></trkpt><trkpt lat="44.884839375093826" lon="9.392202753789908"><ele>679.0</ele><time>2026-04-26T09:56:02.999Z</time></trkpt><trkpt lat="44.88491926421057" lon="9.392126603880037"><ele>679.0</ele><time>2026-04-26T09:56:03.999Z</time></trkpt><trkpt lat="44.884985344214826" lon="9.392076680715498"><ele>679.0</ele><time>2026-04-26T09:56:04.999Z</time></trkpt><trkpt lat="44.88504614906961" lon="9.392009596643332"><ele>679.0</ele><time>2026-04-26T09:56:05.999Z</time></trkpt><trkpt lat="44.88511954324369" lon="9.391944126458482"><ele>680.1666666666667</ele><time>2026-04-26T09:56:06.999Z</time></trkpt><trkpt lat="44.88519752859937" lon="9.391890984996042"><ele>681.3333333333334</ele><time>2026-04-26T09:56:07.999Z</time></trkpt><trkpt lat="44.88527161577373" lon="9.391835641454934"><ele>682.5</ele><time>2026-04-26T09:56:08.999Z</time></trkpt><trkpt lat="44.88534643613658" lon="9.391773618647006"><ele>683.6666666666666</ele><time>2026-04-26T09:56:09.999Z</time></trkpt><trkpt lat="44.88542102414884" lon="9.391708204284534"><ele>684.8333333333333</ele><time>2026-04-26T09:56:10.999Z</time></trkpt><trkpt lat="44.88550517762865" lon="9.391648188072926"><ele>686.0</ele><time>2026-04-26T09:56:11.999Z</time></trkpt><trkpt lat="44.88557889795417" lon="9.391600449428088"><ele>686.0</ele><time>2026-04-26T09:56:12.999Z</time></trkpt><trkpt lat="44.8856618137006" lon="9.391533844912448"><ele>686.0</ele><time>2026-04-26T09:56:13.999Z</time></trkpt><trkpt lat="44.88573788964346" lon="9.391448165195952"><ele>686.0</ele><time>2026-04-26T09:56:14.999Z</time></trkpt><trkpt lat="44.885799800569565" lon="9.391368236362238"><ele>686.0</ele><time>2026-04-26T09:56:15.999Z</time></trkpt><trkpt lat="44.88587293778733" lon="9.391278565365552"><ele>686.0</ele><time>2026-04-26T09:56:16.999Z</time></trkpt><trkpt lat="44.885965820415905" lon="9.391196941277027"><ele>688.8</ele><time>2026-04-26T09:56:17.999Z</time></trkpt><trkpt lat="44.88606283952437" lon="9.39114104930999"><ele>691.5999999999999</ele><time>2026-04-26T09:56:18.999Z</time></trkpt><trkpt lat="44.88614940297951" lon="9.391037651879211"><ele>694.4</ele><time>2026-04-26T09:56:19.999Z</time></trkpt><trkpt lat="44.886214209614074" lon="9.390918934091278"><ele>697.2</ele><time>2026-04-26T09:56:20.999Z</time></trkpt><trkpt lat="44.88626905109156" lon="9.390841980383481"><ele>700.0</ele><time>2026-04-26T09:56:21.999Z</time></trkpt><trkpt lat="44.886332719215304" lon="9.390802960703887"><ele>700.0</ele><time>2026-04-26T09:56:22.999Z</time></trkpt><trkpt lat="44.886432109797866" lon="9.390756698529055"><ele>700.0</ele><time>2026-04-26T09:56:23.999Z</time></trkpt><trkpt lat="44.88653797284408" lon="9.390691969767493"><ele>700.0</ele><time>2026-04-26T09:56:24.999Z</time></trkpt><trkpt lat="44.88664416305915" lon="9.390577220542605"><ele>700.0</ele><time>2026-04-26T09:56:25.999Z</time></trkpt><trkpt lat="44.886739982061606" lon="9.390432235793599"><ele>702.0</ele><time>2026-04-26T09:56:26.999Z</time></trkpt><trkpt lat="44.88683539843441" lon="9.390329500481066"><ele>704.0</ele><time>2026-04-26T09:56:27.999Z</time></trkpt><trkpt lat="44.88690985317287" lon="9.39024699236985"><ele>706.0</ele><time>2026-04-26T09:56:28.999Z</time></trkpt><trkpt lat="44.88697910132257" lon="9.39016906027618"><ele>708.0</ele><time>2026-04-26T09:56:29.999Z</time></trkpt><trkpt lat="44.887041602663004" lon="9.390125448596077"><ele>710.0</ele><time>2026-04-26T09:56:30.999Z</time></trkpt><trkpt lat="44.88712828906626" lon="9.39007179378135"><ele>710.0</ele><time>2026-04-26T09:56:31.999Z</time></trkpt><trkpt lat="44.887196425916436" lon="9.39000403427253"><ele>710.0</ele><time>2026-04-26T09:56:32.999Z</time></trkpt><trkpt lat="44.88724865494236" lon="9.389901048305306"><ele>710.0</ele><time>2026-04-26T09:56:33.999Z</time></trkpt><trkpt lat="44.88729927339553" lon="9.389797085078797"><ele>710.0</ele><time>2026-04-26T09:56:34.999Z</time></trkpt><trkpt lat="44.88735832976346" lon="9.389702303304244"><ele>710.0</ele><time>2026-04-26T09:56:35.999Z</time></trkpt><trkpt lat="44.88741854039368" lon="9.389608423321961"><ele>710.0</ele><time>2026-04-26T09:56:36.999Z</time></trkpt><trkpt lat="44.88747863286764" lon="9.389523416963328"><ele>708.1666666666666</ele><time>2026-04-26T09:56:37.999Z</time></trkpt><trkpt lat="44.887530514357394" lon="9.389434373149333"><ele>706.3333333333333</ele><time>2026-04-26T09:56:38.999Z</time></trkpt><trkpt lat="44.88755177149266" lon="9.389333414431862"><ele>704.5</ele><time>2026-04-26T09:56:39.999Z</time></trkpt><trkpt lat="44.88754842545174" lon="9.38921235576911"><ele>702.6666666666666</ele><time>2026-04-26T09:56:40.999Z</time></trkpt><trkpt lat="44.8875575065505" lon="9.389088615837412"><ele>700.8333333333334</ele><time>2026-04-26T09:56:41.999Z</time></trkpt><trkpt lat="44.88758741747774" lon="9.388978250438342"><ele>699.0</ele><time>2026-04-26T09:56:42.999Z</time></trkpt><trkpt lat="44.88763365600958" lon="9.38887226034152"><ele>697.1666666666666</ele><time>2026-04-26T09:56:43.999Z</time></trkpt><trkpt lat="44.88767811341577" lon="9.38877280100734"><ele>695.3333333333334</ele><time>2026-04-26T09:56:44.998Z</time></trkpt><trkpt lat="44.88769087716385" lon="9.388664797408081"><ele>693.5</ele><time>2026-04-26T09:56:45.998Z</time></trkpt><trkpt lat="44.88771718073632" lon="9.38855296573326"><ele>691.6666666666667</ele><time>2026-04-26T09:56:46.998Z</time></trkpt><trkpt lat="44.88776943006211" lon="9.388455837227973"><ele>689.8333333333334</ele><time>2026-04-26T09:56:47.998Z</time></trkpt><trkpt lat="44.887832763197096" lon="9.388378759208964"><ele>688.0</ele><time>2026-04-26T09:56:48.998Z</time></trkpt><trkpt lat="44.8878870945892" lon="9.388298167746015"><ele>688.0</ele><time>2026-04-26T09:56:49.998Z</time></trkpt><trkpt lat="44.887896385910985" lon="9.38820298900834"><ele>688.0</ele><time>2026-04-26T09:56:50.998Z</time></trkpt><trkpt lat="44.8878716780434" lon="9.388093278160358"><ele>688.0</ele><time>2026-04-26T09:56:51.998Z</time></trkpt><trkpt lat="44.88786067270779" lon="9.387979102563587"><ele>688.0</ele><time>2026-04-26T09:56:52.998Z</time></trkpt><trkpt lat="44.887882566179066" lon="9.387880499168922"><ele>688.0</ele><time>2026-04-26T09:56:53.998Z</time></trkpt><trkpt lat="44.88797140450341" lon="9.38779410120993"><ele>688.0</ele><time>2026-04-26T09:56:55.998Z</time></trkpt><trkpt lat="44.88803922582962" lon="9.387808218359881"><ele>685.6666666666667</ele><time>2026-04-26T09:56:56.998Z</time></trkpt><trkpt lat="44.88811137401774" lon="9.387857977762723"><ele>683.3333333333334</ele><time>2026-04-26T09:56:57.998Z</time></trkpt><trkpt lat="44.88819124573484" lon="9.387926881454224"><ele>681.0</ele><time>2026-04-26T09:56:58.998Z</time></trkpt><trkpt lat="44.88827262657971" lon="9.38796195535337"><ele>678.6666666666666</ele><time>2026-04-26T09:56:59.998Z</time></trkpt><trkpt lat="44.888346384445995" lon="9.387966459382643"><ele>676.3333333333333</ele><time>2026-04-26T09:57:00.998Z</time></trkpt><trkpt lat="44.88841066583326" lon="9.388008118145189"><ele>674.0</ele><time>2026-04-26T09:57:01.998Z</time></trkpt><trkpt lat="44.88845061631418" lon="9.388096050646249"><ele>673.8000000000001</ele><time>2026-04-26T09:57:02.998Z</time></trkpt><trkpt lat="44.888540766695876" lon="9.388173600353728"><ele>673.6</ele><time>2026-04-26T09:57:04.998Z</time></trkpt><trkpt lat="44.88865499516378" lon="9.388130309765145"><ele>673.4</ele><time>2026-04-26T09:57:06.998Z</time></trkpt><trkpt lat="44.88875097348477" lon="9.388164054563367"><ele>673.2</ele><time>2026-04-26T09:57:07.998Z</time></trkpt><trkpt lat="44.88883293995282" lon="9.388188261450916"><ele>673.0</ele><time>2026-04-26T09:57:08.998Z</time></trkpt><trkpt lat="44.88891075469186" lon="9.388213606641319"><ele>673.0</ele><time>2026-04-26T09:57:09.998Z</time></trkpt><trkpt lat="44.88897672678756" lon="9.38826833250794"><ele>673.0</ele><time>2026-04-26T09:57:10.998Z</time></trkpt><trkpt lat="44.889060397831614" lon="9.388381733126778"><ele>673.0</ele><time>2026-04-26T09:57:12.998Z</time></trkpt><trkpt lat="44.889112322513675" lon="9.388467988145786"><ele>673.0</ele><time>2026-04-26T09:57:13.998Z</time></trkpt><trkpt lat="44.889183708534844" lon="9.388508876301412"><ele>673.0</ele><time>2026-04-26T09:57:14.998Z</time></trkpt><trkpt lat="44.88933075582047" lon="9.388530675878167"><ele>670.0</ele><time>2026-04-26T09:57:16.998Z</time></trkpt><trkpt lat="44.88941394452166" lon="9.388521925016674"><ele>667.0</ele><time>2026-04-26T09:57:17.998Z</time></trkpt><trkpt lat="44.8894977358596" lon="9.388537184423033"><ele>664.0</ele><time>2026-04-26T09:57:18.998Z</time></trkpt><trkpt lat="44.88958574215155" lon="9.388544852671263"><ele>661.0</ele><time>2026-04-26T09:57:21.998Z</time></trkpt><trkpt lat="44.88968459624223" lon="9.388547970710636"><ele>658.0</ele><time>2026-04-26T09:57:24.998Z</time></trkpt><trkpt lat="44.88975561106876" lon="9.388514175972078"><ele>655.0</ele><time>2026-04-26T09:57:25.998Z</time></trkpt><trkpt lat="44.88984666611754" lon="9.38846289397919"><ele>655.0</ele><time>2026-04-26T09:57:27.998Z</time></trkpt><trkpt lat="44.88991200046004" lon="9.388451955637441"><ele>655.0</ele><time>2026-04-26T09:57:28.997Z</time></trkpt><trkpt lat="44.89004009494984" lon="9.38849559178211"><ele>655.0</ele><time>2026-04-26T09:57:31Z</time></trkpt><trkpt lat="44.89010524220582" lon="9.388494122956665"><ele>655.0</ele><time>2026-04-26T09:57:32Z</time></trkpt><trkpt lat="44.89020233554242" lon="9.388436056132415"><ele>655.0</ele><time>2026-04-26T09:57:34Z</time></trkpt><trkpt lat="44.89029776778219" lon="9.388439930198299"><ele>653.6</ele><time>2026-04-26T09:57:37Z</time></trkpt><trkpt lat="44.890391239587366" lon="9.388438226241298"><ele>652.2</ele><time>2026-04-26T09:57:39Z</time></trkpt><trkpt lat="44.89047191598221" lon="9.38842586291085"><ele>650.8</ele><time>2026-04-26T09:57:42Z</time></trkpt><trkpt lat="44.89054063947748" lon="9.388410462266616"><ele>649.4</ele><time>2026-04-26T09:57:44Z</time></trkpt><trkpt lat="44.890645735582595" lon="9.38837252568607"><ele>648.0</ele><time>2026-04-26T09:57:47Z</time></trkpt><trkpt lat="44.89074844333719" lon="9.388362481580073"><ele>648.0</ele><time>2026-04-26T09:57:50Z</time></trkpt><trkpt lat="44.89086208343427" lon="9.38837778376656"><ele>648.0</ele><time>2026-04-26T09:57:52Z</time></trkpt><trkpt lat="44.89094811616287" lon="9.388394948989749"><ele>648.0</ele><time>2026-04-26T09:57:54Z</time></trkpt><trkpt lat="44.89122329574149" lon="9.38841817696337"><ele>647.0</ele><time>2026-04-26T09:57:56Z</time></trkpt><trkpt lat="44.89131436364394" lon="9.388435903684911"><ele>646.0</ele><time>2026-04-26T09:57:58Z</time></trkpt><trkpt lat="44.891391652899564" lon="9.388467217359066"><ele>645.0</ele><time>2026-04-26T09:58:00Z</time></trkpt><trkpt lat="44.891453201772876" lon="9.388501275098289"><ele>644.0</ele><time>2026-04-26T09:58:02Z</time></trkpt><trkpt lat="44.89153138366052" lon="9.388498496272963"><ele>643.0</ele><time>2026-04-26T09:58:05Z</time></trkpt><trkpt lat="44.89162239903389" lon="9.388419953865256"><ele>642.0</ele><time>2026-04-26T09:58:07.999Z</time></trkpt><trkpt lat="44.8916968478795" lon="9.388370382927896"><ele>641.8333333333334</ele><time>2026-04-26T09:58:09.999Z</time></trkpt><trkpt lat="44.891778168453904" lon="9.388351332620806"><ele>641.6666666666666</ele><time>2026-04-26T09:58:11.999Z</time></trkpt><trkpt lat="44.891842075905316" lon="9.388342473443714"><ele>641.5</ele><time>2026-04-26T09:58:14.999Z</time></trkpt><trkpt lat="44.891920443179046" lon="9.388337456213128"><ele>641.3333333333333</ele><time>2026-04-26T09:58:16.999Z</time></trkpt><trkpt lat="44.89201841823056" lon="9.388305905344469"><ele>641.1666666666666</ele><time>2026-04-26T09:58:18.999Z</time></trkpt><trkpt lat="44.892112678561126" lon="9.388289131431746"><ele>641.0</ele><time>2026-04-26T09:58:20.999Z</time></trkpt><trkpt lat="44.89218032495444" lon="9.388268348648568"><ele>641.0</ele><time>2026-04-26T09:58:23.999Z</time></trkpt><trkpt lat="44.892247115994444" lon="9.388298744524494"><ele>641.0</ele><time>2026-04-26T09:59:11.998Z</time></trkpt><trkpt lat="44.892327521479984" lon="9.388333628694024"><ele>641.0</ele><time>2026-04-26T09:59:16.998Z</time></trkpt><trkpt lat="44.892387412605274" lon="9.388374833758956"><ele>641.0</ele><time>2026-04-26T09:59:18.998Z</time></trkpt><trkpt lat="44.89244850276086" lon="9.388403444081803"><ele>641.0</ele><time>2026-04-26T09:59:20.998Z</time></trkpt><trkpt lat="44.89252528178322" lon="9.388433628392999"><ele>641.0</ele><time>2026-04-26T09:59:22.998Z</time></trkpt><trkpt lat="44.892607553025364" lon="9.388461247937999"><ele>640.0</ele><time>2026-04-26T09:59:24.998Z</time></trkpt><trkpt lat="44.89269830055971" lon="9.388502020554288"><ele>639.0</ele><time>2026-04-26T09:59:26.998Z</time></trkpt><trkpt lat="44.89280006791273" lon="9.388532689703801"><ele>638.0</ele><time>2026-04-26T09:59:28.998Z</time></trkpt><trkpt lat="44.89290564791179" lon="9.388557656285414"><ele>637.0</ele><time>2026-04-26T09:59:30.998Z</time></trkpt><trkpt lat="44.89300741894652" lon="9.38857477383931"><ele>636.0</ele><time>2026-04-26T09:59:32.998Z</time></trkpt><trkpt lat="44.89311987090122" lon="9.388567104041385"><ele>636.0</ele><time>2026-04-26T09:59:34.997Z</time></trkpt><trkpt lat="44.893226895018756" lon="9.388510048010478"><ele>636.0</ele><time>2026-04-26T09:59:37Z</time></trkpt><trkpt lat="44.893323283754235" lon="9.388419540021083"><ele>636.0</ele><time>2026-04-26T09:59:39Z</time></trkpt><trkpt lat="44.89339901277376" lon="9.38830130495535"><ele>636.0</ele><time>2026-04-26T09:59:41Z</time></trkpt><trkpt lat="44.89349372965993" lon="9.388208884983392"><ele>636.1666666666666</ele><time>2026-04-26T09:59:43Z</time></trkpt><trkpt lat="44.89360595297218" lon="9.388115611027768"><ele>636.3333333333334</ele><time>2026-04-26T09:59:45Z</time></trkpt><trkpt lat="44.89366762421754" lon="9.388079449531352"><ele>636.5</ele><time>2026-04-26T09:59:46Z</time></trkpt><trkpt lat="44.893728259575234" lon="9.388049588017894"><ele>636.6666666666667</ele><time>2026-04-26T09:59:47Z</time></trkpt><trkpt lat="44.89379664545694" lon="9.388007748934596"><ele>636.8333333333334</ele><time>2026-04-26T09:59:48Z</time></trkpt><trkpt lat="44.893867079470155" lon="9.387976168753903"><ele>637.0</ele><time>2026-04-26T09:59:49Z</time></trkpt><trkpt lat="44.89393663012508" lon="9.387958113449248"><ele>637.0</ele><time>2026-04-26T09:59:50Z</time></trkpt><trkpt lat="44.894016339182755" lon="9.387941167030071"><ele>637.0</ele><time>2026-04-26T09:59:51Z</time></trkpt><trkpt lat="44.894106790574675" lon="9.38792124342347"><ele>637.0</ele><time>2026-04-26T09:59:52Z</time></trkpt><trkpt lat="44.89418495713787" lon="9.387899423060322"><ele>637.0</ele><time>2026-04-26T09:59:53Z</time></trkpt><trkpt lat="44.894248955555895" lon="9.387851419302269"><ele>637.0</ele><time>2026-04-26T09:59:54Z</time></trkpt><trkpt lat="44.894297418939296" lon="9.387777457691854"><ele>637.0</ele><time>2026-04-26T09:59:55Z</time></trkpt><trkpt lat="44.89437364570246" lon="9.387640998233703"><ele>632.0</ele><time>2026-04-26T09:59:57Z</time></trkpt><trkpt lat="44.89442647990501" lon="9.387577381051571"><ele>627.0</ele><time>2026-04-26T09:59:58Z</time></trkpt><trkpt lat="44.894500882409794" lon="9.387515259952858"><ele>622.0</ele><time>2026-04-26T09:59:59Z</time></trkpt><trkpt lat="44.89459249074314" lon="9.387456346152668"><ele>617.0</ele><time>2026-04-26T10:00:00Z</time></trkpt><trkpt lat="44.89469150039578" lon="9.387403242000211"><ele>612.0</ele><time>2026-04-26T10:00:01Z</time></trkpt><trkpt lat="44.894787510580144" lon="9.387350922987991"><ele>612.0</ele><time>2026-04-26T10:00:02Z</time></trkpt><trkpt lat="44.89485769572968" lon="9.387300980053034"><ele>612.0</ele><time>2026-04-26T10:00:03Z</time></trkpt><trkpt lat="44.894914646906166" lon="9.38721818327254"><ele>612.0</ele><time>2026-04-26T10:00:04Z</time></trkpt><trkpt lat="44.89496042510229" lon="9.38710506913556"><ele>612.0</ele><time>2026-04-26T10:00:05Z</time></trkpt><trkpt lat="44.89501162613394" lon="9.386936037241428"><ele>612.0</ele><time>2026-04-26T10:00:06Z</time></trkpt><trkpt lat="44.89505784285102" lon="9.386815197808238"><ele>612.0</ele><time>2026-04-26T10:00:07Z</time></trkpt><trkpt lat="44.89512785253815" lon="9.38673745445206"><ele>612.0</ele><time>2026-04-26T10:00:08Z</time></trkpt><trkpt lat="44.895214924145385" lon="9.386701979403888"><ele>612.0</ele><time>2026-04-26T10:00:09Z</time></trkpt><trkpt lat="44.89531927807461" lon="9.386671650104576"><ele>612.0</ele><time>2026-04-26T10:00:10Z</time></trkpt><trkpt lat="44.8954260597464" lon="9.386636134300343"><ele>612.0</ele><time>2026-04-26T10:00:11Z</time></trkpt><trkpt lat="44.895537491968504" lon="9.386610261420506"><ele>612.0</ele><time>2026-04-26T10:00:11.999Z</time></trkpt><trkpt lat="44.89564091350721" lon="9.386594218757661"><ele>612.0</ele><time>2026-04-26T10:00:12.999Z</time></trkpt><trkpt lat="44.8957492958541" lon="9.386603077473662"><ele>612.0</ele><time>2026-04-26T10:00:13.999Z</time></trkpt><trkpt lat="44.89587234888162" lon="9.38658287511219"><ele>612.0</ele><time>2026-04-26T10:00:14.999Z</time></trkpt><trkpt lat="44.895981951445464" lon="9.38655650092831"><ele>612.0</ele><time>2026-04-26T10:00:15.999Z</time></trkpt><trkpt lat="44.89607948386775" lon="9.386500631516384"><ele>613.0</ele><time>2026-04-26T10:00:16.999Z</time></trkpt><trkpt lat="44.89614143363346" lon="9.386426481618663"><ele>614.0</ele><time>2026-04-26T10:00:17.999Z</time></trkpt><trkpt lat="44.89619005349745" lon="9.386298754984729"><ele>615.0</ele><time>2026-04-26T10:00:18.999Z</time></trkpt><trkpt lat="44.896224625720976" lon="9.386164967581557"><ele>616.0</ele><time>2026-04-26T10:00:19.999Z</time></trkpt><trkpt lat="44.89627460086709" lon="9.38606671454919"><ele>617.0</ele><time>2026-04-26T10:00:20.999Z</time></trkpt><trkpt lat="44.89635562426856" lon="9.386006240194623"><ele>617.0</ele><time>2026-04-26T10:00:21.999Z</time></trkpt><trkpt lat="44.8964540542694" lon="9.385997322540073"><ele>617.0</ele><time>2026-04-26T10:00:22.999Z</time></trkpt><trkpt lat="44.89654608698024" lon="9.38606316947537"><ele>617.0</ele><time>2026-04-26T10:00:23.999Z</time></trkpt><trkpt lat="44.89661920923055" lon="9.386152483686205"><ele>617.0</ele><time>2026-04-26T10:00:24.999Z</time></trkpt><trkpt lat="44.89667859096664" lon="9.38623287143818"><ele>617.0</ele><time>2026-04-26T10:00:25.999Z</time></trkpt><trkpt lat="44.8967824759963" lon="9.386318982782617"><ele>616.0</ele><time>2026-04-26T10:00:26.999Z</time></trkpt><trkpt lat="44.89687806048313" lon="9.386379297563916"><ele>615.0</ele><time>2026-04-26T10:00:27.999Z</time></trkpt><trkpt lat="44.89698670143566" lon="9.386400169541366"><ele>614.0</ele><time>2026-04-26T10:00:28.999Z</time></trkpt><trkpt lat="44.89709900152387" lon="9.38634545994923"><ele>613.0</ele><time>2026-04-26T10:00:29.999Z</time></trkpt><trkpt lat="44.89721326403521" lon="9.386337003036283"><ele>612.0</ele><time>2026-04-26T10:00:30.999Z</time></trkpt><trkpt lat="44.89730678169189" lon="9.38631206223938"><ele>612.0</ele><time>2026-04-26T10:00:31.999Z</time></trkpt><trkpt lat="44.89739631490467" lon="9.386283509117256"><ele>612.0</ele><time>2026-04-26T10:00:32.999Z</time></trkpt><trkpt lat="44.89748115754835" lon="9.3862695352455"><ele>612.0</ele><time>2026-04-26T10:00:33.999Z</time></trkpt><trkpt lat="44.89755873382278" lon="9.38625633222544"><ele>612.0</ele><time>2026-04-26T10:00:34.999Z</time></trkpt><trkpt lat="44.897631003362065" lon="9.386241402683572"><ele>612.0</ele><time>2026-04-26T10:00:35.999Z</time></trkpt><trkpt lat="44.89769978266435" lon="9.386236282518324"><ele>612.0</ele><time>2026-04-26T10:00:36.999Z</time></trkpt><trkpt lat="44.89781020327999" lon="9.386297676704526"><ele>606.0</ele><time>2026-04-26T10:00:38.999Z</time></trkpt><trkpt lat="44.897869381993175" lon="9.386351705777287"><ele>600.0</ele><time>2026-04-26T10:00:39.999Z</time></trkpt><trkpt lat="44.897940181324614" lon="9.38641092386912"><ele>594.0</ele><time>2026-04-26T10:00:40.999Z</time></trkpt><trkpt lat="44.89801916772238" lon="9.38645228920333"><ele>588.0</ele><time>2026-04-26T10:00:41.999Z</time></trkpt><trkpt lat="44.89812479560366" lon="9.386457751939147"><ele>582.0</ele><time>2026-04-26T10:00:42.999Z</time></trkpt><trkpt lat="44.8982328957228" lon="9.386429273218893"><ele>582.0</ele><time>2026-04-26T10:00:43.999Z</time></trkpt><trkpt lat="44.898320472854586" lon="9.386354148908671"><ele>582.0</ele><time>2026-04-26T10:00:44.999Z</time></trkpt><trkpt lat="44.89838762691357" lon="9.386229548564042"><ele>582.0</ele><time>2026-04-26T10:00:45.999Z</time></trkpt><trkpt lat="44.89844739349288" lon="9.386100810417245"><ele>582.0</ele><time>2026-04-26T10:00:46.999Z</time></trkpt><trkpt lat="44.89853060127655" lon="9.386004659350325"><ele>582.0</ele><time>2026-04-26T10:00:47.999Z</time></trkpt><trkpt lat="44.89865344053322" lon="9.385984233942242"><ele>588.5</ele><time>2026-04-26T10:00:48.999Z</time></trkpt><trkpt lat="44.89878700922165" lon="9.385990137236615"><ele>595.0</ele><time>2026-04-26T10:00:49.999Z</time></trkpt><trkpt lat="44.898929336103315" lon="9.386041298338352"><ele>601.5</ele><time>2026-04-26T10:00:50.999Z</time></trkpt><trkpt lat="44.89907621014518" lon="9.38611489453337"><ele>608.0</ele><time>2026-04-26T10:00:51.999Z</time></trkpt><trkpt lat="44.89920471281501" lon="9.386201912726955"><ele>606.0</ele><time>2026-04-26T10:00:52.999Z</time></trkpt><trkpt lat="44.89932399353511" lon="9.386248486901131"><ele>604.0</ele><time>2026-04-26T10:00:53.999Z</time></trkpt><trkpt lat="44.899444916680146" lon="9.386261835061465"><ele>602.0</ele><time>2026-04-26T10:00:54.999Z</time></trkpt><trkpt lat="44.899575965234526" lon="9.386226644653906"><ele>600.0</ele><time>2026-04-26T10:00:55.998Z</time></trkpt><trkpt lat="44.89971719517146" lon="9.386161004296929"><ele>600.0</ele><time>2026-04-26T10:00:56.998Z</time></trkpt><trkpt lat="44.8998574186793" lon="9.386093224912216"><ele>600.0</ele><time>2026-04-26T10:00:57.998Z</time></trkpt><trkpt lat="44.89998648401756" lon="9.386041244046416"><ele>600.0</ele><time>2026-04-26T10:00:58.998Z</time></trkpt><trkpt lat="44.90010931521425" lon="9.386032878995994"><ele>600.0</ele><time>2026-04-26T10:00:59.998Z</time></trkpt><trkpt lat="44.90024091731948" lon="9.386030359750224"><ele>597.25</ele><time>2026-04-26T10:01:00.998Z</time></trkpt><trkpt lat="44.90038270930774" lon="9.386007312233048"><ele>594.5</ele><time>2026-04-26T10:01:01.998Z</time></trkpt><trkpt lat="44.90053342257834" lon="9.386002808868385"><ele>591.75</ele><time>2026-04-26T10:01:02.998Z</time></trkpt><trkpt lat="44.900680348542586" lon="9.385977645810746"><ele>589.0</ele><time>2026-04-26T10:01:03.998Z</time></trkpt><trkpt lat="44.900822019124654" lon="9.385975268571137"><ele>587.75</ele><time>2026-04-26T10:01:04.998Z</time></trkpt><trkpt lat="44.900949078671715" lon="9.386013563016972"><ele>586.5</ele><time>2026-04-26T10:01:05.998Z</time></trkpt><trkpt lat="44.90106855508292" lon="9.38607520987493"><ele>585.25</ele><time>2026-04-26T10:01:06.998Z</time></trkpt><trkpt lat="44.90117809944619" lon="9.386141150274806"><ele>584.0</ele><time>2026-04-26T10:01:07.998Z</time></trkpt><trkpt lat="44.90127613423202" lon="9.386175415604052"><ele>584.0</ele><time>2026-04-26T10:01:08.998Z</time></trkpt><trkpt lat="44.90138157246564" lon="9.386208089445315"><ele>584.0</ele><time>2026-04-26T10:01:09.998Z</time></trkpt><trkpt lat="44.90150227759948" lon="9.386223313461674"><ele>584.0</ele><time>2026-04-26T10:01:10.998Z</time></trkpt><trkpt lat="44.90165271139027" lon="9.386178139467981"><ele>584.0</ele><time>2026-04-26T10:01:11.998Z</time></trkpt><trkpt lat="44.90177732954753" lon="9.386110883860297"><ele>581.25</ele><time>2026-04-26T10:01:12.998Z</time></trkpt><trkpt lat="44.90188760765446" lon="9.386042974286493"><ele>578.5</ele><time>2026-04-26T10:01:13.998Z</time></trkpt><trkpt lat="44.90198508924613" lon="9.385956991369948"><ele>575.75</ele><time>2026-04-26T10:01:14.998Z</time></trkpt><trkpt lat="44.90208113446018" lon="9.385816148853339"><ele>573.0</ele><time>2026-04-26T10:01:15.998Z</time></trkpt><trkpt lat="44.90218609129323" lon="9.385665278530869"><ele>573.0</ele><time>2026-04-26T10:01:16.998Z</time></trkpt><trkpt lat="44.90231313761689" lon="9.385602019855957"><ele>573.0</ele><time>2026-04-26T10:01:17.998Z</time></trkpt><trkpt lat="44.90241533977054" lon="9.385604413380236"><ele>573.0</ele><time>2026-04-26T10:01:18.998Z</time></trkpt><trkpt lat="44.902511903495494" lon="9.385677296809828"><ele>573.0</ele><time>2026-04-26T10:01:19.998Z</time></trkpt><trkpt lat="44.90259495108321" lon="9.38578718159804"><ele>573.0</ele><time>2026-04-26T10:01:20.998Z</time></trkpt><trkpt lat="44.90272632317392" lon="9.385899502743452"><ele>573.0</ele><time>2026-04-26T10:01:21.998Z</time></trkpt><trkpt lat="44.902845970821545" lon="9.386018854581124"><ele>573.0</ele><time>2026-04-26T10:01:22.998Z</time></trkpt><trkpt lat="44.90296454237287" lon="9.386091290054708"><ele>573.0</ele><time>2026-04-26T10:01:23.998Z</time></trkpt><trkpt lat="44.90307689380269" lon="9.386140869391951"><ele>573.0</ele><time>2026-04-26T10:01:24.998Z</time></trkpt><trkpt lat="44.90318150546254" lon="9.386147485562203"><ele>573.0</ele><time>2026-04-26T10:01:25.998Z</time></trkpt><trkpt lat="44.90329760007913" lon="9.386110616689587"><ele>573.0</ele><time>2026-04-26T10:01:26.998Z</time></trkpt><trkpt lat="44.90340683070812" lon="9.386020070063955"><ele>573.0</ele><time>2026-04-26T10:01:27.998Z</time></trkpt><trkpt lat="44.903538505470216" lon="9.385926287183299"><ele>573.0</ele><time>2026-04-26T10:01:28.998Z</time></trkpt><trkpt lat="44.90366071508921" lon="9.385875526375171"><ele>573.0</ele><time>2026-04-26T10:01:29.998Z</time></trkpt><trkpt lat="44.90376414685606" lon="9.3859128528482"><ele>573.0</ele><time>2026-04-26T10:01:30.998Z</time></trkpt><trkpt lat="44.90385808762617" lon="9.385989545339422"><ele>573.0</ele><time>2026-04-26T10:01:31.998Z</time></trkpt><trkpt lat="44.90396304767621" lon="9.386106621915077"><ele>573.0</ele><time>2026-04-26T10:01:32.998Z</time></trkpt><trkpt lat="44.90408165465415" lon="9.38622038249635"><ele>573.0</ele><time>2026-04-26T10:01:33.998Z</time></trkpt><trkpt lat="44.90418610439214" lon="9.386322424731377"><ele>573.0</ele><time>2026-04-26T10:01:34.998Z</time></trkpt><trkpt lat="44.904309502137245" lon="9.386388183123266"><ele>573.0</ele><time>2026-04-26T10:01:35.998Z</time></trkpt><trkpt lat="44.90444623237" lon="9.38643873748529"><ele>568.25</ele><time>2026-04-26T10:01:36.998Z</time></trkpt><trkpt lat="44.904569041906036" lon="9.386494087321687"><ele>563.5</ele><time>2026-04-26T10:01:37.998Z</time></trkpt><trkpt lat="44.904682933128186" lon="9.386549001069701"><ele>558.75</ele><time>2026-04-26T10:01:38.998Z</time></trkpt><trkpt lat="44.90479403789039" lon="9.38657660745409"><ele>554.0</ele><time>2026-04-26T10:01:39.997Z</time></trkpt><trkpt lat="44.90490708914043" lon="9.38655506241172"><ele>554.0</ele><time>2026-04-26T10:01:40.997Z</time></trkpt><trkpt lat="44.90502968604148" lon="9.386489942968092"><ele>554.0</ele><time>2026-04-26T10:01:41.997Z</time></trkpt><trkpt lat="44.90514260473123" lon="9.386408710211615"><ele>554.0</ele><time>2026-04-26T10:01:43Z</time></trkpt><trkpt lat="44.90525047103499" lon="9.38633467343907"><ele>554.0</ele><time>2026-04-26T10:01:44Z</time></trkpt><trkpt lat="44.90535962440202" lon="9.386272294711878"><ele>553.0</ele><time>2026-04-26T10:01:45Z</time></trkpt><trkpt lat="44.90546994139681" lon="9.386206316478045"><ele>552.0</ele><time>2026-04-26T10:01:46Z</time></trkpt><trkpt lat="44.905573272995525" lon="9.3861085067625"><ele>551.0</ele><time>2026-04-26T10:01:47Z</time></trkpt><trkpt lat="44.905671913278475" lon="9.385980502868186"><ele>550.0</ele><time>2026-04-26T10:01:48Z</time></trkpt><trkpt lat="44.9057694788229" lon="9.385847616874369"><ele>550.0</ele><time>2026-04-26T10:01:49Z</time></trkpt><trkpt lat="44.905873256383096" lon="9.385729092824873"><ele>550.0</ele><time>2026-04-26T10:01:50Z</time></trkpt><trkpt lat="44.90598032646162" lon="9.385661113997452"><ele>550.0</ele><time>2026-04-26T10:01:51Z</time></trkpt><trkpt lat="44.90608618309675" lon="9.385599850749358"><ele>550.0</ele><time>2026-04-26T10:01:52Z</time></trkpt><trkpt lat="44.90617744169643" lon="9.385525670186707"><ele>547.4</ele><time>2026-04-26T10:01:53Z</time></trkpt><trkpt lat="44.90624358704308" lon="9.385419896972467"><ele>544.8</ele><time>2026-04-26T10:01:54Z</time></trkpt><trkpt lat="44.90627838655451" lon="9.3852830257792"><ele>542.2</ele><time>2026-04-26T10:01:55Z</time></trkpt><trkpt lat="44.90627990064286" lon="9.38513936981455"><ele>539.6</ele><time>2026-04-26T10:01:56Z</time></trkpt><trkpt lat="44.90624685658394" lon="9.38500439714218"><ele>537.0</ele><time>2026-04-26T10:01:57Z</time></trkpt><trkpt lat="44.9061869228723" lon="9.38489008345378"><ele>537.0</ele><time>2026-04-26T10:01:58Z</time></trkpt><trkpt lat="44.906122390865825" lon="9.38478286320855"><ele>537.0</ele><time>2026-04-26T10:01:59Z</time></trkpt><trkpt lat="44.906077920771565" lon="9.384691399345067"><ele>537.0</ele><time>2026-04-26T10:02:00Z</time></trkpt><trkpt lat="44.90609670302322" lon="9.384570256104615"><ele>537.0</ele><time>2026-04-26T10:02:02Z</time></trkpt><trkpt lat="44.90618753519935" lon="9.38457300040902"><ele>537.0</ele><time>2026-04-26T10:02:04Z</time></trkpt><trkpt lat="44.90623688028051" lon="9.384642313243159"><ele>537.0</ele><time>2026-04-26T10:02:05Z</time></trkpt><trkpt lat="44.90625160079937" lon="9.384750125054799"><ele>537.0</ele><time>2026-04-26T10:02:06Z</time></trkpt><trkpt lat="44.90631371907163" lon="9.384832065578268"><ele>537.0</ele><time>2026-04-26T10:02:07Z</time></trkpt><trkpt lat="44.906374469285474" lon="9.384929339295262"><ele>537.0</ele><time>2026-04-26T10:02:08Z</time></trkpt><trkpt lat="44.90647048297149" lon="9.385012364690882"><ele>537.0</ele><time>2026-04-26T10:02:09Z</time></trkpt><trkpt lat="44.906570858375105" lon="9.385061001104836"><ele>537.0</ele><time>2026-04-26T10:02:10Z</time></trkpt><trkpt lat="44.90667859246805" lon="9.385101455377345"><ele>533.75</ele><time>2026-04-26T10:02:11Z</time></trkpt><trkpt lat="44.90677964564938" lon="9.385124149312713"><ele>530.5</ele><time>2026-04-26T10:02:12Z</time></trkpt><trkpt lat="44.90688843218754" lon="9.385165547419284"><ele>527.25</ele><time>2026-04-26T10:02:13Z</time></trkpt><trkpt lat="44.90699318705578" lon="9.38522770547575"><ele>524.0</ele><time>2026-04-26T10:02:14Z</time></trkpt><trkpt lat="44.907086988917975" lon="9.385336585462499"><ele>524.0</ele><time>2026-04-26T10:02:15Z</time></trkpt><trkpt lat="44.90718400189236" lon="9.38546272882306"><ele>524.0</ele><time>2026-04-26T10:02:16Z</time></trkpt><trkpt lat="44.90729062887522" lon="9.385594867572891"><ele>524.0</ele><time>2026-04-26T10:02:17Z</time></trkpt><trkpt lat="44.90740318029518" lon="9.385731479262722"><ele>524.0</ele><time>2026-04-26T10:02:17.999Z</time></trkpt><trkpt lat="44.9075415673967" lon="9.385827337669467"><ele>526.3333333333333</ele><time>2026-04-26T10:02:18.999Z</time></trkpt><trkpt lat="44.907709234611595" lon="9.385857047032593"><ele>528.6666666666666</ele><time>2026-04-26T10:02:19.999Z</time></trkpt><trkpt lat="44.907884589716296" lon="9.385879678422492"><ele>531.0</ele><time>2026-04-26T10:02:20.999Z</time></trkpt><trkpt lat="44.908063567666616" lon="9.385872155216607"><ele>531.0</ele><time>2026-04-26T10:02:21.999Z</time></trkpt><trkpt lat="44.908225337209565" lon="9.385857628199807"><ele>531.0</ele><time>2026-04-26T10:02:22.999Z</time></trkpt><trkpt lat="44.90837274201574" lon="9.385863214013911"><ele>531.0</ele><time>2026-04-26T10:02:23.999Z</time></trkpt><trkpt lat="44.90851328819206" lon="9.385887439805183"><ele>531.25</ele><time>2026-04-26T10:02:24.999Z</time></trkpt><trkpt lat="44.90864529958225" lon="9.385926366975376"><ele>531.5</ele><time>2026-04-26T10:02:25.999Z</time></trkpt><trkpt lat="44.90875688229686" lon="9.38599617232686"><ele>531.75</ele><time>2026-04-26T10:02:26.999Z</time></trkpt><trkpt lat="44.908875010291645" lon="9.386075732035534"><ele>532.0</ele><time>2026-04-26T10:02:27.999Z</time></trkpt><trkpt lat="44.909000842501214" lon="9.386172821776887"><ele>532.0</ele><time>2026-04-26T10:02:28.999Z</time></trkpt><trkpt lat="44.909131578753914" lon="9.38628285676778"><ele>532.0</ele><time>2026-04-26T10:02:29.999Z</time></trkpt><trkpt lat="44.90924678807061" lon="9.38637341908608"><ele>532.0</ele><time>2026-04-26T10:02:30.999Z</time></trkpt><trkpt lat="44.909364705142096" lon="9.386412034762557"><ele>532.0</ele><time>2026-04-26T10:02:31.999Z</time></trkpt><trkpt lat="44.90947917269852" lon="9.386420671805276"><ele>529.5</ele><time>2026-04-26T10:02:32.999Z</time></trkpt><trkpt lat="44.90961568608135" lon="9.386397073596747"><ele>527.0</ele><time>2026-04-26T10:02:33.999Z</time></trkpt><trkpt lat="44.9097611537252" lon="9.386373193589378"><ele>524.5</ele><time>2026-04-26T10:02:34.999Z</time></trkpt><trkpt lat="44.90989030441164" lon="9.38640915414857"><ele>522.0</ele><time>2026-04-26T10:02:35.999Z</time></trkpt><trkpt lat="44.91001628741015" lon="9.38637770769407"><ele>521.5</ele><time>2026-04-26T10:02:36.999Z</time></trkpt><trkpt lat="44.910136598686584" lon="9.386368801051228"><ele>521.0</ele><time>2026-04-26T10:02:37.999Z</time></trkpt><trkpt lat="44.91024868411263" lon="9.386387849248338"><ele>520.5</ele><time>2026-04-26T10:02:38.999Z</time></trkpt><trkpt lat="44.91035191272143" lon="9.386464362653609"><ele>520.0</ele><time>2026-04-26T10:02:39.999Z</time></trkpt><trkpt lat="44.91045341832905" lon="9.386529808493231"><ele>520.0</ele><time>2026-04-26T10:02:40.999Z</time></trkpt><trkpt lat="44.91056265866974" lon="9.386551785426715"><ele>520.0</ele><time>2026-04-26T10:02:41.999Z</time></trkpt><trkpt lat="44.9106717878081" lon="9.386527937490492"><ele>520.0</ele><time>2026-04-26T10:02:42.999Z</time></trkpt><trkpt lat="44.9107860271846" lon="9.386475679037314"><ele>520.0</ele><time>2026-04-26T10:02:43.999Z</time></trkpt><trkpt lat="44.910902237676545" lon="9.386450850447426"><ele>517.75</ele><time>2026-04-26T10:02:44.999Z</time></trkpt><trkpt lat="44.91101598790317" lon="9.386451517608513"><ele>515.5</ele><time>2026-04-26T10:02:45.999Z</time></trkpt><trkpt lat="44.91112832206114" lon="9.386467621938188"><ele>513.25</ele><time>2026-04-26T10:02:46.999Z</time></trkpt><trkpt lat="44.911227649490606" lon="9.386534911060936"><ele>511.0</ele><time>2026-04-26T10:02:47.999Z</time></trkpt><trkpt lat="44.91133172989768" lon="9.386610259390189"><ele>511.0</ele><time>2026-04-26T10:02:48.999Z</time></trkpt><trkpt lat="44.91143810544881" lon="9.38671231907925"><ele>511.0</ele><time>2026-04-26T10:02:49.999Z</time></trkpt><trkpt lat="44.911549715521616" lon="9.386807748410192"><ele>511.0</ele><time>2026-04-26T10:02:50.999Z</time></trkpt><trkpt lat="44.911650751473935" lon="9.386918387422755"><ele>511.0</ele><time>2026-04-26T10:02:51.999Z</time></trkpt><trkpt lat="44.9117579042596" lon="9.387025104941923"><ele>511.0</ele><time>2026-04-26T10:02:52.999Z</time></trkpt><trkpt lat="44.911871388842215" lon="9.387125056376908"><ele>511.0</ele><time>2026-04-26T10:02:53.999Z</time></trkpt><trkpt lat="44.91198741522033" lon="9.38721115597407"><ele>511.0</ele><time>2026-04-26T10:02:54.999Z</time></trkpt><trkpt lat="44.912106675884196" lon="9.38728804860506"><ele>511.0</ele><time>2026-04-26T10:02:55.999Z</time></trkpt><trkpt lat="44.912214147046434" lon="9.387375992412991"><ele>511.0</ele><time>2026-04-26T10:02:56.999Z</time></trkpt><trkpt lat="44.91232014139072" lon="9.387432515020285"><ele>511.0</ele><time>2026-04-26T10:02:57.999Z</time></trkpt><trkpt lat="44.912423839991604" lon="9.387477348236231"><ele>511.0</ele><time>2026-04-26T10:02:58.999Z</time></trkpt><trkpt lat="44.91252129624262" lon="9.387498114198054"><ele>511.0</ele><time>2026-04-26T10:02:59.999Z</time></trkpt><trkpt lat="44.9126190273787" lon="9.38749336579945"><ele>511.0</ele><time>2026-04-26T10:03:00.999Z</time></trkpt><trkpt lat="44.91271562301583" lon="9.387432785718861"><ele>511.0</ele><time>2026-04-26T10:03:01.999Z</time></trkpt><trkpt lat="44.91279433648937" lon="9.387309817576696"><ele>511.0</ele><time>2026-04-26T10:03:02.998Z</time></trkpt><trkpt lat="44.91287750888611" lon="9.387182839892024"><ele>511.0</ele><time>2026-04-26T10:03:03.998Z</time></trkpt><trkpt lat="44.91297851810268" lon="9.387079616074322"><ele>511.0</ele><time>2026-04-26T10:03:04.998Z</time></trkpt><trkpt lat="44.913060723507414" lon="9.3869375593487"><ele>511.0</ele><time>2026-04-26T10:03:05.998Z</time></trkpt><trkpt lat="44.91315890408826" lon="9.386802987217932"><ele>511.0</ele><time>2026-04-26T10:03:06.998Z</time></trkpt><trkpt lat="44.91324600708067" lon="9.386672550958387"><ele>511.0</ele><time>2026-04-26T10:03:07.998Z</time></trkpt><trkpt lat="44.913334716539076" lon="9.386562104174395"><ele>511.0</ele><time>2026-04-26T10:03:08.998Z</time></trkpt><trkpt lat="44.913426078935544" lon="9.386462990395005"><ele>510.0</ele><time>2026-04-26T10:03:09.998Z</time></trkpt><trkpt lat="44.913535962874384" lon="9.386405909028287"><ele>509.0</ele><time>2026-04-26T10:03:10.998Z</time></trkpt><trkpt lat="44.913639994108514" lon="9.386343195450381"><ele>508.0</ele><time>2026-04-26T10:03:11.998Z</time></trkpt><trkpt lat="44.913742313599485" lon="9.386306711009535"><ele>507.0</ele><time>2026-04-26T10:03:12.998Z</time></trkpt><trkpt lat="44.91386074023101" lon="9.38628482774459"><ele>507.0</ele><time>2026-04-26T10:03:13.998Z</time></trkpt><trkpt lat="44.913977564784176" lon="9.386218278564437"><ele>507.0</ele><time>2026-04-26T10:03:14.998Z</time></trkpt><trkpt lat="44.91409705311362" lon="9.386179578388793"><ele>507.0</ele><time>2026-04-26T10:03:15.998Z</time></trkpt><trkpt lat="44.9142155304224" lon="9.386111775132443"><ele>507.0</ele><time>2026-04-26T10:03:16.998Z</time></trkpt><trkpt lat="44.91431806512694" lon="9.38601690700753"><ele>505.5</ele><time>2026-04-26T10:03:17.998Z</time></trkpt><trkpt lat="44.9144057263311" lon="9.385872631254651"><ele>504.0</ele><time>2026-04-26T10:03:18.998Z</time></trkpt><trkpt lat="44.91449568897087" lon="9.385719684590114"><ele>502.5</ele><time>2026-04-26T10:03:19.998Z</time></trkpt><trkpt lat="44.91456793349828" lon="9.385535396789901"><ele>501.0</ele><time>2026-04-26T10:03:20.998Z</time></trkpt><trkpt lat="44.91464954346805" lon="9.385387162365495"><ele>501.0</ele><time>2026-04-26T10:03:21.998Z</time></trkpt><trkpt lat="44.91474466625325" lon="9.385276611846258"><ele>501.0</ele><time>2026-04-26T10:03:22.998Z</time></trkpt><trkpt lat="44.91484073695161" lon="9.385176065117381"><ele>501.0</ele><time>2026-04-26T10:03:23.998Z</time></trkpt><trkpt lat="44.91495754489028" lon="9.385126338361404"><ele>501.0</ele><time>2026-04-26T10:03:24.998Z</time></trkpt><trkpt lat="44.915075078549684" lon="9.385129684952709"><ele>498.5</ele><time>2026-04-26T10:03:25.998Z</time></trkpt><trkpt lat="44.9152056034699" lon="9.385175766128928"><ele>496.0</ele><time>2026-04-26T10:03:26.998Z</time></trkpt><trkpt lat="44.915331060195825" lon="9.385216278433667"><ele>493.5</ele><time>2026-04-26T10:03:27.998Z</time></trkpt><trkpt lat="44.91544755988352" lon="9.38525405748108"><ele>491.0</ele><time>2026-04-26T10:03:28.998Z</time></trkpt><trkpt lat="44.915557664556495" lon="9.38533834045608"><ele>491.0</ele><time>2026-04-26T10:03:29.998Z</time></trkpt><trkpt lat="44.9156658265579" lon="9.38545499669568"><ele>491.0</ele><time>2026-04-26T10:03:30.998Z</time></trkpt><trkpt lat="44.91577544716602" lon="9.38555928587514"><ele>491.0</ele><time>2026-04-26T10:03:31.998Z</time></trkpt><trkpt lat="44.91589307947129" lon="9.385693828478955"><ele>491.0</ele><time>2026-04-26T10:03:32.998Z</time></trkpt><trkpt lat="44.91597973450451" lon="9.385811123533495"><ele>487.25</ele><time>2026-04-26T10:03:33.998Z</time></trkpt><trkpt lat="44.91603049938743" lon="9.385978464188929"><ele>483.5</ele><time>2026-04-26T10:03:34.998Z</time></trkpt><trkpt lat="44.916055538847054" lon="9.386164730922784"><ele>479.75</ele><time>2026-04-26T10:03:35.998Z</time></trkpt><trkpt lat="44.9161116396769" lon="9.38633605719777"><ele>476.0</ele><time>2026-04-26T10:03:36.998Z</time></trkpt><trkpt lat="44.916169867213476" lon="9.386520771001027"><ele>476.0</ele><time>2026-04-26T10:03:37.998Z</time></trkpt><trkpt lat="44.91623980829906" lon="9.386701489002663"><ele>476.0</ele><time>2026-04-26T10:03:38.998Z</time></trkpt><trkpt lat="44.91631145709561" lon="9.386876571327573"><ele>476.0</ele><time>2026-04-26T10:03:39.998Z</time></trkpt><trkpt lat="44.916396598035234" lon="9.387033628750562"><ele>476.0</ele><time>2026-04-26T10:03:40.998Z</time></trkpt><trkpt lat="44.91647685641559" lon="9.387201903856024"><ele>477.5</ele><time>2026-04-26T10:03:41.998Z</time></trkpt><trkpt lat="44.91657805695607" lon="9.387350696403374"><ele>479.0</ele><time>2026-04-26T10:03:42.998Z</time></trkpt><trkpt lat="44.91667109567026" lon="9.387501574776742"><ele>480.5</ele><time>2026-04-26T10:03:43.998Z</time></trkpt><trkpt lat="44.916777120477995" lon="9.387630194774285"><ele>482.0</ele><time>2026-04-26T10:03:44.997Z</time></trkpt><trkpt lat="44.916880240060664" lon="9.387746276058076"><ele>479.6</ele><time>2026-04-26T10:03:45.997Z</time></trkpt><trkpt lat="44.916970251617265" lon="9.387850644761022"><ele>477.20000000000005</ele><time>2026-04-26T10:03:46.997Z</time></trkpt><trkpt lat="44.91704074650902" lon="9.387954494035421"><ele>474.8</ele><time>2026-04-26T10:03:47.997Z</time></trkpt><trkpt lat="44.917079685311684" lon="9.388094207597733"><ele>472.4</ele><time>2026-04-26T10:03:49Z</time></trkpt><trkpt lat="44.91711196200091" lon="9.38824129837241"><ele>470.0</ele><time>2026-04-26T10:03:50Z</time></trkpt><trkpt lat="44.91715387377451" lon="9.388354577257955"><ele>470.0</ele><time>2026-04-26T10:03:51Z</time></trkpt><trkpt lat="44.91723265896022" lon="9.388431852735321"><ele>470.0</ele><time>2026-04-26T10:03:52Z</time></trkpt><trkpt lat="44.91734499935055" lon="9.388410285953755"><ele>470.0</ele><time>2026-04-26T10:03:53Z</time></trkpt><trkpt lat="44.917455840455105" lon="9.388393395431496"><ele>470.0</ele><time>2026-04-26T10:03:54Z</time></trkpt><trkpt lat="44.91753972495149" lon="9.388380625697613"><ele>470.0</ele><time>2026-04-26T10:03:55Z</time></trkpt><trkpt lat="44.91762047927029" lon="9.388389823524266"><ele>468.0</ele><time>2026-04-26T10:03:56Z</time></trkpt><trkpt lat="44.917678658837424" lon="9.388469689373437"><ele>466.0</ele><time>2026-04-26T10:03:57Z</time></trkpt><trkpt lat="44.917761843391254" lon="9.388561421437245"><ele>464.0</ele><time>2026-04-26T10:03:58Z</time></trkpt><trkpt lat="44.91783392597435" lon="9.388700257020673"><ele>462.0</ele><time>2026-04-26T10:03:59Z</time></trkpt><trkpt lat="44.9179047741977" lon="9.38880786385919"><ele>460.0</ele><time>2026-04-26T10:04:00Z</time></trkpt><trkpt lat="44.917989809028185" lon="9.388888115751305"><ele>458.75</ele><time>2026-04-26T10:04:01Z</time></trkpt><trkpt lat="44.91810736549671" lon="9.388907000090775"><ele>457.5</ele><time>2026-04-26T10:04:02Z</time></trkpt><trkpt lat="44.91821390663691" lon="9.38888275668751"><ele>456.25</ele><time>2026-04-26T10:04:03Z</time></trkpt><trkpt lat="44.918325556475835" lon="9.388845491003844"><ele>455.0</ele><time>2026-04-26T10:04:04Z</time></trkpt><trkpt lat="44.91843923392314" lon="9.388802470547411"><ele>455.0</ele><time>2026-04-26T10:04:05Z</time></trkpt><trkpt lat="44.91855519430918" lon="9.388753228039265"><ele>455.0</ele><time>2026-04-26T10:04:06Z</time></trkpt><trkpt lat="44.91866657463521" lon="9.388696383605195"><ele>455.0</ele><time>2026-04-26T10:04:07Z</time></trkpt><trkpt lat="44.91877630085005" lon="9.3886357156721"><ele>455.0</ele><time>2026-04-26T10:04:08Z</time></trkpt><trkpt lat="44.91888900076573" lon="9.388570792440872"><ele>455.0</ele><time>2026-04-26T10:04:09Z</time></trkpt><trkpt lat="44.91900974003465" lon="9.388514314234238"><ele>455.0</ele><time>2026-04-26T10:04:10Z</time></trkpt><trkpt lat="44.919139805144304" lon="9.388508127819996"><ele>455.0</ele><time>2026-04-26T10:04:11Z</time></trkpt><trkpt lat="44.919271195477094" lon="9.38856951925899"><ele>455.0</ele><time>2026-04-26T10:04:12Z</time></trkpt><trkpt lat="44.919414161780075" lon="9.388633657626022"><ele>453.5</ele><time>2026-04-26T10:04:13Z</time></trkpt><trkpt lat="44.919561747359644" lon="9.38868462583734"><ele>452.0</ele><time>2026-04-26T10:04:14Z</time></trkpt><trkpt lat="44.91970664209284" lon="9.388719145278682"><ele>450.5</ele><time>2026-04-26T10:04:15Z</time></trkpt><trkpt lat="44.919836281648315" lon="9.388744139067272"><ele>449.0</ele><time>2026-04-26T10:04:16Z</time></trkpt><trkpt lat="44.9199601961861" lon="9.388765756979"><ele>448.25</ele><time>2026-04-26T10:04:17Z</time></trkpt><trkpt lat="44.9200755175608" lon="9.388786634522635"><ele>447.5</ele><time>2026-04-26T10:04:18Z</time></trkpt><trkpt lat="44.92019713475689" lon="9.388815150016178"><ele>446.75</ele><time>2026-04-26T10:04:19Z</time></trkpt><trkpt lat="44.92031352919031" lon="9.388868226139575"><ele>446.0</ele><time>2026-04-26T10:04:20Z</time></trkpt><trkpt lat="44.920453910800276" lon="9.38887835420858"><ele>447.75</ele><time>2026-04-26T10:04:21Z</time></trkpt><trkpt lat="44.920571320691735" lon="9.388928572775967"><ele>449.5</ele><time>2026-04-26T10:04:22Z</time></trkpt><trkpt lat="44.92068242888996" lon="9.388988278607036"><ele>451.25</ele><time>2026-04-26T10:04:23Z</time></trkpt><trkpt lat="44.920800965293694" lon="9.389069267281426"><ele>453.0</ele><time>2026-04-26T10:04:23.999Z</time></trkpt><trkpt lat="44.920925055613225" lon="9.3891661566082"><ele>453.0</ele><time>2026-04-26T10:04:24.999Z</time></trkpt><trkpt lat="44.92105356360762" lon="9.38927002671213"><ele>453.0</ele><time>2026-04-26T10:04:25.999Z</time></trkpt><trkpt lat="44.921201938626375" lon="9.389357076533145"><ele>453.0</ele><time>2026-04-26T10:04:26.999Z</time></trkpt><trkpt lat="44.92134458704174" lon="9.389450795788106"><ele>453.0</ele><time>2026-04-26T10:04:27.999Z</time></trkpt><trkpt lat="44.921485578844546" lon="9.389520049193246"><ele>453.0</ele><time>2026-04-26T10:04:28.999Z</time></trkpt><trkpt lat="44.92165256805185" lon="9.38958825458905"><ele>453.0</ele><time>2026-04-26T10:04:29.999Z</time></trkpt><trkpt lat="44.921811338766844" lon="9.389615481745686"><ele>454.66666666666663</ele><time>2026-04-26T10:04:30.999Z</time></trkpt><trkpt lat="44.92196174586959" lon="9.389670103554256"><ele>456.3333333333333</ele><time>2026-04-26T10:04:31.999Z</time></trkpt><trkpt lat="44.92211641424437" lon="9.38968143922457"><ele>458.0</ele><time>2026-04-26T10:04:32.999Z</time></trkpt><trkpt lat="44.92226118042" lon="9.38971904110058"><ele>458.25</ele><time>2026-04-26T10:04:33.999Z</time></trkpt><trkpt lat="44.922394732676615" lon="9.389760884426789"><ele>458.5</ele><time>2026-04-26T10:04:34.999Z</time></trkpt><trkpt lat="44.92252710044316" lon="9.389818782979921"><ele>458.75</ele><time>2026-04-26T10:04:35.999Z</time></trkpt><trkpt lat="44.92264615986024" lon="9.389805819883199"><ele>459.0</ele><time>2026-04-26T10:04:36.999Z</time></trkpt><trkpt lat="44.922754050493054" lon="9.389818729073832"><ele>459.0</ele><time>2026-04-26T10:04:37.999Z</time></trkpt><trkpt lat="44.92285906310268" lon="9.389835455675575"><ele>459.0</ele><time>2026-04-26T10:04:38.999Z</time></trkpt><trkpt lat="44.92296372419675" lon="9.389886594786176"><ele>459.0</ele><time>2026-04-26T10:04:39.999Z</time></trkpt><trkpt lat="44.92307527610439" lon="9.389911880412086"><ele>459.0</ele><time>2026-04-26T10:04:40.999Z</time></trkpt><trkpt lat="44.92319169976878" lon="9.389907707368199"><ele>459.0</ele><time>2026-04-26T10:04:41.999Z</time></trkpt><trkpt lat="44.92331716246037" lon="9.389922620194781"><ele>457.25</ele><time>2026-04-26T10:04:42.999Z</time></trkpt><trkpt lat="44.92344101213734" lon="9.389944673235302"><ele>455.5</ele><time>2026-04-26T10:04:43.999Z</time></trkpt><trkpt lat="44.92356648931993" lon="9.389975082460245"><ele>453.75</ele><time>2026-04-26T10:04:44.999Z</time></trkpt><trkpt lat="44.923700441312974" lon="9.389996448597465"><ele>452.0</ele><time>2026-04-26T10:04:45.999Z</time></trkpt><trkpt lat="44.923837896475725" lon="9.390020551957633"><ele>452.0</ele><time>2026-04-26T10:04:46.999Z</time></trkpt><trkpt lat="44.92398305348202" lon="9.390045426419107"><ele>452.0</ele><time>2026-04-26T10:04:47.999Z</time></trkpt><trkpt lat="44.924115910173796" lon="9.390042748102266"><ele>452.0</ele><time>2026-04-26T10:04:48.999Z</time></trkpt><trkpt lat="44.92424135730486" lon="9.390061479371461"><ele>452.0</ele><time>2026-04-26T10:04:49.999Z</time></trkpt><trkpt lat="44.92436711030877" lon="9.390075786034263"><ele>449.25</ele><time>2026-04-26T10:04:50.999Z</time></trkpt><trkpt lat="44.92449984785496" lon="9.390095144595627"><ele>446.5</ele><time>2026-04-26T10:04:51.999Z</time></trkpt><trkpt lat="44.924618598329715" lon="9.390134241616837"><ele>443.75</ele><time>2026-04-26T10:04:52.999Z</time></trkpt><trkpt lat="44.92473194440959" lon="9.390181759303962"><ele>441.0</ele><time>2026-04-26T10:04:53.999Z</time></trkpt><trkpt lat="44.924837259435954" lon="9.390222800519686"><ele>441.0</ele><time>2026-04-26T10:04:54.999Z</time></trkpt><trkpt lat="44.92493202144553" lon="9.390277549653543"><ele>441.0</ele><time>2026-04-26T10:04:55.999Z</time></trkpt><trkpt lat="44.92502129850209" lon="9.390354251529812"><ele>441.0</ele><time>2026-04-26T10:04:56.999Z</time></trkpt><trkpt lat="44.92508787080834" lon="9.390476133899096"><ele>441.0</ele><time>2026-04-26T10:04:57.999Z</time></trkpt><trkpt lat="44.925166195701365" lon="9.390595760217325"><ele>441.0</ele><time>2026-04-26T10:04:58.999Z</time></trkpt><trkpt lat="44.925252273524094" lon="9.390698558640349"><ele>440.25</ele><time>2026-04-26T10:04:59.999Z</time></trkpt><trkpt lat="44.925337599815" lon="9.390822497787331"><ele>439.5</ele><time>2026-04-26T10:05:00.999Z</time></trkpt><trkpt lat="44.92544303064755" lon="9.390930279802728"><ele>438.75</ele><time>2026-04-26T10:05:01.999Z</time></trkpt><trkpt lat="44.925575370232465" lon="9.391013060906026"><ele>438.0</ele><time>2026-04-26T10:05:02.999Z</time></trkpt><trkpt lat="44.92572158592801" lon="9.391056232322313"><ele>438.0</ele><time>2026-04-26T10:05:03.999Z</time></trkpt><trkpt lat="44.925861963137805" lon="9.391123451407585"><ele>438.0</ele><time>2026-04-26T10:05:04.999Z</time></trkpt><trkpt lat="44.92601291531949" lon="9.391175437485236"><ele>438.0</ele><time>2026-04-26T10:05:05.999Z</time></trkpt><trkpt lat="44.92616973700812" lon="9.391238980135832"><ele>438.0</ele><time>2026-04-26T10:05:06.999Z</time></trkpt><trkpt lat="44.92631354232112" lon="9.39128221939036"><ele>438.0</ele><time>2026-04-26T10:05:07.999Z</time></trkpt><trkpt lat="44.92644779262803" lon="9.391345892416647"><ele>438.0</ele><time>2026-04-26T10:05:08.998Z</time></trkpt><trkpt lat="44.92658330572599" lon="9.391403031596614"><ele>438.0</ele><time>2026-04-26T10:05:09.998Z</time></trkpt><trkpt lat="44.92671819755262" lon="9.391454514371674"><ele>437.25</ele><time>2026-04-26T10:05:10.998Z</time></trkpt><trkpt lat="44.926841991288285" lon="9.39153876353057"><ele>436.5</ele><time>2026-04-26T10:05:11.998Z</time></trkpt><trkpt lat="44.926978639990956" lon="9.391589496374658"><ele>435.75</ele><time>2026-04-26T10:05:12.998Z</time></trkpt><trkpt lat="44.92711325727232" lon="9.391664274914264"><ele>435.0</ele><time>2026-04-26T10:05:13.998Z</time></trkpt><trkpt lat="44.92725646869233" lon="9.391748118110138"><ele>435.0</ele><time>2026-04-26T10:05:14.998Z</time></trkpt><trkpt lat="44.927397724160784" lon="9.391834051356794"><ele>435.0</ele><time>2026-04-26T10:05:15.998Z</time></trkpt><trkpt lat="44.92751466325257" lon="9.391958565732784"><ele>435.0</ele><time>2026-04-26T10:05:16.998Z</time></trkpt><trkpt lat="44.92762951622682" lon="9.392078234637905"><ele>435.0</ele><time>2026-04-26T10:05:17.998Z</time></trkpt><trkpt lat="44.92773741685857" lon="9.392231632161447"><ele>437.66666666666663</ele><time>2026-04-26T10:05:18.998Z</time></trkpt><trkpt lat="44.9278629803741" lon="9.392386876610075"><ele>440.3333333333333</ele><time>2026-04-26T10:05:19.998Z</time></trkpt><trkpt lat="44.927999424067124" lon="9.3925111045442"><ele>443.0</ele><time>2026-04-26T10:05:20.998Z</time></trkpt><trkpt lat="44.92814596293912" lon="9.392625304079212"><ele>443.0</ele><time>2026-04-26T10:05:21.998Z</time></trkpt><trkpt lat="44.928273989803856" lon="9.392752710943284"><ele>443.0</ele><time>2026-04-26T10:05:22.998Z</time></trkpt><trkpt lat="44.92840602668954" lon="9.392879420684245"><ele>443.0</ele><time>2026-04-26T10:05:23.998Z</time></trkpt><trkpt lat="44.92853646606012" lon="9.393033581843703"><ele>445.3333333333333</ele><time>2026-04-26T10:05:24.998Z</time></trkpt><trkpt lat="44.928680832260085" lon="9.393187261403684"><ele>447.66666666666663</ele><time>2026-04-26T10:05:25.998Z</time></trkpt><trkpt lat="44.92881989105414" lon="9.393292996496966"><ele>450.0</ele><time>2026-04-26T10:05:26.998Z</time></trkpt><trkpt lat="44.92895827571982" lon="9.393391365264836"><ele>450.0</ele><time>2026-04-26T10:05:27.998Z</time></trkpt><trkpt lat="44.929140925585955" lon="9.393458210139192"><ele>450.0</ele><time>2026-04-26T10:05:28.998Z</time></trkpt><trkpt lat="44.92932975749627" lon="9.393496736745819"><ele>450.0</ele><time>2026-04-26T10:05:29.998Z</time></trkpt><trkpt lat="44.92949183048694" lon="9.39353433849658"><ele>448.66666666666663</ele><time>2026-04-26T10:05:30.998Z</time></trkpt><trkpt lat="44.92963845827615" lon="9.393588896907804"><ele>447.3333333333333</ele><time>2026-04-26T10:05:31.998Z</time></trkpt><trkpt lat="44.92978776106943" lon="9.393656122907695"><ele>446.0</ele><time>2026-04-26T10:05:32.998Z</time></trkpt><trkpt lat="44.9299287836932" lon="9.393681763561368"><ele>446.0</ele><time>2026-04-26T10:05:33.998Z</time></trkpt><trkpt lat="44.93005653461612" lon="9.3937240832987"><ele>446.0</ele><time>2026-04-26T10:05:34.998Z</time></trkpt><trkpt lat="44.93018098872045" lon="9.393802094707517"><ele>446.0</ele><time>2026-04-26T10:05:35.998Z</time></trkpt><trkpt lat="44.93032474139033" lon="9.393877179390572"><ele>446.0</ele><time>2026-04-26T10:05:36.998Z</time></trkpt><trkpt lat="44.93046154131338" lon="9.393902645664513"><ele>445.0</ele><time>2026-04-26T10:05:37.998Z</time></trkpt><trkpt lat="44.9306011808909" lon="9.393906942439374"><ele>444.0</ele><time>2026-04-26T10:05:38.998Z</time></trkpt><trkpt lat="44.930753440810385" lon="9.39388325736138"><ele>443.0</ele><time>2026-04-26T10:05:39.998Z</time></trkpt><trkpt lat="44.93090755291253" lon="9.393845899482269"><ele>442.0</ele><time>2026-04-26T10:05:40.998Z</time></trkpt><trkpt lat="44.93104402352612" lon="9.39379642921926"><ele>440.0</ele><time>2026-04-26T10:05:41.998Z</time></trkpt><trkpt lat="44.9311720739435" lon="9.393725850016455"><ele>438.0</ele><time>2026-04-26T10:05:42.998Z</time></trkpt><trkpt lat="44.93130090866108" lon="9.393627516967499"><ele>436.0</ele><time>2026-04-26T10:05:43.998Z</time></trkpt><trkpt lat="44.93143210355559" lon="9.393564064752105"><ele>434.0</ele><time>2026-04-26T10:05:44.998Z</time></trkpt><trkpt lat="44.93155448428334" lon="9.393527131053727"><ele>434.0</ele><time>2026-04-26T10:05:45.998Z</time></trkpt><trkpt lat="44.931681168072934" lon="9.393517027024716"><ele>434.0</ele><time>2026-04-26T10:05:46.998Z</time></trkpt><trkpt lat="44.93181732815044" lon="9.39352016321738"><ele>434.0</ele><time>2026-04-26T10:05:47.998Z</time></trkpt><trkpt lat="44.93196260240368" lon="9.393505485162212"><ele>434.0</ele><time>2026-04-26T10:05:48.998Z</time></trkpt><trkpt lat="44.932091576375775" lon="9.393512473841527"><ele>431.0</ele><time>2026-04-26T10:05:49.998Z</time></trkpt><trkpt lat="44.93222408164003" lon="9.393528333681717"><ele>428.0</ele><time>2026-04-26T10:05:50.998Z</time></trkpt><trkpt lat="44.93235668778544" lon="9.393565665734448"><ele>425.0</ele><time>2026-04-26T10:05:51.998Z</time></trkpt><trkpt lat="44.93247856313546" lon="9.393629858583912"><ele>422.0</ele><time>2026-04-26T10:05:52.998Z</time></trkpt><trkpt lat="44.93259540997557" lon="9.393701653655448"><ele>421.0</ele><time>2026-04-26T10:05:53.997Z</time></trkpt><trkpt lat="44.932703277534756" lon="9.393775556629274"><ele>420.0</ele><time>2026-04-26T10:05:55Z</time></trkpt><trkpt lat="44.93281419956823" lon="9.393857666867284"><ele>419.0</ele><time>2026-04-26T10:05:56Z</time></trkpt><trkpt lat="44.93291695803626" lon="9.393936105770877"><ele>418.0</ele><time>2026-04-26T10:05:57Z</time></trkpt><trkpt lat="44.933004026999136" lon="9.39401650625871"><ele>418.0</ele><time>2026-04-26T10:05:58Z</time></trkpt><trkpt lat="44.93309742714288" lon="9.39413142146662"><ele>418.0</ele><time>2026-04-26T10:05:59Z</time></trkpt><trkpt lat="44.93319959366522" lon="9.39424950723113"><ele>418.0</ele><time>2026-04-26T10:06:00Z</time></trkpt><trkpt lat="44.933306565013424" lon="9.39439463425477"><ele>418.0</ele><time>2026-04-26T10:06:01Z</time></trkpt><trkpt lat="44.93340710539656" lon="9.394530380344275"><ele>414.25</ele><time>2026-04-26T10:06:02Z</time></trkpt><trkpt lat="44.933501143500045" lon="9.39465104243936"><ele>410.5</ele><time>2026-04-26T10:06:03Z</time></trkpt><trkpt lat="44.93359617815138" lon="9.39478492404307"><ele>406.75</ele><time>2026-04-26T10:06:04Z</time></trkpt><trkpt lat="44.93366968006345" lon="9.394922758985238"><ele>403.0</ele><time>2026-04-26T10:06:05Z</time></trkpt><trkpt lat="44.93373179218366" lon="9.395081373064576"><ele>403.0</ele><time>2026-04-26T10:06:06Z</time></trkpt><trkpt lat="44.93379992671523" lon="9.39526044861223"><ele>403.0</ele><time>2026-04-26T10:06:07Z</time></trkpt><trkpt lat="44.93386972611175" lon="9.39545354501177"><ele>403.0</ele><time>2026-04-26T10:06:08Z</time></trkpt><trkpt lat="44.93394386972524" lon="9.395649637334316"><ele>402.25</ele><time>2026-04-26T10:06:09Z</time></trkpt><trkpt lat="44.93402426849225" lon="9.395846603937002"><ele>401.5</ele><time>2026-04-26T10:06:10Z</time></trkpt><trkpt lat="44.93409533689849" lon="9.396009049350463"><ele>400.75</ele><time>2026-04-26T10:06:11Z</time></trkpt><trkpt lat="44.934152464011504" lon="9.396161035835217"><ele>400.0</ele><time>2026-04-26T10:06:12Z</time></trkpt><trkpt lat="44.93419677585858" lon="9.396294903564765"><ele>396.0</ele><time>2026-04-26T10:06:13Z</time></trkpt><trkpt lat="44.93423794782379" lon="9.396417326126441"><ele>392.0</ele><time>2026-04-26T10:06:14Z</time></trkpt><trkpt lat="44.93427879807846" lon="9.396542541529293"><ele>388.0</ele><time>2026-04-26T10:06:15Z</time></trkpt><trkpt lat="44.9343557030207" lon="9.396638257203906"><ele>384.0</ele><time>2026-04-26T10:06:16Z</time></trkpt><trkpt lat="44.93442917562082" lon="9.396749281358492"><ele>380.0</ele><time>2026-04-26T10:06:17Z</time></trkpt><trkpt lat="44.93450313772689" lon="9.396851160770607"><ele>380.0</ele><time>2026-04-26T10:06:18Z</time></trkpt><trkpt lat="44.93458332993725" lon="9.396950844927042"><ele>380.0</ele><time>2026-04-26T10:06:19Z</time></trkpt><trkpt lat="44.934669985534555" lon="9.397050438088742"><ele>380.0</ele><time>2026-04-26T10:06:20Z</time></trkpt><trkpt lat="44.93476465061885" lon="9.397150623881538"><ele>380.0</ele><time>2026-04-26T10:06:21Z</time></trkpt><trkpt lat="44.93486554034135" lon="9.397247234445596"><ele>381.0</ele><time>2026-04-26T10:06:22Z</time></trkpt><trkpt lat="44.934974110337" lon="9.397339784794713"><ele>382.0</ele><time>2026-04-26T10:06:23Z</time></trkpt><trkpt lat="44.93509522145685" lon="9.397429378404038"><ele>383.0</ele><time>2026-04-26T10:06:24Z</time></trkpt><trkpt lat="44.9352135746999" lon="9.39751803015738"><ele>384.0</ele><time>2026-04-26T10:06:25Z</time></trkpt><trkpt lat="44.9353367900008" lon="9.39760198736145"><ele>379.5</ele><time>2026-04-26T10:06:26Z</time></trkpt><trkpt lat="44.935465522697" lon="9.397676018252259"><ele>375.0</ele><time>2026-04-26T10:06:27Z</time></trkpt><trkpt lat="44.93560265831691" lon="9.397714247068585"><ele>370.5</ele><time>2026-04-26T10:06:28Z</time></trkpt><trkpt lat="44.93573153977049" lon="9.397750239898166"><ele>366.0</ele><time>2026-04-26T10:06:29Z</time></trkpt><trkpt lat="44.935837494366396" lon="9.397827957980976"><ele>361.75</ele><time>2026-04-26T10:06:30Z</time></trkpt><trkpt lat="44.9359562191343" lon="9.397869747848226"><ele>357.5</ele><time>2026-04-26T10:06:30.999Z</time></trkpt><trkpt lat="44.93609066825269" lon="9.397847459070142"><ele>353.25</ele><time>2026-04-26T10:06:31.999Z</time></trkpt><trkpt lat="44.93622674102962" lon="9.397837170936153"><ele>349.0</ele><time>2026-04-26T10:06:32.999Z</time></trkpt><trkpt lat="44.93636221671282" lon="9.397812867002203"><ele>349.0</ele><time>2026-04-26T10:06:33.999Z</time></trkpt><trkpt lat="44.93650022745811" lon="9.397807170941851"><ele>349.0</ele><time>2026-04-26T10:06:34.999Z</time></trkpt><trkpt lat="44.93663448489595" lon="9.397870281612411"><ele>349.0</ele><time>2026-04-26T10:06:35.999Z</time></trkpt><trkpt lat="44.936787903303006" lon="9.397902544155833"><ele>349.0</ele><time>2026-04-26T10:06:36.999Z</time></trkpt><trkpt lat="44.93693594262417" lon="9.397866377843917"><ele>344.75</ele><time>2026-04-26T10:06:37.999Z</time></trkpt><trkpt lat="44.93707715311535" lon="9.397862243798865"><ele>340.5</ele><time>2026-04-26T10:06:38.999Z</time></trkpt><trkpt lat="44.93721420159175" lon="9.397891138052188"><ele>336.25</ele><time>2026-04-26T10:06:39.999Z</time></trkpt><trkpt lat="44.93734466138638" lon="9.397973189469427"><ele>332.0</ele><time>2026-04-26T10:06:40.999Z</time></trkpt><trkpt lat="44.93746400764611" lon="9.398103365327644"><ele>327.6666666666667</ele><time>2026-04-26T10:06:41.999Z</time></trkpt><trkpt lat="44.93761418934391" lon="9.398207014152035"><ele>323.3333333333333</ele><time>2026-04-26T10:06:42.999Z</time></trkpt><trkpt lat="44.937743439735016" lon="9.398312469370628"><ele>319.0</ele><time>2026-04-26T10:06:43.999Z</time></trkpt><trkpt lat="44.93786610798187" lon="9.39841028014333"><ele>319.0</ele><time>2026-04-26T10:06:44.999Z</time></trkpt><trkpt lat="44.937973427833484" lon="9.398517622085398"><ele>319.0</ele><time>2026-04-26T10:06:45.999Z</time></trkpt><trkpt lat="44.9380593279618" lon="9.398657160627735"><ele>319.0</ele><time>2026-04-26T10:06:46.999Z</time></trkpt><trkpt lat="44.938159117045736" lon="9.398767841199232"><ele>319.0</ele><time>2026-04-26T10:06:47.999Z</time></trkpt><trkpt lat="44.938243948636824" lon="9.398884289293006"><ele>319.5</ele><time>2026-04-26T10:06:48.999Z</time></trkpt><trkpt lat="44.93836786712499" lon="9.398974517501118"><ele>320.0</ele><time>2026-04-26T10:06:49.999Z</time></trkpt><trkpt lat="44.938491430553775" lon="9.399073365880655"><ele>320.5</ele><time>2026-04-26T10:06:50.999Z</time></trkpt><trkpt lat="44.93860476150521" lon="9.399178509366841"><ele>321.0</ele><time>2026-04-26T10:06:51.999Z</time></trkpt><trkpt lat="44.938721335264354" lon="9.399292359714641"><ele>318.25</ele><time>2026-04-26T10:06:52.999Z</time></trkpt><trkpt lat="44.938837697221615" lon="9.399396478297433"><ele>315.5</ele><time>2026-04-26T10:06:53.999Z</time></trkpt><trkpt lat="44.93896635895257" lon="9.39951093069463"><ele>312.75</ele><time>2026-04-26T10:06:54.999Z</time></trkpt><trkpt lat="44.939093503496686" lon="9.399632564399559"><ele>310.0</ele><time>2026-04-26T10:06:55.999Z</time></trkpt><trkpt lat="44.939235464504485" lon="9.399759832791478"><ele>303.66666666666663</ele><time>2026-04-26T10:06:56.999Z</time></trkpt><trkpt lat="44.939381253042036" lon="9.399879120565318"><ele>297.3333333333333</ele><time>2026-04-26T10:06:57.999Z</time></trkpt><trkpt lat="44.93952996089208" lon="9.399999816799111"><ele>291.0</ele><time>2026-04-26T10:06:58.999Z</time></trkpt><trkpt lat="44.93968080983719" lon="9.40012288409111"><ele>291.0</ele><time>2026-04-26T10:06:59.999Z</time></trkpt><trkpt lat="44.93983586895454" lon="9.400244551517893"><ele>291.0</ele><time>2026-04-26T10:07:00.999Z</time></trkpt><trkpt lat="44.93998778756643" lon="9.400368232888889"><ele>291.0</ele><time>2026-04-26T10:07:01.999Z</time></trkpt><trkpt lat="44.94013767495268" lon="9.40049850482481"><ele>284.3333333333333</ele><time>2026-04-26T10:07:02.999Z</time></trkpt><trkpt lat="44.94028817116115" lon="9.400638181038813"><ele>277.66666666666663</ele><time>2026-04-26T10:07:03.999Z</time></trkpt><trkpt lat="44.94042661582756" lon="9.400812248257123"><ele>271.0</ele><time>2026-04-26T10:07:04.999Z</time></trkpt><trkpt lat="44.94057588189644" lon="9.400975050371564"><ele>271.0</ele><time>2026-04-26T10:07:05.999Z</time></trkpt><trkpt lat="44.94073360912079" lon="9.40114814898667"><ele>271.0</ele><time>2026-04-26T10:07:06.999Z</time></trkpt><trkpt lat="44.94088676831882" lon="9.40128819699702"><ele>271.0</ele><time>2026-04-26T10:07:07.999Z</time></trkpt><trkpt lat="44.94101492766928" lon="9.401443955405693"><ele>268.0</ele><time>2026-04-26T10:07:08.999Z</time></trkpt><trkpt lat="44.94113403623959" lon="9.401579436817821"><ele>265.0</ele><time>2026-04-26T10:07:09.999Z</time></trkpt><trkpt lat="44.941244407632375" lon="9.40170642645626"><ele>262.0</ele><time>2026-04-26T10:07:10.999Z</time></trkpt><trkpt lat="44.94133507378424" lon="9.40185186424083"><ele>259.0</ele><time>2026-04-26T10:07:11.999Z</time></trkpt><trkpt lat="44.941427261435955" lon="9.401976499890967"><ele>259.0</ele><time>2026-04-26T10:07:12.999Z</time></trkpt><trkpt lat="44.941535819442436" lon="9.40211448378477"><ele>259.0</ele><time>2026-04-26T10:07:13.999Z</time></trkpt><trkpt lat="44.94165337309848" lon="9.402237526737782"><ele>259.0</ele><time>2026-04-26T10:07:14.999Z</time></trkpt><trkpt lat="44.94177857980569" lon="9.40235250060915"><ele>259.0</ele><time>2026-04-26T10:07:15.998Z</time></trkpt><trkpt lat="44.94189677410669" lon="9.402484660514208"><ele>253.75</ele><time>2026-04-26T10:07:16.998Z</time></trkpt><trkpt lat="44.94200547559446" lon="9.40261419738866"><ele>248.5</ele><time>2026-04-26T10:07:17.998Z</time></trkpt><trkpt lat="44.94210861212886" lon="9.402747749936248"><ele>243.25</ele><time>2026-04-26T10:07:18.998Z</time></trkpt><trkpt lat="44.942225917" lon="9.402861894504143"><ele>238.0</ele><time>2026-04-26T10:07:19.998Z</time></trkpt><trkpt lat="44.942356172172424" lon="9.402949178964331"><ele>238.0</ele><time>2026-04-26T10:07:20.998Z</time></trkpt><trkpt lat="44.94248171843794" lon="9.403061443417627"><ele>238.0</ele><time>2026-04-26T10:07:21.998Z</time></trkpt><trkpt lat="44.94262203928353" lon="9.403160742446163"><ele>238.0</ele><time>2026-04-26T10:07:22.998Z</time></trkpt><trkpt lat="44.94277050282866" lon="9.403242380759528"><ele>233.66666666666666</ele><time>2026-04-26T10:07:23.998Z</time></trkpt><trkpt lat="44.942927343940774" lon="9.403292538502292"><ele>229.33333333333331</ele><time>2026-04-26T10:07:24.998Z</time></trkpt><trkpt lat="44.94307396849613" lon="9.40337501463556"><ele>225.0</ele><time>2026-04-26T10:07:25.998Z</time></trkpt><trkpt lat="44.94321044225186" lon="9.40347392074481"><ele>225.0</ele><time>2026-04-26T10:07:26.998Z</time></trkpt><trkpt lat="44.94334172655367" lon="9.403589954775521"><ele>225.0</ele><time>2026-04-26T10:07:27.998Z</time></trkpt><trkpt lat="44.943465830362925" lon="9.403714520717811"><ele>225.0</ele><time>2026-04-26T10:07:28.998Z</time></trkpt><trkpt lat="44.94358382335194" lon="9.403837835719713"><ele>223.5</ele><time>2026-04-26T10:07:29.998Z</time></trkpt><trkpt lat="44.94369579336759" lon="9.40396548445754"><ele>222.0</ele><time>2026-04-26T10:07:30.998Z</time></trkpt><trkpt lat="44.943800995926146" lon="9.404099836617688"><ele>220.5</ele><time>2026-04-26T10:07:31.998Z</time></trkpt><trkpt lat="44.94389373888839" lon="9.404226526323132"><ele>219.0</ele><time>2026-04-26T10:07:32.998Z</time></trkpt><trkpt lat="44.94396788760885" lon="9.404344659505997"><ele>219.0</ele><time>2026-04-26T10:07:33.998Z</time></trkpt><trkpt lat="44.94402726300559" lon="9.40444808783605"><ele>218.99999999999997</ele><time>2026-04-26T10:07:34.998Z</time></trkpt><trkpt lat="44.94410184008376" lon="9.404516304429155"><ele>218.99999999999997</ele><time>2026-04-26T10:07:35.998Z</time></trkpt><trkpt lat="44.944195390711236" lon="9.404555968568397"><ele>219.0</ele><time>2026-04-26T10:07:36.998Z</time></trkpt><trkpt lat="44.94429712708531" lon="9.40455127009825"><ele>219.0</ele><time>2026-04-26T10:07:37.998Z</time></trkpt><trkpt lat="44.94440260096632" lon="9.404566418851138"><ele>216.25</ele><time>2026-04-26T10:07:38.998Z</time></trkpt><trkpt lat="44.94450846599515" lon="9.40455269296804"><ele>213.5</ele><time>2026-04-26T10:07:39.998Z</time></trkpt><trkpt lat="44.94461792190177" lon="9.404536858320947"><ele>210.75</ele><time>2026-04-26T10:07:40.998Z</time></trkpt><trkpt lat="44.94473355815948" lon="9.404520129567784"><ele>208.0</ele><time>2026-04-26T10:07:41.998Z</time></trkpt><trkpt lat="44.9448504351875" lon="9.404482001397065"><ele>208.0</ele><time>2026-04-26T10:07:42.998Z</time></trkpt><trkpt lat="44.944979741345335" lon="9.404464041737508"><ele>208.0</ele><time>2026-04-26T10:07:43.998Z</time></trkpt><trkpt lat="44.94510656523848" lon="9.404457030572889"><ele>208.0</ele><time>2026-04-26T10:07:44.998Z</time></trkpt><trkpt lat="44.94523657130291" lon="9.40446169057775"><ele>208.0</ele><time>2026-04-26T10:07:45.998Z</time></trkpt><trkpt lat="44.94538121793709" lon="9.404450037962995"><ele>205.8</ele><time>2026-04-26T10:07:46.998Z</time></trkpt><trkpt lat="44.94551052467592" lon="9.404435946039747"><ele>203.60000000000002</ele><time>2026-04-26T10:07:47.998Z</time></trkpt><trkpt lat="44.945625557710216" lon="9.404435175217028"><ele>201.39999999999998</ele><time>2026-04-26T10:07:48.998Z</time></trkpt><trkpt lat="44.945723360795554" lon="9.404436189697321"><ele>199.2</ele><time>2026-04-26T10:07:49.998Z</time></trkpt><trkpt lat="44.94581063859169" lon="9.404435584926567"><ele>197.0</ele><time>2026-04-26T10:07:50.998Z</time></trkpt><trkpt lat="44.945880713273894" lon="9.404438816590527"><ele>196.50000000000003</ele><time>2026-04-26T10:07:51.998Z</time></trkpt><trkpt lat="44.945946414557056" lon="9.404446261781231"><ele>196.0</ele><time>2026-04-26T10:07:52.998Z</time></trkpt><trkpt lat="44.94603526195759" lon="9.404463986235907"><ele>195.5</ele><time>2026-04-26T10:07:54.998Z</time></trkpt><trkpt lat="44.94611694062236" lon="9.404524153919548"><ele>195.0</ele><time>2026-04-26T10:08:42.999Z</time></trkpt><trkpt lat="44.94609511008897" lon="9.404682755981929"><ele>194.50000000000003</ele><time>2026-04-26T10:08:46.999Z</time></trkpt><trkpt lat="44.94609796859603" lon="9.404790841105356"><ele>194.0</ele><time>2026-04-26T10:08:47.999Z</time></trkpt><trkpt lat="44.94610204546491" lon="9.404945332171561"><ele>194.0</ele><time>2026-04-26T10:08:48.999Z</time></trkpt><trkpt lat="44.9461027966334" lon="9.405100634310283"><ele>194.0</ele><time>2026-04-26T10:08:49.999Z</time></trkpt><trkpt lat="44.94610275951463" lon="9.405278102552586"><ele>194.0</ele><time>2026-04-26T10:08:50.999Z</time></trkpt><trkpt lat="44.94609941945621" lon="9.405471371380147"><ele>194.0</ele><time>2026-04-26T10:08:51.999Z</time></trkpt><trkpt lat="44.946093928213905" lon="9.405635853110214"><ele>194.0</ele><time>2026-04-26T10:08:52.999Z</time></trkpt><trkpt lat="44.94609724927959" lon="9.405806979362696"><ele>194.0</ele><time>2026-04-26T10:08:53.999Z</time></trkpt><trkpt lat="44.94608999010866" lon="9.405949983511583"><ele>194.0</ele><time>2026-04-26T10:08:54.999Z</time></trkpt><trkpt lat="44.946091222984606" lon="9.406099833725165"><ele>194.0</ele><time>2026-04-26T10:08:55.999Z</time></trkpt><trkpt lat="44.94608762004744" lon="9.406228868222176"><ele>194.0</ele><time>2026-04-26T10:08:56.999Z</time></trkpt><trkpt lat="44.946085447928176" lon="9.406328697578337"><ele>193.83333333333334</ele><time>2026-04-26T10:08:57.999Z</time></trkpt><trkpt lat="44.94607983583637" lon="9.406512392234738"><ele>193.66666666666669</ele><time>2026-04-26T10:08:59.999Z</time></trkpt><trkpt lat="44.94608155493325" lon="9.406618973187042"><ele>193.5</ele><time>2026-04-26T10:09:00.999Z</time></trkpt><trkpt lat="44.946093183080606" lon="9.406711754996277"><ele>193.33333333333331</ele><time>2026-04-26T10:09:01.999Z</time></trkpt><trkpt lat="44.946120128478505" lon="9.406798120616081"><ele>193.16666666666666</ele><time>2026-04-26T10:09:02.999Z</time></trkpt><trkpt lat="44.946202525004686" lon="9.406898033866044"><ele>193.0</ele><time>2026-04-26T10:09:04.999Z</time></trkpt><trkpt lat="44.946269095251296" lon="9.406934825072941"><ele>193.0</ele><time>2026-04-26T10:09:05.999Z</time></trkpt><trkpt lat="44.94633764809735" lon="9.406985908135935"><ele>193.0</ele><time>2026-04-26T10:09:06.999Z</time></trkpt><trkpt lat="44.94640568259583" lon="9.407032749435466"><ele>193.0</ele><time>2026-04-26T10:09:07.999Z</time></trkpt><trkpt lat="44.94647048603525" lon="9.40710668120966"><ele>193.0</ele><time>2026-04-26T10:09:09.999Z</time></trkpt><trkpt lat="44.946458275889285" lon="9.40727888044162"><ele>193.0</ele><time>2026-04-26T10:09:10.999Z</time></trkpt><trkpt lat="44.946409316617626" lon="9.407425213125492"><ele>192.0</ele><time>2026-04-26T10:09:11.999Z</time></trkpt><trkpt lat="44.94633872198013" lon="9.407570292083161"><ele>191.0</ele><time>2026-04-26T10:09:12.999Z</time></trkpt><trkpt lat="44.94626498388255" lon="9.407676782548268"><ele>190.0</ele><time>2026-04-26T10:09:13.999Z</time></trkpt><trkpt lat="44.94619001626687" lon="9.407796086234008"><ele>189.0</ele><time>2026-04-26T10:09:14.999Z</time></trkpt><trkpt lat="44.94611386881704" lon="9.407918697485009"><ele>188.6</ele><time>2026-04-26T10:09:15.999Z</time></trkpt><trkpt lat="44.94604650801287" lon="9.408046179004957"><ele>188.2</ele><time>2026-04-26T10:09:16.999Z</time></trkpt><trkpt lat="44.94597534481852" lon="9.408165490061325"><ele>187.79999999999998</ele><time>2026-04-26T10:09:17.999Z</time></trkpt><trkpt lat="44.94590223136045" lon="9.408284811408567"><ele>187.39999999999998</ele><time>2026-04-26T10:09:18.999Z</time></trkpt><trkpt lat="44.945831860124706" lon="9.408399164566344"><ele>187.0</ele><time>2026-04-26T10:09:19.999Z</time></trkpt><trkpt lat="44.94576909644977" lon="9.40851246955264"><ele>187.0</ele><time>2026-04-26T10:09:20.999Z</time></trkpt><trkpt lat="44.94570292079559" lon="9.408630820440552"><ele>187.0</ele><time>2026-04-26T10:09:21.999Z</time></trkpt><trkpt lat="44.94562759194047" lon="9.40875157946917"><ele>187.0</ele><time>2026-04-26T10:09:22.998Z</time></trkpt><trkpt lat="44.945553047294226" lon="9.408875034861095"><ele>187.0</ele><time>2026-04-26T10:09:23.998Z</time></trkpt><trkpt lat="44.94546639524959" lon="9.409018002748711"><ele>186.25</ele><time>2026-04-26T10:09:24.998Z</time></trkpt><trkpt lat="44.94538510518705" lon="9.409160518043505"><ele>185.5</ele><time>2026-04-26T10:09:25.998Z</time></trkpt><trkpt lat="44.94528960289205" lon="9.409297487222599"><ele>184.75</ele><time>2026-04-26T10:09:26.998Z</time></trkpt><trkpt lat="44.945200401238786" lon="9.409427772240639"><ele>184.0</ele><time>2026-04-26T10:09:27.998Z</time></trkpt><trkpt lat="44.94511887258969" lon="9.409593194387977"><ele>184.25</ele><time>2026-04-26T10:09:28.998Z</time></trkpt><trkpt lat="44.94502558309696" lon="9.409737683235305"><ele>184.5</ele><time>2026-04-26T10:09:29.998Z</time></trkpt><trkpt lat="44.94493892802377" lon="9.409885380855947"><ele>184.75</ele><time>2026-04-26T10:09:30.998Z</time></trkpt><trkpt lat="44.944853523624744" lon="9.41003753205454"><ele>185.0</ele><time>2026-04-26T10:09:31.998Z</time></trkpt><trkpt lat="44.94478312500625" lon="9.410192425013628"><ele>185.0</ele><time>2026-04-26T10:09:32.998Z</time></trkpt><trkpt lat="44.944727378761705" lon="9.410346812798386"><ele>185.0</ele><time>2026-04-26T10:09:33.998Z</time></trkpt><trkpt lat="44.94468006524615" lon="9.410492056198054"><ele>185.0</ele><time>2026-04-26T10:09:34.998Z</time></trkpt><trkpt lat="44.944637111703685" lon="9.410623591166203"><ele>185.0</ele><time>2026-04-26T10:09:35.998Z</time></trkpt><trkpt lat="44.94460391835915" lon="9.410755943754744"><ele>185.0</ele><time>2026-04-26T10:09:36.998Z</time></trkpt><trkpt lat="44.944582392027606" lon="9.410921557124285"><ele>184.75</ele><time>2026-04-26T10:09:37.998Z</time></trkpt><trkpt lat="44.94455169676369" lon="9.41109593649316"><ele>184.5</ele><time>2026-04-26T10:09:38.998Z</time></trkpt><trkpt lat="44.944513513067" lon="9.411268057904131"><ele>184.25</ele><time>2026-04-26T10:09:39.998Z</time></trkpt><trkpt lat="44.944470589364315" lon="9.411446327178577"><ele>184.0</ele><time>2026-04-26T10:09:40.998Z</time></trkpt><trkpt lat="44.944423709992904" lon="9.411627914380542"><ele>182.75</ele><time>2026-04-26T10:09:41.998Z</time></trkpt><trkpt lat="44.94437926558661" lon="9.411824485550053"><ele>181.5</ele><time>2026-04-26T10:09:42.998Z</time></trkpt><trkpt lat="44.94432856103294" lon="9.41201770001141"><ele>180.25</ele><time>2026-04-26T10:09:43.998Z</time></trkpt><trkpt lat="44.944275755783636" lon="9.412217886817155"><ele>179.0</ele><time>2026-04-26T10:09:44.998Z</time></trkpt><trkpt lat="44.94422568931665" lon="9.412415141853204"><ele>179.5</ele><time>2026-04-26T10:09:45.998Z</time></trkpt><trkpt lat="44.944176561148645" lon="9.412607065235715"><ele>180.0</ele><time>2026-04-26T10:09:46.998Z</time></trkpt><trkpt lat="44.94413036600724" lon="9.412808284218942"><ele>180.5</ele><time>2026-04-26T10:09:47.998Z</time></trkpt><trkpt lat="44.94408374794984" lon="9.413008009622152"><ele>181.0</ele><time>2026-04-26T10:09:48.998Z</time></trkpt><trkpt lat="44.94403604027195" lon="9.41320138168978"><ele>181.0</ele><time>2026-04-26T10:09:49.998Z</time></trkpt><trkpt lat="44.94398923611509" lon="9.413389597282324"><ele>181.0</ele><time>2026-04-26T10:09:50.998Z</time></trkpt><trkpt lat="44.94394324875232" lon="9.41357514952028"><ele>181.0</ele><time>2026-04-26T10:09:51.998Z</time></trkpt><trkpt lat="44.94390270543339" lon="9.41375748900402"><ele>181.0</ele><time>2026-04-26T10:09:52.998Z</time></trkpt><trkpt lat="44.94387149026076" lon="9.41394367460805"><ele>181.0</ele><time>2026-04-26T10:09:53.998Z</time></trkpt><trkpt lat="44.94384898507309" lon="9.414128613873277"><ele>181.0</ele><time>2026-04-26T10:09:54.998Z</time></trkpt><trkpt lat="44.9438439747411" lon="9.41431759471622"><ele>181.0</ele><time>2026-04-26T10:09:55.998Z</time></trkpt><trkpt lat="44.943846586409265" lon="9.41449753077612"><ele>181.0</ele><time>2026-04-26T10:09:56.998Z</time></trkpt><trkpt lat="44.94386246578712" lon="9.414673232715552"><ele>181.25</ele><time>2026-04-26T10:09:57.998Z</time></trkpt><trkpt lat="44.94389333578359" lon="9.414848395247375"><ele>181.5</ele><time>2026-04-26T10:09:58.998Z</time></trkpt><trkpt lat="44.94394251624289" lon="9.41503093273287"><ele>181.75</ele><time>2026-04-26T10:09:59.998Z</time></trkpt><trkpt lat="44.944001793386875" lon="9.415211026690502"><ele>182.0</ele><time>2026-04-26T10:10:00.998Z</time></trkpt><trkpt lat="44.944048403210225" lon="9.415410883276174"><ele>181.66666666666666</ele><time>2026-04-26T10:10:01.998Z</time></trkpt><trkpt lat="44.94411657431205" lon="9.415607655906683"><ele>181.33333333333334</ele><time>2026-04-26T10:10:02.998Z</time></trkpt><trkpt lat="44.94418396654879" lon="9.415804159860867"><ele>181.0</ele><time>2026-04-26T10:10:03.998Z</time></trkpt><trkpt lat="44.94425202284569" lon="9.416002600170653"><ele>180.25</ele><time>2026-04-26T10:10:04.998Z</time></trkpt><trkpt lat="44.944317274169414" lon="9.416190704364519"><ele>179.5</ele><time>2026-04-26T10:10:05.998Z</time></trkpt><trkpt lat="44.94433066077573" lon="9.41640067212553"><ele>178.75</ele><time>2026-04-26T10:10:07Z</time></trkpt><trkpt lat="44.94428928329373" lon="9.416606028611348"><ele>178.0</ele><time>2026-04-26T10:10:08Z</time></trkpt><trkpt lat="44.94421112773054" lon="9.416795484371983"><ele>178.0</ele><time>2026-04-26T10:10:09Z</time></trkpt><trkpt lat="44.94412103169662" lon="9.416964221169852"><ele>178.0</ele><time>2026-04-26T10:10:10Z</time></trkpt><trkpt lat="44.944037102492814" lon="9.417146582268764"><ele>178.0</ele><time>2026-04-26T10:10:11Z</time></trkpt><trkpt lat="44.94395147892485" lon="9.417328891789412"><ele>177.33333333333334</ele><time>2026-04-26T10:10:12Z</time></trkpt><trkpt lat="44.943867710387806" lon="9.417515311978693"><ele>176.66666666666666</ele><time>2026-04-26T10:10:13Z</time></trkpt><trkpt lat="44.94378414045505" lon="9.41769846480034"><ele>176.0</ele><time>2026-04-26T10:10:14Z</time></trkpt><trkpt lat="44.9436978311322" lon="9.417878072002166"><ele>175.75</ele><time>2026-04-26T10:10:15Z</time></trkpt><trkpt lat="44.94361947709285" lon="9.418045515167522"><ele>175.5</ele><time>2026-04-26T10:10:16Z</time></trkpt><trkpt lat="44.94355438971298" lon="9.418209437558389"><ele>175.25</ele><time>2026-04-26T10:10:17Z</time></trkpt><trkpt lat="44.943508996496696" lon="9.418383445102613"><ele>175.0</ele><time>2026-04-26T10:10:18Z</time></trkpt><trkpt lat="44.94349871955199" lon="9.418576388712006"><ele>175.0</ele><time>2026-04-26T10:10:19Z</time></trkpt><trkpt lat="44.94352948228806" lon="9.418773550493452"><ele>175.0</ele><time>2026-04-26T10:10:20Z</time></trkpt><trkpt lat="44.94356720293092" lon="9.418944758278114"><ele>175.0</ele><time>2026-04-26T10:10:21Z</time></trkpt><trkpt lat="44.943639436075244" lon="9.41909313625367"><ele>175.0</ele><time>2026-04-26T10:10:22Z</time></trkpt><trkpt lat="44.94373270481134" lon="9.4192218020962"><ele>176.0</ele><time>2026-04-26T10:10:23Z</time></trkpt><trkpt lat="44.94383815336331" lon="9.419342323027445"><ele>177.0</ele><time>2026-04-26T10:10:24Z</time></trkpt><trkpt lat="44.94395083444457" lon="9.419458795804243"><ele>178.0</ele><time>2026-04-26T10:10:25Z</time></trkpt><trkpt lat="44.944070072409176" lon="9.419579369300738"><ele>179.0</ele><time>2026-04-26T10:10:26Z</time></trkpt><trkpt lat="44.944181171778304" lon="9.41971454013597"><ele>178.25</ele><time>2026-04-26T10:10:27Z</time></trkpt><trkpt lat="44.94427936433656" lon="9.419862323815504"><ele>177.5</ele><time>2026-04-26T10:10:28Z</time></trkpt><trkpt lat="44.94436471088837" lon="9.42001159632871"><ele>176.75</ele><time>2026-04-26T10:10:29Z</time></trkpt><trkpt lat="44.94440009238722" lon="9.420202859398552"><ele>176.0</ele><time>2026-04-26T10:10:30Z</time></trkpt><trkpt lat="44.94444595514156" lon="9.420371012968381"><ele>176.60000000000002</ele><time>2026-04-26T10:10:31Z</time></trkpt><trkpt lat="44.9445051425634" lon="9.420515146241069"><ele>177.2</ele><time>2026-04-26T10:10:32Z</time></trkpt><trkpt lat="44.94455564754608" lon="9.420636276911821"><ele>177.8</ele><time>2026-04-26T10:10:33Z</time></trkpt><trkpt lat="44.94458928952065" lon="9.420726971254908"><ele>178.39999999999998</ele><time>2026-04-26T10:10:34Z</time></trkpt><trkpt lat="44.94459508509611" lon="9.42082962949746"><ele>179.0</ele><time>2026-04-26T10:10:35Z</time></trkpt><trkpt lat="44.94456572953862" lon="9.420948616592266"><ele>179.0</ele><time>2026-04-26T10:10:36Z</time></trkpt><trkpt lat="44.94450704332387" lon="9.421069501153807"><ele>179.0</ele><time>2026-04-26T10:10:37Z</time></trkpt><trkpt lat="44.944442404957776" lon="9.421194957452649"><ele>179.0</ele><time>2026-04-26T10:10:38Z</time></trkpt><trkpt lat="44.944371961208745" lon="9.421339933445923"><ele>179.0</ele><time>2026-04-26T10:10:39Z</time></trkpt><trkpt lat="44.94430732329343" lon="9.42148214797468"><ele>179.6</ele><time>2026-04-26T10:10:40Z</time></trkpt><trkpt lat="44.94422264716287" lon="9.421602138248769"><ele>180.2</ele><time>2026-04-26T10:10:41Z</time></trkpt><trkpt lat="44.94411856548157" lon="9.421690312364738"><ele>180.79999999999998</ele><time>2026-04-26T10:10:42Z</time></trkpt><trkpt lat="44.944022689558864" lon="9.421747651332991"><ele>181.39999999999998</ele><time>2026-04-26T10:10:42.999Z</time></trkpt><trkpt lat="44.94393713314398" lon="9.421764181024441"><ele>182.0</ele><time>2026-04-26T10:10:43.999Z</time></trkpt><trkpt lat="44.9438639638822" lon="9.421720724308251"><ele>184.0</ele><time>2026-04-26T10:10:44.999Z</time></trkpt><trkpt lat="44.94379082258768" lon="9.421615964498104"><ele>186.0</ele><time>2026-04-26T10:10:45.999Z</time></trkpt><trkpt lat="44.94371624524852" lon="9.421508076947173"><ele>188.0</ele><time>2026-04-26T10:10:46.999Z</time></trkpt><trkpt lat="44.94363976118737" lon="9.421408716478302"><ele>190.0</ele><time>2026-04-26T10:10:47.999Z</time></trkpt><trkpt lat="44.943552469345605" lon="9.421338236427168"><ele>192.0</ele><time>2026-04-26T10:10:48.999Z</time></trkpt><trkpt lat="44.94348328276038" lon="9.421285901266259"><ele>192.0</ele><time>2026-04-26T10:10:49.999Z</time></trkpt><trkpt lat="44.94339938328451" lon="9.421228466884436"><ele>192.0</ele><time>2026-04-26T10:10:51.999Z</time></trkpt><trkpt lat="44.943397549576176" lon="9.421097704045115"><ele>192.0</ele><time>2026-04-26T10:10:53.999Z</time></trkpt><trkpt lat="44.94337432543312" lon="9.42099439331619"><ele>192.0</ele><time>2026-04-26T10:10:54.999Z</time></trkpt><trkpt lat="44.94335593301307" lon="9.420869230565378"><ele>192.0</ele><time>2026-04-26T10:10:55.999Z</time></trkpt><trkpt lat="44.94332980308626" lon="9.420735329133958"><ele>193.5</ele><time>2026-04-26T10:10:56.999Z</time></trkpt><trkpt lat="44.94329102837984" lon="9.420608667711477"><ele>195.0</ele><time>2026-04-26T10:10:57.999Z</time></trkpt><trkpt lat="44.94326296183594" lon="9.420512230801041"><ele>196.5</ele><time>2026-04-26T10:10:58.999Z</time></trkpt><trkpt lat="44.94319425264404" lon="9.4204570418606"><ele>198.0</ele><time>2026-04-26T10:10:59.999Z</time></trkpt><trkpt lat="44.94310066138591" lon="9.42045890351914"><ele>199.5</ele><time>2026-04-26T10:11:00.999Z</time></trkpt><trkpt lat="44.94301006850675" lon="9.420447934059046"><ele>201.0</ele><time>2026-04-26T10:11:01.999Z</time></trkpt><trkpt lat="44.94294030484019" lon="9.420511266995364"><ele>206.0</ele><time>2026-04-26T10:11:02.999Z</time></trkpt><trkpt lat="44.942843903763496" lon="9.420555159906115"><ele>206.0</ele><time>2026-04-26T10:11:04.999Z</time></trkpt><trkpt lat="44.942783227452225" lon="9.420396775977972"><ele>201.0</ele><time>2026-04-26T10:11:05.999Z</time></trkpt></trkseg></trk></gpx>